<?xml version="1.0" encoding="UTF-8" standalone="no" ?>
<gpx xmlns="http://www.topografix.com/GPX/1/1" xmlns:xsi="http://www.w3.org/2001/XMLSchema-instance" xsi:schemaLocation="http://www.topografix.com/GPX/1/1 http://www.topografix.com/GPX/1/1/gpx.xsd" version="1.1" creator="VisuGPX - https://www.visugpx.com">
  <metadata>
    <name>Col de Pierrefitte (au dessus de Luz Saint Sauveur)</name>
    <desc><![CDATA[Très belle grimpette à faire habituellement beaucoup plus tard dans la saison. Vingt minutes de marche tout d'abord puis les couteaux sont mis assez rapidement. Neige dure au début de la descente puis très, très molle.]]></desc>
  </metadata>
  <trk>
    <name><![CDATA[Col de Pierrefitte (au dessus de Luz Saint Sauveur)_1]]></name>
    <trkseg>
      <trkpt lat="42.8518" lon="0.01689">
        <ele>1493</ele>
        <time>2012-12-22T09:00:53Z</time>
      </trkpt>
      <trkpt lat="42.85173" lon="0.01725">
        <ele>1498</ele>
        <time>2012-12-22T09:01:21Z</time>
      </trkpt>
      <trkpt lat="42.85173" lon="0.01726">
        <ele>1498</ele>
        <time>2012-12-22T09:01:22Z</time>
      </trkpt>
      <trkpt lat="42.85173" lon="0.01728">
        <ele>1498</ele>
        <time>2012-12-22T09:01:23Z</time>
      </trkpt>
      <trkpt lat="42.85173" lon="0.01729">
        <ele>1498</ele>
        <time>2012-12-22T09:01:24Z</time>
      </trkpt>
      <trkpt lat="42.85173" lon="0.01731">
        <ele>1498</ele>
        <time>2012-12-22T09:01:25Z</time>
      </trkpt>
      <trkpt lat="42.85174" lon="0.01733">
        <ele>1498</ele>
        <time>2012-12-22T09:01:26Z</time>
      </trkpt>
      <trkpt lat="42.85174" lon="0.01734">
        <ele>1498</ele>
        <time>2012-12-22T09:01:27Z</time>
      </trkpt>
      <trkpt lat="42.85175" lon="0.01737">
        <ele>1498</ele>
        <time>2012-12-22T09:01:29Z</time>
      </trkpt>
      <trkpt lat="42.85175" lon="0.01738">
        <ele>1498</ele>
        <time>2012-12-22T09:01:30Z</time>
      </trkpt>
      <trkpt lat="42.85176" lon="0.01741">
        <ele>1498</ele>
        <time>2012-12-22T09:01:32Z</time>
      </trkpt>
      <trkpt lat="42.85177" lon="0.01743">
        <ele>1498</ele>
        <time>2012-12-22T09:01:34Z</time>
      </trkpt>
      <trkpt lat="42.85178" lon="0.01746">
        <ele>1498</ele>
        <time>2012-12-22T09:01:36Z</time>
      </trkpt>
      <trkpt lat="42.85178" lon="0.01747">
        <ele>1498</ele>
        <time>2012-12-22T09:01:37Z</time>
      </trkpt>
      <trkpt lat="42.85179" lon="0.0175">
        <ele>1498</ele>
        <time>2012-12-22T09:01:39Z</time>
      </trkpt>
      <trkpt lat="42.85179" lon="0.01752">
        <ele>1497</ele>
        <time>2012-12-22T09:01:40Z</time>
      </trkpt>
      <trkpt lat="42.8518" lon="0.01753">
        <ele>1497</ele>
        <time>2012-12-22T09:01:41Z</time>
      </trkpt>
      <trkpt lat="42.85181" lon="0.01756">
        <ele>1497</ele>
        <time>2012-12-22T09:01:43Z</time>
      </trkpt>
      <trkpt lat="42.85182" lon="0.01758">
        <ele>1497</ele>
        <time>2012-12-22T09:01:45Z</time>
      </trkpt>
      <trkpt lat="42.85183" lon="0.01761">
        <ele>1497</ele>
        <time>2012-12-22T09:01:47Z</time>
      </trkpt>
      <trkpt lat="42.85184" lon="0.01762">
        <ele>1497</ele>
        <time>2012-12-22T09:01:48Z</time>
      </trkpt>
      <trkpt lat="42.85184" lon="0.01764">
        <ele>1497</ele>
        <time>2012-12-22T09:01:49Z</time>
      </trkpt>
      <trkpt lat="42.85185" lon="0.01766">
        <ele>1497</ele>
        <time>2012-12-22T09:01:50Z</time>
      </trkpt>
      <trkpt lat="42.85185" lon="0.01767">
        <ele>1497</ele>
        <time>2012-12-22T09:01:51Z</time>
      </trkpt>
      <trkpt lat="42.85186" lon="0.01769">
        <ele>1497</ele>
        <time>2012-12-22T09:01:52Z</time>
      </trkpt>
      <trkpt lat="42.85186" lon="0.01771">
        <ele>1497</ele>
        <time>2012-12-22T09:01:53Z</time>
      </trkpt>
      <trkpt lat="42.85186" lon="0.01772">
        <ele>1497</ele>
        <time>2012-12-22T09:01:54Z</time>
      </trkpt>
      <trkpt lat="42.85186" lon="0.01774">
        <ele>1497</ele>
        <time>2012-12-22T09:01:55Z</time>
      </trkpt>
      <trkpt lat="42.85187" lon="0.01776">
        <ele>1497</ele>
        <time>2012-12-22T09:01:56Z</time>
      </trkpt>
      <trkpt lat="42.85187" lon="0.01778">
        <ele>1497</ele>
        <time>2012-12-22T09:01:57Z</time>
      </trkpt>
      <trkpt lat="42.85187" lon="0.0178">
        <ele>1497</ele>
        <time>2012-12-22T09:01:58Z</time>
      </trkpt>
      <trkpt lat="42.85188" lon="0.01781">
        <ele>1497</ele>
        <time>2012-12-22T09:01:59Z</time>
      </trkpt>
      <trkpt lat="42.85188" lon="0.01782">
        <ele>1497</ele>
        <time>2012-12-22T09:02:00Z</time>
      </trkpt>
      <trkpt lat="42.85188" lon="0.01784">
        <ele>1497</ele>
        <time>2012-12-22T09:02:01Z</time>
      </trkpt>
      <trkpt lat="42.85189" lon="0.01786">
        <ele>1497</ele>
        <time>2012-12-22T09:02:02Z</time>
      </trkpt>
      <trkpt lat="42.85189" lon="0.01788">
        <ele>1497</ele>
        <time>2012-12-22T09:02:03Z</time>
      </trkpt>
      <trkpt lat="42.85189" lon="0.01789">
        <ele>1497</ele>
        <time>2012-12-22T09:02:04Z</time>
      </trkpt>
      <trkpt lat="42.8519" lon="0.01791">
        <ele>1497</ele>
        <time>2012-12-22T09:02:05Z</time>
      </trkpt>
      <trkpt lat="42.8519" lon="0.01792">
        <ele>1497</ele>
        <time>2012-12-22T09:02:06Z</time>
      </trkpt>
      <trkpt lat="42.85191" lon="0.01794">
        <ele>1497</ele>
        <time>2012-12-22T09:02:07Z</time>
      </trkpt>
      <trkpt lat="42.85191" lon="0.01796">
        <ele>1497</ele>
        <time>2012-12-22T09:02:08Z</time>
      </trkpt>
      <trkpt lat="42.85192" lon="0.01797">
        <ele>1497</ele>
        <time>2012-12-22T09:02:09Z</time>
      </trkpt>
      <trkpt lat="42.85193" lon="0.018">
        <ele>1497</ele>
        <time>2012-12-22T09:02:11Z</time>
      </trkpt>
      <trkpt lat="42.85193" lon="0.01802">
        <ele>1497</ele>
        <time>2012-12-22T09:02:12Z</time>
      </trkpt>
      <trkpt lat="42.85194" lon="0.01803">
        <ele>1497</ele>
        <time>2012-12-22T09:02:13Z</time>
      </trkpt>
      <trkpt lat="42.85194" lon="0.01805">
        <ele>1497</ele>
        <time>2012-12-22T09:02:14Z</time>
      </trkpt>
      <trkpt lat="42.85194" lon="0.01806">
        <ele>1497</ele>
        <time>2012-12-22T09:02:15Z</time>
      </trkpt>
      <trkpt lat="42.85195" lon="0.01808">
        <ele>1497</ele>
        <time>2012-12-22T09:02:16Z</time>
      </trkpt>
      <trkpt lat="42.85196" lon="0.0181">
        <ele>1497</ele>
        <time>2012-12-22T09:02:17Z</time>
      </trkpt>
      <trkpt lat="42.85196" lon="0.01811">
        <ele>1497</ele>
        <time>2012-12-22T09:02:18Z</time>
      </trkpt>
      <trkpt lat="42.85196" lon="0.01813">
        <ele>1497</ele>
        <time>2012-12-22T09:02:19Z</time>
      </trkpt>
      <trkpt lat="42.85196" lon="0.01815">
        <ele>1497</ele>
        <time>2012-12-22T09:02:20Z</time>
      </trkpt>
      <trkpt lat="42.85197" lon="0.01816">
        <ele>1497</ele>
        <time>2012-12-22T09:02:21Z</time>
      </trkpt>
      <trkpt lat="42.85197" lon="0.01818">
        <ele>1497</ele>
        <time>2012-12-22T09:02:22Z</time>
      </trkpt>
      <trkpt lat="42.85197" lon="0.01819">
        <ele>1497</ele>
        <time>2012-12-22T09:02:23Z</time>
      </trkpt>
      <trkpt lat="42.85197" lon="0.01822">
        <ele>1497</ele>
        <time>2012-12-22T09:02:25Z</time>
      </trkpt>
      <trkpt lat="42.85197" lon="0.01824">
        <ele>1497</ele>
        <time>2012-12-22T09:02:26Z</time>
      </trkpt>
      <trkpt lat="42.85197" lon="0.01825">
        <ele>1497</ele>
        <time>2012-12-22T09:02:27Z</time>
      </trkpt>
      <trkpt lat="42.85197" lon="0.01827">
        <ele>1497</ele>
        <time>2012-12-22T09:02:28Z</time>
      </trkpt>
      <trkpt lat="42.85197" lon="0.01829">
        <ele>1497</ele>
        <time>2012-12-22T09:02:29Z</time>
      </trkpt>
      <trkpt lat="42.85197" lon="0.0183">
        <ele>1497</ele>
        <time>2012-12-22T09:02:30Z</time>
      </trkpt>
      <trkpt lat="42.85196" lon="0.01832">
        <ele>1497</ele>
        <time>2012-12-22T09:02:31Z</time>
      </trkpt>
      <trkpt lat="42.85196" lon="0.01833">
        <ele>1497</ele>
        <time>2012-12-22T09:02:32Z</time>
      </trkpt>
      <trkpt lat="42.85196" lon="0.01835">
        <ele>1497</ele>
        <time>2012-12-22T09:02:33Z</time>
      </trkpt>
      <trkpt lat="42.85196" lon="0.01837">
        <ele>1497</ele>
        <time>2012-12-22T09:02:34Z</time>
      </trkpt>
      <trkpt lat="42.85196" lon="0.01839">
        <ele>1497</ele>
        <time>2012-12-22T09:02:35Z</time>
      </trkpt>
      <trkpt lat="42.85195" lon="0.0184">
        <ele>1497</ele>
        <time>2012-12-22T09:02:36Z</time>
      </trkpt>
      <trkpt lat="42.85195" lon="0.01842">
        <ele>1497</ele>
        <time>2012-12-22T09:02:37Z</time>
      </trkpt>
      <trkpt lat="42.85195" lon="0.01844">
        <ele>1498</ele>
        <time>2012-12-22T09:02:38Z</time>
      </trkpt>
      <trkpt lat="42.85195" lon="0.01845">
        <ele>1498</ele>
        <time>2012-12-22T09:02:39Z</time>
      </trkpt>
      <trkpt lat="42.85194" lon="0.01848">
        <ele>1498</ele>
        <time>2012-12-22T09:02:41Z</time>
      </trkpt>
      <trkpt lat="42.85194" lon="0.0185">
        <ele>1498</ele>
        <time>2012-12-22T09:02:42Z</time>
      </trkpt>
      <trkpt lat="42.85194" lon="0.01852">
        <ele>1498</ele>
        <time>2012-12-22T09:02:43Z</time>
      </trkpt>
      <trkpt lat="42.85193" lon="0.01854">
        <ele>1498</ele>
        <time>2012-12-22T09:02:44Z</time>
      </trkpt>
      <trkpt lat="42.85193" lon="0.01855">
        <ele>1498</ele>
        <time>2012-12-22T09:02:45Z</time>
      </trkpt>
      <trkpt lat="42.85192" lon="0.01857">
        <ele>1498</ele>
        <time>2012-12-22T09:02:46Z</time>
      </trkpt>
      <trkpt lat="42.85192" lon="0.01858">
        <ele>1498</ele>
        <time>2012-12-22T09:02:47Z</time>
      </trkpt>
      <trkpt lat="42.85191" lon="0.0186">
        <ele>1498</ele>
        <time>2012-12-22T09:02:48Z</time>
      </trkpt>
      <trkpt lat="42.8519" lon="0.01862">
        <ele>1498</ele>
        <time>2012-12-22T09:02:50Z</time>
      </trkpt>
      <trkpt lat="42.85189" lon="0.01865">
        <ele>1498</ele>
        <time>2012-12-22T09:02:52Z</time>
      </trkpt>
      <trkpt lat="42.85188" lon="0.01867">
        <ele>1498</ele>
        <time>2012-12-22T09:02:54Z</time>
      </trkpt>
      <trkpt lat="42.85187" lon="0.01869">
        <ele>1498</ele>
        <time>2012-12-22T09:02:56Z</time>
      </trkpt>
      <trkpt lat="42.85186" lon="0.01871">
        <ele>1498</ele>
        <time>2012-12-22T09:02:58Z</time>
      </trkpt>
      <trkpt lat="42.85185" lon="0.01874">
        <ele>1498</ele>
        <time>2012-12-22T09:03:00Z</time>
      </trkpt>
      <trkpt lat="42.85184" lon="0.01875">
        <ele>1498</ele>
        <time>2012-12-22T09:03:02Z</time>
      </trkpt>
      <trkpt lat="42.85182" lon="0.01878">
        <ele>1499</ele>
        <time>2012-12-22T09:03:04Z</time>
      </trkpt>
      <trkpt lat="42.85181" lon="0.0188">
        <ele>1500</ele>
        <time>2012-12-22T09:03:06Z</time>
      </trkpt>
      <trkpt lat="42.8518" lon="0.01881">
        <ele>1501</ele>
        <time>2012-12-22T09:03:07Z</time>
      </trkpt>
      <trkpt lat="42.85179" lon="0.01884">
        <ele>1501</ele>
        <time>2012-12-22T09:03:09Z</time>
      </trkpt>
      <trkpt lat="42.85178" lon="0.01886">
        <ele>1502</ele>
        <time>2012-12-22T09:03:11Z</time>
      </trkpt>
      <trkpt lat="42.85178" lon="0.01887">
        <ele>1502</ele>
        <time>2012-12-22T09:03:12Z</time>
      </trkpt>
      <trkpt lat="42.85176" lon="0.0189">
        <ele>1503</ele>
        <time>2012-12-22T09:03:14Z</time>
      </trkpt>
      <trkpt lat="42.85176" lon="0.01892">
        <ele>1503</ele>
        <time>2012-12-22T09:03:16Z</time>
      </trkpt>
      <trkpt lat="42.85175" lon="0.01894">
        <ele>1503</ele>
        <time>2012-12-22T09:03:17Z</time>
      </trkpt>
      <trkpt lat="42.85174" lon="0.01896">
        <ele>1503</ele>
        <time>2012-12-22T09:03:19Z</time>
      </trkpt>
      <trkpt lat="42.85174" lon="0.01898">
        <ele>1503</ele>
        <time>2012-12-22T09:03:21Z</time>
      </trkpt>
      <trkpt lat="42.85173" lon="0.019">
        <ele>1503</ele>
        <time>2012-12-22T09:03:22Z</time>
      </trkpt>
      <trkpt lat="42.85172" lon="0.01903">
        <ele>1503</ele>
        <time>2012-12-22T09:03:24Z</time>
      </trkpt>
      <trkpt lat="42.85172" lon="0.01904">
        <ele>1503</ele>
        <time>2012-12-22T09:03:25Z</time>
      </trkpt>
      <trkpt lat="42.85171" lon="0.01906">
        <ele>1503</ele>
        <time>2012-12-22T09:03:26Z</time>
      </trkpt>
      <trkpt lat="42.85171" lon="0.01908">
        <ele>1503</ele>
        <time>2012-12-22T09:03:28Z</time>
      </trkpt>
      <trkpt lat="42.8517" lon="0.01911">
        <ele>1503</ele>
        <time>2012-12-22T09:03:30Z</time>
      </trkpt>
      <trkpt lat="42.8517" lon="0.01912">
        <ele>1503</ele>
        <time>2012-12-22T09:03:31Z</time>
      </trkpt>
      <trkpt lat="42.85169" lon="0.01915">
        <ele>1503</ele>
        <time>2012-12-22T09:03:33Z</time>
      </trkpt>
      <trkpt lat="42.85169" lon="0.01916">
        <ele>1503</ele>
        <time>2012-12-22T09:03:34Z</time>
      </trkpt>
      <trkpt lat="42.85169" lon="0.01918">
        <ele>1503</ele>
        <time>2012-12-22T09:03:35Z</time>
      </trkpt>
      <trkpt lat="42.85169" lon="0.01919">
        <ele>1503</ele>
        <time>2012-12-22T09:03:36Z</time>
      </trkpt>
      <trkpt lat="42.85168" lon="0.01922">
        <ele>1503</ele>
        <time>2012-12-22T09:03:38Z</time>
      </trkpt>
      <trkpt lat="42.85168" lon="0.01923">
        <ele>1503</ele>
        <time>2012-12-22T09:03:39Z</time>
      </trkpt>
      <trkpt lat="42.85168" lon="0.01926">
        <ele>1504</ele>
        <time>2012-12-22T09:03:41Z</time>
      </trkpt>
      <trkpt lat="42.85167" lon="0.01927">
        <ele>1504</ele>
        <time>2012-12-22T09:03:42Z</time>
      </trkpt>
      <trkpt lat="42.85167" lon="0.0193">
        <ele>1504</ele>
        <time>2012-12-22T09:03:44Z</time>
      </trkpt>
      <trkpt lat="42.85167" lon="0.01931">
        <ele>1504</ele>
        <time>2012-12-22T09:03:45Z</time>
      </trkpt>
      <trkpt lat="42.85167" lon="0.01933">
        <ele>1504</ele>
        <time>2012-12-22T09:03:46Z</time>
      </trkpt>
      <trkpt lat="42.85167" lon="0.01934">
        <ele>1504</ele>
        <time>2012-12-22T09:03:47Z</time>
      </trkpt>
      <trkpt lat="42.85167" lon="0.01936">
        <ele>1504</ele>
        <time>2012-12-22T09:03:48Z</time>
      </trkpt>
      <trkpt lat="42.85167" lon="0.01937">
        <ele>1504</ele>
        <time>2012-12-22T09:03:49Z</time>
      </trkpt>
      <trkpt lat="42.85167" lon="0.01939">
        <ele>1504</ele>
        <time>2012-12-22T09:03:50Z</time>
      </trkpt>
      <trkpt lat="42.85167" lon="0.0194">
        <ele>1504</ele>
        <time>2012-12-22T09:03:51Z</time>
      </trkpt>
      <trkpt lat="42.85167" lon="0.01943">
        <ele>1504</ele>
        <time>2012-12-22T09:03:53Z</time>
      </trkpt>
      <trkpt lat="42.85166" lon="0.01945">
        <ele>1504</ele>
        <time>2012-12-22T09:03:54Z</time>
      </trkpt>
      <trkpt lat="42.85166" lon="0.01947">
        <ele>1504</ele>
        <time>2012-12-22T09:03:56Z</time>
      </trkpt>
      <trkpt lat="42.85165" lon="0.01949">
        <ele>1504</ele>
        <time>2012-12-22T09:04:00Z</time>
      </trkpt>
      <trkpt lat="42.85165" lon="0.01951">
        <ele>1504</ele>
        <time>2012-12-22T09:04:02Z</time>
      </trkpt>
      <trkpt lat="42.85165" lon="0.01953">
        <ele>1504</ele>
        <time>2012-12-22T09:04:03Z</time>
      </trkpt>
      <trkpt lat="42.85165" lon="0.01955">
        <ele>1504</ele>
        <time>2012-12-22T09:04:05Z</time>
      </trkpt>
      <trkpt lat="42.85164" lon="0.01957">
        <ele>1504</ele>
        <time>2012-12-22T09:04:06Z</time>
      </trkpt>
      <trkpt lat="42.85164" lon="0.01958">
        <ele>1504</ele>
        <time>2012-12-22T09:04:07Z</time>
      </trkpt>
      <trkpt lat="42.85164" lon="0.0196">
        <ele>1504</ele>
        <time>2012-12-22T09:04:08Z</time>
      </trkpt>
      <trkpt lat="42.85164" lon="0.01962">
        <ele>1504</ele>
        <time>2012-12-22T09:04:09Z</time>
      </trkpt>
      <trkpt lat="42.85164" lon="0.01964">
        <ele>1504</ele>
        <time>2012-12-22T09:04:10Z</time>
      </trkpt>
      <trkpt lat="42.85163" lon="0.01965">
        <ele>1505</ele>
        <time>2012-12-22T09:04:11Z</time>
      </trkpt>
      <trkpt lat="42.85164" lon="0.01967">
        <ele>1505</ele>
        <time>2012-12-22T09:04:12Z</time>
      </trkpt>
      <trkpt lat="42.85164" lon="0.01969">
        <ele>1505</ele>
        <time>2012-12-22T09:04:14Z</time>
      </trkpt>
      <trkpt lat="42.85163" lon="0.01971">
        <ele>1505</ele>
        <time>2012-12-22T09:04:15Z</time>
      </trkpt>
      <trkpt lat="42.85163" lon="0.01973">
        <ele>1506</ele>
        <time>2012-12-22T09:04:16Z</time>
      </trkpt>
      <trkpt lat="42.85163" lon="0.01974">
        <ele>1506</ele>
        <time>2012-12-22T09:04:17Z</time>
      </trkpt>
      <trkpt lat="42.85162" lon="0.01976">
        <ele>1506</ele>
        <time>2012-12-22T09:04:18Z</time>
      </trkpt>
      <trkpt lat="42.85162" lon="0.01979">
        <ele>1506</ele>
        <time>2012-12-22T09:04:20Z</time>
      </trkpt>
      <trkpt lat="42.85161" lon="0.0198">
        <ele>1506</ele>
        <time>2012-12-22T09:04:21Z</time>
      </trkpt>
      <trkpt lat="42.8516" lon="0.01982">
        <ele>1506</ele>
        <time>2012-12-22T09:04:22Z</time>
      </trkpt>
      <trkpt lat="42.8516" lon="0.01983">
        <ele>1506</ele>
        <time>2012-12-22T09:04:23Z</time>
      </trkpt>
      <trkpt lat="42.85159" lon="0.01986">
        <ele>1506</ele>
        <time>2012-12-22T09:04:25Z</time>
      </trkpt>
      <trkpt lat="42.85159" lon="0.01987">
        <ele>1506</ele>
        <time>2012-12-22T09:04:26Z</time>
      </trkpt>
      <trkpt lat="42.85159" lon="0.01989">
        <ele>1506</ele>
        <time>2012-12-22T09:04:27Z</time>
      </trkpt>
      <trkpt lat="42.85158" lon="0.01991">
        <ele>1506</ele>
        <time>2012-12-22T09:04:29Z</time>
      </trkpt>
      <trkpt lat="42.85157" lon="0.01994">
        <ele>1506</ele>
        <time>2012-12-22T09:04:31Z</time>
      </trkpt>
      <trkpt lat="42.85156" lon="0.01996">
        <ele>1506</ele>
        <time>2012-12-22T09:04:33Z</time>
      </trkpt>
      <trkpt lat="42.85155" lon="0.01998">
        <ele>1506</ele>
        <time>2012-12-22T09:04:35Z</time>
      </trkpt>
      <trkpt lat="42.85154" lon="0.02">
        <ele>1506</ele>
        <time>2012-12-22T09:04:36Z</time>
      </trkpt>
      <trkpt lat="42.85153" lon="0.02003">
        <ele>1506</ele>
        <time>2012-12-22T09:04:38Z</time>
      </trkpt>
      <trkpt lat="42.85151" lon="0.02005">
        <ele>1506</ele>
        <time>2012-12-22T09:04:40Z</time>
      </trkpt>
      <trkpt lat="42.85149" lon="0.02007">
        <ele>1506</ele>
        <time>2012-12-22T09:04:42Z</time>
      </trkpt>
      <trkpt lat="42.85148" lon="0.02009">
        <ele>1506</ele>
        <time>2012-12-22T09:04:44Z</time>
      </trkpt>
      <trkpt lat="42.85148" lon="0.02011">
        <ele>1506</ele>
        <time>2012-12-22T09:04:45Z</time>
      </trkpt>
      <trkpt lat="42.85146" lon="0.02013">
        <ele>1506</ele>
        <time>2012-12-22T09:04:47Z</time>
      </trkpt>
      <trkpt lat="42.85146" lon="0.02016">
        <ele>1506</ele>
        <time>2012-12-22T09:04:49Z</time>
      </trkpt>
      <trkpt lat="42.85145" lon="0.02017">
        <ele>1506</ele>
        <time>2012-12-22T09:04:50Z</time>
      </trkpt>
      <trkpt lat="42.85144" lon="0.02019">
        <ele>1506</ele>
        <time>2012-12-22T09:04:51Z</time>
      </trkpt>
      <trkpt lat="42.85143" lon="0.02021">
        <ele>1506</ele>
        <time>2012-12-22T09:04:53Z</time>
      </trkpt>
      <trkpt lat="42.85142" lon="0.02023">
        <ele>1506</ele>
        <time>2012-12-22T09:04:54Z</time>
      </trkpt>
      <trkpt lat="42.85141" lon="0.02025">
        <ele>1506</ele>
        <time>2012-12-22T09:04:56Z</time>
      </trkpt>
      <trkpt lat="42.8514" lon="0.02027">
        <ele>1506</ele>
        <time>2012-12-22T09:04:58Z</time>
      </trkpt>
      <trkpt lat="42.85138" lon="0.02029">
        <ele>1506</ele>
        <time>2012-12-22T09:05:00Z</time>
      </trkpt>
      <trkpt lat="42.85138" lon="0.02031">
        <ele>1506</ele>
        <time>2012-12-22T09:05:01Z</time>
      </trkpt>
      <trkpt lat="42.85137" lon="0.02034">
        <ele>1506</ele>
        <time>2012-12-22T09:05:03Z</time>
      </trkpt>
      <trkpt lat="42.85137" lon="0.02036">
        <ele>1506</ele>
        <time>2012-12-22T09:05:05Z</time>
      </trkpt>
      <trkpt lat="42.85136" lon="0.02037">
        <ele>1506</ele>
        <time>2012-12-22T09:05:06Z</time>
      </trkpt>
      <trkpt lat="42.85135" lon="0.0204">
        <ele>1506</ele>
        <time>2012-12-22T09:05:08Z</time>
      </trkpt>
      <trkpt lat="42.85135" lon="0.02041">
        <ele>1506</ele>
        <time>2012-12-22T09:05:09Z</time>
      </trkpt>
      <trkpt lat="42.85135" lon="0.02043">
        <ele>1506</ele>
        <time>2012-12-22T09:05:10Z</time>
      </trkpt>
      <trkpt lat="42.85134" lon="0.02045">
        <ele>1507</ele>
        <time>2012-12-22T09:05:12Z</time>
      </trkpt>
      <trkpt lat="42.85133" lon="0.02048">
        <ele>1507</ele>
        <time>2012-12-22T09:05:14Z</time>
      </trkpt>
      <trkpt lat="42.85132" lon="0.0205">
        <ele>1508</ele>
        <time>2012-12-22T09:05:16Z</time>
      </trkpt>
      <trkpt lat="42.85131" lon="0.02052">
        <ele>1508</ele>
        <time>2012-12-22T09:05:18Z</time>
      </trkpt>
      <trkpt lat="42.8513" lon="0.02055">
        <ele>1509</ele>
        <time>2012-12-22T09:05:20Z</time>
      </trkpt>
      <trkpt lat="42.85129" lon="0.02057">
        <ele>1509</ele>
        <time>2012-12-22T09:05:22Z</time>
      </trkpt>
      <trkpt lat="42.85129" lon="0.02059">
        <ele>1509</ele>
        <time>2012-12-22T09:05:23Z</time>
      </trkpt>
      <trkpt lat="42.85128" lon="0.0206">
        <ele>1509</ele>
        <time>2012-12-22T09:05:24Z</time>
      </trkpt>
      <trkpt lat="42.85128" lon="0.02062">
        <ele>1510</ele>
        <time>2012-12-22T09:05:26Z</time>
      </trkpt>
      <trkpt lat="42.85127" lon="0.02064">
        <ele>1510</ele>
        <time>2012-12-22T09:05:27Z</time>
      </trkpt>
      <trkpt lat="42.85127" lon="0.02065">
        <ele>1510</ele>
        <time>2012-12-22T09:05:28Z</time>
      </trkpt>
      <trkpt lat="42.85126" lon="0.02067">
        <ele>1511</ele>
        <time>2012-12-22T09:05:29Z</time>
      </trkpt>
      <trkpt lat="42.85126" lon="0.02069">
        <ele>1511</ele>
        <time>2012-12-22T09:05:31Z</time>
      </trkpt>
      <trkpt lat="42.85125" lon="0.02072">
        <ele>1512</ele>
        <time>2012-12-22T09:05:33Z</time>
      </trkpt>
      <trkpt lat="42.85124" lon="0.02074">
        <ele>1513</ele>
        <time>2012-12-22T09:05:35Z</time>
      </trkpt>
      <trkpt lat="42.85124" lon="0.02076">
        <ele>1513</ele>
        <time>2012-12-22T09:05:36Z</time>
      </trkpt>
      <trkpt lat="42.85123" lon="0.02077">
        <ele>1514</ele>
        <time>2012-12-22T09:05:37Z</time>
      </trkpt>
      <trkpt lat="42.85123" lon="0.02079">
        <ele>1514</ele>
        <time>2012-12-22T09:05:38Z</time>
      </trkpt>
      <trkpt lat="42.85123" lon="0.02082">
        <ele>1514</ele>
        <time>2012-12-22T09:05:40Z</time>
      </trkpt>
      <trkpt lat="42.85122" lon="0.02085">
        <ele>1515</ele>
        <time>2012-12-22T09:05:42Z</time>
      </trkpt>
      <trkpt lat="42.85121" lon="0.02086">
        <ele>1515</ele>
        <time>2012-12-22T09:05:43Z</time>
      </trkpt>
      <trkpt lat="42.85121" lon="0.02089">
        <ele>1515</ele>
        <time>2012-12-22T09:05:45Z</time>
      </trkpt>
      <trkpt lat="42.8512" lon="0.0209">
        <ele>1515</ele>
        <time>2012-12-22T09:05:46Z</time>
      </trkpt>
      <trkpt lat="42.8512" lon="0.02093">
        <ele>1515</ele>
        <time>2012-12-22T09:05:48Z</time>
      </trkpt>
      <trkpt lat="42.85119" lon="0.02096">
        <ele>1515</ele>
        <time>2012-12-22T09:05:50Z</time>
      </trkpt>
      <trkpt lat="42.85117" lon="0.02098">
        <ele>1515</ele>
        <time>2012-12-22T09:05:52Z</time>
      </trkpt>
      <trkpt lat="42.85117" lon="0.021">
        <ele>1515</ele>
        <time>2012-12-22T09:05:53Z</time>
      </trkpt>
      <trkpt lat="42.85116" lon="0.02101">
        <ele>1515</ele>
        <time>2012-12-22T09:05:54Z</time>
      </trkpt>
      <trkpt lat="42.85115" lon="0.02103">
        <ele>1515</ele>
        <time>2012-12-22T09:05:56Z</time>
      </trkpt>
      <trkpt lat="42.85114" lon="0.02105">
        <ele>1515</ele>
        <time>2012-12-22T09:05:58Z</time>
      </trkpt>
      <trkpt lat="42.85114" lon="0.02107">
        <ele>1515</ele>
        <time>2012-12-22T09:05:59Z</time>
      </trkpt>
      <trkpt lat="42.85112" lon="0.02109">
        <ele>1515</ele>
        <time>2012-12-22T09:06:01Z</time>
      </trkpt>
      <trkpt lat="42.85111" lon="0.02112">
        <ele>1515</ele>
        <time>2012-12-22T09:06:03Z</time>
      </trkpt>
      <trkpt lat="42.85111" lon="0.02113">
        <ele>1515</ele>
        <time>2012-12-22T09:06:04Z</time>
      </trkpt>
      <trkpt lat="42.8511" lon="0.02115">
        <ele>1515</ele>
        <time>2012-12-22T09:06:06Z</time>
      </trkpt>
      <trkpt lat="42.85109" lon="0.02117">
        <ele>1515</ele>
        <time>2012-12-22T09:06:08Z</time>
      </trkpt>
      <trkpt lat="42.85107" lon="0.0212">
        <ele>1515</ele>
        <time>2012-12-22T09:06:10Z</time>
      </trkpt>
      <trkpt lat="42.85106" lon="0.02121">
        <ele>1515</ele>
        <time>2012-12-22T09:06:12Z</time>
      </trkpt>
      <trkpt lat="42.85104" lon="0.02123">
        <ele>1515</ele>
        <time>2012-12-22T09:06:14Z</time>
      </trkpt>
      <trkpt lat="42.85102" lon="0.02125">
        <ele>1515</ele>
        <time>2012-12-22T09:06:16Z</time>
      </trkpt>
      <trkpt lat="42.851" lon="0.02127">
        <ele>1515</ele>
        <time>2012-12-22T09:06:18Z</time>
      </trkpt>
      <trkpt lat="42.85098" lon="0.02128">
        <ele>1515</ele>
        <time>2012-12-22T09:06:20Z</time>
      </trkpt>
      <trkpt lat="42.85097" lon="0.02129">
        <ele>1515</ele>
        <time>2012-12-22T09:06:22Z</time>
      </trkpt>
      <trkpt lat="42.85095" lon="0.02131">
        <ele>1515</ele>
        <time>2012-12-22T09:06:24Z</time>
      </trkpt>
      <trkpt lat="42.85094" lon="0.02133">
        <ele>1515</ele>
        <time>2012-12-22T09:06:26Z</time>
      </trkpt>
      <trkpt lat="42.85093" lon="0.02135">
        <ele>1515</ele>
        <time>2012-12-22T09:06:28Z</time>
      </trkpt>
      <trkpt lat="42.85091" lon="0.02137">
        <ele>1515</ele>
        <time>2012-12-22T09:06:30Z</time>
      </trkpt>
      <trkpt lat="42.8509" lon="0.02139">
        <ele>1515</ele>
        <time>2012-12-22T09:06:32Z</time>
      </trkpt>
      <trkpt lat="42.85089" lon="0.02141">
        <ele>1515</ele>
        <time>2012-12-22T09:06:34Z</time>
      </trkpt>
      <trkpt lat="42.85088" lon="0.02143">
        <ele>1515</ele>
        <time>2012-12-22T09:06:36Z</time>
      </trkpt>
      <trkpt lat="42.85086" lon="0.02145">
        <ele>1516</ele>
        <time>2012-12-22T09:06:38Z</time>
      </trkpt>
      <trkpt lat="42.85085" lon="0.02147">
        <ele>1516</ele>
        <time>2012-12-22T09:06:40Z</time>
      </trkpt>
      <trkpt lat="42.85085" lon="0.02149">
        <ele>1516</ele>
        <time>2012-12-22T09:06:42Z</time>
      </trkpt>
      <trkpt lat="42.85085" lon="0.02152">
        <ele>1517</ele>
        <time>2012-12-22T09:06:44Z</time>
      </trkpt>
      <trkpt lat="42.85084" lon="0.02154">
        <ele>1517</ele>
        <time>2012-12-22T09:06:46Z</time>
      </trkpt>
      <trkpt lat="42.85083" lon="0.02156">
        <ele>1517</ele>
        <time>2012-12-22T09:06:48Z</time>
      </trkpt>
      <trkpt lat="42.85083" lon="0.02158">
        <ele>1517</ele>
        <time>2012-12-22T09:06:50Z</time>
      </trkpt>
      <trkpt lat="42.85082" lon="0.02161">
        <ele>1517</ele>
        <time>2012-12-22T09:06:52Z</time>
      </trkpt>
      <trkpt lat="42.85081" lon="0.02163">
        <ele>1517</ele>
        <time>2012-12-22T09:06:54Z</time>
      </trkpt>
      <trkpt lat="42.85081" lon="0.02165">
        <ele>1517</ele>
        <time>2012-12-22T09:06:55Z</time>
      </trkpt>
      <trkpt lat="42.8508" lon="0.02166">
        <ele>1517</ele>
        <time>2012-12-22T09:06:56Z</time>
      </trkpt>
      <trkpt lat="42.8508" lon="0.02169">
        <ele>1517</ele>
        <time>2012-12-22T09:06:58Z</time>
      </trkpt>
      <trkpt lat="42.8508" lon="0.0217">
        <ele>1517</ele>
        <time>2012-12-22T09:06:59Z</time>
      </trkpt>
      <trkpt lat="42.8508" lon="0.02172">
        <ele>1517</ele>
        <time>2012-12-22T09:07:00Z</time>
      </trkpt>
      <trkpt lat="42.85079" lon="0.02173">
        <ele>1517</ele>
        <time>2012-12-22T09:07:01Z</time>
      </trkpt>
      <trkpt lat="42.85079" lon="0.02175">
        <ele>1517</ele>
        <time>2012-12-22T09:07:02Z</time>
      </trkpt>
      <trkpt lat="42.85079" lon="0.02177">
        <ele>1517</ele>
        <time>2012-12-22T09:07:04Z</time>
      </trkpt>
      <trkpt lat="42.85079" lon="0.02179">
        <ele>1517</ele>
        <time>2012-12-22T09:07:05Z</time>
      </trkpt>
      <trkpt lat="42.85079" lon="0.02182">
        <ele>1518</ele>
        <time>2012-12-22T09:07:07Z</time>
      </trkpt>
      <trkpt lat="42.85078" lon="0.02184">
        <ele>1519</ele>
        <time>2012-12-22T09:07:09Z</time>
      </trkpt>
      <trkpt lat="42.85078" lon="0.02186">
        <ele>1519</ele>
        <time>2012-12-22T09:07:10Z</time>
      </trkpt>
      <trkpt lat="42.85078" lon="0.02189">
        <ele>1520</ele>
        <time>2012-12-22T09:07:12Z</time>
      </trkpt>
      <trkpt lat="42.85078" lon="0.0219">
        <ele>1520</ele>
        <time>2012-12-22T09:07:13Z</time>
      </trkpt>
      <trkpt lat="42.85078" lon="0.02192">
        <ele>1520</ele>
        <time>2012-12-22T09:07:14Z</time>
      </trkpt>
      <trkpt lat="42.85078" lon="0.02193">
        <ele>1521</ele>
        <time>2012-12-22T09:07:15Z</time>
      </trkpt>
      <trkpt lat="42.85078" lon="0.02196">
        <ele>1521</ele>
        <time>2012-12-22T09:07:17Z</time>
      </trkpt>
      <trkpt lat="42.85078" lon="0.02198">
        <ele>1522</ele>
        <time>2012-12-22T09:07:19Z</time>
      </trkpt>
      <trkpt lat="42.85078" lon="0.02201">
        <ele>1523</ele>
        <time>2012-12-22T09:07:21Z</time>
      </trkpt>
      <trkpt lat="42.85078" lon="0.02204">
        <ele>1523</ele>
        <time>2012-12-22T09:07:23Z</time>
      </trkpt>
      <trkpt lat="42.85078" lon="0.02206">
        <ele>1524</ele>
        <time>2012-12-22T09:07:25Z</time>
      </trkpt>
      <trkpt lat="42.85078" lon="0.02209">
        <ele>1524</ele>
        <time>2012-12-22T09:07:27Z</time>
      </trkpt>
      <trkpt lat="42.85077" lon="0.02211">
        <ele>1525</ele>
        <time>2012-12-22T09:07:29Z</time>
      </trkpt>
      <trkpt lat="42.85077" lon="0.02213">
        <ele>1525</ele>
        <time>2012-12-22T09:07:31Z</time>
      </trkpt>
      <trkpt lat="42.85076" lon="0.02216">
        <ele>1526</ele>
        <time>2012-12-22T09:07:33Z</time>
      </trkpt>
      <trkpt lat="42.85075" lon="0.02218">
        <ele>1526</ele>
        <time>2012-12-22T09:07:35Z</time>
      </trkpt>
      <trkpt lat="42.85075" lon="0.0222">
        <ele>1526</ele>
        <time>2012-12-22T09:07:36Z</time>
      </trkpt>
      <trkpt lat="42.85075" lon="0.02222">
        <ele>1526</ele>
        <time>2012-12-22T09:07:38Z</time>
      </trkpt>
      <trkpt lat="42.85074" lon="0.02225">
        <ele>1526</ele>
        <time>2012-12-22T09:07:40Z</time>
      </trkpt>
      <trkpt lat="42.85074" lon="0.02228">
        <ele>1526</ele>
        <time>2012-12-22T09:07:42Z</time>
      </trkpt>
      <trkpt lat="42.85073" lon="0.0223">
        <ele>1526</ele>
        <time>2012-12-22T09:07:44Z</time>
      </trkpt>
      <trkpt lat="42.85073" lon="0.02233">
        <ele>1526</ele>
        <time>2012-12-22T09:07:46Z</time>
      </trkpt>
      <trkpt lat="42.85073" lon="0.02235">
        <ele>1526</ele>
        <time>2012-12-22T09:07:48Z</time>
      </trkpt>
      <trkpt lat="42.85072" lon="0.02238">
        <ele>1526</ele>
        <time>2012-12-22T09:07:50Z</time>
      </trkpt>
      <trkpt lat="42.85072" lon="0.0224">
        <ele>1526</ele>
        <time>2012-12-22T09:07:52Z</time>
      </trkpt>
      <trkpt lat="42.85072" lon="0.02242">
        <ele>1526</ele>
        <time>2012-12-22T09:07:54Z</time>
      </trkpt>
      <trkpt lat="42.85072" lon="0.02243">
        <ele>1526</ele>
        <time>2012-12-22T09:07:55Z</time>
      </trkpt>
      <trkpt lat="42.85071" lon="0.02246">
        <ele>1526</ele>
        <time>2012-12-22T09:07:57Z</time>
      </trkpt>
      <trkpt lat="42.8507" lon="0.02248">
        <ele>1526</ele>
        <time>2012-12-22T09:07:59Z</time>
      </trkpt>
      <trkpt lat="42.8507" lon="0.0225">
        <ele>1526</ele>
        <time>2012-12-22T09:08:00Z</time>
      </trkpt>
      <trkpt lat="42.8507" lon="0.02252">
        <ele>1526</ele>
        <time>2012-12-22T09:08:02Z</time>
      </trkpt>
      <trkpt lat="42.85069" lon="0.02255">
        <ele>1526</ele>
        <time>2012-12-22T09:08:04Z</time>
      </trkpt>
      <trkpt lat="42.85068" lon="0.02256">
        <ele>1526</ele>
        <time>2012-12-22T09:08:05Z</time>
      </trkpt>
      <trkpt lat="42.85068" lon="0.02258">
        <ele>1526</ele>
        <time>2012-12-22T09:08:06Z</time>
      </trkpt>
      <trkpt lat="42.85067" lon="0.02259">
        <ele>1526</ele>
        <time>2012-12-22T09:08:07Z</time>
      </trkpt>
      <trkpt lat="42.85067" lon="0.02261">
        <ele>1527</ele>
        <time>2012-12-22T09:08:08Z</time>
      </trkpt>
      <trkpt lat="42.85066" lon="0.02263">
        <ele>1527</ele>
        <time>2012-12-22T09:08:10Z</time>
      </trkpt>
      <trkpt lat="42.85065" lon="0.02266">
        <ele>1528</ele>
        <time>2012-12-22T09:08:12Z</time>
      </trkpt>
      <trkpt lat="42.85064" lon="0.02268">
        <ele>1528</ele>
        <time>2012-12-22T09:08:14Z</time>
      </trkpt>
      <trkpt lat="42.85064" lon="0.0227">
        <ele>1528</ele>
        <time>2012-12-22T09:08:15Z</time>
      </trkpt>
      <trkpt lat="42.85062" lon="0.02272">
        <ele>1528</ele>
        <time>2012-12-22T09:08:17Z</time>
      </trkpt>
      <trkpt lat="42.85061" lon="0.02275">
        <ele>1528</ele>
        <time>2012-12-22T09:08:19Z</time>
      </trkpt>
      <trkpt lat="42.85061" lon="0.02277">
        <ele>1528</ele>
        <time>2012-12-22T09:08:20Z</time>
      </trkpt>
      <trkpt lat="42.85059" lon="0.02279">
        <ele>1528</ele>
        <time>2012-12-22T09:08:22Z</time>
      </trkpt>
      <trkpt lat="42.85058" lon="0.02282">
        <ele>1529</ele>
        <time>2012-12-22T09:08:24Z</time>
      </trkpt>
      <trkpt lat="42.85057" lon="0.02284">
        <ele>1529</ele>
        <time>2012-12-22T09:08:26Z</time>
      </trkpt>
      <trkpt lat="42.85056" lon="0.02286">
        <ele>1529</ele>
        <time>2012-12-22T09:08:28Z</time>
      </trkpt>
      <trkpt lat="42.85054" lon="0.02289">
        <ele>1530</ele>
        <time>2012-12-22T09:08:30Z</time>
      </trkpt>
      <trkpt lat="42.85053" lon="0.02291">
        <ele>1530</ele>
        <time>2012-12-22T09:08:32Z</time>
      </trkpt>
      <trkpt lat="42.85052" lon="0.02294">
        <ele>1531</ele>
        <time>2012-12-22T09:08:34Z</time>
      </trkpt>
      <trkpt lat="42.85052" lon="0.02295">
        <ele>1531</ele>
        <time>2012-12-22T09:08:35Z</time>
      </trkpt>
      <trkpt lat="42.85051" lon="0.02297">
        <ele>1531</ele>
        <time>2012-12-22T09:08:37Z</time>
      </trkpt>
      <trkpt lat="42.8505" lon="0.023">
        <ele>1531</ele>
        <time>2012-12-22T09:08:39Z</time>
      </trkpt>
      <trkpt lat="42.85049" lon="0.02302">
        <ele>1531</ele>
        <time>2012-12-22T09:08:40Z</time>
      </trkpt>
      <trkpt lat="42.85049" lon="0.02303">
        <ele>1531</ele>
        <time>2012-12-22T09:08:41Z</time>
      </trkpt>
      <trkpt lat="42.85049" lon="0.02305">
        <ele>1531</ele>
        <time>2012-12-22T09:08:42Z</time>
      </trkpt>
      <trkpt lat="42.85048" lon="0.02307">
        <ele>1531</ele>
        <time>2012-12-22T09:08:44Z</time>
      </trkpt>
      <trkpt lat="42.85048" lon="0.02309">
        <ele>1531</ele>
        <time>2012-12-22T09:08:45Z</time>
      </trkpt>
      <trkpt lat="42.85047" lon="0.0231">
        <ele>1531</ele>
        <time>2012-12-22T09:08:46Z</time>
      </trkpt>
      <trkpt lat="42.85046" lon="0.02313">
        <ele>1531</ele>
        <time>2012-12-22T09:08:48Z</time>
      </trkpt>
      <trkpt lat="42.85045" lon="0.02315">
        <ele>1532</ele>
        <time>2012-12-22T09:08:50Z</time>
      </trkpt>
      <trkpt lat="42.85044" lon="0.02317">
        <ele>1532</ele>
        <time>2012-12-22T09:08:51Z</time>
      </trkpt>
      <trkpt lat="42.85043" lon="0.02319">
        <ele>1532</ele>
        <time>2012-12-22T09:08:53Z</time>
      </trkpt>
      <trkpt lat="42.85043" lon="0.02321">
        <ele>1532</ele>
        <time>2012-12-22T09:08:54Z</time>
      </trkpt>
      <trkpt lat="42.85042" lon="0.02322">
        <ele>1533</ele>
        <time>2012-12-22T09:08:55Z</time>
      </trkpt>
      <trkpt lat="42.85041" lon="0.02325">
        <ele>1533</ele>
        <time>2012-12-22T09:08:57Z</time>
      </trkpt>
      <trkpt lat="42.85041" lon="0.02326">
        <ele>1533</ele>
        <time>2012-12-22T09:08:58Z</time>
      </trkpt>
      <trkpt lat="42.8504" lon="0.02328">
        <ele>1533</ele>
        <time>2012-12-22T09:08:59Z</time>
      </trkpt>
      <trkpt lat="42.85039" lon="0.0233">
        <ele>1534</ele>
        <time>2012-12-22T09:09:01Z</time>
      </trkpt>
      <trkpt lat="42.85038" lon="0.02333">
        <ele>1534</ele>
        <time>2012-12-22T09:09:03Z</time>
      </trkpt>
      <trkpt lat="42.85037" lon="0.02335">
        <ele>1534</ele>
        <time>2012-12-22T09:09:05Z</time>
      </trkpt>
      <trkpt lat="42.85037" lon="0.02337">
        <ele>1534</ele>
        <time>2012-12-22T09:09:06Z</time>
      </trkpt>
      <trkpt lat="42.85036" lon="0.0234">
        <ele>1535</ele>
        <time>2012-12-22T09:09:08Z</time>
      </trkpt>
      <trkpt lat="42.85036" lon="0.02342">
        <ele>1535</ele>
        <time>2012-12-22T09:09:10Z</time>
      </trkpt>
      <trkpt lat="42.85035" lon="0.02345">
        <ele>1535</ele>
        <time>2012-12-22T09:09:12Z</time>
      </trkpt>
      <trkpt lat="42.85034" lon="0.02347">
        <ele>1536</ele>
        <time>2012-12-22T09:09:14Z</time>
      </trkpt>
      <trkpt lat="42.85033" lon="0.02349">
        <ele>1536</ele>
        <time>2012-12-22T09:09:16Z</time>
      </trkpt>
      <trkpt lat="42.85032" lon="0.02352">
        <ele>1536</ele>
        <time>2012-12-22T09:09:18Z</time>
      </trkpt>
      <trkpt lat="42.85031" lon="0.02354">
        <ele>1536</ele>
        <time>2012-12-22T09:09:20Z</time>
      </trkpt>
      <trkpt lat="42.8503" lon="0.02357">
        <ele>1536</ele>
        <time>2012-12-22T09:09:22Z</time>
      </trkpt>
      <trkpt lat="42.85029" lon="0.02358">
        <ele>1536</ele>
        <time>2012-12-22T09:09:23Z</time>
      </trkpt>
      <trkpt lat="42.85028" lon="0.02361">
        <ele>1536</ele>
        <time>2012-12-22T09:09:25Z</time>
      </trkpt>
      <trkpt lat="42.85028" lon="0.02364">
        <ele>1536</ele>
        <time>2012-12-22T09:09:27Z</time>
      </trkpt>
      <trkpt lat="42.85027" lon="0.02365">
        <ele>1536</ele>
        <time>2012-12-22T09:09:28Z</time>
      </trkpt>
      <trkpt lat="42.85027" lon="0.02368">
        <ele>1536</ele>
        <time>2012-12-22T09:09:30Z</time>
      </trkpt>
      <trkpt lat="42.85026" lon="0.02369">
        <ele>1537</ele>
        <time>2012-12-22T09:09:31Z</time>
      </trkpt>
      <trkpt lat="42.85025" lon="0.02372">
        <ele>1537</ele>
        <time>2012-12-22T09:09:33Z</time>
      </trkpt>
      <trkpt lat="42.85024" lon="0.02374">
        <ele>1537</ele>
        <time>2012-12-22T09:09:35Z</time>
      </trkpt>
      <trkpt lat="42.85023" lon="0.02377">
        <ele>1537</ele>
        <time>2012-12-22T09:09:37Z</time>
      </trkpt>
      <trkpt lat="42.85022" lon="0.02379">
        <ele>1537</ele>
        <time>2012-12-22T09:09:39Z</time>
      </trkpt>
      <trkpt lat="42.85022" lon="0.02382">
        <ele>1537</ele>
        <time>2012-12-22T09:09:41Z</time>
      </trkpt>
      <trkpt lat="42.85021" lon="0.02385">
        <ele>1538</ele>
        <time>2012-12-22T09:09:43Z</time>
      </trkpt>
      <trkpt lat="42.8502" lon="0.02387">
        <ele>1538</ele>
        <time>2012-12-22T09:09:45Z</time>
      </trkpt>
      <trkpt lat="42.85019" lon="0.0239">
        <ele>1538</ele>
        <time>2012-12-22T09:09:47Z</time>
      </trkpt>
      <trkpt lat="42.85018" lon="0.02391">
        <ele>1538</ele>
        <time>2012-12-22T09:09:48Z</time>
      </trkpt>
      <trkpt lat="42.85017" lon="0.02394">
        <ele>1538</ele>
        <time>2012-12-22T09:09:50Z</time>
      </trkpt>
      <trkpt lat="42.85017" lon="0.02396">
        <ele>1538</ele>
        <time>2012-12-22T09:09:51Z</time>
      </trkpt>
      <trkpt lat="42.85017" lon="0.02397">
        <ele>1538</ele>
        <time>2012-12-22T09:09:52Z</time>
      </trkpt>
      <trkpt lat="42.85017" lon="0.02399">
        <ele>1538</ele>
        <time>2012-12-22T09:09:53Z</time>
      </trkpt>
      <trkpt lat="42.85016" lon="0.024">
        <ele>1538</ele>
        <time>2012-12-22T09:09:54Z</time>
      </trkpt>
      <trkpt lat="42.85016" lon="0.02402">
        <ele>1538</ele>
        <time>2012-12-22T09:09:55Z</time>
      </trkpt>
      <trkpt lat="42.85016" lon="0.02404">
        <ele>1538</ele>
        <time>2012-12-22T09:09:56Z</time>
      </trkpt>
      <trkpt lat="42.85017" lon="0.02406">
        <ele>1538</ele>
        <time>2012-12-22T09:09:57Z</time>
      </trkpt>
      <trkpt lat="42.85017" lon="0.02407">
        <ele>1538</ele>
        <time>2012-12-22T09:09:58Z</time>
      </trkpt>
      <trkpt lat="42.85017" lon="0.02409">
        <ele>1538</ele>
        <time>2012-12-22T09:09:59Z</time>
      </trkpt>
      <trkpt lat="42.85017" lon="0.0241">
        <ele>1538</ele>
        <time>2012-12-22T09:10:00Z</time>
      </trkpt>
      <trkpt lat="42.85017" lon="0.02412">
        <ele>1538</ele>
        <time>2012-12-22T09:10:01Z</time>
      </trkpt>
      <trkpt lat="42.85017" lon="0.02413">
        <ele>1538</ele>
        <time>2012-12-22T09:10:02Z</time>
      </trkpt>
      <trkpt lat="42.85017" lon="0.02415">
        <ele>1538</ele>
        <time>2012-12-22T09:10:03Z</time>
      </trkpt>
      <trkpt lat="42.85017" lon="0.02416">
        <ele>1538</ele>
        <time>2012-12-22T09:10:04Z</time>
      </trkpt>
      <trkpt lat="42.85016" lon="0.02419">
        <ele>1538</ele>
        <time>2012-12-22T09:10:06Z</time>
      </trkpt>
      <trkpt lat="42.85015" lon="0.02421">
        <ele>1538</ele>
        <time>2012-12-22T09:10:08Z</time>
      </trkpt>
      <trkpt lat="42.85014" lon="0.02423">
        <ele>1538</ele>
        <time>2012-12-22T09:10:09Z</time>
      </trkpt>
      <trkpt lat="42.85014" lon="0.02425">
        <ele>1538</ele>
        <time>2012-12-22T09:10:10Z</time>
      </trkpt>
      <trkpt lat="42.85014" lon="0.02426">
        <ele>1538</ele>
        <time>2012-12-22T09:10:11Z</time>
      </trkpt>
      <trkpt lat="42.85014" lon="0.02428">
        <ele>1538</ele>
        <time>2012-12-22T09:10:12Z</time>
      </trkpt>
      <trkpt lat="42.85014" lon="0.0243">
        <ele>1538</ele>
        <time>2012-12-22T09:10:13Z</time>
      </trkpt>
      <trkpt lat="42.85014" lon="0.02431">
        <ele>1538</ele>
        <time>2012-12-22T09:10:14Z</time>
      </trkpt>
      <trkpt lat="42.85013" lon="0.02433">
        <ele>1538</ele>
        <time>2012-12-22T09:10:15Z</time>
      </trkpt>
      <trkpt lat="42.85013" lon="0.02435">
        <ele>1538</ele>
        <time>2012-12-22T09:10:16Z</time>
      </trkpt>
      <trkpt lat="42.85013" lon="0.02437">
        <ele>1538</ele>
        <time>2012-12-22T09:10:17Z</time>
      </trkpt>
      <trkpt lat="42.85013" lon="0.02438">
        <ele>1538</ele>
        <time>2012-12-22T09:10:18Z</time>
      </trkpt>
      <trkpt lat="42.85012" lon="0.0244">
        <ele>1538</ele>
        <time>2012-12-22T09:10:19Z</time>
      </trkpt>
      <trkpt lat="42.85012" lon="0.02441">
        <ele>1538</ele>
        <time>2012-12-22T09:10:20Z</time>
      </trkpt>
      <trkpt lat="42.85012" lon="0.02443">
        <ele>1538</ele>
        <time>2012-12-22T09:10:21Z</time>
      </trkpt>
      <trkpt lat="42.85012" lon="0.02444">
        <ele>1538</ele>
        <time>2012-12-22T09:10:22Z</time>
      </trkpt>
      <trkpt lat="42.85012" lon="0.02446">
        <ele>1538</ele>
        <time>2012-12-22T09:10:23Z</time>
      </trkpt>
      <trkpt lat="42.85012" lon="0.02448">
        <ele>1538</ele>
        <time>2012-12-22T09:10:24Z</time>
      </trkpt>
      <trkpt lat="42.85012" lon="0.02449">
        <ele>1538</ele>
        <time>2012-12-22T09:10:25Z</time>
      </trkpt>
      <trkpt lat="42.85011" lon="0.02451">
        <ele>1538</ele>
        <time>2012-12-22T09:10:26Z</time>
      </trkpt>
      <trkpt lat="42.85011" lon="0.02453">
        <ele>1538</ele>
        <time>2012-12-22T09:10:27Z</time>
      </trkpt>
      <trkpt lat="42.85011" lon="0.02455">
        <ele>1538</ele>
        <time>2012-12-22T09:10:28Z</time>
      </trkpt>
      <trkpt lat="42.85011" lon="0.02456">
        <ele>1538</ele>
        <time>2012-12-22T09:10:29Z</time>
      </trkpt>
      <trkpt lat="42.85011" lon="0.02458">
        <ele>1538</ele>
        <time>2012-12-22T09:10:30Z</time>
      </trkpt>
      <trkpt lat="42.85011" lon="0.0246">
        <ele>1538</ele>
        <time>2012-12-22T09:10:31Z</time>
      </trkpt>
      <trkpt lat="42.8501" lon="0.02461">
        <ele>1538</ele>
        <time>2012-12-22T09:10:32Z</time>
      </trkpt>
      <trkpt lat="42.8501" lon="0.02463">
        <ele>1538</ele>
        <time>2012-12-22T09:10:33Z</time>
      </trkpt>
      <trkpt lat="42.8501" lon="0.02465">
        <ele>1538</ele>
        <time>2012-12-22T09:10:34Z</time>
      </trkpt>
      <trkpt lat="42.8501" lon="0.02466">
        <ele>1538</ele>
        <time>2012-12-22T09:10:35Z</time>
      </trkpt>
      <trkpt lat="42.8501" lon="0.02468">
        <ele>1538</ele>
        <time>2012-12-22T09:10:36Z</time>
      </trkpt>
      <trkpt lat="42.85009" lon="0.0247">
        <ele>1538</ele>
        <time>2012-12-22T09:10:37Z</time>
      </trkpt>
      <trkpt lat="42.85009" lon="0.02472">
        <ele>1538</ele>
        <time>2012-12-22T09:10:38Z</time>
      </trkpt>
      <trkpt lat="42.85009" lon="0.02473">
        <ele>1538</ele>
        <time>2012-12-22T09:10:39Z</time>
      </trkpt>
      <trkpt lat="42.85009" lon="0.02475">
        <ele>1538</ele>
        <time>2012-12-22T09:10:40Z</time>
      </trkpt>
      <trkpt lat="42.85009" lon="0.02476">
        <ele>1538</ele>
        <time>2012-12-22T09:10:41Z</time>
      </trkpt>
      <trkpt lat="42.85008" lon="0.02478">
        <ele>1538</ele>
        <time>2012-12-22T09:10:42Z</time>
      </trkpt>
      <trkpt lat="42.85008" lon="0.0248">
        <ele>1538</ele>
        <time>2012-12-22T09:10:43Z</time>
      </trkpt>
      <trkpt lat="42.85007" lon="0.02482">
        <ele>1538</ele>
        <time>2012-12-22T09:10:44Z</time>
      </trkpt>
      <trkpt lat="42.85007" lon="0.02483">
        <ele>1538</ele>
        <time>2012-12-22T09:10:45Z</time>
      </trkpt>
      <trkpt lat="42.85007" lon="0.02485">
        <ele>1538</ele>
        <time>2012-12-22T09:10:46Z</time>
      </trkpt>
      <trkpt lat="42.85007" lon="0.02486">
        <ele>1538</ele>
        <time>2012-12-22T09:10:47Z</time>
      </trkpt>
      <trkpt lat="42.85006" lon="0.02488">
        <ele>1538</ele>
        <time>2012-12-22T09:10:48Z</time>
      </trkpt>
      <trkpt lat="42.85006" lon="0.0249">
        <ele>1538</ele>
        <time>2012-12-22T09:10:49Z</time>
      </trkpt>
      <trkpt lat="42.85006" lon="0.02491">
        <ele>1538</ele>
        <time>2012-12-22T09:10:50Z</time>
      </trkpt>
      <trkpt lat="42.85006" lon="0.02494">
        <ele>1538</ele>
        <time>2012-12-22T09:10:52Z</time>
      </trkpt>
      <trkpt lat="42.85005" lon="0.02496">
        <ele>1538</ele>
        <time>2012-12-22T09:10:53Z</time>
      </trkpt>
      <trkpt lat="42.85005" lon="0.02497">
        <ele>1538</ele>
        <time>2012-12-22T09:10:54Z</time>
      </trkpt>
      <trkpt lat="42.85004" lon="0.02499">
        <ele>1538</ele>
        <time>2012-12-22T09:10:55Z</time>
      </trkpt>
      <trkpt lat="42.85004" lon="0.02501">
        <ele>1538</ele>
        <time>2012-12-22T09:10:56Z</time>
      </trkpt>
      <trkpt lat="42.85004" lon="0.02502">
        <ele>1538</ele>
        <time>2012-12-22T09:10:57Z</time>
      </trkpt>
      <trkpt lat="42.85004" lon="0.02504">
        <ele>1538</ele>
        <time>2012-12-22T09:10:58Z</time>
      </trkpt>
      <trkpt lat="42.85004" lon="0.02505">
        <ele>1538</ele>
        <time>2012-12-22T09:10:59Z</time>
      </trkpt>
      <trkpt lat="42.85003" lon="0.02507">
        <ele>1538</ele>
        <time>2012-12-22T09:11:00Z</time>
      </trkpt>
      <trkpt lat="42.85003" lon="0.02508">
        <ele>1538</ele>
        <time>2012-12-22T09:11:01Z</time>
      </trkpt>
      <trkpt lat="42.85002" lon="0.0251">
        <ele>1538</ele>
        <time>2012-12-22T09:11:02Z</time>
      </trkpt>
      <trkpt lat="42.85002" lon="0.02511">
        <ele>1538</ele>
        <time>2012-12-22T09:11:03Z</time>
      </trkpt>
      <trkpt lat="42.85001" lon="0.02513">
        <ele>1538</ele>
        <time>2012-12-22T09:11:04Z</time>
      </trkpt>
      <trkpt lat="42.85001" lon="0.02515">
        <ele>1538</ele>
        <time>2012-12-22T09:11:05Z</time>
      </trkpt>
      <trkpt lat="42.85001" lon="0.02517">
        <ele>1538</ele>
        <time>2012-12-22T09:11:06Z</time>
      </trkpt>
      <trkpt lat="42.85" lon="0.02518">
        <ele>1538</ele>
        <time>2012-12-22T09:11:07Z</time>
      </trkpt>
      <trkpt lat="42.85" lon="0.02521">
        <ele>1538</ele>
        <time>2012-12-22T09:11:09Z</time>
      </trkpt>
      <trkpt lat="42.84999" lon="0.02523">
        <ele>1538</ele>
        <time>2012-12-22T09:11:10Z</time>
      </trkpt>
      <trkpt lat="42.84999" lon="0.02524">
        <ele>1538</ele>
        <time>2012-12-22T09:11:11Z</time>
      </trkpt>
      <trkpt lat="42.84999" lon="0.02526">
        <ele>1538</ele>
        <time>2012-12-22T09:11:12Z</time>
      </trkpt>
      <trkpt lat="42.84999" lon="0.02528">
        <ele>1537</ele>
        <time>2012-12-22T09:11:13Z</time>
      </trkpt>
      <trkpt lat="42.84998" lon="0.02529">
        <ele>1537</ele>
        <time>2012-12-22T09:11:14Z</time>
      </trkpt>
      <trkpt lat="42.84998" lon="0.02531">
        <ele>1537</ele>
        <time>2012-12-22T09:11:15Z</time>
      </trkpt>
      <trkpt lat="42.84998" lon="0.02533">
        <ele>1537</ele>
        <time>2012-12-22T09:11:16Z</time>
      </trkpt>
      <trkpt lat="42.84998" lon="0.02534">
        <ele>1537</ele>
        <time>2012-12-22T09:11:17Z</time>
      </trkpt>
      <trkpt lat="42.84997" lon="0.02536">
        <ele>1537</ele>
        <time>2012-12-22T09:11:18Z</time>
      </trkpt>
      <trkpt lat="42.84997" lon="0.02538">
        <ele>1537</ele>
        <time>2012-12-22T09:11:19Z</time>
      </trkpt>
      <trkpt lat="42.84996" lon="0.0254">
        <ele>1537</ele>
        <time>2012-12-22T09:11:20Z</time>
      </trkpt>
      <trkpt lat="42.84996" lon="0.02541">
        <ele>1537</ele>
        <time>2012-12-22T09:11:21Z</time>
      </trkpt>
      <trkpt lat="42.84996" lon="0.02543">
        <ele>1537</ele>
        <time>2012-12-22T09:11:22Z</time>
      </trkpt>
      <trkpt lat="42.84996" lon="0.02545">
        <ele>1537</ele>
        <time>2012-12-22T09:11:23Z</time>
      </trkpt>
      <trkpt lat="42.84996" lon="0.02546">
        <ele>1537</ele>
        <time>2012-12-22T09:11:24Z</time>
      </trkpt>
      <trkpt lat="42.84995" lon="0.02548">
        <ele>1537</ele>
        <time>2012-12-22T09:11:25Z</time>
      </trkpt>
      <trkpt lat="42.84995" lon="0.0255">
        <ele>1537</ele>
        <time>2012-12-22T09:11:26Z</time>
      </trkpt>
      <trkpt lat="42.84995" lon="0.02551">
        <ele>1537</ele>
        <time>2012-12-22T09:11:27Z</time>
      </trkpt>
      <trkpt lat="42.84994" lon="0.02553">
        <ele>1537</ele>
        <time>2012-12-22T09:11:28Z</time>
      </trkpt>
      <trkpt lat="42.84994" lon="0.02554">
        <ele>1537</ele>
        <time>2012-12-22T09:11:29Z</time>
      </trkpt>
      <trkpt lat="42.84993" lon="0.02556">
        <ele>1536</ele>
        <time>2012-12-22T09:11:30Z</time>
      </trkpt>
      <trkpt lat="42.84993" lon="0.02557">
        <ele>1536</ele>
        <time>2012-12-22T09:11:31Z</time>
      </trkpt>
      <trkpt lat="42.84993" lon="0.02559">
        <ele>1536</ele>
        <time>2012-12-22T09:11:32Z</time>
      </trkpt>
      <trkpt lat="42.84992" lon="0.02561">
        <ele>1536</ele>
        <time>2012-12-22T09:11:33Z</time>
      </trkpt>
      <trkpt lat="42.84992" lon="0.02562">
        <ele>1536</ele>
        <time>2012-12-22T09:11:34Z</time>
      </trkpt>
      <trkpt lat="42.84991" lon="0.02564">
        <ele>1536</ele>
        <time>2012-12-22T09:11:35Z</time>
      </trkpt>
      <trkpt lat="42.84991" lon="0.02565">
        <ele>1536</ele>
        <time>2012-12-22T09:11:36Z</time>
      </trkpt>
      <trkpt lat="42.8499" lon="0.02567">
        <ele>1536</ele>
        <time>2012-12-22T09:11:37Z</time>
      </trkpt>
      <trkpt lat="42.84989" lon="0.0257">
        <ele>1536</ele>
        <time>2012-12-22T09:11:39Z</time>
      </trkpt>
      <trkpt lat="42.84988" lon="0.02572">
        <ele>1536</ele>
        <time>2012-12-22T09:11:40Z</time>
      </trkpt>
      <trkpt lat="42.84987" lon="0.02573">
        <ele>1536</ele>
        <time>2012-12-22T09:11:41Z</time>
      </trkpt>
      <trkpt lat="42.84985" lon="0.02575">
        <ele>1536</ele>
        <time>2012-12-22T09:11:43Z</time>
      </trkpt>
      <trkpt lat="42.84984" lon="0.02577">
        <ele>1536</ele>
        <time>2012-12-22T09:11:44Z</time>
      </trkpt>
      <trkpt lat="42.84984" lon="0.02578">
        <ele>1536</ele>
        <time>2012-12-22T09:11:45Z</time>
      </trkpt>
      <trkpt lat="42.84983" lon="0.0258">
        <ele>1536</ele>
        <time>2012-12-22T09:11:46Z</time>
      </trkpt>
      <trkpt lat="42.84982" lon="0.02581">
        <ele>1536</ele>
        <time>2012-12-22T09:11:47Z</time>
      </trkpt>
      <trkpt lat="42.84981" lon="0.02584">
        <ele>1536</ele>
        <time>2012-12-22T09:11:49Z</time>
      </trkpt>
      <trkpt lat="42.8498" lon="0.02586">
        <ele>1536</ele>
        <time>2012-12-22T09:11:50Z</time>
      </trkpt>
      <trkpt lat="42.8498" lon="0.02587">
        <ele>1536</ele>
        <time>2012-12-22T09:11:51Z</time>
      </trkpt>
      <trkpt lat="42.8498" lon="0.02589">
        <ele>1535</ele>
        <time>2012-12-22T09:11:52Z</time>
      </trkpt>
      <trkpt lat="42.84979" lon="0.02591">
        <ele>1535</ele>
        <time>2012-12-22T09:11:53Z</time>
      </trkpt>
      <trkpt lat="42.84979" lon="0.02592">
        <ele>1535</ele>
        <time>2012-12-22T09:11:54Z</time>
      </trkpt>
      <trkpt lat="42.84979" lon="0.02594">
        <ele>1535</ele>
        <time>2012-12-22T09:11:55Z</time>
      </trkpt>
      <trkpt lat="42.84979" lon="0.02596">
        <ele>1535</ele>
        <time>2012-12-22T09:11:56Z</time>
      </trkpt>
      <trkpt lat="42.84979" lon="0.02597">
        <ele>1535</ele>
        <time>2012-12-22T09:11:57Z</time>
      </trkpt>
      <trkpt lat="42.84978" lon="0.02599">
        <ele>1534</ele>
        <time>2012-12-22T09:11:58Z</time>
      </trkpt>
      <trkpt lat="42.84978" lon="0.02601">
        <ele>1534</ele>
        <time>2012-12-22T09:11:59Z</time>
      </trkpt>
      <trkpt lat="42.84978" lon="0.02603">
        <ele>1534</ele>
        <time>2012-12-22T09:12:00Z</time>
      </trkpt>
      <trkpt lat="42.84978" lon="0.02604">
        <ele>1534</ele>
        <time>2012-12-22T09:12:01Z</time>
      </trkpt>
      <trkpt lat="42.84978" lon="0.02606">
        <ele>1534</ele>
        <time>2012-12-22T09:12:02Z</time>
      </trkpt>
      <trkpt lat="42.84978" lon="0.02607">
        <ele>1534</ele>
        <time>2012-12-22T09:12:03Z</time>
      </trkpt>
      <trkpt lat="42.84978" lon="0.02609">
        <ele>1534</ele>
        <time>2012-12-22T09:12:04Z</time>
      </trkpt>
      <trkpt lat="42.84979" lon="0.02611">
        <ele>1534</ele>
        <time>2012-12-22T09:12:05Z</time>
      </trkpt>
      <trkpt lat="42.84979" lon="0.02613">
        <ele>1534</ele>
        <time>2012-12-22T09:12:06Z</time>
      </trkpt>
      <trkpt lat="42.84979" lon="0.02615">
        <ele>1533</ele>
        <time>2012-12-22T09:12:07Z</time>
      </trkpt>
      <trkpt lat="42.84979" lon="0.02616">
        <ele>1533</ele>
        <time>2012-12-22T09:12:08Z</time>
      </trkpt>
      <trkpt lat="42.8498" lon="0.02618">
        <ele>1533</ele>
        <time>2012-12-22T09:12:09Z</time>
      </trkpt>
      <trkpt lat="42.8498" lon="0.0262">
        <ele>1533</ele>
        <time>2012-12-22T09:12:10Z</time>
      </trkpt>
      <trkpt lat="42.8498" lon="0.02621">
        <ele>1533</ele>
        <time>2012-12-22T09:12:11Z</time>
      </trkpt>
      <trkpt lat="42.8498" lon="0.02623">
        <ele>1533</ele>
        <time>2012-12-22T09:12:12Z</time>
      </trkpt>
      <trkpt lat="42.8498" lon="0.02625">
        <ele>1533</ele>
        <time>2012-12-22T09:12:13Z</time>
      </trkpt>
      <trkpt lat="42.8498" lon="0.02626">
        <ele>1533</ele>
        <time>2012-12-22T09:12:14Z</time>
      </trkpt>
      <trkpt lat="42.8498" lon="0.02628">
        <ele>1532</ele>
        <time>2012-12-22T09:12:15Z</time>
      </trkpt>
      <trkpt lat="42.8498" lon="0.0263">
        <ele>1532</ele>
        <time>2012-12-22T09:12:16Z</time>
      </trkpt>
      <trkpt lat="42.8498" lon="0.02631">
        <ele>1532</ele>
        <time>2012-12-22T09:12:17Z</time>
      </trkpt>
      <trkpt lat="42.84981" lon="0.02633">
        <ele>1532</ele>
        <time>2012-12-22T09:12:18Z</time>
      </trkpt>
      <trkpt lat="42.84981" lon="0.02634">
        <ele>1532</ele>
        <time>2012-12-22T09:12:19Z</time>
      </trkpt>
      <trkpt lat="42.84981" lon="0.02636">
        <ele>1532</ele>
        <time>2012-12-22T09:12:20Z</time>
      </trkpt>
      <trkpt lat="42.84981" lon="0.02638">
        <ele>1532</ele>
        <time>2012-12-22T09:12:21Z</time>
      </trkpt>
      <trkpt lat="42.84981" lon="0.02639">
        <ele>1532</ele>
        <time>2012-12-22T09:12:22Z</time>
      </trkpt>
      <trkpt lat="42.84981" lon="0.02641">
        <ele>1531</ele>
        <time>2012-12-22T09:12:23Z</time>
      </trkpt>
      <trkpt lat="42.84981" lon="0.02643">
        <ele>1531</ele>
        <time>2012-12-22T09:12:24Z</time>
      </trkpt>
      <trkpt lat="42.84981" lon="0.02644">
        <ele>1531</ele>
        <time>2012-12-22T09:12:25Z</time>
      </trkpt>
      <trkpt lat="42.84981" lon="0.02646">
        <ele>1531</ele>
        <time>2012-12-22T09:12:26Z</time>
      </trkpt>
      <trkpt lat="42.84981" lon="0.02648">
        <ele>1531</ele>
        <time>2012-12-22T09:12:28Z</time>
      </trkpt>
      <trkpt lat="42.84981" lon="0.0265">
        <ele>1531</ele>
        <time>2012-12-22T09:12:29Z</time>
      </trkpt>
      <trkpt lat="42.84981" lon="0.02652">
        <ele>1531</ele>
        <time>2012-12-22T09:12:30Z</time>
      </trkpt>
      <trkpt lat="42.84981" lon="0.02653">
        <ele>1531</ele>
        <time>2012-12-22T09:12:31Z</time>
      </trkpt>
      <trkpt lat="42.84981" lon="0.02655">
        <ele>1531</ele>
        <time>2012-12-22T09:12:32Z</time>
      </trkpt>
      <trkpt lat="42.84981" lon="0.02657">
        <ele>1531</ele>
        <time>2012-12-22T09:12:33Z</time>
      </trkpt>
      <trkpt lat="42.84981" lon="0.02658">
        <ele>1531</ele>
        <time>2012-12-22T09:12:34Z</time>
      </trkpt>
      <trkpt lat="42.84981" lon="0.0266">
        <ele>1531</ele>
        <time>2012-12-22T09:12:35Z</time>
      </trkpt>
      <trkpt lat="42.84981" lon="0.02662">
        <ele>1531</ele>
        <time>2012-12-22T09:12:36Z</time>
      </trkpt>
      <trkpt lat="42.8498" lon="0.02663">
        <ele>1531</ele>
        <time>2012-12-22T09:12:37Z</time>
      </trkpt>
      <trkpt lat="42.8498" lon="0.02665">
        <ele>1531</ele>
        <time>2012-12-22T09:12:38Z</time>
      </trkpt>
      <trkpt lat="42.8498" lon="0.02667">
        <ele>1531</ele>
        <time>2012-12-22T09:12:39Z</time>
      </trkpt>
      <trkpt lat="42.8498" lon="0.02668">
        <ele>1531</ele>
        <time>2012-12-22T09:12:40Z</time>
      </trkpt>
      <trkpt lat="42.8498" lon="0.0267">
        <ele>1530</ele>
        <time>2012-12-22T09:12:41Z</time>
      </trkpt>
      <trkpt lat="42.8498" lon="0.02671">
        <ele>1530</ele>
        <time>2012-12-22T09:12:42Z</time>
      </trkpt>
      <trkpt lat="42.84979" lon="0.02673">
        <ele>1530</ele>
        <time>2012-12-22T09:12:43Z</time>
      </trkpt>
      <trkpt lat="42.84979" lon="0.02675">
        <ele>1530</ele>
        <time>2012-12-22T09:12:44Z</time>
      </trkpt>
      <trkpt lat="42.84979" lon="0.02676">
        <ele>1530</ele>
        <time>2012-12-22T09:12:45Z</time>
      </trkpt>
      <trkpt lat="42.84978" lon="0.02678">
        <ele>1530</ele>
        <time>2012-12-22T09:12:46Z</time>
      </trkpt>
      <trkpt lat="42.84978" lon="0.02679">
        <ele>1530</ele>
        <time>2012-12-22T09:12:47Z</time>
      </trkpt>
      <trkpt lat="42.84978" lon="0.02681">
        <ele>1530</ele>
        <time>2012-12-22T09:12:48Z</time>
      </trkpt>
      <trkpt lat="42.84977" lon="0.02682">
        <ele>1530</ele>
        <time>2012-12-22T09:12:49Z</time>
      </trkpt>
      <trkpt lat="42.84977" lon="0.02684">
        <ele>1530</ele>
        <time>2012-12-22T09:12:50Z</time>
      </trkpt>
      <trkpt lat="42.84977" lon="0.02686">
        <ele>1529</ele>
        <time>2012-12-22T09:12:51Z</time>
      </trkpt>
      <trkpt lat="42.84977" lon="0.02688">
        <ele>1529</ele>
        <time>2012-12-22T09:12:52Z</time>
      </trkpt>
      <trkpt lat="42.84977" lon="0.02689">
        <ele>1529</ele>
        <time>2012-12-22T09:12:53Z</time>
      </trkpt>
      <trkpt lat="42.84977" lon="0.02691">
        <ele>1529</ele>
        <time>2012-12-22T09:12:54Z</time>
      </trkpt>
      <trkpt lat="42.84976" lon="0.02693">
        <ele>1529</ele>
        <time>2012-12-22T09:12:55Z</time>
      </trkpt>
      <trkpt lat="42.84976" lon="0.02694">
        <ele>1529</ele>
        <time>2012-12-22T09:12:56Z</time>
      </trkpt>
      <trkpt lat="42.84975" lon="0.02696">
        <ele>1529</ele>
        <time>2012-12-22T09:12:57Z</time>
      </trkpt>
      <trkpt lat="42.84975" lon="0.02698">
        <ele>1528</ele>
        <time>2012-12-22T09:12:58Z</time>
      </trkpt>
      <trkpt lat="42.84974" lon="0.02699">
        <ele>1528</ele>
        <time>2012-12-22T09:12:59Z</time>
      </trkpt>
      <trkpt lat="42.84974" lon="0.02701">
        <ele>1528</ele>
        <time>2012-12-22T09:13:00Z</time>
      </trkpt>
      <trkpt lat="42.84974" lon="0.02702">
        <ele>1528</ele>
        <time>2012-12-22T09:13:01Z</time>
      </trkpt>
      <trkpt lat="42.84973" lon="0.02704">
        <ele>1528</ele>
        <time>2012-12-22T09:13:02Z</time>
      </trkpt>
      <trkpt lat="42.84973" lon="0.02706">
        <ele>1528</ele>
        <time>2012-12-22T09:13:03Z</time>
      </trkpt>
      <trkpt lat="42.84972" lon="0.02709">
        <ele>1528</ele>
        <time>2012-12-22T09:13:05Z</time>
      </trkpt>
      <trkpt lat="42.84972" lon="0.0271">
        <ele>1528</ele>
        <time>2012-12-22T09:13:06Z</time>
      </trkpt>
      <trkpt lat="42.84972" lon="0.02712">
        <ele>1528</ele>
        <time>2012-12-22T09:13:07Z</time>
      </trkpt>
      <trkpt lat="42.84971" lon="0.02713">
        <ele>1527</ele>
        <time>2012-12-22T09:13:08Z</time>
      </trkpt>
      <trkpt lat="42.8497" lon="0.02716">
        <ele>1527</ele>
        <time>2012-12-22T09:13:10Z</time>
      </trkpt>
      <trkpt lat="42.8497" lon="0.02717">
        <ele>1527</ele>
        <time>2012-12-22T09:13:11Z</time>
      </trkpt>
      <trkpt lat="42.84969" lon="0.02719">
        <ele>1527</ele>
        <time>2012-12-22T09:13:12Z</time>
      </trkpt>
      <trkpt lat="42.84968" lon="0.02722">
        <ele>1527</ele>
        <time>2012-12-22T09:13:14Z</time>
      </trkpt>
      <trkpt lat="42.84967" lon="0.02724">
        <ele>1526</ele>
        <time>2012-12-22T09:13:16Z</time>
      </trkpt>
      <trkpt lat="42.84967" lon="0.02726">
        <ele>1526</ele>
        <time>2012-12-22T09:13:17Z</time>
      </trkpt>
      <trkpt lat="42.84967" lon="0.02727">
        <ele>1526</ele>
        <time>2012-12-22T09:13:18Z</time>
      </trkpt>
      <trkpt lat="42.84966" lon="0.02729">
        <ele>1526</ele>
        <time>2012-12-22T09:13:19Z</time>
      </trkpt>
      <trkpt lat="42.84966" lon="0.0273">
        <ele>1526</ele>
        <time>2012-12-22T09:13:20Z</time>
      </trkpt>
      <trkpt lat="42.84965" lon="0.02732">
        <ele>1526</ele>
        <time>2012-12-22T09:13:21Z</time>
      </trkpt>
      <trkpt lat="42.84965" lon="0.02733">
        <ele>1526</ele>
        <time>2012-12-22T09:13:22Z</time>
      </trkpt>
      <trkpt lat="42.84964" lon="0.02735">
        <ele>1526</ele>
        <time>2012-12-22T09:13:23Z</time>
      </trkpt>
      <trkpt lat="42.84964" lon="0.02737">
        <ele>1526</ele>
        <time>2012-12-22T09:13:24Z</time>
      </trkpt>
      <trkpt lat="42.84963" lon="0.02738">
        <ele>1526</ele>
        <time>2012-12-22T09:13:25Z</time>
      </trkpt>
      <trkpt lat="42.84963" lon="0.0274">
        <ele>1525</ele>
        <time>2012-12-22T09:13:26Z</time>
      </trkpt>
      <trkpt lat="42.84962" lon="0.02741">
        <ele>1525</ele>
        <time>2012-12-22T09:13:27Z</time>
      </trkpt>
      <trkpt lat="42.84962" lon="0.02743">
        <ele>1525</ele>
        <time>2012-12-22T09:13:28Z</time>
      </trkpt>
      <trkpt lat="42.84961" lon="0.02744">
        <ele>1525</ele>
        <time>2012-12-22T09:13:29Z</time>
      </trkpt>
      <trkpt lat="42.84961" lon="0.02746">
        <ele>1525</ele>
        <time>2012-12-22T09:13:30Z</time>
      </trkpt>
      <trkpt lat="42.8496" lon="0.02748">
        <ele>1525</ele>
        <time>2012-12-22T09:13:32Z</time>
      </trkpt>
      <trkpt lat="42.8496" lon="0.0275">
        <ele>1525</ele>
        <time>2012-12-22T09:13:33Z</time>
      </trkpt>
      <trkpt lat="42.84959" lon="0.02751">
        <ele>1524</ele>
        <time>2012-12-22T09:13:34Z</time>
      </trkpt>
      <trkpt lat="42.84959" lon="0.02753">
        <ele>1524</ele>
        <time>2012-12-22T09:13:35Z</time>
      </trkpt>
      <trkpt lat="42.84959" lon="0.02754">
        <ele>1524</ele>
        <time>2012-12-22T09:13:36Z</time>
      </trkpt>
      <trkpt lat="42.84958" lon="0.02756">
        <ele>1524</ele>
        <time>2012-12-22T09:13:37Z</time>
      </trkpt>
      <trkpt lat="42.84958" lon="0.02757">
        <ele>1524</ele>
        <time>2012-12-22T09:13:38Z</time>
      </trkpt>
      <trkpt lat="42.84957" lon="0.02759">
        <ele>1524</ele>
        <time>2012-12-22T09:13:39Z</time>
      </trkpt>
      <trkpt lat="42.84956" lon="0.02761">
        <ele>1524</ele>
        <time>2012-12-22T09:13:40Z</time>
      </trkpt>
      <trkpt lat="42.84956" lon="0.02762">
        <ele>1524</ele>
        <time>2012-12-22T09:13:41Z</time>
      </trkpt>
      <trkpt lat="42.84955" lon="0.02764">
        <ele>1523</ele>
        <time>2012-12-22T09:13:42Z</time>
      </trkpt>
      <trkpt lat="42.84955" lon="0.02765">
        <ele>1523</ele>
        <time>2012-12-22T09:13:43Z</time>
      </trkpt>
      <trkpt lat="42.84954" lon="0.02767">
        <ele>1523</ele>
        <time>2012-12-22T09:13:44Z</time>
      </trkpt>
      <trkpt lat="42.84954" lon="0.02768">
        <ele>1523</ele>
        <time>2012-12-22T09:13:45Z</time>
      </trkpt>
      <trkpt lat="42.84953" lon="0.0277">
        <ele>1523</ele>
        <time>2012-12-22T09:13:46Z</time>
      </trkpt>
      <trkpt lat="42.84953" lon="0.02771">
        <ele>1523</ele>
        <time>2012-12-22T09:13:47Z</time>
      </trkpt>
      <trkpt lat="42.84951" lon="0.02774">
        <ele>1522</ele>
        <time>2012-12-22T09:13:49Z</time>
      </trkpt>
      <trkpt lat="42.8495" lon="0.02777">
        <ele>1522</ele>
        <time>2012-12-22T09:13:51Z</time>
      </trkpt>
      <trkpt lat="42.84949" lon="0.02778">
        <ele>1522</ele>
        <time>2012-12-22T09:13:52Z</time>
      </trkpt>
      <trkpt lat="42.84948" lon="0.02781">
        <ele>1522</ele>
        <time>2012-12-22T09:13:54Z</time>
      </trkpt>
      <trkpt lat="42.84948" lon="0.02782">
        <ele>1522</ele>
        <time>2012-12-22T09:13:55Z</time>
      </trkpt>
      <trkpt lat="42.84947" lon="0.02784">
        <ele>1522</ele>
        <time>2012-12-22T09:13:56Z</time>
      </trkpt>
      <trkpt lat="42.84946" lon="0.02785">
        <ele>1521</ele>
        <time>2012-12-22T09:13:57Z</time>
      </trkpt>
      <trkpt lat="42.84946" lon="0.02787">
        <ele>1521</ele>
        <time>2012-12-22T09:13:58Z</time>
      </trkpt>
      <trkpt lat="42.84945" lon="0.02788">
        <ele>1521</ele>
        <time>2012-12-22T09:13:59Z</time>
      </trkpt>
      <trkpt lat="42.84945" lon="0.0279">
        <ele>1521</ele>
        <time>2012-12-22T09:14:00Z</time>
      </trkpt>
      <trkpt lat="42.84944" lon="0.02792">
        <ele>1521</ele>
        <time>2012-12-22T09:14:01Z</time>
      </trkpt>
      <trkpt lat="42.84944" lon="0.02793">
        <ele>1521</ele>
        <time>2012-12-22T09:14:02Z</time>
      </trkpt>
      <trkpt lat="42.84944" lon="0.02795">
        <ele>1521</ele>
        <time>2012-12-22T09:14:03Z</time>
      </trkpt>
      <trkpt lat="42.84943" lon="0.02796">
        <ele>1521</ele>
        <time>2012-12-22T09:14:04Z</time>
      </trkpt>
      <trkpt lat="42.84943" lon="0.02799">
        <ele>1520</ele>
        <time>2012-12-22T09:14:06Z</time>
      </trkpt>
      <trkpt lat="42.84943" lon="0.028">
        <ele>1520</ele>
        <time>2012-12-22T09:14:07Z</time>
      </trkpt>
      <trkpt lat="42.84943" lon="0.02802">
        <ele>1520</ele>
        <time>2012-12-22T09:14:08Z</time>
      </trkpt>
      <trkpt lat="42.84943" lon="0.02804">
        <ele>1520</ele>
        <time>2012-12-22T09:14:09Z</time>
      </trkpt>
      <trkpt lat="42.84943" lon="0.02805">
        <ele>1520</ele>
        <time>2012-12-22T09:14:10Z</time>
      </trkpt>
      <trkpt lat="42.84942" lon="0.02807">
        <ele>1520</ele>
        <time>2012-12-22T09:14:11Z</time>
      </trkpt>
      <trkpt lat="42.84942" lon="0.02808">
        <ele>1520</ele>
        <time>2012-12-22T09:14:12Z</time>
      </trkpt>
      <trkpt lat="42.84942" lon="0.0281">
        <ele>1520</ele>
        <time>2012-12-22T09:14:13Z</time>
      </trkpt>
      <trkpt lat="42.84942" lon="0.02811">
        <ele>1519</ele>
        <time>2012-12-22T09:14:14Z</time>
      </trkpt>
      <trkpt lat="42.84942" lon="0.02813">
        <ele>1519</ele>
        <time>2012-12-22T09:14:15Z</time>
      </trkpt>
      <trkpt lat="42.84942" lon="0.02814">
        <ele>1519</ele>
        <time>2012-12-22T09:14:16Z</time>
      </trkpt>
      <trkpt lat="42.84941" lon="0.02816">
        <ele>1519</ele>
        <time>2012-12-22T09:14:17Z</time>
      </trkpt>
      <trkpt lat="42.84941" lon="0.02819">
        <ele>1519</ele>
        <time>2012-12-22T09:14:19Z</time>
      </trkpt>
      <trkpt lat="42.84941" lon="0.0282">
        <ele>1519</ele>
        <time>2012-12-22T09:14:20Z</time>
      </trkpt>
      <trkpt lat="42.84941" lon="0.02822">
        <ele>1519</ele>
        <time>2012-12-22T09:14:22Z</time>
      </trkpt>
      <trkpt lat="42.8494" lon="0.02825">
        <ele>1518</ele>
        <time>2012-12-22T09:14:24Z</time>
      </trkpt>
      <trkpt lat="42.8494" lon="0.02828">
        <ele>1518</ele>
        <time>2012-12-22T09:14:26Z</time>
      </trkpt>
      <trkpt lat="42.8494" lon="0.02829">
        <ele>1518</ele>
        <time>2012-12-22T09:14:27Z</time>
      </trkpt>
      <trkpt lat="42.84939" lon="0.02831">
        <ele>1518</ele>
        <time>2012-12-22T09:14:28Z</time>
      </trkpt>
      <trkpt lat="42.84939" lon="0.02833">
        <ele>1518</ele>
        <time>2012-12-22T09:14:30Z</time>
      </trkpt>
      <trkpt lat="42.84939" lon="0.02835">
        <ele>1518</ele>
        <time>2012-12-22T09:14:31Z</time>
      </trkpt>
      <trkpt lat="42.84939" lon="0.02836">
        <ele>1518</ele>
        <time>2012-12-22T09:14:32Z</time>
      </trkpt>
      <trkpt lat="42.84938" lon="0.02838">
        <ele>1518</ele>
        <time>2012-12-22T09:14:33Z</time>
      </trkpt>
      <trkpt lat="42.84938" lon="0.0284">
        <ele>1518</ele>
        <time>2012-12-22T09:14:35Z</time>
      </trkpt>
      <trkpt lat="42.84938" lon="0.02842">
        <ele>1518</ele>
        <time>2012-12-22T09:14:36Z</time>
      </trkpt>
      <trkpt lat="42.84937" lon="0.02845">
        <ele>1518</ele>
        <time>2012-12-22T09:14:38Z</time>
      </trkpt>
      <trkpt lat="42.84936" lon="0.02847">
        <ele>1517</ele>
        <time>2012-12-22T09:14:40Z</time>
      </trkpt>
      <trkpt lat="42.84936" lon="0.02849">
        <ele>1517</ele>
        <time>2012-12-22T09:14:41Z</time>
      </trkpt>
      <trkpt lat="42.84934" lon="0.02851">
        <ele>1517</ele>
        <time>2012-12-22T09:14:43Z</time>
      </trkpt>
      <trkpt lat="42.84934" lon="0.02853">
        <ele>1517</ele>
        <time>2012-12-22T09:14:44Z</time>
      </trkpt>
      <trkpt lat="42.84932" lon="0.02855">
        <ele>1516</ele>
        <time>2012-12-22T09:14:46Z</time>
      </trkpt>
      <trkpt lat="42.84932" lon="0.02857">
        <ele>1516</ele>
        <time>2012-12-22T09:14:47Z</time>
      </trkpt>
      <trkpt lat="42.84931" lon="0.02858">
        <ele>1516</ele>
        <time>2012-12-22T09:14:48Z</time>
      </trkpt>
      <trkpt lat="42.84929" lon="0.02861">
        <ele>1516</ele>
        <time>2012-12-22T09:14:50Z</time>
      </trkpt>
      <trkpt lat="42.84928" lon="0.02862">
        <ele>1516</ele>
        <time>2012-12-22T09:14:51Z</time>
      </trkpt>
      <trkpt lat="42.84927" lon="0.02865">
        <ele>1516</ele>
        <time>2012-12-22T09:14:53Z</time>
      </trkpt>
      <trkpt lat="42.84925" lon="0.02868">
        <ele>1516</ele>
        <time>2012-12-22T09:14:55Z</time>
      </trkpt>
      <trkpt lat="42.84923" lon="0.0287">
        <ele>1516</ele>
        <time>2012-12-22T09:14:57Z</time>
      </trkpt>
      <trkpt lat="42.84922" lon="0.02873">
        <ele>1516</ele>
        <time>2012-12-22T09:14:59Z</time>
      </trkpt>
      <trkpt lat="42.84921" lon="0.02874">
        <ele>1516</ele>
        <time>2012-12-22T09:15:00Z</time>
      </trkpt>
      <trkpt lat="42.84919" lon="0.02877">
        <ele>1516</ele>
        <time>2012-12-22T09:15:02Z</time>
      </trkpt>
      <trkpt lat="42.84917" lon="0.0288">
        <ele>1516</ele>
        <time>2012-12-22T09:15:04Z</time>
      </trkpt>
      <trkpt lat="42.84915" lon="0.02882">
        <ele>1516</ele>
        <time>2012-12-22T09:15:06Z</time>
      </trkpt>
      <trkpt lat="42.84914" lon="0.02884">
        <ele>1516</ele>
        <time>2012-12-22T09:15:07Z</time>
      </trkpt>
      <trkpt lat="42.84912" lon="0.02886">
        <ele>1516</ele>
        <time>2012-12-22T09:15:09Z</time>
      </trkpt>
      <trkpt lat="42.8491" lon="0.02888">
        <ele>1516</ele>
        <time>2012-12-22T09:15:11Z</time>
      </trkpt>
      <trkpt lat="42.84908" lon="0.02891">
        <ele>1516</ele>
        <time>2012-12-22T09:15:13Z</time>
      </trkpt>
      <trkpt lat="42.84907" lon="0.02892">
        <ele>1516</ele>
        <time>2012-12-22T09:15:14Z</time>
      </trkpt>
      <trkpt lat="42.84905" lon="0.02894">
        <ele>1516</ele>
        <time>2012-12-22T09:15:16Z</time>
      </trkpt>
      <trkpt lat="42.84903" lon="0.02895">
        <ele>1516</ele>
        <time>2012-12-22T09:15:18Z</time>
      </trkpt>
      <trkpt lat="42.84902" lon="0.02896">
        <ele>1516</ele>
        <time>2012-12-22T09:15:19Z</time>
      </trkpt>
      <trkpt lat="42.849" lon="0.02898">
        <ele>1516</ele>
        <time>2012-12-22T09:15:21Z</time>
      </trkpt>
      <trkpt lat="42.84898" lon="0.02899">
        <ele>1516</ele>
        <time>2012-12-22T09:15:23Z</time>
      </trkpt>
      <trkpt lat="42.84896" lon="0.02902">
        <ele>1516</ele>
        <time>2012-12-22T09:15:25Z</time>
      </trkpt>
      <trkpt lat="42.84895" lon="0.02904">
        <ele>1516</ele>
        <time>2012-12-22T09:15:27Z</time>
      </trkpt>
      <trkpt lat="42.84893" lon="0.02905">
        <ele>1516</ele>
        <time>2012-12-22T09:15:29Z</time>
      </trkpt>
      <trkpt lat="42.84892" lon="0.02904">
        <ele>1516</ele>
        <time>2012-12-22T09:15:31Z</time>
      </trkpt>
      <trkpt lat="42.8489" lon="0.02905">
        <ele>1516</ele>
        <time>2012-12-22T09:15:40Z</time>
      </trkpt>
      <trkpt lat="42.8489" lon="0.02907">
        <ele>1516</ele>
        <time>2012-12-22T09:15:41Z</time>
      </trkpt>
      <trkpt lat="42.8489" lon="0.02908">
        <ele>1516</ele>
        <time>2012-12-22T09:15:42Z</time>
      </trkpt>
      <trkpt lat="42.84889" lon="0.0291">
        <ele>1516</ele>
        <time>2012-12-22T09:15:43Z</time>
      </trkpt>
      <trkpt lat="42.84889" lon="0.02912">
        <ele>1516</ele>
        <time>2012-12-22T09:15:44Z</time>
      </trkpt>
      <trkpt lat="42.84889" lon="0.02913">
        <ele>1516</ele>
        <time>2012-12-22T09:15:45Z</time>
      </trkpt>
      <trkpt lat="42.84889" lon="0.02915">
        <ele>1516</ele>
        <time>2012-12-22T09:15:46Z</time>
      </trkpt>
      <trkpt lat="42.84888" lon="0.02916">
        <ele>1516</ele>
        <time>2012-12-22T09:15:47Z</time>
      </trkpt>
      <trkpt lat="42.84888" lon="0.02918">
        <ele>1516</ele>
        <time>2012-12-22T09:15:48Z</time>
      </trkpt>
      <trkpt lat="42.84888" lon="0.0292">
        <ele>1516</ele>
        <time>2012-12-22T09:15:49Z</time>
      </trkpt>
      <trkpt lat="42.84888" lon="0.02921">
        <ele>1516</ele>
        <time>2012-12-22T09:15:50Z</time>
      </trkpt>
      <trkpt lat="42.84887" lon="0.02923">
        <ele>1516</ele>
        <time>2012-12-22T09:15:51Z</time>
      </trkpt>
      <trkpt lat="42.84887" lon="0.02924">
        <ele>1516</ele>
        <time>2012-12-22T09:15:52Z</time>
      </trkpt>
      <trkpt lat="42.84887" lon="0.02926">
        <ele>1516</ele>
        <time>2012-12-22T09:15:53Z</time>
      </trkpt>
      <trkpt lat="42.84887" lon="0.02928">
        <ele>1516</ele>
        <time>2012-12-22T09:15:54Z</time>
      </trkpt>
      <trkpt lat="42.84887" lon="0.02929">
        <ele>1516</ele>
        <time>2012-12-22T09:15:55Z</time>
      </trkpt>
      <trkpt lat="42.84886" lon="0.02931">
        <ele>1516</ele>
        <time>2012-12-22T09:15:56Z</time>
      </trkpt>
      <trkpt lat="42.84886" lon="0.02933">
        <ele>1516</ele>
        <time>2012-12-22T09:15:57Z</time>
      </trkpt>
      <trkpt lat="42.84886" lon="0.02934">
        <ele>1516</ele>
        <time>2012-12-22T09:15:58Z</time>
      </trkpt>
      <trkpt lat="42.84886" lon="0.02936">
        <ele>1516</ele>
        <time>2012-12-22T09:15:59Z</time>
      </trkpt>
      <trkpt lat="42.84885" lon="0.02938">
        <ele>1516</ele>
        <time>2012-12-22T09:16:00Z</time>
      </trkpt>
      <trkpt lat="42.84885" lon="0.02939">
        <ele>1516</ele>
        <time>2012-12-22T09:16:01Z</time>
      </trkpt>
      <trkpt lat="42.84885" lon="0.02941">
        <ele>1516</ele>
        <time>2012-12-22T09:16:02Z</time>
      </trkpt>
      <trkpt lat="42.84884" lon="0.02943">
        <ele>1516</ele>
        <time>2012-12-22T09:16:03Z</time>
      </trkpt>
      <trkpt lat="42.84884" lon="0.02944">
        <ele>1516</ele>
        <time>2012-12-22T09:16:04Z</time>
      </trkpt>
      <trkpt lat="42.84884" lon="0.02946">
        <ele>1516</ele>
        <time>2012-12-22T09:16:05Z</time>
      </trkpt>
      <trkpt lat="42.84884" lon="0.02947">
        <ele>1516</ele>
        <time>2012-12-22T09:16:06Z</time>
      </trkpt>
      <trkpt lat="42.84883" lon="0.02949">
        <ele>1516</ele>
        <time>2012-12-22T09:16:07Z</time>
      </trkpt>
      <trkpt lat="42.84883" lon="0.02951">
        <ele>1516</ele>
        <time>2012-12-22T09:16:08Z</time>
      </trkpt>
      <trkpt lat="42.84883" lon="0.02953">
        <ele>1516</ele>
        <time>2012-12-22T09:16:09Z</time>
      </trkpt>
      <trkpt lat="42.84883" lon="0.02954">
        <ele>1516</ele>
        <time>2012-12-22T09:16:10Z</time>
      </trkpt>
      <trkpt lat="42.84882" lon="0.02956">
        <ele>1516</ele>
        <time>2012-12-22T09:16:11Z</time>
      </trkpt>
      <trkpt lat="42.84882" lon="0.02957">
        <ele>1516</ele>
        <time>2012-12-22T09:16:12Z</time>
      </trkpt>
      <trkpt lat="42.84882" lon="0.02959">
        <ele>1516</ele>
        <time>2012-12-22T09:16:13Z</time>
      </trkpt>
      <trkpt lat="42.84882" lon="0.02961">
        <ele>1516</ele>
        <time>2012-12-22T09:16:14Z</time>
      </trkpt>
      <trkpt lat="42.84881" lon="0.02963">
        <ele>1516</ele>
        <time>2012-12-22T09:16:15Z</time>
      </trkpt>
      <trkpt lat="42.84881" lon="0.02964">
        <ele>1516</ele>
        <time>2012-12-22T09:16:16Z</time>
      </trkpt>
      <trkpt lat="42.84881" lon="0.02966">
        <ele>1516</ele>
        <time>2012-12-22T09:16:17Z</time>
      </trkpt>
      <trkpt lat="42.84881" lon="0.02968">
        <ele>1516</ele>
        <time>2012-12-22T09:16:18Z</time>
      </trkpt>
      <trkpt lat="42.84881" lon="0.0297">
        <ele>1516</ele>
        <time>2012-12-22T09:16:19Z</time>
      </trkpt>
      <trkpt lat="42.8488" lon="0.02971">
        <ele>1516</ele>
        <time>2012-12-22T09:16:20Z</time>
      </trkpt>
      <trkpt lat="42.8488" lon="0.02973">
        <ele>1516</ele>
        <time>2012-12-22T09:16:21Z</time>
      </trkpt>
      <trkpt lat="42.8488" lon="0.02974">
        <ele>1516</ele>
        <time>2012-12-22T09:16:22Z</time>
      </trkpt>
      <trkpt lat="42.8488" lon="0.02976">
        <ele>1516</ele>
        <time>2012-12-22T09:16:23Z</time>
      </trkpt>
      <trkpt lat="42.8488" lon="0.02978">
        <ele>1516</ele>
        <time>2012-12-22T09:16:24Z</time>
      </trkpt>
      <trkpt lat="42.8488" lon="0.0298">
        <ele>1516</ele>
        <time>2012-12-22T09:16:25Z</time>
      </trkpt>
      <trkpt lat="42.8488" lon="0.02981">
        <ele>1516</ele>
        <time>2012-12-22T09:16:26Z</time>
      </trkpt>
      <trkpt lat="42.8488" lon="0.02983">
        <ele>1516</ele>
        <time>2012-12-22T09:16:27Z</time>
      </trkpt>
      <trkpt lat="42.8488" lon="0.02984">
        <ele>1516</ele>
        <time>2012-12-22T09:16:28Z</time>
      </trkpt>
      <trkpt lat="42.8488" lon="0.02986">
        <ele>1516</ele>
        <time>2012-12-22T09:16:29Z</time>
      </trkpt>
      <trkpt lat="42.8488" lon="0.02988">
        <ele>1515</ele>
        <time>2012-12-22T09:16:30Z</time>
      </trkpt>
      <trkpt lat="42.84879" lon="0.0299">
        <ele>1515</ele>
        <time>2012-12-22T09:16:31Z</time>
      </trkpt>
      <trkpt lat="42.84879" lon="0.02991">
        <ele>1515</ele>
        <time>2012-12-22T09:16:32Z</time>
      </trkpt>
      <trkpt lat="42.84879" lon="0.02994">
        <ele>1515</ele>
        <time>2012-12-22T09:16:34Z</time>
      </trkpt>
      <trkpt lat="42.84879" lon="0.02995">
        <ele>1515</ele>
        <time>2012-12-22T09:16:35Z</time>
      </trkpt>
      <trkpt lat="42.84879" lon="0.02997">
        <ele>1515</ele>
        <time>2012-12-22T09:16:36Z</time>
      </trkpt>
      <trkpt lat="42.8488" lon="0.02998">
        <ele>1515</ele>
        <time>2012-12-22T09:16:37Z</time>
      </trkpt>
      <trkpt lat="42.8488" lon="0.03">
        <ele>1515</ele>
        <time>2012-12-22T09:16:38Z</time>
      </trkpt>
      <trkpt lat="42.8488" lon="0.03002">
        <ele>1515</ele>
        <time>2012-12-22T09:16:39Z</time>
      </trkpt>
      <trkpt lat="42.8488" lon="0.03003">
        <ele>1515</ele>
        <time>2012-12-22T09:16:40Z</time>
      </trkpt>
      <trkpt lat="42.8488" lon="0.03005">
        <ele>1515</ele>
        <time>2012-12-22T09:16:41Z</time>
      </trkpt>
      <trkpt lat="42.8488" lon="0.03006">
        <ele>1515</ele>
        <time>2012-12-22T09:16:42Z</time>
      </trkpt>
      <trkpt lat="42.84879" lon="0.03008">
        <ele>1515</ele>
        <time>2012-12-22T09:16:43Z</time>
      </trkpt>
      <trkpt lat="42.84879" lon="0.0301">
        <ele>1515</ele>
        <time>2012-12-22T09:16:44Z</time>
      </trkpt>
      <trkpt lat="42.84879" lon="0.03011">
        <ele>1515</ele>
        <time>2012-12-22T09:16:45Z</time>
      </trkpt>
      <trkpt lat="42.84879" lon="0.03014">
        <ele>1515</ele>
        <time>2012-12-22T09:16:47Z</time>
      </trkpt>
      <trkpt lat="42.84879" lon="0.03015">
        <ele>1515</ele>
        <time>2012-12-22T09:16:48Z</time>
      </trkpt>
      <trkpt lat="42.84879" lon="0.03017">
        <ele>1515</ele>
        <time>2012-12-22T09:16:49Z</time>
      </trkpt>
      <trkpt lat="42.84879" lon="0.03018">
        <ele>1515</ele>
        <time>2012-12-22T09:16:50Z</time>
      </trkpt>
      <trkpt lat="42.84879" lon="0.0302">
        <ele>1515</ele>
        <time>2012-12-22T09:16:51Z</time>
      </trkpt>
      <trkpt lat="42.84879" lon="0.03022">
        <ele>1515</ele>
        <time>2012-12-22T09:16:52Z</time>
      </trkpt>
      <trkpt lat="42.8488" lon="0.03023">
        <ele>1515</ele>
        <time>2012-12-22T09:16:53Z</time>
      </trkpt>
      <trkpt lat="42.8488" lon="0.03025">
        <ele>1515</ele>
        <time>2012-12-22T09:16:54Z</time>
      </trkpt>
      <trkpt lat="42.8488" lon="0.03026">
        <ele>1515</ele>
        <time>2012-12-22T09:16:55Z</time>
      </trkpt>
      <trkpt lat="42.8488" lon="0.03029">
        <ele>1515</ele>
        <time>2012-12-22T09:16:57Z</time>
      </trkpt>
      <trkpt lat="42.84881" lon="0.03032">
        <ele>1515</ele>
        <time>2012-12-22T09:16:59Z</time>
      </trkpt>
      <trkpt lat="42.84881" lon="0.03033">
        <ele>1515</ele>
        <time>2012-12-22T09:17:00Z</time>
      </trkpt>
      <trkpt lat="42.84882" lon="0.03036">
        <ele>1515</ele>
        <time>2012-12-22T09:17:02Z</time>
      </trkpt>
      <trkpt lat="42.84882" lon="0.03037">
        <ele>1515</ele>
        <time>2012-12-22T09:17:03Z</time>
      </trkpt>
      <trkpt lat="42.84883" lon="0.0304">
        <ele>1515</ele>
        <time>2012-12-22T09:17:05Z</time>
      </trkpt>
      <trkpt lat="42.84883" lon="0.03042">
        <ele>1515</ele>
        <time>2012-12-22T09:17:07Z</time>
      </trkpt>
      <trkpt lat="42.84884" lon="0.03045">
        <ele>1515</ele>
        <time>2012-12-22T09:17:09Z</time>
      </trkpt>
      <trkpt lat="42.84885" lon="0.03046">
        <ele>1515</ele>
        <time>2012-12-22T09:17:10Z</time>
      </trkpt>
      <trkpt lat="42.84885" lon="0.03048">
        <ele>1515</ele>
        <time>2012-12-22T09:17:11Z</time>
      </trkpt>
      <trkpt lat="42.84887" lon="0.0305">
        <ele>1515</ele>
        <time>2012-12-22T09:17:13Z</time>
      </trkpt>
      <trkpt lat="42.84888" lon="0.03053">
        <ele>1515</ele>
        <time>2012-12-22T09:17:15Z</time>
      </trkpt>
      <trkpt lat="42.84889" lon="0.03055">
        <ele>1515</ele>
        <time>2012-12-22T09:17:17Z</time>
      </trkpt>
      <trkpt lat="42.8489" lon="0.03057">
        <ele>1515</ele>
        <time>2012-12-22T09:17:19Z</time>
      </trkpt>
      <trkpt lat="42.84892" lon="0.0306">
        <ele>1515</ele>
        <time>2012-12-22T09:17:21Z</time>
      </trkpt>
      <trkpt lat="42.84893" lon="0.03063">
        <ele>1515</ele>
        <time>2012-12-22T09:17:23Z</time>
      </trkpt>
      <trkpt lat="42.84895" lon="0.03065">
        <ele>1515</ele>
        <time>2012-12-22T09:17:25Z</time>
      </trkpt>
      <trkpt lat="42.84895" lon="0.03067">
        <ele>1515</ele>
        <time>2012-12-22T09:17:26Z</time>
      </trkpt>
      <trkpt lat="42.84896" lon="0.03068">
        <ele>1515</ele>
        <time>2012-12-22T09:17:27Z</time>
      </trkpt>
      <trkpt lat="42.84897" lon="0.0307">
        <ele>1515</ele>
        <time>2012-12-22T09:17:28Z</time>
      </trkpt>
      <trkpt lat="42.84898" lon="0.03072">
        <ele>1515</ele>
        <time>2012-12-22T09:17:30Z</time>
      </trkpt>
      <trkpt lat="42.84898" lon="0.03074">
        <ele>1515</ele>
        <time>2012-12-22T09:17:31Z</time>
      </trkpt>
      <trkpt lat="42.84899" lon="0.03075">
        <ele>1515</ele>
        <time>2012-12-22T09:17:32Z</time>
      </trkpt>
      <trkpt lat="42.84899" lon="0.03077">
        <ele>1515</ele>
        <time>2012-12-22T09:17:33Z</time>
      </trkpt>
      <trkpt lat="42.849" lon="0.03078">
        <ele>1515</ele>
        <time>2012-12-22T09:17:34Z</time>
      </trkpt>
      <trkpt lat="42.849" lon="0.03081">
        <ele>1515</ele>
        <time>2012-12-22T09:17:36Z</time>
      </trkpt>
      <trkpt lat="42.84901" lon="0.03083">
        <ele>1515</ele>
        <time>2012-12-22T09:17:37Z</time>
      </trkpt>
      <trkpt lat="42.84901" lon="0.03085">
        <ele>1515</ele>
        <time>2012-12-22T09:17:38Z</time>
      </trkpt>
      <trkpt lat="42.84901" lon="0.03086">
        <ele>1515</ele>
        <time>2012-12-22T09:17:39Z</time>
      </trkpt>
      <trkpt lat="42.84901" lon="0.03088">
        <ele>1515</ele>
        <time>2012-12-22T09:17:40Z</time>
      </trkpt>
      <trkpt lat="42.84902" lon="0.0309">
        <ele>1515</ele>
        <time>2012-12-22T09:17:41Z</time>
      </trkpt>
      <trkpt lat="42.84902" lon="0.03091">
        <ele>1515</ele>
        <time>2012-12-22T09:17:42Z</time>
      </trkpt>
      <trkpt lat="42.84902" lon="0.03093">
        <ele>1515</ele>
        <time>2012-12-22T09:17:43Z</time>
      </trkpt>
      <trkpt lat="42.84902" lon="0.03094">
        <ele>1515</ele>
        <time>2012-12-22T09:17:44Z</time>
      </trkpt>
      <trkpt lat="42.84902" lon="0.03096">
        <ele>1515</ele>
        <time>2012-12-22T09:17:45Z</time>
      </trkpt>
      <trkpt lat="42.84903" lon="0.03097">
        <ele>1515</ele>
        <time>2012-12-22T09:17:46Z</time>
      </trkpt>
      <trkpt lat="42.84903" lon="0.031">
        <ele>1515</ele>
        <time>2012-12-22T09:17:48Z</time>
      </trkpt>
      <trkpt lat="42.84903" lon="0.03101">
        <ele>1514</ele>
        <time>2012-12-22T09:17:49Z</time>
      </trkpt>
      <trkpt lat="42.84903" lon="0.03103">
        <ele>1514</ele>
        <time>2012-12-22T09:17:50Z</time>
      </trkpt>
      <trkpt lat="42.84903" lon="0.03105">
        <ele>1514</ele>
        <time>2012-12-22T09:17:51Z</time>
      </trkpt>
      <trkpt lat="42.84903" lon="0.03106">
        <ele>1514</ele>
        <time>2012-12-22T09:17:52Z</time>
      </trkpt>
      <trkpt lat="42.84903" lon="0.03108">
        <ele>1514</ele>
        <time>2012-12-22T09:17:53Z</time>
      </trkpt>
      <trkpt lat="42.84904" lon="0.03111">
        <ele>1514</ele>
        <time>2012-12-22T09:17:55Z</time>
      </trkpt>
      <trkpt lat="42.84904" lon="0.03112">
        <ele>1514</ele>
        <time>2012-12-22T09:17:56Z</time>
      </trkpt>
      <trkpt lat="42.84904" lon="0.03114">
        <ele>1514</ele>
        <time>2012-12-22T09:17:57Z</time>
      </trkpt>
      <trkpt lat="42.84904" lon="0.03115">
        <ele>1514</ele>
        <time>2012-12-22T09:17:58Z</time>
      </trkpt>
      <trkpt lat="42.84904" lon="0.03117">
        <ele>1514</ele>
        <time>2012-12-22T09:17:59Z</time>
      </trkpt>
      <trkpt lat="42.84904" lon="0.03118">
        <ele>1514</ele>
        <time>2012-12-22T09:18:00Z</time>
      </trkpt>
      <trkpt lat="42.84904" lon="0.0312">
        <ele>1514</ele>
        <time>2012-12-22T09:18:01Z</time>
      </trkpt>
      <trkpt lat="42.84904" lon="0.03121">
        <ele>1514</ele>
        <time>2012-12-22T09:18:02Z</time>
      </trkpt>
      <trkpt lat="42.84904" lon="0.03123">
        <ele>1514</ele>
        <time>2012-12-22T09:18:03Z</time>
      </trkpt>
      <trkpt lat="42.84904" lon="0.03124">
        <ele>1514</ele>
        <time>2012-12-22T09:18:04Z</time>
      </trkpt>
      <trkpt lat="42.84904" lon="0.03126">
        <ele>1514</ele>
        <time>2012-12-22T09:18:05Z</time>
      </trkpt>
      <trkpt lat="42.84904" lon="0.03128">
        <ele>1514</ele>
        <time>2012-12-22T09:18:07Z</time>
      </trkpt>
      <trkpt lat="42.84905" lon="0.0313">
        <ele>1514</ele>
        <time>2012-12-22T09:18:08Z</time>
      </trkpt>
      <trkpt lat="42.84905" lon="0.03131">
        <ele>1514</ele>
        <time>2012-12-22T09:18:09Z</time>
      </trkpt>
      <trkpt lat="42.84905" lon="0.03134">
        <ele>1514</ele>
        <time>2012-12-22T09:18:11Z</time>
      </trkpt>
      <trkpt lat="42.84905" lon="0.03135">
        <ele>1514</ele>
        <time>2012-12-22T09:18:12Z</time>
      </trkpt>
      <trkpt lat="42.84905" lon="0.03137">
        <ele>1514</ele>
        <time>2012-12-22T09:18:13Z</time>
      </trkpt>
      <trkpt lat="42.84905" lon="0.03139">
        <ele>1514</ele>
        <time>2012-12-22T09:18:14Z</time>
      </trkpt>
      <trkpt lat="42.84905" lon="0.0314">
        <ele>1514</ele>
        <time>2012-12-22T09:18:15Z</time>
      </trkpt>
      <trkpt lat="42.84906" lon="0.03142">
        <ele>1514</ele>
        <time>2012-12-22T09:18:16Z</time>
      </trkpt>
      <trkpt lat="42.84906" lon="0.03144">
        <ele>1514</ele>
        <time>2012-12-22T09:18:18Z</time>
      </trkpt>
      <trkpt lat="42.84906" lon="0.03146">
        <ele>1514</ele>
        <time>2012-12-22T09:18:19Z</time>
      </trkpt>
      <trkpt lat="42.84906" lon="0.03148">
        <ele>1514</ele>
        <time>2012-12-22T09:18:20Z</time>
      </trkpt>
      <trkpt lat="42.84906" lon="0.03149">
        <ele>1514</ele>
        <time>2012-12-22T09:18:21Z</time>
      </trkpt>
      <trkpt lat="42.84906" lon="0.03152">
        <ele>1513</ele>
        <time>2012-12-22T09:18:23Z</time>
      </trkpt>
      <trkpt lat="42.84906" lon="0.03153">
        <ele>1513</ele>
        <time>2012-12-22T09:18:24Z</time>
      </trkpt>
      <trkpt lat="42.84906" lon="0.03155">
        <ele>1513</ele>
        <time>2012-12-22T09:18:25Z</time>
      </trkpt>
      <trkpt lat="42.84906" lon="0.03156">
        <ele>1513</ele>
        <time>2012-12-22T09:18:26Z</time>
      </trkpt>
      <trkpt lat="42.84906" lon="0.03159">
        <ele>1513</ele>
        <time>2012-12-22T09:18:28Z</time>
      </trkpt>
      <trkpt lat="42.84906" lon="0.03161">
        <ele>1513</ele>
        <time>2012-12-22T09:18:30Z</time>
      </trkpt>
      <trkpt lat="42.84907" lon="0.03163">
        <ele>1513</ele>
        <time>2012-12-22T09:18:31Z</time>
      </trkpt>
      <trkpt lat="42.84907" lon="0.03164">
        <ele>1513</ele>
        <time>2012-12-22T09:18:32Z</time>
      </trkpt>
      <trkpt lat="42.84908" lon="0.03167">
        <ele>1513</ele>
        <time>2012-12-22T09:18:34Z</time>
      </trkpt>
      <trkpt lat="42.84908" lon="0.03168">
        <ele>1513</ele>
        <time>2012-12-22T09:18:35Z</time>
      </trkpt>
      <trkpt lat="42.84907" lon="0.03172">
        <ele>1513</ele>
        <time>2012-12-22T09:18:37Z</time>
      </trkpt>
      <trkpt lat="42.84907" lon="0.03174">
        <ele>1513</ele>
        <time>2012-12-22T09:18:38Z</time>
      </trkpt>
      <trkpt lat="42.84907" lon="0.03175">
        <ele>1513</ele>
        <time>2012-12-22T09:18:39Z</time>
      </trkpt>
      <trkpt lat="42.84908" lon="0.03177">
        <ele>1513</ele>
        <time>2012-12-22T09:18:39Z</time>
      </trkpt>
      <trkpt lat="42.84908" lon="0.03179">
        <ele>1513</ele>
        <time>2012-12-22T09:18:41Z</time>
      </trkpt>
      <trkpt lat="42.84908" lon="0.03181">
        <ele>1513</ele>
        <time>2012-12-22T09:18:43Z</time>
      </trkpt>
      <trkpt lat="42.84908" lon="0.03183">
        <ele>1513</ele>
        <time>2012-12-22T09:18:44Z</time>
      </trkpt>
      <trkpt lat="42.84909" lon="0.03184">
        <ele>1513</ele>
        <time>2012-12-22T09:18:45Z</time>
      </trkpt>
      <trkpt lat="42.84909" lon="0.03187">
        <ele>1513</ele>
        <time>2012-12-22T09:18:47Z</time>
      </trkpt>
      <trkpt lat="42.84909" lon="0.03188">
        <ele>1513</ele>
        <time>2012-12-22T09:18:47Z</time>
      </trkpt>
      <trkpt lat="42.84909" lon="0.0319">
        <ele>1513</ele>
        <time>2012-12-22T09:18:49Z</time>
      </trkpt>
      <trkpt lat="42.8491" lon="0.03192">
        <ele>1513</ele>
        <time>2012-12-22T09:18:51Z</time>
      </trkpt>
      <trkpt lat="42.8491" lon="0.03194">
        <ele>1513</ele>
        <time>2012-12-22T09:18:53Z</time>
      </trkpt>
      <trkpt lat="42.84912" lon="0.03196">
        <ele>1513</ele>
        <time>2012-12-22T09:19:02Z</time>
      </trkpt>
      <trkpt lat="42.84912" lon="0.03198">
        <ele>1513</ele>
        <time>2012-12-22T09:19:36Z</time>
      </trkpt>
      <trkpt lat="42.84912" lon="0.03199">
        <ele>1513</ele>
        <time>2012-12-22T09:19:48Z</time>
      </trkpt>
      <trkpt lat="42.84913" lon="0.03198">
        <ele>1513</ele>
        <time>2012-12-22T09:20:08Z</time>
      </trkpt>
      <trkpt lat="42.84914" lon="0.03197">
        <ele>1513</ele>
        <time>2012-12-22T09:20:13Z</time>
      </trkpt>
      <trkpt lat="42.84913" lon="0.03197">
        <ele>1513</ele>
        <time>2012-12-22T09:20:36Z</time>
      </trkpt>
      <trkpt lat="42.84912" lon="0.03196">
        <ele>1513</ele>
        <time>2012-12-22T09:20:58Z</time>
      </trkpt>
      <trkpt lat="42.8491" lon="0.03195">
        <ele>1513</ele>
        <time>2012-12-22T09:21:04Z</time>
      </trkpt>
      <trkpt lat="42.8491" lon="0.03196">
        <ele>1509</ele>
        <time>2012-12-22T09:21:17Z</time>
      </trkpt>
      <trkpt lat="42.84911" lon="0.03195">
        <ele>1506</ele>
        <time>2012-12-22T09:21:32Z</time>
      </trkpt>
      <trkpt lat="42.84911" lon="0.03193">
        <ele>1506</ele>
        <time>2012-12-22T09:21:35Z</time>
      </trkpt>
      <trkpt lat="42.8491" lon="0.03191">
        <ele>1506</ele>
        <time>2012-12-22T09:21:40Z</time>
      </trkpt>
      <trkpt lat="42.84909" lon="0.0319">
        <ele>1506</ele>
        <time>2012-12-22T09:21:43Z</time>
      </trkpt>
      <trkpt lat="42.8491" lon="0.03192">
        <ele>1506</ele>
        <time>2012-12-22T09:21:54Z</time>
      </trkpt>
      <trkpt lat="42.84911" lon="0.03193">
        <ele>1509</ele>
        <time>2012-12-22T09:22:02Z</time>
      </trkpt>
      <trkpt lat="42.84912" lon="0.03194">
        <ele>1512</ele>
        <time>2012-12-22T09:22:35Z</time>
      </trkpt>
      <trkpt lat="42.84913" lon="0.03196">
        <ele>1512</ele>
        <time>2012-12-22T09:22:42Z</time>
      </trkpt>
      <trkpt lat="42.84914" lon="0.03198">
        <ele>1512</ele>
        <time>2012-12-22T09:22:44Z</time>
      </trkpt>
      <trkpt lat="42.84915" lon="0.03199">
        <ele>1512</ele>
        <time>2012-12-22T09:22:47Z</time>
      </trkpt>
      <trkpt lat="42.84916" lon="0.03202">
        <ele>1512</ele>
        <time>2012-12-22T09:22:49Z</time>
      </trkpt>
      <trkpt lat="42.84917" lon="0.03204">
        <ele>1512</ele>
        <time>2012-12-22T09:22:50Z</time>
      </trkpt>
      <trkpt lat="42.84918" lon="0.03206">
        <ele>1512</ele>
        <time>2012-12-22T09:22:53Z</time>
      </trkpt>
      <trkpt lat="42.84918" lon="0.03208">
        <ele>1512</ele>
        <time>2012-12-22T09:22:54Z</time>
      </trkpt>
      <trkpt lat="42.84919" lon="0.03211">
        <ele>1513</ele>
        <time>2012-12-22T09:22:56Z</time>
      </trkpt>
      <trkpt lat="42.8492" lon="0.03213">
        <ele>1514</ele>
        <time>2012-12-22T09:22:59Z</time>
      </trkpt>
      <trkpt lat="42.8492" lon="0.03215">
        <ele>1514</ele>
        <time>2012-12-22T09:23:00Z</time>
      </trkpt>
      <trkpt lat="42.84921" lon="0.03216">
        <ele>1514</ele>
        <time>2012-12-22T09:23:02Z</time>
      </trkpt>
      <trkpt lat="42.84922" lon="0.03218">
        <ele>1514</ele>
        <time>2012-12-22T09:23:05Z</time>
      </trkpt>
      <trkpt lat="42.84922" lon="0.0322">
        <ele>1514</ele>
        <time>2012-12-22T09:23:06Z</time>
      </trkpt>
      <trkpt lat="42.84923" lon="0.03222">
        <ele>1514</ele>
        <time>2012-12-22T09:23:08Z</time>
      </trkpt>
      <trkpt lat="42.84923" lon="0.03224">
        <ele>1515</ele>
        <time>2012-12-22T09:23:11Z</time>
      </trkpt>
      <trkpt lat="42.84924" lon="0.03226">
        <ele>1515</ele>
        <time>2012-12-22T09:23:12Z</time>
      </trkpt>
      <trkpt lat="42.84924" lon="0.03228">
        <ele>1515</ele>
        <time>2012-12-22T09:23:15Z</time>
      </trkpt>
      <trkpt lat="42.84925" lon="0.0323">
        <ele>1515</ele>
        <time>2012-12-22T09:23:17Z</time>
      </trkpt>
      <trkpt lat="42.84925" lon="0.03232">
        <ele>1515</ele>
        <time>2012-12-22T09:23:18Z</time>
      </trkpt>
      <trkpt lat="42.84925" lon="0.03233">
        <ele>1515</ele>
        <time>2012-12-22T09:23:20Z</time>
      </trkpt>
      <trkpt lat="42.84926" lon="0.03235">
        <ele>1515</ele>
        <time>2012-12-22T09:23:22Z</time>
      </trkpt>
      <trkpt lat="42.84926" lon="0.03237">
        <ele>1515</ele>
        <time>2012-12-22T09:23:24Z</time>
      </trkpt>
      <trkpt lat="42.84926" lon="0.03239">
        <ele>1515</ele>
        <time>2012-12-22T09:23:26Z</time>
      </trkpt>
      <trkpt lat="42.84927" lon="0.03241">
        <ele>1515</ele>
        <time>2012-12-22T09:23:28Z</time>
      </trkpt>
      <trkpt lat="42.84927" lon="0.03243">
        <ele>1515</ele>
        <time>2012-12-22T09:23:30Z</time>
      </trkpt>
      <trkpt lat="42.84927" lon="0.03244">
        <ele>1515</ele>
        <time>2012-12-22T09:23:32Z</time>
      </trkpt>
      <trkpt lat="42.84927" lon="0.03246">
        <ele>1516</ele>
        <time>2012-12-22T09:23:35Z</time>
      </trkpt>
      <trkpt lat="42.84927" lon="0.03248">
        <ele>1516</ele>
        <time>2012-12-22T09:23:37Z</time>
      </trkpt>
      <trkpt lat="42.84927" lon="0.03249">
        <ele>1516</ele>
        <time>2012-12-22T09:23:37Z</time>
      </trkpt>
      <trkpt lat="42.84927" lon="0.03251">
        <ele>1516</ele>
        <time>2012-12-22T09:23:40Z</time>
      </trkpt>
      <trkpt lat="42.84928" lon="0.03253">
        <ele>1516</ele>
        <time>2012-12-22T09:23:41Z</time>
      </trkpt>
      <trkpt lat="42.84929" lon="0.03255">
        <ele>1516</ele>
        <time>2012-12-22T09:23:43Z</time>
      </trkpt>
      <trkpt lat="42.8493" lon="0.03256">
        <ele>1517</ele>
        <time>2012-12-22T09:23:46Z</time>
      </trkpt>
      <trkpt lat="42.8493" lon="0.03258">
        <ele>1517</ele>
        <time>2012-12-22T09:23:47Z</time>
      </trkpt>
      <trkpt lat="42.84931" lon="0.03259">
        <ele>1517</ele>
        <time>2012-12-22T09:23:49Z</time>
      </trkpt>
      <trkpt lat="42.84932" lon="0.03261">
        <ele>1517</ele>
        <time>2012-12-22T09:23:52Z</time>
      </trkpt>
      <trkpt lat="42.84932" lon="0.03262">
        <ele>1517</ele>
        <time>2012-12-22T09:23:55Z</time>
      </trkpt>
      <trkpt lat="42.84933" lon="0.03264">
        <ele>1518</ele>
        <time>2012-12-22T09:24:01Z</time>
      </trkpt>
      <trkpt lat="42.84934" lon="0.03266">
        <ele>1518</ele>
        <time>2012-12-22T09:24:02Z</time>
      </trkpt>
      <trkpt lat="42.84935" lon="0.03268">
        <ele>1518</ele>
        <time>2012-12-22T09:24:04Z</time>
      </trkpt>
      <trkpt lat="42.84935" lon="0.03269">
        <ele>1518</ele>
        <time>2012-12-22T09:24:07Z</time>
      </trkpt>
      <trkpt lat="42.84936" lon="0.03271">
        <ele>1518</ele>
        <time>2012-12-22T09:24:08Z</time>
      </trkpt>
      <trkpt lat="42.84936" lon="0.03273">
        <ele>1519</ele>
        <time>2012-12-22T09:24:10Z</time>
      </trkpt>
      <trkpt lat="42.84937" lon="0.03275">
        <ele>1520</ele>
        <time>2012-12-22T09:24:13Z</time>
      </trkpt>
      <trkpt lat="42.84937" lon="0.03276">
        <ele>1521</ele>
        <time>2012-12-22T09:24:14Z</time>
      </trkpt>
      <trkpt lat="42.84937" lon="0.03278">
        <ele>1521</ele>
        <time>2012-12-22T09:24:18Z</time>
      </trkpt>
      <trkpt lat="42.84938" lon="0.0328">
        <ele>1521</ele>
        <time>2012-12-22T09:24:19Z</time>
      </trkpt>
      <trkpt lat="42.84938" lon="0.03281">
        <ele>1521</ele>
        <time>2012-12-22T09:24:21Z</time>
      </trkpt>
      <trkpt lat="42.84939" lon="0.03283">
        <ele>1521</ele>
        <time>2012-12-22T09:24:27Z</time>
      </trkpt>
      <trkpt lat="42.8494" lon="0.03285">
        <ele>1521</ele>
        <time>2012-12-22T09:24:28Z</time>
      </trkpt>
      <trkpt lat="42.8494" lon="0.03287">
        <ele>1521</ele>
        <time>2012-12-22T09:24:30Z</time>
      </trkpt>
      <trkpt lat="42.8494" lon="0.03289">
        <ele>1522</ele>
        <time>2012-12-22T09:24:33Z</time>
      </trkpt>
      <trkpt lat="42.8494" lon="0.0329">
        <ele>1522</ele>
        <time>2012-12-22T09:24:34Z</time>
      </trkpt>
      <trkpt lat="42.8494" lon="0.03292">
        <ele>1522</ele>
        <time>2012-12-22T09:24:36Z</time>
      </trkpt>
      <trkpt lat="42.8494" lon="0.03294">
        <ele>1522</ele>
        <time>2012-12-22T09:24:39Z</time>
      </trkpt>
      <trkpt lat="42.84939" lon="0.03296">
        <ele>1522</ele>
        <time>2012-12-22T09:24:40Z</time>
      </trkpt>
      <trkpt lat="42.84939" lon="0.03298">
        <ele>1522</ele>
        <time>2012-12-22T09:24:42Z</time>
      </trkpt>
      <trkpt lat="42.84939" lon="0.033">
        <ele>1522</ele>
        <time>2012-12-22T09:24:44Z</time>
      </trkpt>
      <trkpt lat="42.84939" lon="0.03301">
        <ele>1522</ele>
        <time>2012-12-22T09:24:47Z</time>
      </trkpt>
      <trkpt lat="42.84939" lon="0.03303">
        <ele>1522</ele>
        <time>2012-12-22T09:24:50Z</time>
      </trkpt>
      <trkpt lat="42.84939" lon="0.03305">
        <ele>1522</ele>
        <time>2012-12-22T09:24:51Z</time>
      </trkpt>
      <trkpt lat="42.84939" lon="0.03307">
        <ele>1522</ele>
        <time>2012-12-22T09:24:53Z</time>
      </trkpt>
      <trkpt lat="42.8494" lon="0.03308">
        <ele>1523</ele>
        <time>2012-12-22T09:24:56Z</time>
      </trkpt>
      <trkpt lat="42.8494" lon="0.0331">
        <ele>1523</ele>
        <time>2012-12-22T09:24:57Z</time>
      </trkpt>
      <trkpt lat="42.8494" lon="0.03312">
        <ele>1523</ele>
        <time>2012-12-22T09:24:59Z</time>
      </trkpt>
      <trkpt lat="42.84941" lon="0.03314">
        <ele>1523</ele>
        <time>2012-12-22T09:25:01Z</time>
      </trkpt>
      <trkpt lat="42.84942" lon="0.03315">
        <ele>1523</ele>
        <time>2012-12-22T09:25:03Z</time>
      </trkpt>
      <trkpt lat="42.84942" lon="0.03317">
        <ele>1523</ele>
        <time>2012-12-22T09:25:05Z</time>
      </trkpt>
      <trkpt lat="42.84943" lon="0.0332">
        <ele>1523</ele>
        <time>2012-12-22T09:25:07Z</time>
      </trkpt>
      <trkpt lat="42.84944" lon="0.03321">
        <ele>1524</ele>
        <time>2012-12-22T09:25:09Z</time>
      </trkpt>
      <trkpt lat="42.84945" lon="0.03322">
        <ele>1524</ele>
        <time>2012-12-22T09:25:11Z</time>
      </trkpt>
      <trkpt lat="42.84946" lon="0.03324">
        <ele>1525</ele>
        <time>2012-12-22T09:25:13Z</time>
      </trkpt>
      <trkpt lat="42.84948" lon="0.03325">
        <ele>1525</ele>
        <time>2012-12-22T09:25:15Z</time>
      </trkpt>
      <trkpt lat="42.84949" lon="0.03326">
        <ele>1526</ele>
        <time>2012-12-22T09:25:17Z</time>
      </trkpt>
      <trkpt lat="42.8495" lon="0.03328">
        <ele>1526</ele>
        <time>2012-12-22T09:25:19Z</time>
      </trkpt>
      <trkpt lat="42.84952" lon="0.03329">
        <ele>1526</ele>
        <time>2012-12-22T09:25:22Z</time>
      </trkpt>
      <trkpt lat="42.84953" lon="0.03331">
        <ele>1526</ele>
        <time>2012-12-22T09:25:25Z</time>
      </trkpt>
      <trkpt lat="42.84954" lon="0.03333">
        <ele>1526</ele>
        <time>2012-12-22T09:25:28Z</time>
      </trkpt>
      <trkpt lat="42.84956" lon="0.03335">
        <ele>1526</ele>
        <time>2012-12-22T09:25:31Z</time>
      </trkpt>
      <trkpt lat="42.84957" lon="0.03337">
        <ele>1526</ele>
        <time>2012-12-22T09:25:34Z</time>
      </trkpt>
      <trkpt lat="42.84958" lon="0.03338">
        <ele>1526</ele>
        <time>2012-12-22T09:25:36Z</time>
      </trkpt>
      <trkpt lat="42.84959" lon="0.0334">
        <ele>1526</ele>
        <time>2012-12-22T09:25:38Z</time>
      </trkpt>
      <trkpt lat="42.84959" lon="0.03342">
        <ele>1526</ele>
        <time>2012-12-22T09:25:40Z</time>
      </trkpt>
      <trkpt lat="42.8496" lon="0.03343">
        <ele>1526</ele>
        <time>2012-12-22T09:25:42Z</time>
      </trkpt>
      <trkpt lat="42.8496" lon="0.03345">
        <ele>1526</ele>
        <time>2012-12-22T09:25:44Z</time>
      </trkpt>
      <trkpt lat="42.8496" lon="0.03347">
        <ele>1526</ele>
        <time>2012-12-22T09:25:46Z</time>
      </trkpt>
      <trkpt lat="42.8496" lon="0.0335">
        <ele>1526</ele>
        <time>2012-12-22T09:25:48Z</time>
      </trkpt>
      <trkpt lat="42.8496" lon="0.03351">
        <ele>1526</ele>
        <time>2012-12-22T09:25:50Z</time>
      </trkpt>
      <trkpt lat="42.8496" lon="0.03353">
        <ele>1527</ele>
        <time>2012-12-22T09:25:52Z</time>
      </trkpt>
      <trkpt lat="42.84959" lon="0.03355">
        <ele>1527</ele>
        <time>2012-12-22T09:25:53Z</time>
      </trkpt>
      <trkpt lat="42.84959" lon="0.03356">
        <ele>1527</ele>
        <time>2012-12-22T09:25:55Z</time>
      </trkpt>
      <trkpt lat="42.84959" lon="0.03358">
        <ele>1528</ele>
        <time>2012-12-22T09:25:57Z</time>
      </trkpt>
      <trkpt lat="42.84959" lon="0.0336">
        <ele>1528</ele>
        <time>2012-12-22T09:25:59Z</time>
      </trkpt>
      <trkpt lat="42.84959" lon="0.03362">
        <ele>1529</ele>
        <time>2012-12-22T09:26:01Z</time>
      </trkpt>
      <trkpt lat="42.84959" lon="0.03364">
        <ele>1529</ele>
        <time>2012-12-22T09:26:03Z</time>
      </trkpt>
      <trkpt lat="42.84958" lon="0.03366">
        <ele>1529</ele>
        <time>2012-12-22T09:26:06Z</time>
      </trkpt>
      <trkpt lat="42.84958" lon="0.03368">
        <ele>1529</ele>
        <time>2012-12-22T09:26:07Z</time>
      </trkpt>
      <trkpt lat="42.84957" lon="0.03369">
        <ele>1529</ele>
        <time>2012-12-22T09:26:09Z</time>
      </trkpt>
      <trkpt lat="42.84957" lon="0.03371">
        <ele>1530</ele>
        <time>2012-12-22T09:26:12Z</time>
      </trkpt>
      <trkpt lat="42.84957" lon="0.03373">
        <ele>1530</ele>
        <time>2012-12-22T09:26:13Z</time>
      </trkpt>
      <trkpt lat="42.84957" lon="0.03375">
        <ele>1530</ele>
        <time>2012-12-22T09:26:15Z</time>
      </trkpt>
      <trkpt lat="42.84957" lon="0.03376">
        <ele>1531</ele>
        <time>2012-12-22T09:26:17Z</time>
      </trkpt>
      <trkpt lat="42.84957" lon="0.03378">
        <ele>1531</ele>
        <time>2012-12-22T09:26:19Z</time>
      </trkpt>
      <trkpt lat="42.84957" lon="0.0338">
        <ele>1531</ele>
        <time>2012-12-22T09:26:21Z</time>
      </trkpt>
      <trkpt lat="42.84957" lon="0.03382">
        <ele>1532</ele>
        <time>2012-12-22T09:26:23Z</time>
      </trkpt>
      <trkpt lat="42.84957" lon="0.03383">
        <ele>1532</ele>
        <time>2012-12-22T09:26:25Z</time>
      </trkpt>
      <trkpt lat="42.84958" lon="0.03385">
        <ele>1533</ele>
        <time>2012-12-22T09:26:27Z</time>
      </trkpt>
      <trkpt lat="42.84958" lon="0.03386">
        <ele>1533</ele>
        <time>2012-12-22T09:26:29Z</time>
      </trkpt>
      <trkpt lat="42.84959" lon="0.03388">
        <ele>1533</ele>
        <time>2012-12-22T09:26:31Z</time>
      </trkpt>
      <trkpt lat="42.84959" lon="0.0339">
        <ele>1534</ele>
        <time>2012-12-22T09:26:33Z</time>
      </trkpt>
      <trkpt lat="42.84959" lon="0.03391">
        <ele>1534</ele>
        <time>2012-12-22T09:26:35Z</time>
      </trkpt>
      <trkpt lat="42.84959" lon="0.03393">
        <ele>1534</ele>
        <time>2012-12-22T09:26:37Z</time>
      </trkpt>
      <trkpt lat="42.84959" lon="0.03395">
        <ele>1534</ele>
        <time>2012-12-22T09:26:39Z</time>
      </trkpt>
      <trkpt lat="42.8496" lon="0.03396">
        <ele>1534</ele>
        <time>2012-12-22T09:26:41Z</time>
      </trkpt>
      <trkpt lat="42.8496" lon="0.03398">
        <ele>1534</ele>
        <time>2012-12-22T09:26:43Z</time>
      </trkpt>
      <trkpt lat="42.8496" lon="0.034">
        <ele>1535</ele>
        <time>2012-12-22T09:26:45Z</time>
      </trkpt>
      <trkpt lat="42.8496" lon="0.03402">
        <ele>1535</ele>
        <time>2012-12-22T09:26:47Z</time>
      </trkpt>
      <trkpt lat="42.84961" lon="0.03404">
        <ele>1535</ele>
        <time>2012-12-22T09:26:49Z</time>
      </trkpt>
      <trkpt lat="42.84961" lon="0.03405">
        <ele>1536</ele>
        <time>2012-12-22T09:26:51Z</time>
      </trkpt>
      <trkpt lat="42.84962" lon="0.03407">
        <ele>1536</ele>
        <time>2012-12-22T09:26:53Z</time>
      </trkpt>
      <trkpt lat="42.84963" lon="0.03409">
        <ele>1536</ele>
        <time>2012-12-22T09:26:55Z</time>
      </trkpt>
      <trkpt lat="42.84963" lon="0.0341">
        <ele>1536</ele>
        <time>2012-12-22T09:26:57Z</time>
      </trkpt>
      <trkpt lat="42.84964" lon="0.03412">
        <ele>1537</ele>
        <time>2012-12-22T09:26:59Z</time>
      </trkpt>
      <trkpt lat="42.84964" lon="0.03413">
        <ele>1537</ele>
        <time>2012-12-22T09:27:01Z</time>
      </trkpt>
      <trkpt lat="42.84964" lon="0.03415">
        <ele>1537</ele>
        <time>2012-12-22T09:27:03Z</time>
      </trkpt>
      <trkpt lat="42.84964" lon="0.03417">
        <ele>1538</ele>
        <time>2012-12-22T09:27:05Z</time>
      </trkpt>
      <trkpt lat="42.84964" lon="0.03419">
        <ele>1538</ele>
        <time>2012-12-22T09:27:07Z</time>
      </trkpt>
      <trkpt lat="42.84964" lon="0.03421">
        <ele>1538</ele>
        <time>2012-12-22T09:27:09Z</time>
      </trkpt>
      <trkpt lat="42.84964" lon="0.03422">
        <ele>1539</ele>
        <time>2012-12-22T09:27:11Z</time>
      </trkpt>
      <trkpt lat="42.84964" lon="0.03424">
        <ele>1539</ele>
        <time>2012-12-22T09:27:13Z</time>
      </trkpt>
      <trkpt lat="42.84964" lon="0.03426">
        <ele>1539</ele>
        <time>2012-12-22T09:27:15Z</time>
      </trkpt>
      <trkpt lat="42.84964" lon="0.03427">
        <ele>1540</ele>
        <time>2012-12-22T09:27:17Z</time>
      </trkpt>
      <trkpt lat="42.84964" lon="0.03429">
        <ele>1540</ele>
        <time>2012-12-22T09:27:19Z</time>
      </trkpt>
      <trkpt lat="42.84964" lon="0.03431">
        <ele>1541</ele>
        <time>2012-12-22T09:27:21Z</time>
      </trkpt>
      <trkpt lat="42.84964" lon="0.03432">
        <ele>1541</ele>
        <time>2012-12-22T09:27:23Z</time>
      </trkpt>
      <trkpt lat="42.84964" lon="0.03434">
        <ele>1541</ele>
        <time>2012-12-22T09:27:25Z</time>
      </trkpt>
      <trkpt lat="42.84964" lon="0.03436">
        <ele>1541</ele>
        <time>2012-12-22T09:27:27Z</time>
      </trkpt>
      <trkpt lat="42.84964" lon="0.03438">
        <ele>1542</ele>
        <time>2012-12-22T09:27:29Z</time>
      </trkpt>
      <trkpt lat="42.84964" lon="0.0344">
        <ele>1542</ele>
        <time>2012-12-22T09:27:31Z</time>
      </trkpt>
      <trkpt lat="42.84964" lon="0.03441">
        <ele>1542</ele>
        <time>2012-12-22T09:27:33Z</time>
      </trkpt>
      <trkpt lat="42.84964" lon="0.03444">
        <ele>1542</ele>
        <time>2012-12-22T09:27:35Z</time>
      </trkpt>
      <trkpt lat="42.84964" lon="0.03446">
        <ele>1543</ele>
        <time>2012-12-22T09:27:37Z</time>
      </trkpt>
      <trkpt lat="42.84964" lon="0.03448">
        <ele>1543</ele>
        <time>2012-12-22T09:27:39Z</time>
      </trkpt>
      <trkpt lat="42.84964" lon="0.03449">
        <ele>1544</ele>
        <time>2012-12-22T09:27:41Z</time>
      </trkpt>
      <trkpt lat="42.84964" lon="0.03451">
        <ele>1544</ele>
        <time>2012-12-22T09:27:43Z</time>
      </trkpt>
      <trkpt lat="42.84964" lon="0.03453">
        <ele>1544</ele>
        <time>2012-12-22T09:27:45Z</time>
      </trkpt>
      <trkpt lat="42.84964" lon="0.03455">
        <ele>1545</ele>
        <time>2012-12-22T09:27:47Z</time>
      </trkpt>
      <trkpt lat="42.84964" lon="0.03457">
        <ele>1545</ele>
        <time>2012-12-22T09:27:49Z</time>
      </trkpt>
      <trkpt lat="42.84964" lon="0.03458">
        <ele>1545</ele>
        <time>2012-12-22T09:27:51Z</time>
      </trkpt>
      <trkpt lat="42.84964" lon="0.0346">
        <ele>1545</ele>
        <time>2012-12-22T09:27:53Z</time>
      </trkpt>
      <trkpt lat="42.84964" lon="0.03463">
        <ele>1545</ele>
        <time>2012-12-22T09:27:55Z</time>
      </trkpt>
      <trkpt lat="42.84964" lon="0.03464">
        <ele>1545</ele>
        <time>2012-12-22T09:27:57Z</time>
      </trkpt>
      <trkpt lat="42.84964" lon="0.03466">
        <ele>1546</ele>
        <time>2012-12-22T09:27:59Z</time>
      </trkpt>
      <trkpt lat="42.84964" lon="0.03468">
        <ele>1546</ele>
        <time>2012-12-22T09:28:01Z</time>
      </trkpt>
      <trkpt lat="42.84964" lon="0.0347">
        <ele>1546</ele>
        <time>2012-12-22T09:28:03Z</time>
      </trkpt>
      <trkpt lat="42.84964" lon="0.03472">
        <ele>1546</ele>
        <time>2012-12-22T09:28:05Z</time>
      </trkpt>
      <trkpt lat="42.84964" lon="0.03474">
        <ele>1546</ele>
        <time>2012-12-22T09:28:07Z</time>
      </trkpt>
      <trkpt lat="42.84964" lon="0.03476">
        <ele>1546</ele>
        <time>2012-12-22T09:28:09Z</time>
      </trkpt>
      <trkpt lat="42.84963" lon="0.03478">
        <ele>1546</ele>
        <time>2012-12-22T09:28:11Z</time>
      </trkpt>
      <trkpt lat="42.84963" lon="0.0348">
        <ele>1546</ele>
        <time>2012-12-22T09:28:13Z</time>
      </trkpt>
      <trkpt lat="42.84962" lon="0.03481">
        <ele>1547</ele>
        <time>2012-12-22T09:28:15Z</time>
      </trkpt>
      <trkpt lat="42.84962" lon="0.03483">
        <ele>1547</ele>
        <time>2012-12-22T09:28:17Z</time>
      </trkpt>
      <trkpt lat="42.84961" lon="0.03485">
        <ele>1547</ele>
        <time>2012-12-22T09:28:19Z</time>
      </trkpt>
      <trkpt lat="42.84961" lon="0.03487">
        <ele>1547</ele>
        <time>2012-12-22T09:28:21Z</time>
      </trkpt>
      <trkpt lat="42.8496" lon="0.03489">
        <ele>1547</ele>
        <time>2012-12-22T09:28:23Z</time>
      </trkpt>
      <trkpt lat="42.8496" lon="0.03491">
        <ele>1547</ele>
        <time>2012-12-22T09:28:25Z</time>
      </trkpt>
      <trkpt lat="42.84959" lon="0.03493">
        <ele>1547</ele>
        <time>2012-12-22T09:28:27Z</time>
      </trkpt>
      <trkpt lat="42.84959" lon="0.03495">
        <ele>1547</ele>
        <time>2012-12-22T09:28:29Z</time>
      </trkpt>
      <trkpt lat="42.84959" lon="0.03497">
        <ele>1547</ele>
        <time>2012-12-22T09:28:31Z</time>
      </trkpt>
      <trkpt lat="42.84958" lon="0.03499">
        <ele>1548</ele>
        <time>2012-12-22T09:28:33Z</time>
      </trkpt>
      <trkpt lat="42.84957" lon="0.03501">
        <ele>1548</ele>
        <time>2012-12-22T09:28:35Z</time>
      </trkpt>
      <trkpt lat="42.84957" lon="0.03503">
        <ele>1548</ele>
        <time>2012-12-22T09:28:37Z</time>
      </trkpt>
      <trkpt lat="42.84956" lon="0.03505">
        <ele>1548</ele>
        <time>2012-12-22T09:28:39Z</time>
      </trkpt>
      <trkpt lat="42.84956" lon="0.03507">
        <ele>1548</ele>
        <time>2012-12-22T09:28:41Z</time>
      </trkpt>
      <trkpt lat="42.84955" lon="0.03509">
        <ele>1548</ele>
        <time>2012-12-22T09:28:43Z</time>
      </trkpt>
      <trkpt lat="42.84954" lon="0.03511">
        <ele>1548</ele>
        <time>2012-12-22T09:28:45Z</time>
      </trkpt>
      <trkpt lat="42.84954" lon="0.03513">
        <ele>1548</ele>
        <time>2012-12-22T09:28:47Z</time>
      </trkpt>
      <trkpt lat="42.84953" lon="0.03515">
        <ele>1548</ele>
        <time>2012-12-22T09:28:49Z</time>
      </trkpt>
      <trkpt lat="42.84952" lon="0.03517">
        <ele>1548</ele>
        <time>2012-12-22T09:28:51Z</time>
      </trkpt>
      <trkpt lat="42.84951" lon="0.03519">
        <ele>1548</ele>
        <time>2012-12-22T09:28:53Z</time>
      </trkpt>
      <trkpt lat="42.8495" lon="0.03521">
        <ele>1548</ele>
        <time>2012-12-22T09:28:55Z</time>
      </trkpt>
      <trkpt lat="42.84949" lon="0.03523">
        <ele>1548</ele>
        <time>2012-12-22T09:28:57Z</time>
      </trkpt>
      <trkpt lat="42.84949" lon="0.03525">
        <ele>1548</ele>
        <time>2012-12-22T09:28:59Z</time>
      </trkpt>
      <trkpt lat="42.84948" lon="0.03527">
        <ele>1548</ele>
        <time>2012-12-22T09:29:00Z</time>
      </trkpt>
      <trkpt lat="42.84948" lon="0.03528">
        <ele>1548</ele>
        <time>2012-12-22T09:29:02Z</time>
      </trkpt>
      <trkpt lat="42.84948" lon="0.03531">
        <ele>1548</ele>
        <time>2012-12-22T09:29:04Z</time>
      </trkpt>
      <trkpt lat="42.84947" lon="0.03532">
        <ele>1548</ele>
        <time>2012-12-22T09:29:06Z</time>
      </trkpt>
      <trkpt lat="42.84947" lon="0.03534">
        <ele>1548</ele>
        <time>2012-12-22T09:29:08Z</time>
      </trkpt>
      <trkpt lat="42.84946" lon="0.03537">
        <ele>1548</ele>
        <time>2012-12-22T09:29:10Z</time>
      </trkpt>
      <trkpt lat="42.84946" lon="0.03538">
        <ele>1548</ele>
        <time>2012-12-22T09:29:12Z</time>
      </trkpt>
      <trkpt lat="42.84946" lon="0.0354">
        <ele>1548</ele>
        <time>2012-12-22T09:29:14Z</time>
      </trkpt>
      <trkpt lat="42.84945" lon="0.03542">
        <ele>1548</ele>
        <time>2012-12-22T09:29:16Z</time>
      </trkpt>
      <trkpt lat="42.84944" lon="0.03545">
        <ele>1548</ele>
        <time>2012-12-22T09:29:18Z</time>
      </trkpt>
      <trkpt lat="42.84943" lon="0.03547">
        <ele>1548</ele>
        <time>2012-12-22T09:29:20Z</time>
      </trkpt>
      <trkpt lat="42.84942" lon="0.03549">
        <ele>1548</ele>
        <time>2012-12-22T09:29:22Z</time>
      </trkpt>
      <trkpt lat="42.84942" lon="0.03551">
        <ele>1548</ele>
        <time>2012-12-22T09:29:24Z</time>
      </trkpt>
      <trkpt lat="42.84942" lon="0.03553">
        <ele>1548</ele>
        <time>2012-12-22T09:29:26Z</time>
      </trkpt>
      <trkpt lat="42.84942" lon="0.03555">
        <ele>1548</ele>
        <time>2012-12-22T09:29:28Z</time>
      </trkpt>
      <trkpt lat="42.84942" lon="0.03557">
        <ele>1548</ele>
        <time>2012-12-22T09:29:30Z</time>
      </trkpt>
      <trkpt lat="42.84942" lon="0.0356">
        <ele>1548</ele>
        <time>2012-12-22T09:29:32Z</time>
      </trkpt>
      <trkpt lat="42.84941" lon="0.03562">
        <ele>1548</ele>
        <time>2012-12-22T09:29:34Z</time>
      </trkpt>
      <trkpt lat="42.84941" lon="0.03563">
        <ele>1548</ele>
        <time>2012-12-22T09:29:36Z</time>
      </trkpt>
      <trkpt lat="42.84941" lon="0.03565">
        <ele>1548</ele>
        <time>2012-12-22T09:29:38Z</time>
      </trkpt>
      <trkpt lat="42.8494" lon="0.03567">
        <ele>1548</ele>
        <time>2012-12-22T09:29:39Z</time>
      </trkpt>
      <trkpt lat="42.8494" lon="0.03569">
        <ele>1548</ele>
        <time>2012-12-22T09:29:41Z</time>
      </trkpt>
      <trkpt lat="42.8494" lon="0.03571">
        <ele>1548</ele>
        <time>2012-12-22T09:29:43Z</time>
      </trkpt>
      <trkpt lat="42.84939" lon="0.03573">
        <ele>1548</ele>
        <time>2012-12-22T09:29:45Z</time>
      </trkpt>
      <trkpt lat="42.84939" lon="0.03575">
        <ele>1548</ele>
        <time>2012-12-22T09:29:47Z</time>
      </trkpt>
      <trkpt lat="42.8494" lon="0.03577">
        <ele>1548</ele>
        <time>2012-12-22T09:29:49Z</time>
      </trkpt>
      <trkpt lat="42.84939" lon="0.03579">
        <ele>1548</ele>
        <time>2012-12-22T09:29:51Z</time>
      </trkpt>
      <trkpt lat="42.8494" lon="0.03581">
        <ele>1548</ele>
        <time>2012-12-22T09:29:53Z</time>
      </trkpt>
      <trkpt lat="42.84939" lon="0.03582">
        <ele>1548</ele>
        <time>2012-12-22T09:29:54Z</time>
      </trkpt>
      <trkpt lat="42.84939" lon="0.03584">
        <ele>1548</ele>
        <time>2012-12-22T09:29:56Z</time>
      </trkpt>
      <trkpt lat="42.84938" lon="0.03585">
        <ele>1548</ele>
        <time>2012-12-22T09:29:58Z</time>
      </trkpt>
      <trkpt lat="42.84937" lon="0.03587">
        <ele>1548</ele>
        <time>2012-12-22T09:30:00Z</time>
      </trkpt>
      <trkpt lat="42.84937" lon="0.03589">
        <ele>1548</ele>
        <time>2012-12-22T09:30:02Z</time>
      </trkpt>
      <trkpt lat="42.84937" lon="0.03591">
        <ele>1548</ele>
        <time>2012-12-22T09:30:04Z</time>
      </trkpt>
      <trkpt lat="42.84937" lon="0.03593">
        <ele>1548</ele>
        <time>2012-12-22T09:30:06Z</time>
      </trkpt>
      <trkpt lat="42.84936" lon="0.03595">
        <ele>1548</ele>
        <time>2012-12-22T09:30:08Z</time>
      </trkpt>
      <trkpt lat="42.84936" lon="0.03597">
        <ele>1548</ele>
        <time>2012-12-22T09:30:10Z</time>
      </trkpt>
      <trkpt lat="42.84936" lon="0.03599">
        <ele>1548</ele>
        <time>2012-12-22T09:30:12Z</time>
      </trkpt>
      <trkpt lat="42.84936" lon="0.03601">
        <ele>1548</ele>
        <time>2012-12-22T09:30:14Z</time>
      </trkpt>
      <trkpt lat="42.84936" lon="0.03604">
        <ele>1548</ele>
        <time>2012-12-22T09:30:16Z</time>
      </trkpt>
      <trkpt lat="42.84936" lon="0.03605">
        <ele>1548</ele>
        <time>2012-12-22T09:30:18Z</time>
      </trkpt>
      <trkpt lat="42.84936" lon="0.03608">
        <ele>1548</ele>
        <time>2012-12-22T09:30:20Z</time>
      </trkpt>
      <trkpt lat="42.84936" lon="0.0361">
        <ele>1548</ele>
        <time>2012-12-22T09:30:22Z</time>
      </trkpt>
      <trkpt lat="42.84936" lon="0.03611">
        <ele>1548</ele>
        <time>2012-12-22T09:30:27Z</time>
      </trkpt>
      <trkpt lat="42.84936" lon="0.03613">
        <ele>1549</ele>
        <time>2012-12-22T09:30:29Z</time>
      </trkpt>
      <trkpt lat="42.84937" lon="0.03615">
        <ele>1549</ele>
        <time>2012-12-22T09:30:31Z</time>
      </trkpt>
      <trkpt lat="42.84937" lon="0.03617">
        <ele>1549</ele>
        <time>2012-12-22T09:30:33Z</time>
      </trkpt>
      <trkpt lat="42.84938" lon="0.03619">
        <ele>1550</ele>
        <time>2012-12-22T09:30:35Z</time>
      </trkpt>
      <trkpt lat="42.84938" lon="0.0362">
        <ele>1550</ele>
        <time>2012-12-22T09:30:37Z</time>
      </trkpt>
      <trkpt lat="42.84939" lon="0.03622">
        <ele>1550</ele>
        <time>2012-12-22T09:30:39Z</time>
      </trkpt>
      <trkpt lat="42.8494" lon="0.03624">
        <ele>1550</ele>
        <time>2012-12-22T09:30:42Z</time>
      </trkpt>
      <trkpt lat="42.84941" lon="0.03626">
        <ele>1550</ele>
        <time>2012-12-22T09:30:45Z</time>
      </trkpt>
      <trkpt lat="42.84941" lon="0.03628">
        <ele>1550</ele>
        <time>2012-12-22T09:30:47Z</time>
      </trkpt>
      <trkpt lat="42.84942" lon="0.03629">
        <ele>1551</ele>
        <time>2012-12-22T09:30:49Z</time>
      </trkpt>
      <trkpt lat="42.84943" lon="0.03631">
        <ele>1552</ele>
        <time>2012-12-22T09:30:51Z</time>
      </trkpt>
      <trkpt lat="42.84944" lon="0.03633">
        <ele>1553</ele>
        <time>2012-12-22T09:30:54Z</time>
      </trkpt>
      <trkpt lat="42.84945" lon="0.03634">
        <ele>1555</ele>
        <time>2012-12-22T09:30:57Z</time>
      </trkpt>
      <trkpt lat="42.84946" lon="0.03636">
        <ele>1555</ele>
        <time>2012-12-22T09:30:59Z</time>
      </trkpt>
      <trkpt lat="42.84946" lon="0.03637">
        <ele>1556</ele>
        <time>2012-12-22T09:31:01Z</time>
      </trkpt>
      <trkpt lat="42.84947" lon="0.03639">
        <ele>1556</ele>
        <time>2012-12-22T09:31:03Z</time>
      </trkpt>
      <trkpt lat="42.84947" lon="0.03641">
        <ele>1556</ele>
        <time>2012-12-22T09:31:05Z</time>
      </trkpt>
      <trkpt lat="42.84948" lon="0.03643">
        <ele>1556</ele>
        <time>2012-12-22T09:31:07Z</time>
      </trkpt>
      <trkpt lat="42.84948" lon="0.03644">
        <ele>1556</ele>
        <time>2012-12-22T09:31:09Z</time>
      </trkpt>
      <trkpt lat="42.84948" lon="0.03647">
        <ele>1556</ele>
        <time>2012-12-22T09:31:11Z</time>
      </trkpt>
      <trkpt lat="42.84948" lon="0.03649">
        <ele>1557</ele>
        <time>2012-12-22T09:31:13Z</time>
      </trkpt>
      <trkpt lat="42.84948" lon="0.03651">
        <ele>1557</ele>
        <time>2012-12-22T09:31:15Z</time>
      </trkpt>
      <trkpt lat="42.84948" lon="0.03653">
        <ele>1557</ele>
        <time>2012-12-22T09:31:17Z</time>
      </trkpt>
      <trkpt lat="42.84948" lon="0.03655">
        <ele>1557</ele>
        <time>2012-12-22T09:31:19Z</time>
      </trkpt>
      <trkpt lat="42.84947" lon="0.03658">
        <ele>1557</ele>
        <time>2012-12-22T09:31:21Z</time>
      </trkpt>
      <trkpt lat="42.84946" lon="0.03659">
        <ele>1557</ele>
        <time>2012-12-22T09:31:30Z</time>
      </trkpt>
      <trkpt lat="42.84946" lon="0.03661">
        <ele>1557</ele>
        <time>2012-12-22T09:31:32Z</time>
      </trkpt>
      <trkpt lat="42.84945" lon="0.03663">
        <ele>1557</ele>
        <time>2012-12-22T09:31:34Z</time>
      </trkpt>
      <trkpt lat="42.84943" lon="0.03664">
        <ele>1557</ele>
        <time>2012-12-22T09:31:37Z</time>
      </trkpt>
      <trkpt lat="42.84942" lon="0.03666">
        <ele>1558</ele>
        <time>2012-12-22T09:31:40Z</time>
      </trkpt>
      <trkpt lat="42.8494" lon="0.03668">
        <ele>1558</ele>
        <time>2012-12-22T09:31:43Z</time>
      </trkpt>
      <trkpt lat="42.84939" lon="0.03669">
        <ele>1559</ele>
        <time>2012-12-22T09:31:46Z</time>
      </trkpt>
      <trkpt lat="42.84938" lon="0.03669">
        <ele>1559</ele>
        <time>2012-12-22T09:31:49Z</time>
      </trkpt>
      <trkpt lat="42.84936" lon="0.03671">
        <ele>1560</ele>
        <time>2012-12-22T09:31:53Z</time>
      </trkpt>
      <trkpt lat="42.84935" lon="0.03672">
        <ele>1561</ele>
        <time>2012-12-22T09:31:55Z</time>
      </trkpt>
      <trkpt lat="42.84934" lon="0.03674">
        <ele>1561</ele>
        <time>2012-12-22T09:32:05Z</time>
      </trkpt>
      <trkpt lat="42.84933" lon="0.03676">
        <ele>1561</ele>
        <time>2012-12-22T09:32:08Z</time>
      </trkpt>
      <trkpt lat="42.84932" lon="0.03678">
        <ele>1561</ele>
        <time>2012-12-22T09:32:11Z</time>
      </trkpt>
      <trkpt lat="42.84931" lon="0.0368">
        <ele>1561</ele>
        <time>2012-12-22T09:32:14Z</time>
      </trkpt>
      <trkpt lat="42.8493" lon="0.03681">
        <ele>1561</ele>
        <time>2012-12-22T09:32:17Z</time>
      </trkpt>
      <trkpt lat="42.84928" lon="0.03683">
        <ele>1562</ele>
        <time>2012-12-22T09:32:20Z</time>
      </trkpt>
      <trkpt lat="42.84927" lon="0.03684">
        <ele>1562</ele>
        <time>2012-12-22T09:32:23Z</time>
      </trkpt>
      <trkpt lat="42.84926" lon="0.03685">
        <ele>1562</ele>
        <time>2012-12-22T09:32:27Z</time>
      </trkpt>
      <trkpt lat="42.84925" lon="0.03687">
        <ele>1562</ele>
        <time>2012-12-22T09:32:30Z</time>
      </trkpt>
      <trkpt lat="42.84924" lon="0.03689">
        <ele>1563</ele>
        <time>2012-12-22T09:32:33Z</time>
      </trkpt>
      <trkpt lat="42.84923" lon="0.0369">
        <ele>1563</ele>
        <time>2012-12-22T09:32:36Z</time>
      </trkpt>
      <trkpt lat="42.84922" lon="0.03691">
        <ele>1564</ele>
        <time>2012-12-22T09:32:39Z</time>
      </trkpt>
      <trkpt lat="42.8492" lon="0.03691">
        <ele>1565</ele>
        <time>2012-12-22T09:32:41Z</time>
      </trkpt>
      <trkpt lat="42.84919" lon="0.03692">
        <ele>1566</ele>
        <time>2012-12-22T09:32:44Z</time>
      </trkpt>
      <trkpt lat="42.84918" lon="0.03691">
        <ele>1566</ele>
        <time>2012-12-22T09:32:46Z</time>
      </trkpt>
      <trkpt lat="42.84917" lon="0.03689">
        <ele>1567</ele>
        <time>2012-12-22T09:32:48Z</time>
      </trkpt>
      <trkpt lat="42.84915" lon="0.03688">
        <ele>1567</ele>
        <time>2012-12-22T09:32:50Z</time>
      </trkpt>
      <trkpt lat="42.84914" lon="0.03687">
        <ele>1567</ele>
        <time>2012-12-22T09:32:52Z</time>
      </trkpt>
      <trkpt lat="42.84913" lon="0.03686">
        <ele>1568</ele>
        <time>2012-12-22T09:32:54Z</time>
      </trkpt>
      <trkpt lat="42.84911" lon="0.03684">
        <ele>1569</ele>
        <time>2012-12-22T09:32:57Z</time>
      </trkpt>
      <trkpt lat="42.8491" lon="0.03683">
        <ele>1569</ele>
        <time>2012-12-22T09:32:59Z</time>
      </trkpt>
      <trkpt lat="42.84909" lon="0.03682">
        <ele>1569</ele>
        <time>2012-12-22T09:33:02Z</time>
      </trkpt>
      <trkpt lat="42.84908" lon="0.03682">
        <ele>1569</ele>
        <time>2012-12-22T09:33:05Z</time>
      </trkpt>
      <trkpt lat="42.84906" lon="0.03681">
        <ele>1569</ele>
        <time>2012-12-22T09:33:08Z</time>
      </trkpt>
      <trkpt lat="42.84905" lon="0.0368">
        <ele>1569</ele>
        <time>2012-12-22T09:33:10Z</time>
      </trkpt>
      <trkpt lat="42.84904" lon="0.03679">
        <ele>1569</ele>
        <time>2012-12-22T09:33:12Z</time>
      </trkpt>
      <trkpt lat="42.84903" lon="0.03678">
        <ele>1569</ele>
        <time>2012-12-22T09:33:14Z</time>
      </trkpt>
      <trkpt lat="42.84901" lon="0.03678">
        <ele>1569</ele>
        <time>2012-12-22T09:33:16Z</time>
      </trkpt>
      <trkpt lat="42.849" lon="0.03678">
        <ele>1569</ele>
        <time>2012-12-22T09:33:19Z</time>
      </trkpt>
      <trkpt lat="42.84898" lon="0.03678">
        <ele>1569</ele>
        <time>2012-12-22T09:33:21Z</time>
      </trkpt>
      <trkpt lat="42.84897" lon="0.03678">
        <ele>1569</ele>
        <time>2012-12-22T09:33:24Z</time>
      </trkpt>
      <trkpt lat="42.84896" lon="0.03677">
        <ele>1569</ele>
        <time>2012-12-22T09:33:27Z</time>
      </trkpt>
      <trkpt lat="42.84895" lon="0.03677">
        <ele>1571</ele>
        <time>2012-12-22T09:33:41Z</time>
      </trkpt>
      <trkpt lat="42.84893" lon="0.03676">
        <ele>1572</ele>
        <time>2012-12-22T09:33:45Z</time>
      </trkpt>
      <trkpt lat="42.84893" lon="0.03677">
        <ele>1575</ele>
        <time>2012-12-22T09:34:00Z</time>
      </trkpt>
      <trkpt lat="42.84894" lon="0.03679">
        <ele>1576</ele>
        <time>2012-12-22T09:34:02Z</time>
      </trkpt>
      <trkpt lat="42.84894" lon="0.03681">
        <ele>1576</ele>
        <time>2012-12-22T09:34:04Z</time>
      </trkpt>
      <trkpt lat="42.84895" lon="0.03683">
        <ele>1576</ele>
        <time>2012-12-22T09:34:06Z</time>
      </trkpt>
      <trkpt lat="42.84896" lon="0.03684">
        <ele>1576</ele>
        <time>2012-12-22T09:34:08Z</time>
      </trkpt>
      <trkpt lat="42.84896" lon="0.03686">
        <ele>1576</ele>
        <time>2012-12-22T09:34:10Z</time>
      </trkpt>
      <trkpt lat="42.84897" lon="0.03688">
        <ele>1576</ele>
        <time>2012-12-22T09:34:12Z</time>
      </trkpt>
      <trkpt lat="42.84897" lon="0.0369">
        <ele>1576</ele>
        <time>2012-12-22T09:34:14Z</time>
      </trkpt>
      <trkpt lat="42.84898" lon="0.03692">
        <ele>1576</ele>
        <time>2012-12-22T09:34:16Z</time>
      </trkpt>
      <trkpt lat="42.84898" lon="0.03694">
        <ele>1576</ele>
        <time>2012-12-22T09:34:18Z</time>
      </trkpt>
      <trkpt lat="42.84898" lon="0.03696">
        <ele>1576</ele>
        <time>2012-12-22T09:34:20Z</time>
      </trkpt>
      <trkpt lat="42.84898" lon="0.03698">
        <ele>1577</ele>
        <time>2012-12-22T09:34:22Z</time>
      </trkpt>
      <trkpt lat="42.84898" lon="0.037">
        <ele>1577</ele>
        <time>2012-12-22T09:34:24Z</time>
      </trkpt>
      <trkpt lat="42.84898" lon="0.03701">
        <ele>1577</ele>
        <time>2012-12-22T09:34:26Z</time>
      </trkpt>
      <trkpt lat="42.84898" lon="0.03703">
        <ele>1578</ele>
        <time>2012-12-22T09:34:28Z</time>
      </trkpt>
      <trkpt lat="42.84898" lon="0.03705">
        <ele>1578</ele>
        <time>2012-12-22T09:34:30Z</time>
      </trkpt>
      <trkpt lat="42.84898" lon="0.03706">
        <ele>1579</ele>
        <time>2012-12-22T09:34:32Z</time>
      </trkpt>
      <trkpt lat="42.84898" lon="0.03708">
        <ele>1579</ele>
        <time>2012-12-22T09:34:34Z</time>
      </trkpt>
      <trkpt lat="42.84898" lon="0.03709">
        <ele>1579</ele>
        <time>2012-12-22T09:34:36Z</time>
      </trkpt>
      <trkpt lat="42.84897" lon="0.03711">
        <ele>1580</ele>
        <time>2012-12-22T09:34:38Z</time>
      </trkpt>
      <trkpt lat="42.84897" lon="0.03713">
        <ele>1580</ele>
        <time>2012-12-22T09:34:40Z</time>
      </trkpt>
      <trkpt lat="42.84896" lon="0.03715">
        <ele>1580</ele>
        <time>2012-12-22T09:34:42Z</time>
      </trkpt>
      <trkpt lat="42.84896" lon="0.03717">
        <ele>1581</ele>
        <time>2012-12-22T09:34:44Z</time>
      </trkpt>
      <trkpt lat="42.84896" lon="0.03718">
        <ele>1581</ele>
        <time>2012-12-22T09:34:46Z</time>
      </trkpt>
      <trkpt lat="42.84896" lon="0.0372">
        <ele>1581</ele>
        <time>2012-12-22T09:34:48Z</time>
      </trkpt>
      <trkpt lat="42.84895" lon="0.03722">
        <ele>1582</ele>
        <time>2012-12-22T09:34:50Z</time>
      </trkpt>
      <trkpt lat="42.84895" lon="0.03724">
        <ele>1582</ele>
        <time>2012-12-22T09:34:52Z</time>
      </trkpt>
      <trkpt lat="42.84895" lon="0.03725">
        <ele>1582</ele>
        <time>2012-12-22T09:34:54Z</time>
      </trkpt>
      <trkpt lat="42.84895" lon="0.03727">
        <ele>1583</ele>
        <time>2012-12-22T09:34:56Z</time>
      </trkpt>
      <trkpt lat="42.84894" lon="0.03728">
        <ele>1583</ele>
        <time>2012-12-22T09:34:58Z</time>
      </trkpt>
      <trkpt lat="42.84893" lon="0.0373">
        <ele>1583</ele>
        <time>2012-12-22T09:35:03Z</time>
      </trkpt>
      <trkpt lat="42.84893" lon="0.03732">
        <ele>1583</ele>
        <time>2012-12-22T09:35:17Z</time>
      </trkpt>
      <trkpt lat="42.84893" lon="0.03731">
        <ele>1583</ele>
        <time>2012-12-22T09:35:33Z</time>
      </trkpt>
      <trkpt lat="42.84893" lon="0.03729">
        <ele>1583</ele>
        <time>2012-12-22T09:35:35Z</time>
      </trkpt>
      <trkpt lat="42.84893" lon="0.03727">
        <ele>1583</ele>
        <time>2012-12-22T09:35:38Z</time>
      </trkpt>
      <trkpt lat="42.84892" lon="0.03725">
        <ele>1583</ele>
        <time>2012-12-22T09:35:40Z</time>
      </trkpt>
      <trkpt lat="42.84892" lon="0.03724">
        <ele>1583</ele>
        <time>2012-12-22T09:35:42Z</time>
      </trkpt>
      <trkpt lat="42.84891" lon="0.03722">
        <ele>1583</ele>
        <time>2012-12-22T09:35:44Z</time>
      </trkpt>
      <trkpt lat="42.8489" lon="0.0372">
        <ele>1583</ele>
        <time>2012-12-22T09:35:46Z</time>
      </trkpt>
      <trkpt lat="42.84889" lon="0.03718">
        <ele>1584</ele>
        <time>2012-12-22T09:35:49Z</time>
      </trkpt>
      <trkpt lat="42.84888" lon="0.03716">
        <ele>1585</ele>
        <time>2012-12-22T09:35:52Z</time>
      </trkpt>
      <trkpt lat="42.84887" lon="0.03718">
        <ele>1585</ele>
        <time>2012-12-22T09:36:00Z</time>
      </trkpt>
      <trkpt lat="42.84887" lon="0.03721">
        <ele>1585</ele>
        <time>2012-12-22T09:36:02Z</time>
      </trkpt>
      <trkpt lat="42.84887" lon="0.03723">
        <ele>1585</ele>
        <time>2012-12-22T09:36:04Z</time>
      </trkpt>
      <trkpt lat="42.84887" lon="0.03725">
        <ele>1585</ele>
        <time>2012-12-22T09:36:06Z</time>
      </trkpt>
      <trkpt lat="42.84887" lon="0.03727">
        <ele>1585</ele>
        <time>2012-12-22T09:36:08Z</time>
      </trkpt>
      <trkpt lat="42.84886" lon="0.03728">
        <ele>1585</ele>
        <time>2012-12-22T09:36:10Z</time>
      </trkpt>
      <trkpt lat="42.84886" lon="0.0373">
        <ele>1586</ele>
        <time>2012-12-22T09:36:13Z</time>
      </trkpt>
      <trkpt lat="42.84886" lon="0.03731">
        <ele>1586</ele>
        <time>2012-12-22T09:36:15Z</time>
      </trkpt>
      <trkpt lat="42.84886" lon="0.03733">
        <ele>1587</ele>
        <time>2012-12-22T09:36:17Z</time>
      </trkpt>
      <trkpt lat="42.84885" lon="0.03734">
        <ele>1587</ele>
        <time>2012-12-22T09:36:20Z</time>
      </trkpt>
      <trkpt lat="42.84885" lon="0.03736">
        <ele>1587</ele>
        <time>2012-12-22T09:36:28Z</time>
      </trkpt>
      <trkpt lat="42.84884" lon="0.03737">
        <ele>1587</ele>
        <time>2012-12-22T09:36:30Z</time>
      </trkpt>
      <trkpt lat="42.84883" lon="0.03739">
        <ele>1587</ele>
        <time>2012-12-22T09:36:33Z</time>
      </trkpt>
      <trkpt lat="42.84883" lon="0.03741">
        <ele>1588</ele>
        <time>2012-12-22T09:36:35Z</time>
      </trkpt>
      <trkpt lat="42.84882" lon="0.03743">
        <ele>1588</ele>
        <time>2012-12-22T09:36:37Z</time>
      </trkpt>
      <trkpt lat="42.84882" lon="0.03744">
        <ele>1588</ele>
        <time>2012-12-22T09:36:39Z</time>
      </trkpt>
      <trkpt lat="42.84882" lon="0.03746">
        <ele>1589</ele>
        <time>2012-12-22T09:36:41Z</time>
      </trkpt>
      <trkpt lat="42.84881" lon="0.03748">
        <ele>1589</ele>
        <time>2012-12-22T09:36:44Z</time>
      </trkpt>
      <trkpt lat="42.84881" lon="0.0375">
        <ele>1590</ele>
        <time>2012-12-22T09:36:47Z</time>
      </trkpt>
      <trkpt lat="42.84881" lon="0.03751">
        <ele>1590</ele>
        <time>2012-12-22T09:36:49Z</time>
      </trkpt>
      <trkpt lat="42.84881" lon="0.03753">
        <ele>1591</ele>
        <time>2012-12-22T09:36:51Z</time>
      </trkpt>
      <trkpt lat="42.8488" lon="0.03754">
        <ele>1591</ele>
        <time>2012-12-22T09:36:53Z</time>
      </trkpt>
      <trkpt lat="42.8488" lon="0.03756">
        <ele>1592</ele>
        <time>2012-12-22T09:36:55Z</time>
      </trkpt>
      <trkpt lat="42.8488" lon="0.03757">
        <ele>1592</ele>
        <time>2012-12-22T09:36:57Z</time>
      </trkpt>
      <trkpt lat="42.8488" lon="0.03759">
        <ele>1592</ele>
        <time>2012-12-22T09:37:00Z</time>
      </trkpt>
      <trkpt lat="42.8488" lon="0.03761">
        <ele>1593</ele>
        <time>2012-12-22T09:37:03Z</time>
      </trkpt>
      <trkpt lat="42.8488" lon="0.03763">
        <ele>1594</ele>
        <time>2012-12-22T09:37:06Z</time>
      </trkpt>
      <trkpt lat="42.8488" lon="0.03764">
        <ele>1594</ele>
        <time>2012-12-22T09:37:09Z</time>
      </trkpt>
      <trkpt lat="42.8488" lon="0.03766">
        <ele>1594</ele>
        <time>2012-12-22T09:37:11Z</time>
      </trkpt>
      <trkpt lat="42.8488" lon="0.03767">
        <ele>1595</ele>
        <time>2012-12-22T09:37:13Z</time>
      </trkpt>
      <trkpt lat="42.8488" lon="0.03769">
        <ele>1595</ele>
        <time>2012-12-22T09:37:15Z</time>
      </trkpt>
      <trkpt lat="42.8488" lon="0.03771">
        <ele>1595</ele>
        <time>2012-12-22T09:37:17Z</time>
      </trkpt>
      <trkpt lat="42.84879" lon="0.03772">
        <ele>1595</ele>
        <time>2012-12-22T09:37:19Z</time>
      </trkpt>
      <trkpt lat="42.84879" lon="0.03774">
        <ele>1596</ele>
        <time>2012-12-22T09:37:21Z</time>
      </trkpt>
      <trkpt lat="42.84879" lon="0.03776">
        <ele>1596</ele>
        <time>2012-12-22T09:37:24Z</time>
      </trkpt>
      <trkpt lat="42.84879" lon="0.03778">
        <ele>1597</ele>
        <time>2012-12-22T09:37:26Z</time>
      </trkpt>
      <trkpt lat="42.84879" lon="0.03779">
        <ele>1597</ele>
        <time>2012-12-22T09:37:28Z</time>
      </trkpt>
      <trkpt lat="42.84879" lon="0.03781">
        <ele>1597</ele>
        <time>2012-12-22T09:37:30Z</time>
      </trkpt>
      <trkpt lat="42.84879" lon="0.03782">
        <ele>1598</ele>
        <time>2012-12-22T09:37:32Z</time>
      </trkpt>
      <trkpt lat="42.84879" lon="0.03784">
        <ele>1598</ele>
        <time>2012-12-22T09:37:34Z</time>
      </trkpt>
      <trkpt lat="42.84879" lon="0.03786">
        <ele>1598</ele>
        <time>2012-12-22T09:37:36Z</time>
      </trkpt>
      <trkpt lat="42.84879" lon="0.03788">
        <ele>1598</ele>
        <time>2012-12-22T09:37:39Z</time>
      </trkpt>
      <trkpt lat="42.84879" lon="0.0379">
        <ele>1599</ele>
        <time>2012-12-22T09:37:42Z</time>
      </trkpt>
      <trkpt lat="42.84879" lon="0.03792">
        <ele>1599</ele>
        <time>2012-12-22T09:37:45Z</time>
      </trkpt>
      <trkpt lat="42.84879" lon="0.03793">
        <ele>1599</ele>
        <time>2012-12-22T09:37:48Z</time>
      </trkpt>
      <trkpt lat="42.84879" lon="0.03795">
        <ele>1600</ele>
        <time>2012-12-22T09:37:52Z</time>
      </trkpt>
      <trkpt lat="42.84878" lon="0.03797">
        <ele>1600</ele>
        <time>2012-12-22T09:37:55Z</time>
      </trkpt>
      <trkpt lat="42.84878" lon="0.03799">
        <ele>1601</ele>
        <time>2012-12-22T09:37:58Z</time>
      </trkpt>
      <trkpt lat="42.84878" lon="0.03801">
        <ele>1601</ele>
        <time>2012-12-22T09:38:01Z</time>
      </trkpt>
      <trkpt lat="42.84879" lon="0.03803">
        <ele>1602</ele>
        <time>2012-12-22T09:38:04Z</time>
      </trkpt>
      <trkpt lat="42.84879" lon="0.03805">
        <ele>1602</ele>
        <time>2012-12-22T09:38:07Z</time>
      </trkpt>
      <trkpt lat="42.84879" lon="0.03806">
        <ele>1602</ele>
        <time>2012-12-22T09:38:09Z</time>
      </trkpt>
      <trkpt lat="42.84879" lon="0.03808">
        <ele>1603</ele>
        <time>2012-12-22T09:38:12Z</time>
      </trkpt>
      <trkpt lat="42.84879" lon="0.0381">
        <ele>1603</ele>
        <time>2012-12-22T09:38:14Z</time>
      </trkpt>
      <trkpt lat="42.84879" lon="0.03811">
        <ele>1604</ele>
        <time>2012-12-22T09:38:17Z</time>
      </trkpt>
      <trkpt lat="42.8488" lon="0.03813">
        <ele>1604</ele>
        <time>2012-12-22T09:38:19Z</time>
      </trkpt>
      <trkpt lat="42.8488" lon="0.03815">
        <ele>1604</ele>
        <time>2012-12-22T09:38:22Z</time>
      </trkpt>
      <trkpt lat="42.8488" lon="0.03816">
        <ele>1604</ele>
        <time>2012-12-22T09:38:25Z</time>
      </trkpt>
      <trkpt lat="42.8488" lon="0.03819">
        <ele>1605</ele>
        <time>2012-12-22T09:38:28Z</time>
      </trkpt>
      <trkpt lat="42.8488" lon="0.03821">
        <ele>1605</ele>
        <time>2012-12-22T09:38:31Z</time>
      </trkpt>
      <trkpt lat="42.8488" lon="0.03822">
        <ele>1605</ele>
        <time>2012-12-22T09:38:34Z</time>
      </trkpt>
      <trkpt lat="42.84881" lon="0.03824">
        <ele>1606</ele>
        <time>2012-12-22T09:38:38Z</time>
      </trkpt>
      <trkpt lat="42.84881" lon="0.03826">
        <ele>1606</ele>
        <time>2012-12-22T09:38:40Z</time>
      </trkpt>
      <trkpt lat="42.84881" lon="0.03827">
        <ele>1606</ele>
        <time>2012-12-22T09:38:43Z</time>
      </trkpt>
      <trkpt lat="42.84881" lon="0.03829">
        <ele>1607</ele>
        <time>2012-12-22T09:38:46Z</time>
      </trkpt>
      <trkpt lat="42.84881" lon="0.0383">
        <ele>1608</ele>
        <time>2012-12-22T09:38:49Z</time>
      </trkpt>
      <trkpt lat="42.84881" lon="0.03832">
        <ele>1609</ele>
        <time>2012-12-22T09:38:53Z</time>
      </trkpt>
      <trkpt lat="42.84881" lon="0.03834">
        <ele>1609</ele>
        <time>2012-12-22T09:38:56Z</time>
      </trkpt>
      <trkpt lat="42.84881" lon="0.03836">
        <ele>1610</ele>
        <time>2012-12-22T09:38:58Z</time>
      </trkpt>
      <trkpt lat="42.84881" lon="0.03837">
        <ele>1610</ele>
        <time>2012-12-22T09:39:00Z</time>
      </trkpt>
      <trkpt lat="42.84882" lon="0.03839">
        <ele>1610</ele>
        <time>2012-12-22T09:39:02Z</time>
      </trkpt>
      <trkpt lat="42.84882" lon="0.0384">
        <ele>1611</ele>
        <time>2012-12-22T09:39:04Z</time>
      </trkpt>
      <trkpt lat="42.84882" lon="0.03842">
        <ele>1612</ele>
        <time>2012-12-22T09:39:07Z</time>
      </trkpt>
      <trkpt lat="42.84882" lon="0.03844">
        <ele>1612</ele>
        <time>2012-12-22T09:39:10Z</time>
      </trkpt>
      <trkpt lat="42.84882" lon="0.03845">
        <ele>1612</ele>
        <time>2012-12-22T09:39:12Z</time>
      </trkpt>
      <trkpt lat="42.84882" lon="0.03847">
        <ele>1612</ele>
        <time>2012-12-22T09:39:14Z</time>
      </trkpt>
      <trkpt lat="42.84882" lon="0.03848">
        <ele>1613</ele>
        <time>2012-12-22T09:39:16Z</time>
      </trkpt>
      <trkpt lat="42.84882" lon="0.0385">
        <ele>1613</ele>
        <time>2012-12-22T09:39:18Z</time>
      </trkpt>
      <trkpt lat="42.84882" lon="0.03852">
        <ele>1613</ele>
        <time>2012-12-22T09:39:21Z</time>
      </trkpt>
      <trkpt lat="42.84882" lon="0.03854">
        <ele>1614</ele>
        <time>2012-12-22T09:39:24Z</time>
      </trkpt>
      <trkpt lat="42.84883" lon="0.03855">
        <ele>1614</ele>
        <time>2012-12-22T09:39:26Z</time>
      </trkpt>
      <trkpt lat="42.84883" lon="0.03857">
        <ele>1615</ele>
        <time>2012-12-22T09:39:28Z</time>
      </trkpt>
      <trkpt lat="42.84883" lon="0.03859">
        <ele>1615</ele>
        <time>2012-12-22T09:39:31Z</time>
      </trkpt>
      <trkpt lat="42.84883" lon="0.03861">
        <ele>1616</ele>
        <time>2012-12-22T09:39:34Z</time>
      </trkpt>
      <trkpt lat="42.84883" lon="0.03862">
        <ele>1616</ele>
        <time>2012-12-22T09:39:36Z</time>
      </trkpt>
      <trkpt lat="42.84882" lon="0.03864">
        <ele>1616</ele>
        <time>2012-12-22T09:39:38Z</time>
      </trkpt>
      <trkpt lat="42.84882" lon="0.03865">
        <ele>1616</ele>
        <time>2012-12-22T09:39:40Z</time>
      </trkpt>
      <trkpt lat="42.84882" lon="0.03867">
        <ele>1617</ele>
        <time>2012-12-22T09:39:42Z</time>
      </trkpt>
      <trkpt lat="42.84882" lon="0.03868">
        <ele>1617</ele>
        <time>2012-12-22T09:39:45Z</time>
      </trkpt>
      <trkpt lat="42.84882" lon="0.0387">
        <ele>1617</ele>
        <time>2012-12-22T09:39:46Z</time>
      </trkpt>
      <trkpt lat="42.84882" lon="0.03871">
        <ele>1617</ele>
        <time>2012-12-22T09:39:48Z</time>
      </trkpt>
      <trkpt lat="42.84882" lon="0.03873">
        <ele>1617</ele>
        <time>2012-12-22T09:39:50Z</time>
      </trkpt>
      <trkpt lat="42.84882" lon="0.03875">
        <ele>1617</ele>
        <time>2012-12-22T09:39:52Z</time>
      </trkpt>
      <trkpt lat="42.84882" lon="0.03877">
        <ele>1617</ele>
        <time>2012-12-22T09:39:54Z</time>
      </trkpt>
      <trkpt lat="42.84882" lon="0.03879">
        <ele>1618</ele>
        <time>2012-12-22T09:39:56Z</time>
      </trkpt>
      <trkpt lat="42.84881" lon="0.03881">
        <ele>1618</ele>
        <time>2012-12-22T09:39:58Z</time>
      </trkpt>
      <trkpt lat="42.84881" lon="0.03882">
        <ele>1618</ele>
        <time>2012-12-22T09:40:00Z</time>
      </trkpt>
      <trkpt lat="42.84881" lon="0.03884">
        <ele>1619</ele>
        <time>2012-12-22T09:40:02Z</time>
      </trkpt>
      <trkpt lat="42.84881" lon="0.03885">
        <ele>1619</ele>
        <time>2012-12-22T09:40:04Z</time>
      </trkpt>
      <trkpt lat="42.84881" lon="0.03887">
        <ele>1619</ele>
        <time>2012-12-22T09:40:06Z</time>
      </trkpt>
      <trkpt lat="42.8488" lon="0.03888">
        <ele>1620</ele>
        <time>2012-12-22T09:40:08Z</time>
      </trkpt>
      <trkpt lat="42.8488" lon="0.0389">
        <ele>1620</ele>
        <time>2012-12-22T09:40:11Z</time>
      </trkpt>
      <trkpt lat="42.8488" lon="0.03892">
        <ele>1620</ele>
        <time>2012-12-22T09:40:13Z</time>
      </trkpt>
      <trkpt lat="42.8488" lon="0.03893">
        <ele>1620</ele>
        <time>2012-12-22T09:40:15Z</time>
      </trkpt>
      <trkpt lat="42.8488" lon="0.03895">
        <ele>1621</ele>
        <time>2012-12-22T09:40:18Z</time>
      </trkpt>
      <trkpt lat="42.84879" lon="0.03897">
        <ele>1621</ele>
        <time>2012-12-22T09:40:20Z</time>
      </trkpt>
      <trkpt lat="42.84879" lon="0.03899">
        <ele>1622</ele>
        <time>2012-12-22T09:40:23Z</time>
      </trkpt>
      <trkpt lat="42.84879" lon="0.039">
        <ele>1622</ele>
        <time>2012-12-22T09:40:25Z</time>
      </trkpt>
      <trkpt lat="42.84879" lon="0.03902">
        <ele>1622</ele>
        <time>2012-12-22T09:40:28Z</time>
      </trkpt>
      <trkpt lat="42.84878" lon="0.03903">
        <ele>1622</ele>
        <time>2012-12-22T09:40:30Z</time>
      </trkpt>
      <trkpt lat="42.84878" lon="0.03905">
        <ele>1623</ele>
        <time>2012-12-22T09:40:33Z</time>
      </trkpt>
      <trkpt lat="42.84878" lon="0.03907">
        <ele>1623</ele>
        <time>2012-12-22T09:40:36Z</time>
      </trkpt>
      <trkpt lat="42.84878" lon="0.03909">
        <ele>1624</ele>
        <time>2012-12-22T09:40:45Z</time>
      </trkpt>
      <trkpt lat="42.84878" lon="0.0391">
        <ele>1624</ele>
        <time>2012-12-22T09:40:48Z</time>
      </trkpt>
      <trkpt lat="42.84878" lon="0.03912">
        <ele>1624</ele>
        <time>2012-12-22T09:40:56Z</time>
      </trkpt>
      <trkpt lat="42.84878" lon="0.03914">
        <ele>1624</ele>
        <time>2012-12-22T09:41:00Z</time>
      </trkpt>
      <trkpt lat="42.84878" lon="0.03916">
        <ele>1624</ele>
        <time>2012-12-22T09:41:05Z</time>
      </trkpt>
      <trkpt lat="42.84878" lon="0.03917">
        <ele>1624</ele>
        <time>2012-12-22T09:41:09Z</time>
      </trkpt>
      <trkpt lat="42.84878" lon="0.03919">
        <ele>1624</ele>
        <time>2012-12-22T09:41:11Z</time>
      </trkpt>
      <trkpt lat="42.84877" lon="0.03921">
        <ele>1624</ele>
        <time>2012-12-22T09:41:13Z</time>
      </trkpt>
      <trkpt lat="42.84877" lon="0.03923">
        <ele>1624</ele>
        <time>2012-12-22T09:41:16Z</time>
      </trkpt>
      <trkpt lat="42.84877" lon="0.03924">
        <ele>1624</ele>
        <time>2012-12-22T09:41:18Z</time>
      </trkpt>
      <trkpt lat="42.84877" lon="0.03926">
        <ele>1624</ele>
        <time>2012-12-22T09:41:20Z</time>
      </trkpt>
      <trkpt lat="42.84877" lon="0.03929">
        <ele>1624</ele>
        <time>2012-12-22T09:41:22Z</time>
      </trkpt>
      <trkpt lat="42.84877" lon="0.03931">
        <ele>1624</ele>
        <time>2012-12-22T09:41:24Z</time>
      </trkpt>
      <trkpt lat="42.84877" lon="0.03933">
        <ele>1624</ele>
        <time>2012-12-22T09:41:26Z</time>
      </trkpt>
      <trkpt lat="42.84877" lon="0.03935">
        <ele>1624</ele>
        <time>2012-12-22T09:41:28Z</time>
      </trkpt>
      <trkpt lat="42.84877" lon="0.03937">
        <ele>1624</ele>
        <time>2012-12-22T09:41:30Z</time>
      </trkpt>
      <trkpt lat="42.84877" lon="0.03938">
        <ele>1624</ele>
        <time>2012-12-22T09:41:32Z</time>
      </trkpt>
      <trkpt lat="42.84877" lon="0.03941">
        <ele>1624</ele>
        <time>2012-12-22T09:41:34Z</time>
      </trkpt>
      <trkpt lat="42.84877" lon="0.03943">
        <ele>1624</ele>
        <time>2012-12-22T09:41:36Z</time>
      </trkpt>
      <trkpt lat="42.84878" lon="0.03945">
        <ele>1624</ele>
        <time>2012-12-22T09:41:38Z</time>
      </trkpt>
      <trkpt lat="42.84878" lon="0.03946">
        <ele>1625</ele>
        <time>2012-12-22T09:41:40Z</time>
      </trkpt>
      <trkpt lat="42.84878" lon="0.03949">
        <ele>1625</ele>
        <time>2012-12-22T09:41:42Z</time>
      </trkpt>
      <trkpt lat="42.84878" lon="0.03951">
        <ele>1625</ele>
        <time>2012-12-22T09:41:44Z</time>
      </trkpt>
      <trkpt lat="42.84878" lon="0.03952">
        <ele>1625</ele>
        <time>2012-12-22T09:41:46Z</time>
      </trkpt>
      <trkpt lat="42.84877" lon="0.03954">
        <ele>1625</ele>
        <time>2012-12-22T09:41:48Z</time>
      </trkpt>
      <trkpt lat="42.84877" lon="0.03956">
        <ele>1626</ele>
        <time>2012-12-22T09:41:51Z</time>
      </trkpt>
      <trkpt lat="42.84877" lon="0.03958">
        <ele>1626</ele>
        <time>2012-12-22T09:41:53Z</time>
      </trkpt>
      <trkpt lat="42.84877" lon="0.0396">
        <ele>1626</ele>
        <time>2012-12-22T09:41:55Z</time>
      </trkpt>
      <trkpt lat="42.84877" lon="0.03961">
        <ele>1627</ele>
        <time>2012-12-22T09:41:57Z</time>
      </trkpt>
      <trkpt lat="42.84877" lon="0.03963">
        <ele>1627</ele>
        <time>2012-12-22T09:41:59Z</time>
      </trkpt>
      <trkpt lat="42.84877" lon="0.03965">
        <ele>1627</ele>
        <time>2012-12-22T09:42:01Z</time>
      </trkpt>
      <trkpt lat="42.84877" lon="0.03967">
        <ele>1627</ele>
        <time>2012-12-22T09:42:03Z</time>
      </trkpt>
      <trkpt lat="42.84876" lon="0.03968">
        <ele>1627</ele>
        <time>2012-12-22T09:42:07Z</time>
      </trkpt>
      <trkpt lat="42.84876" lon="0.0397">
        <ele>1627</ele>
        <time>2012-12-22T09:42:11Z</time>
      </trkpt>
      <trkpt lat="42.84877" lon="0.03971">
        <ele>1628</ele>
        <time>2012-12-22T09:42:18Z</time>
      </trkpt>
      <trkpt lat="42.84875" lon="0.03971">
        <ele>1628</ele>
        <time>2012-12-22T09:42:24Z</time>
      </trkpt>
      <trkpt lat="42.84874" lon="0.0397">
        <ele>1628</ele>
        <time>2012-12-22T09:42:27Z</time>
      </trkpt>
      <trkpt lat="42.84873" lon="0.03968">
        <ele>1628</ele>
        <time>2012-12-22T09:42:35Z</time>
      </trkpt>
      <trkpt lat="42.84873" lon="0.03967">
        <ele>1628</ele>
        <time>2012-12-22T09:42:58Z</time>
      </trkpt>
      <trkpt lat="42.84872" lon="0.03965">
        <ele>1629</ele>
        <time>2012-12-22T09:43:01Z</time>
      </trkpt>
      <trkpt lat="42.84871" lon="0.03966">
        <ele>1631</ele>
        <time>2012-12-22T09:43:12Z</time>
      </trkpt>
      <trkpt lat="42.84871" lon="0.03968">
        <ele>1631</ele>
        <time>2012-12-22T09:43:14Z</time>
      </trkpt>
      <trkpt lat="42.84871" lon="0.0397">
        <ele>1631</ele>
        <time>2012-12-22T09:43:16Z</time>
      </trkpt>
      <trkpt lat="42.84871" lon="0.03972">
        <ele>1631</ele>
        <time>2012-12-22T09:43:18Z</time>
      </trkpt>
      <trkpt lat="42.84871" lon="0.03974">
        <ele>1632</ele>
        <time>2012-12-22T09:43:20Z</time>
      </trkpt>
      <trkpt lat="42.84871" lon="0.03976">
        <ele>1632</ele>
        <time>2012-12-22T09:43:22Z</time>
      </trkpt>
      <trkpt lat="42.84871" lon="0.03978">
        <ele>1632</ele>
        <time>2012-12-22T09:43:24Z</time>
      </trkpt>
      <trkpt lat="42.84871" lon="0.0398">
        <ele>1632</ele>
        <time>2012-12-22T09:43:26Z</time>
      </trkpt>
      <trkpt lat="42.84871" lon="0.03982">
        <ele>1633</ele>
        <time>2012-12-22T09:43:28Z</time>
      </trkpt>
      <trkpt lat="42.84871" lon="0.03984">
        <ele>1633</ele>
        <time>2012-12-22T09:43:30Z</time>
      </trkpt>
      <trkpt lat="42.8487" lon="0.03986">
        <ele>1634</ele>
        <time>2012-12-22T09:43:32Z</time>
      </trkpt>
      <trkpt lat="42.84869" lon="0.03987">
        <ele>1634</ele>
        <time>2012-12-22T09:43:34Z</time>
      </trkpt>
      <trkpt lat="42.84868" lon="0.03989">
        <ele>1635</ele>
        <time>2012-12-22T09:43:37Z</time>
      </trkpt>
      <trkpt lat="42.84867" lon="0.0399">
        <ele>1635</ele>
        <time>2012-12-22T09:43:39Z</time>
      </trkpt>
      <trkpt lat="42.84867" lon="0.03992">
        <ele>1636</ele>
        <time>2012-12-22T09:43:41Z</time>
      </trkpt>
      <trkpt lat="42.84867" lon="0.03994">
        <ele>1636</ele>
        <time>2012-12-22T09:43:43Z</time>
      </trkpt>
      <trkpt lat="42.84868" lon="0.03996">
        <ele>1637</ele>
        <time>2012-12-22T09:43:45Z</time>
      </trkpt>
      <trkpt lat="42.84868" lon="0.03998">
        <ele>1637</ele>
        <time>2012-12-22T09:43:47Z</time>
      </trkpt>
      <trkpt lat="42.84868" lon="0.04">
        <ele>1638</ele>
        <time>2012-12-22T09:43:49Z</time>
      </trkpt>
      <trkpt lat="42.84867" lon="0.04001">
        <ele>1638</ele>
        <time>2012-12-22T09:43:53Z</time>
      </trkpt>
      <trkpt lat="42.84865" lon="0.04001">
        <ele>1638</ele>
        <time>2012-12-22T09:43:55Z</time>
      </trkpt>
      <trkpt lat="42.84864" lon="0.04001">
        <ele>1638</ele>
        <time>2012-12-22T09:43:57Z</time>
      </trkpt>
      <trkpt lat="42.84863" lon="0.04002">
        <ele>1638</ele>
        <time>2012-12-22T09:43:59Z</time>
      </trkpt>
      <trkpt lat="42.84861" lon="0.04003">
        <ele>1639</ele>
        <time>2012-12-22T09:44:02Z</time>
      </trkpt>
      <trkpt lat="42.8486" lon="0.04004">
        <ele>1640</ele>
        <time>2012-12-22T09:44:05Z</time>
      </trkpt>
      <trkpt lat="42.84859" lon="0.04006">
        <ele>1640</ele>
        <time>2012-12-22T09:44:07Z</time>
      </trkpt>
      <trkpt lat="42.84859" lon="0.04008">
        <ele>1640</ele>
        <time>2012-12-22T09:44:10Z</time>
      </trkpt>
      <trkpt lat="42.84858" lon="0.04009">
        <ele>1640</ele>
        <time>2012-12-22T09:44:12Z</time>
      </trkpt>
      <trkpt lat="42.84858" lon="0.04011">
        <ele>1641</ele>
        <time>2012-12-22T09:44:14Z</time>
      </trkpt>
      <trkpt lat="42.84858" lon="0.04013">
        <ele>1642</ele>
        <time>2012-12-22T09:44:17Z</time>
      </trkpt>
      <trkpt lat="42.84857" lon="0.04014">
        <ele>1643</ele>
        <time>2012-12-22T09:44:20Z</time>
      </trkpt>
      <trkpt lat="42.84857" lon="0.04016">
        <ele>1644</ele>
        <time>2012-12-22T09:44:24Z</time>
      </trkpt>
      <trkpt lat="42.84858" lon="0.04017">
        <ele>1644</ele>
        <time>2012-12-22T09:44:27Z</time>
      </trkpt>
      <trkpt lat="42.84858" lon="0.04019">
        <ele>1644</ele>
        <time>2012-12-22T09:44:30Z</time>
      </trkpt>
      <trkpt lat="42.84858" lon="0.04021">
        <ele>1644</ele>
        <time>2012-12-22T09:44:33Z</time>
      </trkpt>
      <trkpt lat="42.84858" lon="0.04022">
        <ele>1644</ele>
        <time>2012-12-22T09:44:37Z</time>
      </trkpt>
      <trkpt lat="42.84858" lon="0.04024">
        <ele>1644</ele>
        <time>2012-12-22T09:44:41Z</time>
      </trkpt>
      <trkpt lat="42.84857" lon="0.04026">
        <ele>1644</ele>
        <time>2012-12-22T09:44:44Z</time>
      </trkpt>
      <trkpt lat="42.84856" lon="0.04028">
        <ele>1644</ele>
        <time>2012-12-22T09:44:46Z</time>
      </trkpt>
      <trkpt lat="42.84856" lon="0.04029">
        <ele>1644</ele>
        <time>2012-12-22T09:44:48Z</time>
      </trkpt>
      <trkpt lat="42.84856" lon="0.04031">
        <ele>1645</ele>
        <time>2012-12-22T09:44:51Z</time>
      </trkpt>
      <trkpt lat="42.84856" lon="0.04033">
        <ele>1645</ele>
        <time>2012-12-22T09:44:54Z</time>
      </trkpt>
      <trkpt lat="42.84855" lon="0.04034">
        <ele>1646</ele>
        <time>2012-12-22T09:44:56Z</time>
      </trkpt>
      <trkpt lat="42.84855" lon="0.04036">
        <ele>1646</ele>
        <time>2012-12-22T09:44:58Z</time>
      </trkpt>
      <trkpt lat="42.84855" lon="0.04037">
        <ele>1646</ele>
        <time>2012-12-22T09:45:00Z</time>
      </trkpt>
      <trkpt lat="42.84854" lon="0.04039">
        <ele>1647</ele>
        <time>2012-12-22T09:45:03Z</time>
      </trkpt>
      <trkpt lat="42.84854" lon="0.04041">
        <ele>1647</ele>
        <time>2012-12-22T09:45:05Z</time>
      </trkpt>
      <trkpt lat="42.84854" lon="0.04042">
        <ele>1647</ele>
        <time>2012-12-22T09:45:07Z</time>
      </trkpt>
      <trkpt lat="42.84853" lon="0.04044">
        <ele>1647</ele>
        <time>2012-12-22T09:45:10Z</time>
      </trkpt>
      <trkpt lat="42.84853" lon="0.04046">
        <ele>1648</ele>
        <time>2012-12-22T09:45:13Z</time>
      </trkpt>
      <trkpt lat="42.84853" lon="0.04047">
        <ele>1648</ele>
        <time>2012-12-22T09:45:17Z</time>
      </trkpt>
      <trkpt lat="42.84852" lon="0.04049">
        <ele>1649</ele>
        <time>2012-12-22T09:45:20Z</time>
      </trkpt>
      <trkpt lat="42.84852" lon="0.04051">
        <ele>1650</ele>
        <time>2012-12-22T09:45:23Z</time>
      </trkpt>
      <trkpt lat="42.84851" lon="0.04053">
        <ele>1650</ele>
        <time>2012-12-22T09:45:26Z</time>
      </trkpt>
      <trkpt lat="42.84851" lon="0.04054">
        <ele>1650</ele>
        <time>2012-12-22T09:45:28Z</time>
      </trkpt>
      <trkpt lat="42.84851" lon="0.04056">
        <ele>1651</ele>
        <time>2012-12-22T09:45:30Z</time>
      </trkpt>
      <trkpt lat="42.84851" lon="0.04058">
        <ele>1651</ele>
        <time>2012-12-22T09:45:32Z</time>
      </trkpt>
      <trkpt lat="42.84851" lon="0.04059">
        <ele>1651</ele>
        <time>2012-12-22T09:45:34Z</time>
      </trkpt>
      <trkpt lat="42.84851" lon="0.04061">
        <ele>1651</ele>
        <time>2012-12-22T09:45:36Z</time>
      </trkpt>
      <trkpt lat="42.84851" lon="0.04062">
        <ele>1652</ele>
        <time>2012-12-22T09:45:39Z</time>
      </trkpt>
      <trkpt lat="42.84851" lon="0.04064">
        <ele>1652</ele>
        <time>2012-12-22T09:45:42Z</time>
      </trkpt>
      <trkpt lat="42.8485" lon="0.04066">
        <ele>1653</ele>
        <time>2012-12-22T09:45:45Z</time>
      </trkpt>
      <trkpt lat="42.8485" lon="0.04068">
        <ele>1653</ele>
        <time>2012-12-22T09:45:48Z</time>
      </trkpt>
      <trkpt lat="42.8485" lon="0.0407">
        <ele>1653</ele>
        <time>2012-12-22T09:45:51Z</time>
      </trkpt>
      <trkpt lat="42.8485" lon="0.04071">
        <ele>1654</ele>
        <time>2012-12-22T09:45:53Z</time>
      </trkpt>
      <trkpt lat="42.8485" lon="0.04073">
        <ele>1654</ele>
        <time>2012-12-22T09:45:55Z</time>
      </trkpt>
      <trkpt lat="42.84849" lon="0.04075">
        <ele>1654</ele>
        <time>2012-12-22T09:45:57Z</time>
      </trkpt>
      <trkpt lat="42.84849" lon="0.04076">
        <ele>1654</ele>
        <time>2012-12-22T09:45:59Z</time>
      </trkpt>
      <trkpt lat="42.84848" lon="0.04078">
        <ele>1654</ele>
        <time>2012-12-22T09:46:01Z</time>
      </trkpt>
      <trkpt lat="42.84848" lon="0.04079">
        <ele>1654</ele>
        <time>2012-12-22T09:46:03Z</time>
      </trkpt>
      <trkpt lat="42.84847" lon="0.04081">
        <ele>1654</ele>
        <time>2012-12-22T09:46:05Z</time>
      </trkpt>
      <trkpt lat="42.84847" lon="0.04083">
        <ele>1655</ele>
        <time>2012-12-22T09:46:07Z</time>
      </trkpt>
      <trkpt lat="42.84847" lon="0.04084">
        <ele>1655</ele>
        <time>2012-12-22T09:46:09Z</time>
      </trkpt>
      <trkpt lat="42.84846" lon="0.04086">
        <ele>1656</ele>
        <time>2012-12-22T09:46:11Z</time>
      </trkpt>
      <trkpt lat="42.84846" lon="0.04087">
        <ele>1656</ele>
        <time>2012-12-22T09:46:13Z</time>
      </trkpt>
      <trkpt lat="42.84846" lon="0.04089">
        <ele>1656</ele>
        <time>2012-12-22T09:46:15Z</time>
      </trkpt>
      <trkpt lat="42.84846" lon="0.04091">
        <ele>1657</ele>
        <time>2012-12-22T09:46:17Z</time>
      </trkpt>
      <trkpt lat="42.84845" lon="0.04092">
        <ele>1657</ele>
        <time>2012-12-22T09:46:19Z</time>
      </trkpt>
      <trkpt lat="42.84845" lon="0.04094">
        <ele>1657</ele>
        <time>2012-12-22T09:46:21Z</time>
      </trkpt>
      <trkpt lat="42.84845" lon="0.04096">
        <ele>1657</ele>
        <time>2012-12-22T09:46:23Z</time>
      </trkpt>
      <trkpt lat="42.84844" lon="0.04098">
        <ele>1657</ele>
        <time>2012-12-22T09:46:25Z</time>
      </trkpt>
      <trkpt lat="42.84843" lon="0.04099">
        <ele>1657</ele>
        <time>2012-12-22T09:46:27Z</time>
      </trkpt>
      <trkpt lat="42.84843" lon="0.04101">
        <ele>1657</ele>
        <time>2012-12-22T09:46:29Z</time>
      </trkpt>
      <trkpt lat="42.84842" lon="0.04102">
        <ele>1657</ele>
        <time>2012-12-22T09:46:31Z</time>
      </trkpt>
      <trkpt lat="42.84842" lon="0.04104">
        <ele>1657</ele>
        <time>2012-12-22T09:46:33Z</time>
      </trkpt>
      <trkpt lat="42.84841" lon="0.04105">
        <ele>1657</ele>
        <time>2012-12-22T09:46:35Z</time>
      </trkpt>
      <trkpt lat="42.8484" lon="0.04107">
        <ele>1657</ele>
        <time>2012-12-22T09:46:37Z</time>
      </trkpt>
      <trkpt lat="42.8484" lon="0.04109">
        <ele>1657</ele>
        <time>2012-12-22T09:46:39Z</time>
      </trkpt>
      <trkpt lat="42.8484" lon="0.04111">
        <ele>1657</ele>
        <time>2012-12-22T09:46:41Z</time>
      </trkpt>
      <trkpt lat="42.84839" lon="0.04112">
        <ele>1657</ele>
        <time>2012-12-22T09:46:43Z</time>
      </trkpt>
      <trkpt lat="42.84839" lon="0.04114">
        <ele>1657</ele>
        <time>2012-12-22T09:46:45Z</time>
      </trkpt>
      <trkpt lat="42.84839" lon="0.04116">
        <ele>1658</ele>
        <time>2012-12-22T09:46:48Z</time>
      </trkpt>
      <trkpt lat="42.84839" lon="0.04117">
        <ele>1659</ele>
        <time>2012-12-22T09:46:50Z</time>
      </trkpt>
      <trkpt lat="42.84839" lon="0.04119">
        <ele>1659</ele>
        <time>2012-12-22T09:46:52Z</time>
      </trkpt>
      <trkpt lat="42.84839" lon="0.04121">
        <ele>1659</ele>
        <time>2012-12-22T09:46:55Z</time>
      </trkpt>
      <trkpt lat="42.84838" lon="0.04123">
        <ele>1660</ele>
        <time>2012-12-22T09:46:58Z</time>
      </trkpt>
      <trkpt lat="42.84838" lon="0.04124">
        <ele>1660</ele>
        <time>2012-12-22T09:47:01Z</time>
      </trkpt>
      <trkpt lat="42.84838" lon="0.04126">
        <ele>1660</ele>
        <time>2012-12-22T09:47:03Z</time>
      </trkpt>
      <trkpt lat="42.84838" lon="0.04128">
        <ele>1661</ele>
        <time>2012-12-22T09:47:06Z</time>
      </trkpt>
      <trkpt lat="42.84838" lon="0.0413">
        <ele>1661</ele>
        <time>2012-12-22T09:47:13Z</time>
      </trkpt>
      <trkpt lat="42.84837" lon="0.04132">
        <ele>1661</ele>
        <time>2012-12-22T09:47:15Z</time>
      </trkpt>
      <trkpt lat="42.84837" lon="0.04133">
        <ele>1662</ele>
        <time>2012-12-22T09:47:17Z</time>
      </trkpt>
      <trkpt lat="42.84837" lon="0.04135">
        <ele>1662</ele>
        <time>2012-12-22T09:47:19Z</time>
      </trkpt>
      <trkpt lat="42.84837" lon="0.04136">
        <ele>1662</ele>
        <time>2012-12-22T09:47:21Z</time>
      </trkpt>
      <trkpt lat="42.84837" lon="0.04138">
        <ele>1662</ele>
        <time>2012-12-22T09:47:23Z</time>
      </trkpt>
      <trkpt lat="42.84836" lon="0.04139">
        <ele>1663</ele>
        <time>2012-12-22T09:47:25Z</time>
      </trkpt>
      <trkpt lat="42.84836" lon="0.04141">
        <ele>1663</ele>
        <time>2012-12-22T09:47:27Z</time>
      </trkpt>
      <trkpt lat="42.84836" lon="0.04143">
        <ele>1664</ele>
        <time>2012-12-22T09:47:30Z</time>
      </trkpt>
      <trkpt lat="42.84835" lon="0.04145">
        <ele>1664</ele>
        <time>2012-12-22T09:47:33Z</time>
      </trkpt>
      <trkpt lat="42.84835" lon="0.04146">
        <ele>1664</ele>
        <time>2012-12-22T09:47:35Z</time>
      </trkpt>
      <trkpt lat="42.84835" lon="0.04148">
        <ele>1665</ele>
        <time>2012-12-22T09:47:38Z</time>
      </trkpt>
      <trkpt lat="42.84835" lon="0.0415">
        <ele>1666</ele>
        <time>2012-12-22T09:47:41Z</time>
      </trkpt>
      <trkpt lat="42.84834" lon="0.04152">
        <ele>1666</ele>
        <time>2012-12-22T09:47:44Z</time>
      </trkpt>
      <trkpt lat="42.84834" lon="0.04153">
        <ele>1667</ele>
        <time>2012-12-22T09:47:47Z</time>
      </trkpt>
      <trkpt lat="42.84834" lon="0.04155">
        <ele>1667</ele>
        <time>2012-12-22T09:47:50Z</time>
      </trkpt>
      <trkpt lat="42.84834" lon="0.04156">
        <ele>1668</ele>
        <time>2012-12-22T09:47:52Z</time>
      </trkpt>
      <trkpt lat="42.84833" lon="0.04158">
        <ele>1668</ele>
        <time>2012-12-22T09:47:55Z</time>
      </trkpt>
      <trkpt lat="42.84833" lon="0.0416">
        <ele>1668</ele>
        <time>2012-12-22T09:47:58Z</time>
      </trkpt>
      <trkpt lat="42.84833" lon="0.04162">
        <ele>1669</ele>
        <time>2012-12-22T09:48:01Z</time>
      </trkpt>
      <trkpt lat="42.84832" lon="0.04163">
        <ele>1669</ele>
        <time>2012-12-22T09:48:04Z</time>
      </trkpt>
      <trkpt lat="42.84832" lon="0.04165">
        <ele>1669</ele>
        <time>2012-12-22T09:48:07Z</time>
      </trkpt>
      <trkpt lat="42.84832" lon="0.04167">
        <ele>1670</ele>
        <time>2012-12-22T09:48:10Z</time>
      </trkpt>
      <trkpt lat="42.84831" lon="0.04169">
        <ele>1670</ele>
        <time>2012-12-22T09:48:13Z</time>
      </trkpt>
      <trkpt lat="42.84831" lon="0.0417">
        <ele>1670</ele>
        <time>2012-12-22T09:48:16Z</time>
      </trkpt>
      <trkpt lat="42.84831" lon="0.04172">
        <ele>1670</ele>
        <time>2012-12-22T09:48:19Z</time>
      </trkpt>
      <trkpt lat="42.8483" lon="0.04173">
        <ele>1670</ele>
        <time>2012-12-22T09:48:21Z</time>
      </trkpt>
      <trkpt lat="42.8483" lon="0.04175">
        <ele>1671</ele>
        <time>2012-12-22T09:48:23Z</time>
      </trkpt>
      <trkpt lat="42.8483" lon="0.04176">
        <ele>1671</ele>
        <time>2012-12-22T09:48:26Z</time>
      </trkpt>
      <trkpt lat="42.8483" lon="0.04178">
        <ele>1672</ele>
        <time>2012-12-22T09:48:29Z</time>
      </trkpt>
      <trkpt lat="42.84829" lon="0.04179">
        <ele>1672</ele>
        <time>2012-12-22T09:48:31Z</time>
      </trkpt>
      <trkpt lat="42.84829" lon="0.04181">
        <ele>1672</ele>
        <time>2012-12-22T09:48:33Z</time>
      </trkpt>
      <trkpt lat="42.84829" lon="0.04182">
        <ele>1672</ele>
        <time>2012-12-22T09:48:36Z</time>
      </trkpt>
      <trkpt lat="42.84828" lon="0.04184">
        <ele>1673</ele>
        <time>2012-12-22T09:48:39Z</time>
      </trkpt>
      <trkpt lat="42.84828" lon="0.04186">
        <ele>1673</ele>
        <time>2012-12-22T09:48:42Z</time>
      </trkpt>
      <trkpt lat="42.84828" lon="0.04187">
        <ele>1673</ele>
        <time>2012-12-22T09:48:44Z</time>
      </trkpt>
      <trkpt lat="42.84827" lon="0.04189">
        <ele>1673</ele>
        <time>2012-12-22T09:48:47Z</time>
      </trkpt>
      <trkpt lat="42.84827" lon="0.0419">
        <ele>1673</ele>
        <time>2012-12-22T09:48:50Z</time>
      </trkpt>
      <trkpt lat="42.84826" lon="0.04192">
        <ele>1673</ele>
        <time>2012-12-22T09:48:53Z</time>
      </trkpt>
      <trkpt lat="42.84825" lon="0.04194">
        <ele>1674</ele>
        <time>2012-12-22T09:48:56Z</time>
      </trkpt>
      <trkpt lat="42.84825" lon="0.04196">
        <ele>1674</ele>
        <time>2012-12-22T09:48:59Z</time>
      </trkpt>
      <trkpt lat="42.84824" lon="0.04197">
        <ele>1674</ele>
        <time>2012-12-22T09:49:02Z</time>
      </trkpt>
      <trkpt lat="42.84824" lon="0.04199">
        <ele>1674</ele>
        <time>2012-12-22T09:49:05Z</time>
      </trkpt>
      <trkpt lat="42.84823" lon="0.042">
        <ele>1675</ele>
        <time>2012-12-22T09:49:08Z</time>
      </trkpt>
      <trkpt lat="42.84823" lon="0.04202">
        <ele>1675</ele>
        <time>2012-12-22T09:49:11Z</time>
      </trkpt>
      <trkpt lat="42.84822" lon="0.04204">
        <ele>1675</ele>
        <time>2012-12-22T09:49:14Z</time>
      </trkpt>
      <trkpt lat="42.84822" lon="0.04206">
        <ele>1676</ele>
        <time>2012-12-22T09:49:18Z</time>
      </trkpt>
      <trkpt lat="42.84821" lon="0.04207">
        <ele>1676</ele>
        <time>2012-12-22T09:49:22Z</time>
      </trkpt>
      <trkpt lat="42.84821" lon="0.04209">
        <ele>1677</ele>
        <time>2012-12-22T09:49:24Z</time>
      </trkpt>
      <trkpt lat="42.8482" lon="0.04211">
        <ele>1677</ele>
        <time>2012-12-22T09:49:27Z</time>
      </trkpt>
      <trkpt lat="42.8482" lon="0.04212">
        <ele>1677</ele>
        <time>2012-12-22T09:49:30Z</time>
      </trkpt>
      <trkpt lat="42.84819" lon="0.04214">
        <ele>1678</ele>
        <time>2012-12-22T09:49:32Z</time>
      </trkpt>
      <trkpt lat="42.84819" lon="0.04216">
        <ele>1678</ele>
        <time>2012-12-22T09:49:35Z</time>
      </trkpt>
      <trkpt lat="42.84818" lon="0.04217">
        <ele>1678</ele>
        <time>2012-12-22T09:49:38Z</time>
      </trkpt>
      <trkpt lat="42.84818" lon="0.04219">
        <ele>1678</ele>
        <time>2012-12-22T09:49:41Z</time>
      </trkpt>
      <trkpt lat="42.84817" lon="0.0422">
        <ele>1679</ele>
        <time>2012-12-22T09:49:44Z</time>
      </trkpt>
      <trkpt lat="42.84816" lon="0.04222">
        <ele>1679</ele>
        <time>2012-12-22T09:49:47Z</time>
      </trkpt>
      <trkpt lat="42.84816" lon="0.04224">
        <ele>1680</ele>
        <time>2012-12-22T09:49:50Z</time>
      </trkpt>
      <trkpt lat="42.84816" lon="0.04225">
        <ele>1680</ele>
        <time>2012-12-22T09:49:52Z</time>
      </trkpt>
      <trkpt lat="42.84816" lon="0.04227">
        <ele>1680</ele>
        <time>2012-12-22T09:49:54Z</time>
      </trkpt>
      <trkpt lat="42.84816" lon="0.04228">
        <ele>1681</ele>
        <time>2012-12-22T09:49:56Z</time>
      </trkpt>
      <trkpt lat="42.84816" lon="0.0423">
        <ele>1681</ele>
        <time>2012-12-22T09:49:58Z</time>
      </trkpt>
      <trkpt lat="42.84816" lon="0.04232">
        <ele>1681</ele>
        <time>2012-12-22T09:50:01Z</time>
      </trkpt>
      <trkpt lat="42.84816" lon="0.04233">
        <ele>1682</ele>
        <time>2012-12-22T09:50:03Z</time>
      </trkpt>
      <trkpt lat="42.84816" lon="0.04235">
        <ele>1682</ele>
        <time>2012-12-22T09:50:05Z</time>
      </trkpt>
      <trkpt lat="42.84815" lon="0.04236">
        <ele>1682</ele>
        <time>2012-12-22T09:50:07Z</time>
      </trkpt>
      <trkpt lat="42.84816" lon="0.04238">
        <ele>1682</ele>
        <time>2012-12-22T09:50:09Z</time>
      </trkpt>
      <trkpt lat="42.84816" lon="0.04239">
        <ele>1682</ele>
        <time>2012-12-22T09:50:11Z</time>
      </trkpt>
      <trkpt lat="42.84816" lon="0.04241">
        <ele>1683</ele>
        <time>2012-12-22T09:50:13Z</time>
      </trkpt>
      <trkpt lat="42.84816" lon="0.04242">
        <ele>1683</ele>
        <time>2012-12-22T09:50:16Z</time>
      </trkpt>
      <trkpt lat="42.84816" lon="0.04244">
        <ele>1683</ele>
        <time>2012-12-22T09:50:19Z</time>
      </trkpt>
      <trkpt lat="42.84816" lon="0.04246">
        <ele>1683</ele>
        <time>2012-12-22T09:50:22Z</time>
      </trkpt>
      <trkpt lat="42.84816" lon="0.04248">
        <ele>1684</ele>
        <time>2012-12-22T09:50:25Z</time>
      </trkpt>
      <trkpt lat="42.84816" lon="0.04249">
        <ele>1684</ele>
        <time>2012-12-22T09:50:28Z</time>
      </trkpt>
      <trkpt lat="42.84815" lon="0.04251">
        <ele>1685</ele>
        <time>2012-12-22T09:50:31Z</time>
      </trkpt>
      <trkpt lat="42.84816" lon="0.04252">
        <ele>1685</ele>
        <time>2012-12-22T09:50:33Z</time>
      </trkpt>
      <trkpt lat="42.84816" lon="0.04254">
        <ele>1686</ele>
        <time>2012-12-22T09:50:36Z</time>
      </trkpt>
      <trkpt lat="42.84816" lon="0.04256">
        <ele>1686</ele>
        <time>2012-12-22T09:50:39Z</time>
      </trkpt>
      <trkpt lat="42.84817" lon="0.04258">
        <ele>1686</ele>
        <time>2012-12-22T09:50:42Z</time>
      </trkpt>
      <trkpt lat="42.84817" lon="0.0426">
        <ele>1687</ele>
        <time>2012-12-22T09:50:45Z</time>
      </trkpt>
      <trkpt lat="42.84818" lon="0.04262">
        <ele>1687</ele>
        <time>2012-12-22T09:50:48Z</time>
      </trkpt>
      <trkpt lat="42.84818" lon="0.04264">
        <ele>1688</ele>
        <time>2012-12-22T09:50:51Z</time>
      </trkpt>
      <trkpt lat="42.84818" lon="0.04266">
        <ele>1688</ele>
        <time>2012-12-22T09:50:54Z</time>
      </trkpt>
      <trkpt lat="42.84818" lon="0.04268">
        <ele>1688</ele>
        <time>2012-12-22T09:50:57Z</time>
      </trkpt>
      <trkpt lat="42.84818" lon="0.0427">
        <ele>1688</ele>
        <time>2012-12-22T09:50:59Z</time>
      </trkpt>
      <trkpt lat="42.84818" lon="0.04271">
        <ele>1689</ele>
        <time>2012-12-22T09:51:01Z</time>
      </trkpt>
      <trkpt lat="42.84818" lon="0.04273">
        <ele>1689</ele>
        <time>2012-12-22T09:51:03Z</time>
      </trkpt>
      <trkpt lat="42.84819" lon="0.04275">
        <ele>1689</ele>
        <time>2012-12-22T09:51:06Z</time>
      </trkpt>
      <trkpt lat="42.84819" lon="0.04277">
        <ele>1690</ele>
        <time>2012-12-22T09:51:09Z</time>
      </trkpt>
      <trkpt lat="42.84819" lon="0.04279">
        <ele>1690</ele>
        <time>2012-12-22T09:51:12Z</time>
      </trkpt>
      <trkpt lat="42.84818" lon="0.04281">
        <ele>1690</ele>
        <time>2012-12-22T09:51:15Z</time>
      </trkpt>
      <trkpt lat="42.84818" lon="0.04282">
        <ele>1690</ele>
        <time>2012-12-22T09:51:18Z</time>
      </trkpt>
      <trkpt lat="42.84818" lon="0.04284">
        <ele>1691</ele>
        <time>2012-12-22T09:51:21Z</time>
      </trkpt>
      <trkpt lat="42.84817" lon="0.04286">
        <ele>1691</ele>
        <time>2012-12-22T09:51:24Z</time>
      </trkpt>
      <trkpt lat="42.84816" lon="0.04287">
        <ele>1691</ele>
        <time>2012-12-22T09:51:27Z</time>
      </trkpt>
      <trkpt lat="42.84816" lon="0.04289">
        <ele>1692</ele>
        <time>2012-12-22T09:51:31Z</time>
      </trkpt>
      <trkpt lat="42.84815" lon="0.04291">
        <ele>1693</ele>
        <time>2012-12-22T09:51:35Z</time>
      </trkpt>
      <trkpt lat="42.84814" lon="0.04292">
        <ele>1693</ele>
        <time>2012-12-22T09:51:39Z</time>
      </trkpt>
      <trkpt lat="42.84813" lon="0.04294">
        <ele>1695</ele>
        <time>2012-12-22T09:51:43Z</time>
      </trkpt>
      <trkpt lat="42.84811" lon="0.04295">
        <ele>1696</ele>
        <time>2012-12-22T09:51:48Z</time>
      </trkpt>
      <trkpt lat="42.84811" lon="0.04297">
        <ele>1697</ele>
        <time>2012-12-22T09:51:52Z</time>
      </trkpt>
      <trkpt lat="42.84809" lon="0.04298">
        <ele>1698</ele>
        <time>2012-12-22T09:51:56Z</time>
      </trkpt>
      <trkpt lat="42.84809" lon="0.043">
        <ele>1698</ele>
        <time>2012-12-22T09:51:59Z</time>
      </trkpt>
      <trkpt lat="42.84809" lon="0.04302">
        <ele>1699</ele>
        <time>2012-12-22T09:52:02Z</time>
      </trkpt>
      <trkpt lat="42.84809" lon="0.04304">
        <ele>1699</ele>
        <time>2012-12-22T09:52:05Z</time>
      </trkpt>
      <trkpt lat="42.84808" lon="0.04306">
        <ele>1699</ele>
        <time>2012-12-22T09:52:08Z</time>
      </trkpt>
      <trkpt lat="42.84808" lon="0.04307">
        <ele>1700</ele>
        <time>2012-12-22T09:52:11Z</time>
      </trkpt>
      <trkpt lat="42.84808" lon="0.04309">
        <ele>1701</ele>
        <time>2012-12-22T09:52:15Z</time>
      </trkpt>
      <trkpt lat="42.84807" lon="0.0431">
        <ele>1702</ele>
        <time>2012-12-22T09:52:19Z</time>
      </trkpt>
      <trkpt lat="42.84806" lon="0.04312">
        <ele>1703</ele>
        <time>2012-12-22T09:52:23Z</time>
      </trkpt>
      <trkpt lat="42.84804" lon="0.04312">
        <ele>1704</ele>
        <time>2012-12-22T09:52:27Z</time>
      </trkpt>
      <trkpt lat="42.84803" lon="0.04312">
        <ele>1705</ele>
        <time>2012-12-22T09:52:31Z</time>
      </trkpt>
      <trkpt lat="42.84801" lon="0.04312">
        <ele>1706</ele>
        <time>2012-12-22T09:52:34Z</time>
      </trkpt>
      <trkpt lat="42.848" lon="0.04314">
        <ele>1706</ele>
        <time>2012-12-22T09:52:40Z</time>
      </trkpt>
      <trkpt lat="42.84799" lon="0.04316">
        <ele>1707</ele>
        <time>2012-12-22T09:52:44Z</time>
      </trkpt>
      <trkpt lat="42.84798" lon="0.04317">
        <ele>1708</ele>
        <time>2012-12-22T09:52:47Z</time>
      </trkpt>
      <trkpt lat="42.84798" lon="0.04319">
        <ele>1708</ele>
        <time>2012-12-22T09:52:50Z</time>
      </trkpt>
      <trkpt lat="42.84797" lon="0.04321">
        <ele>1708</ele>
        <time>2012-12-22T09:52:53Z</time>
      </trkpt>
      <trkpt lat="42.84797" lon="0.04322">
        <ele>1709</ele>
        <time>2012-12-22T09:52:56Z</time>
      </trkpt>
      <trkpt lat="42.84797" lon="0.04324">
        <ele>1709</ele>
        <time>2012-12-22T09:52:59Z</time>
      </trkpt>
      <trkpt lat="42.84797" lon="0.04326">
        <ele>1710</ele>
        <time>2012-12-22T09:53:03Z</time>
      </trkpt>
      <trkpt lat="42.84795" lon="0.04326">
        <ele>1710</ele>
        <time>2012-12-22T09:53:08Z</time>
      </trkpt>
      <trkpt lat="42.84794" lon="0.04326">
        <ele>1710</ele>
        <time>2012-12-22T09:53:12Z</time>
      </trkpt>
      <trkpt lat="42.84793" lon="0.04326">
        <ele>1710</ele>
        <time>2012-12-22T09:53:16Z</time>
      </trkpt>
      <trkpt lat="42.84792" lon="0.04326">
        <ele>1710</ele>
        <time>2012-12-22T09:53:20Z</time>
      </trkpt>
      <trkpt lat="42.8479" lon="0.04326">
        <ele>1710</ele>
        <time>2012-12-22T09:53:23Z</time>
      </trkpt>
      <trkpt lat="42.84789" lon="0.04326">
        <ele>1710</ele>
        <time>2012-12-22T09:53:26Z</time>
      </trkpt>
      <trkpt lat="42.84789" lon="0.04328">
        <ele>1710</ele>
        <time>2012-12-22T09:53:29Z</time>
      </trkpt>
      <trkpt lat="42.84789" lon="0.0433">
        <ele>1710</ele>
        <time>2012-12-22T09:53:31Z</time>
      </trkpt>
      <trkpt lat="42.84789" lon="0.04331">
        <ele>1711</ele>
        <time>2012-12-22T09:53:34Z</time>
      </trkpt>
      <trkpt lat="42.84789" lon="0.04333">
        <ele>1711</ele>
        <time>2012-12-22T09:53:36Z</time>
      </trkpt>
      <trkpt lat="42.84789" lon="0.04334">
        <ele>1712</ele>
        <time>2012-12-22T09:53:41Z</time>
      </trkpt>
      <trkpt lat="42.84789" lon="0.04336">
        <ele>1712</ele>
        <time>2012-12-22T09:53:44Z</time>
      </trkpt>
      <trkpt lat="42.84789" lon="0.04338">
        <ele>1712</ele>
        <time>2012-12-22T09:53:46Z</time>
      </trkpt>
      <trkpt lat="42.84789" lon="0.04339">
        <ele>1713</ele>
        <time>2012-12-22T09:53:50Z</time>
      </trkpt>
      <trkpt lat="42.84787" lon="0.0434">
        <ele>1714</ele>
        <time>2012-12-22T09:53:54Z</time>
      </trkpt>
      <trkpt lat="42.84786" lon="0.0434">
        <ele>1715</ele>
        <time>2012-12-22T09:53:57Z</time>
      </trkpt>
      <trkpt lat="42.84785" lon="0.04339">
        <ele>1715</ele>
        <time>2012-12-22T09:54:02Z</time>
      </trkpt>
      <trkpt lat="42.84784" lon="0.04338">
        <ele>1716</ele>
        <time>2012-12-22T09:54:07Z</time>
      </trkpt>
      <trkpt lat="42.84782" lon="0.04338">
        <ele>1716</ele>
        <time>2012-12-22T09:54:10Z</time>
      </trkpt>
      <trkpt lat="42.84781" lon="0.04338">
        <ele>1716</ele>
        <time>2012-12-22T09:54:13Z</time>
      </trkpt>
      <trkpt lat="42.8478" lon="0.0434">
        <ele>1718</ele>
        <time>2012-12-22T09:54:17Z</time>
      </trkpt>
      <trkpt lat="42.8478" lon="0.04341">
        <ele>1719</ele>
        <time>2012-12-22T09:54:20Z</time>
      </trkpt>
      <trkpt lat="42.8478" lon="0.04343">
        <ele>1719</ele>
        <time>2012-12-22T09:54:22Z</time>
      </trkpt>
      <trkpt lat="42.8478" lon="0.04344">
        <ele>1720</ele>
        <time>2012-12-22T09:54:24Z</time>
      </trkpt>
      <trkpt lat="42.84779" lon="0.04346">
        <ele>1721</ele>
        <time>2012-12-22T09:54:31Z</time>
      </trkpt>
      <trkpt lat="42.84779" lon="0.04348">
        <ele>1721</ele>
        <time>2012-12-22T09:54:37Z</time>
      </trkpt>
      <trkpt lat="42.84779" lon="0.0435">
        <ele>1722</ele>
        <time>2012-12-22T09:54:40Z</time>
      </trkpt>
      <trkpt lat="42.84778" lon="0.04352">
        <ele>1722</ele>
        <time>2012-12-22T09:54:43Z</time>
      </trkpt>
      <trkpt lat="42.84779" lon="0.04353">
        <ele>1723</ele>
        <time>2012-12-22T09:54:47Z</time>
      </trkpt>
      <trkpt lat="42.8478" lon="0.04354">
        <ele>1726</ele>
        <time>2012-12-22T09:54:53Z</time>
      </trkpt>
      <trkpt lat="42.84781" lon="0.04355">
        <ele>1728</ele>
        <time>2012-12-22T09:55:07Z</time>
      </trkpt>
      <trkpt lat="42.84781" lon="0.04357">
        <ele>1731</ele>
        <time>2012-12-22T09:55:19Z</time>
      </trkpt>
      <trkpt lat="42.84779" lon="0.04357">
        <ele>1731</ele>
        <time>2012-12-22T09:55:24Z</time>
      </trkpt>
      <trkpt lat="42.84778" lon="0.04358">
        <ele>1732</ele>
        <time>2012-12-22T09:55:27Z</time>
      </trkpt>
      <trkpt lat="42.84777" lon="0.0436">
        <ele>1732</ele>
        <time>2012-12-22T09:55:30Z</time>
      </trkpt>
      <trkpt lat="42.84775" lon="0.0436">
        <ele>1732</ele>
        <time>2012-12-22T09:55:37Z</time>
      </trkpt>
      <trkpt lat="42.84774" lon="0.04361">
        <ele>1732</ele>
        <time>2012-12-22T09:55:40Z</time>
      </trkpt>
      <trkpt lat="42.84773" lon="0.04362">
        <ele>1732</ele>
        <time>2012-12-22T09:55:46Z</time>
      </trkpt>
      <trkpt lat="42.84771" lon="0.04362">
        <ele>1732</ele>
        <time>2012-12-22T09:55:57Z</time>
      </trkpt>
      <trkpt lat="42.84771" lon="0.04363">
        <ele>1732</ele>
        <time>2012-12-22T09:56:04Z</time>
      </trkpt>
      <trkpt lat="42.84772" lon="0.04365">
        <ele>1732</ele>
        <time>2012-12-22T09:56:07Z</time>
      </trkpt>
      <trkpt lat="42.84773" lon="0.04367">
        <ele>1732</ele>
        <time>2012-12-22T09:56:10Z</time>
      </trkpt>
      <trkpt lat="42.84774" lon="0.04369">
        <ele>1732</ele>
        <time>2012-12-22T09:56:14Z</time>
      </trkpt>
      <trkpt lat="42.84772" lon="0.04368">
        <ele>1732</ele>
        <time>2012-12-22T09:56:24Z</time>
      </trkpt>
      <trkpt lat="42.84771" lon="0.04368">
        <ele>1732</ele>
        <time>2012-12-22T09:56:26Z</time>
      </trkpt>
      <trkpt lat="42.8477" lon="0.04368">
        <ele>1732</ele>
        <time>2012-12-22T09:56:28Z</time>
      </trkpt>
      <trkpt lat="42.84769" lon="0.04366">
        <ele>1732</ele>
        <time>2012-12-22T09:56:31Z</time>
      </trkpt>
      <trkpt lat="42.84768" lon="0.04365">
        <ele>1732</ele>
        <time>2012-12-22T09:56:34Z</time>
      </trkpt>
      <trkpt lat="42.84768" lon="0.04363">
        <ele>1732</ele>
        <time>2012-12-22T09:56:36Z</time>
      </trkpt>
      <trkpt lat="42.84767" lon="0.04361">
        <ele>1732</ele>
        <time>2012-12-22T09:56:39Z</time>
      </trkpt>
      <trkpt lat="42.84766" lon="0.0436">
        <ele>1732</ele>
        <time>2012-12-22T09:56:44Z</time>
      </trkpt>
      <trkpt lat="42.84765" lon="0.04358">
        <ele>1732</ele>
        <time>2012-12-22T09:56:55Z</time>
      </trkpt>
      <trkpt lat="42.84766" lon="0.0436">
        <ele>1732</ele>
        <time>2012-12-22T09:57:37Z</time>
      </trkpt>
      <trkpt lat="42.84765" lon="0.04362">
        <ele>1732</ele>
        <time>2012-12-22T09:57:40Z</time>
      </trkpt>
      <trkpt lat="42.84765" lon="0.04364">
        <ele>1732</ele>
        <time>2012-12-22T09:57:42Z</time>
      </trkpt>
      <trkpt lat="42.84764" lon="0.04365">
        <ele>1732</ele>
        <time>2012-12-22T09:57:44Z</time>
      </trkpt>
      <trkpt lat="42.84764" lon="0.04367">
        <ele>1732</ele>
        <time>2012-12-22T09:57:46Z</time>
      </trkpt>
      <trkpt lat="42.84764" lon="0.04369">
        <ele>1732</ele>
        <time>2012-12-22T09:57:48Z</time>
      </trkpt>
      <trkpt lat="42.84763" lon="0.04371">
        <ele>1732</ele>
        <time>2012-12-22T09:57:51Z</time>
      </trkpt>
      <trkpt lat="42.84763" lon="0.04372">
        <ele>1732</ele>
        <time>2012-12-22T09:57:54Z</time>
      </trkpt>
      <trkpt lat="42.84762" lon="0.04375">
        <ele>1732</ele>
        <time>2012-12-22T09:57:57Z</time>
      </trkpt>
      <trkpt lat="42.84761" lon="0.04377">
        <ele>1732</ele>
        <time>2012-12-22T09:58:00Z</time>
      </trkpt>
      <trkpt lat="42.8476" lon="0.04379">
        <ele>1733</ele>
        <time>2012-12-22T09:58:03Z</time>
      </trkpt>
      <trkpt lat="42.8476" lon="0.0438">
        <ele>1733</ele>
        <time>2012-12-22T09:58:05Z</time>
      </trkpt>
      <trkpt lat="42.84759" lon="0.04382">
        <ele>1733</ele>
        <time>2012-12-22T09:58:07Z</time>
      </trkpt>
      <trkpt lat="42.84758" lon="0.04383">
        <ele>1734</ele>
        <time>2012-12-22T09:58:09Z</time>
      </trkpt>
      <trkpt lat="42.84758" lon="0.04385">
        <ele>1734</ele>
        <time>2012-12-22T09:58:12Z</time>
      </trkpt>
      <trkpt lat="42.84757" lon="0.04387">
        <ele>1735</ele>
        <time>2012-12-22T09:58:14Z</time>
      </trkpt>
      <trkpt lat="42.84757" lon="0.04389">
        <ele>1735</ele>
        <time>2012-12-22T09:58:17Z</time>
      </trkpt>
      <trkpt lat="42.84757" lon="0.0439">
        <ele>1736</ele>
        <time>2012-12-22T09:58:19Z</time>
      </trkpt>
      <trkpt lat="42.84757" lon="0.04392">
        <ele>1736</ele>
        <time>2012-12-22T09:58:21Z</time>
      </trkpt>
      <trkpt lat="42.84758" lon="0.04393">
        <ele>1737</ele>
        <time>2012-12-22T09:58:24Z</time>
      </trkpt>
      <trkpt lat="42.84759" lon="0.04394">
        <ele>1737</ele>
        <time>2012-12-22T09:58:27Z</time>
      </trkpt>
      <trkpt lat="42.8476" lon="0.04395">
        <ele>1738</ele>
        <time>2012-12-22T09:58:30Z</time>
      </trkpt>
      <trkpt lat="42.84761" lon="0.04397">
        <ele>1738</ele>
        <time>2012-12-22T09:58:33Z</time>
      </trkpt>
      <trkpt lat="42.84763" lon="0.04397">
        <ele>1738</ele>
        <time>2012-12-22T09:58:43Z</time>
      </trkpt>
      <trkpt lat="42.84764" lon="0.04399">
        <ele>1738</ele>
        <time>2012-12-22T09:58:48Z</time>
      </trkpt>
      <trkpt lat="42.84764" lon="0.044">
        <ele>1738</ele>
        <time>2012-12-22T09:59:00Z</time>
      </trkpt>
      <trkpt lat="42.84763" lon="0.044">
        <ele>1738</ele>
        <time>2012-12-22T09:59:05Z</time>
      </trkpt>
      <trkpt lat="42.84762" lon="0.04401">
        <ele>1738</ele>
        <time>2012-12-22T09:59:07Z</time>
      </trkpt>
      <trkpt lat="42.84761" lon="0.04402">
        <ele>1738</ele>
        <time>2012-12-22T09:59:10Z</time>
      </trkpt>
      <trkpt lat="42.84759" lon="0.04403">
        <ele>1738</ele>
        <time>2012-12-22T09:59:13Z</time>
      </trkpt>
      <trkpt lat="42.84758" lon="0.04403">
        <ele>1738</ele>
        <time>2012-12-22T09:59:15Z</time>
      </trkpt>
      <trkpt lat="42.84756" lon="0.04404">
        <ele>1738</ele>
        <time>2012-12-22T09:59:18Z</time>
      </trkpt>
      <trkpt lat="42.84755" lon="0.04405">
        <ele>1738</ele>
        <time>2012-12-22T09:59:21Z</time>
      </trkpt>
      <trkpt lat="42.84753" lon="0.04406">
        <ele>1738</ele>
        <time>2012-12-22T09:59:24Z</time>
      </trkpt>
      <trkpt lat="42.84752" lon="0.04407">
        <ele>1738</ele>
        <time>2012-12-22T09:59:27Z</time>
      </trkpt>
      <trkpt lat="42.8475" lon="0.04407">
        <ele>1738</ele>
        <time>2012-12-22T09:59:30Z</time>
      </trkpt>
      <trkpt lat="42.84749" lon="0.04408">
        <ele>1738</ele>
        <time>2012-12-22T09:59:33Z</time>
      </trkpt>
      <trkpt lat="42.84748" lon="0.04408">
        <ele>1740</ele>
        <time>2012-12-22T09:59:42Z</time>
      </trkpt>
      <trkpt lat="42.84747" lon="0.0441">
        <ele>1740</ele>
        <time>2012-12-22T09:59:44Z</time>
      </trkpt>
      <trkpt lat="42.84746" lon="0.04411">
        <ele>1742</ele>
        <time>2012-12-22T09:59:50Z</time>
      </trkpt>
      <trkpt lat="42.84745" lon="0.04412">
        <ele>1744</ele>
        <time>2012-12-22T10:00:11Z</time>
      </trkpt>
      <trkpt lat="42.84745" lon="0.04414">
        <ele>1744</ele>
        <time>2012-12-22T10:00:17Z</time>
      </trkpt>
      <trkpt lat="42.84745" lon="0.04415">
        <ele>1744</ele>
        <time>2012-12-22T10:00:20Z</time>
      </trkpt>
      <trkpt lat="42.84745" lon="0.04417">
        <ele>1745</ele>
        <time>2012-12-22T10:00:23Z</time>
      </trkpt>
      <trkpt lat="42.84743" lon="0.04418">
        <ele>1746</ele>
        <time>2012-12-22T10:00:36Z</time>
      </trkpt>
      <trkpt lat="42.84742" lon="0.04418">
        <ele>1748</ele>
        <time>2012-12-22T10:00:52Z</time>
      </trkpt>
      <trkpt lat="42.84741" lon="0.04418">
        <ele>1749</ele>
        <time>2012-12-22T10:00:55Z</time>
      </trkpt>
      <trkpt lat="42.84739" lon="0.0442">
        <ele>1752</ele>
        <time>2012-12-22T10:01:09Z</time>
      </trkpt>
      <trkpt lat="42.84739" lon="0.04421">
        <ele>1752</ele>
        <time>2012-12-22T10:01:20Z</time>
      </trkpt>
      <trkpt lat="42.84738" lon="0.04423">
        <ele>1753</ele>
        <time>2012-12-22T10:01:24Z</time>
      </trkpt>
      <trkpt lat="42.84737" lon="0.04425">
        <ele>1753</ele>
        <time>2012-12-22T10:01:27Z</time>
      </trkpt>
      <trkpt lat="42.84736" lon="0.04426">
        <ele>1753</ele>
        <time>2012-12-22T10:01:30Z</time>
      </trkpt>
      <trkpt lat="42.84735" lon="0.04428">
        <ele>1754</ele>
        <time>2012-12-22T10:01:34Z</time>
      </trkpt>
      <trkpt lat="42.84734" lon="0.04428">
        <ele>1754</ele>
        <time>2012-12-22T10:01:37Z</time>
      </trkpt>
      <trkpt lat="42.84733" lon="0.04426">
        <ele>1755</ele>
        <time>2012-12-22T10:01:42Z</time>
      </trkpt>
      <trkpt lat="42.84732" lon="0.04425">
        <ele>1755</ele>
        <time>2012-12-22T10:01:45Z</time>
      </trkpt>
      <trkpt lat="42.84731" lon="0.04423">
        <ele>1755</ele>
        <time>2012-12-22T10:01:51Z</time>
      </trkpt>
      <trkpt lat="42.84729" lon="0.04423">
        <ele>1755</ele>
        <time>2012-12-22T10:01:53Z</time>
      </trkpt>
      <trkpt lat="42.84728" lon="0.04423">
        <ele>1755</ele>
        <time>2012-12-22T10:01:55Z</time>
      </trkpt>
      <trkpt lat="42.84727" lon="0.04424">
        <ele>1755</ele>
        <time>2012-12-22T10:01:57Z</time>
      </trkpt>
      <trkpt lat="42.84726" lon="0.04424">
        <ele>1755</ele>
        <time>2012-12-22T10:01:59Z</time>
      </trkpt>
      <trkpt lat="42.84724" lon="0.04425">
        <ele>1756</ele>
        <time>2012-12-22T10:02:02Z</time>
      </trkpt>
      <trkpt lat="42.84723" lon="0.04426">
        <ele>1756</ele>
        <time>2012-12-22T10:02:05Z</time>
      </trkpt>
      <trkpt lat="42.84722" lon="0.04427">
        <ele>1756</ele>
        <time>2012-12-22T10:02:08Z</time>
      </trkpt>
      <trkpt lat="42.84721" lon="0.04428">
        <ele>1756</ele>
        <time>2012-12-22T10:02:11Z</time>
      </trkpt>
      <trkpt lat="42.84719" lon="0.04429">
        <ele>1757</ele>
        <time>2012-12-22T10:02:14Z</time>
      </trkpt>
      <trkpt lat="42.84718" lon="0.0443">
        <ele>1757</ele>
        <time>2012-12-22T10:02:17Z</time>
      </trkpt>
      <trkpt lat="42.84717" lon="0.04432">
        <ele>1758</ele>
        <time>2012-12-22T10:02:21Z</time>
      </trkpt>
      <trkpt lat="42.84716" lon="0.04433">
        <ele>1759</ele>
        <time>2012-12-22T10:02:24Z</time>
      </trkpt>
      <trkpt lat="42.84714" lon="0.04434">
        <ele>1759</ele>
        <time>2012-12-22T10:02:27Z</time>
      </trkpt>
      <trkpt lat="42.84712" lon="0.04435">
        <ele>1760</ele>
        <time>2012-12-22T10:02:30Z</time>
      </trkpt>
      <trkpt lat="42.84711" lon="0.04436">
        <ele>1761</ele>
        <time>2012-12-22T10:02:33Z</time>
      </trkpt>
      <trkpt lat="42.8471" lon="0.04437">
        <ele>1762</ele>
        <time>2012-12-22T10:02:36Z</time>
      </trkpt>
      <trkpt lat="42.84709" lon="0.04438">
        <ele>1763</ele>
        <time>2012-12-22T10:02:39Z</time>
      </trkpt>
      <trkpt lat="42.84708" lon="0.04439">
        <ele>1763</ele>
        <time>2012-12-22T10:02:42Z</time>
      </trkpt>
      <trkpt lat="42.84706" lon="0.0444">
        <ele>1764</ele>
        <time>2012-12-22T10:02:45Z</time>
      </trkpt>
      <trkpt lat="42.84705" lon="0.04442">
        <ele>1764</ele>
        <time>2012-12-22T10:02:49Z</time>
      </trkpt>
      <trkpt lat="42.84704" lon="0.04444">
        <ele>1764</ele>
        <time>2012-12-22T10:02:52Z</time>
      </trkpt>
      <trkpt lat="42.84703" lon="0.04445">
        <ele>1764</ele>
        <time>2012-12-22T10:02:56Z</time>
      </trkpt>
      <trkpt lat="42.84702" lon="0.04447">
        <ele>1765</ele>
        <time>2012-12-22T10:02:59Z</time>
      </trkpt>
      <trkpt lat="42.84701" lon="0.04449">
        <ele>1765</ele>
        <time>2012-12-22T10:03:02Z</time>
      </trkpt>
      <trkpt lat="42.847" lon="0.04451">
        <ele>1765</ele>
        <time>2012-12-22T10:03:05Z</time>
      </trkpt>
      <trkpt lat="42.847" lon="0.04452">
        <ele>1765</ele>
        <time>2012-12-22T10:03:08Z</time>
      </trkpt>
      <trkpt lat="42.84699" lon="0.04454">
        <ele>1765</ele>
        <time>2012-12-22T10:03:10Z</time>
      </trkpt>
      <trkpt lat="42.84699" lon="0.04455">
        <ele>1766</ele>
        <time>2012-12-22T10:03:13Z</time>
      </trkpt>
      <trkpt lat="42.84698" lon="0.04457">
        <ele>1766</ele>
        <time>2012-12-22T10:03:16Z</time>
      </trkpt>
      <trkpt lat="42.84698" lon="0.04459">
        <ele>1767</ele>
        <time>2012-12-22T10:03:19Z</time>
      </trkpt>
      <trkpt lat="42.84697" lon="0.04461">
        <ele>1767</ele>
        <time>2012-12-22T10:03:22Z</time>
      </trkpt>
      <trkpt lat="42.84697" lon="0.04463">
        <ele>1767</ele>
        <time>2012-12-22T10:03:25Z</time>
      </trkpt>
      <trkpt lat="42.84696" lon="0.04465">
        <ele>1768</ele>
        <time>2012-12-22T10:03:28Z</time>
      </trkpt>
      <trkpt lat="42.84695" lon="0.04466">
        <ele>1768</ele>
        <time>2012-12-22T10:03:31Z</time>
      </trkpt>
      <trkpt lat="42.84695" lon="0.04468">
        <ele>1768</ele>
        <time>2012-12-22T10:03:34Z</time>
      </trkpt>
      <trkpt lat="42.84695" lon="0.0447">
        <ele>1769</ele>
        <time>2012-12-22T10:03:37Z</time>
      </trkpt>
      <trkpt lat="42.84694" lon="0.04471">
        <ele>1769</ele>
        <time>2012-12-22T10:03:40Z</time>
      </trkpt>
      <trkpt lat="42.84694" lon="0.04473">
        <ele>1770</ele>
        <time>2012-12-22T10:03:43Z</time>
      </trkpt>
      <trkpt lat="42.84692" lon="0.04475">
        <ele>1770</ele>
        <time>2012-12-22T10:03:47Z</time>
      </trkpt>
      <trkpt lat="42.84691" lon="0.04476">
        <ele>1771</ele>
        <time>2012-12-22T10:03:51Z</time>
      </trkpt>
      <trkpt lat="42.84689" lon="0.04477">
        <ele>1771</ele>
        <time>2012-12-22T10:03:54Z</time>
      </trkpt>
      <trkpt lat="42.84688" lon="0.04478">
        <ele>1771</ele>
        <time>2012-12-22T10:03:57Z</time>
      </trkpt>
      <trkpt lat="42.84687" lon="0.04479">
        <ele>1772</ele>
        <time>2012-12-22T10:04:00Z</time>
      </trkpt>
      <trkpt lat="42.84685" lon="0.04481">
        <ele>1772</ele>
        <time>2012-12-22T10:04:03Z</time>
      </trkpt>
      <trkpt lat="42.84684" lon="0.04482">
        <ele>1773</ele>
        <time>2012-12-22T10:04:06Z</time>
      </trkpt>
      <trkpt lat="42.84682" lon="0.04484">
        <ele>1773</ele>
        <time>2012-12-22T10:04:10Z</time>
      </trkpt>
      <trkpt lat="42.84681" lon="0.04485">
        <ele>1773</ele>
        <time>2012-12-22T10:04:13Z</time>
      </trkpt>
      <trkpt lat="42.84681" lon="0.04487">
        <ele>1773</ele>
        <time>2012-12-22T10:04:16Z</time>
      </trkpt>
      <trkpt lat="42.84679" lon="0.04489">
        <ele>1774</ele>
        <time>2012-12-22T10:04:19Z</time>
      </trkpt>
      <trkpt lat="42.84679" lon="0.0449">
        <ele>1774</ele>
        <time>2012-12-22T10:04:21Z</time>
      </trkpt>
      <trkpt lat="42.84677" lon="0.04492">
        <ele>1774</ele>
        <time>2012-12-22T10:04:24Z</time>
      </trkpt>
      <trkpt lat="42.84676" lon="0.04493">
        <ele>1774</ele>
        <time>2012-12-22T10:04:26Z</time>
      </trkpt>
      <trkpt lat="42.84676" lon="0.04495">
        <ele>1775</ele>
        <time>2012-12-22T10:04:28Z</time>
      </trkpt>
      <trkpt lat="42.84675" lon="0.04496">
        <ele>1775</ele>
        <time>2012-12-22T10:04:30Z</time>
      </trkpt>
      <trkpt lat="42.84674" lon="0.04498">
        <ele>1775</ele>
        <time>2012-12-22T10:04:32Z</time>
      </trkpt>
      <trkpt lat="42.84673" lon="0.04499">
        <ele>1776</ele>
        <time>2012-12-22T10:04:35Z</time>
      </trkpt>
      <trkpt lat="42.84673" lon="0.04501">
        <ele>1776</ele>
        <time>2012-12-22T10:04:37Z</time>
      </trkpt>
      <trkpt lat="42.84672" lon="0.04503">
        <ele>1777</ele>
        <time>2012-12-22T10:04:40Z</time>
      </trkpt>
      <trkpt lat="42.84671" lon="0.04504">
        <ele>1777</ele>
        <time>2012-12-22T10:04:42Z</time>
      </trkpt>
      <trkpt lat="42.84671" lon="0.04506">
        <ele>1778</ele>
        <time>2012-12-22T10:04:44Z</time>
      </trkpt>
      <trkpt lat="42.84671" lon="0.04508">
        <ele>1778</ele>
        <time>2012-12-22T10:04:46Z</time>
      </trkpt>
      <trkpt lat="42.84671" lon="0.0451">
        <ele>1778</ele>
        <time>2012-12-22T10:04:48Z</time>
      </trkpt>
      <trkpt lat="42.8467" lon="0.04511">
        <ele>1779</ele>
        <time>2012-12-22T10:04:51Z</time>
      </trkpt>
      <trkpt lat="42.8467" lon="0.04513">
        <ele>1779</ele>
        <time>2012-12-22T10:04:53Z</time>
      </trkpt>
      <trkpt lat="42.84669" lon="0.04515">
        <ele>1780</ele>
        <time>2012-12-22T10:04:56Z</time>
      </trkpt>
      <trkpt lat="42.84669" lon="0.04516">
        <ele>1780</ele>
        <time>2012-12-22T10:04:58Z</time>
      </trkpt>
      <trkpt lat="42.84668" lon="0.04518">
        <ele>1780</ele>
        <time>2012-12-22T10:05:00Z</time>
      </trkpt>
      <trkpt lat="42.84668" lon="0.0452">
        <ele>1780</ele>
        <time>2012-12-22T10:05:03Z</time>
      </trkpt>
      <trkpt lat="42.84668" lon="0.04522">
        <ele>1781</ele>
        <time>2012-12-22T10:05:06Z</time>
      </trkpt>
      <trkpt lat="42.84667" lon="0.04524">
        <ele>1781</ele>
        <time>2012-12-22T10:05:09Z</time>
      </trkpt>
      <trkpt lat="42.84667" lon="0.04525">
        <ele>1782</ele>
        <time>2012-12-22T10:05:11Z</time>
      </trkpt>
      <trkpt lat="42.84666" lon="0.04527">
        <ele>1782</ele>
        <time>2012-12-22T10:05:13Z</time>
      </trkpt>
      <trkpt lat="42.84666" lon="0.04528">
        <ele>1782</ele>
        <time>2012-12-22T10:05:15Z</time>
      </trkpt>
      <trkpt lat="42.84666" lon="0.0453">
        <ele>1783</ele>
        <time>2012-12-22T10:05:17Z</time>
      </trkpt>
      <trkpt lat="42.84666" lon="0.04531">
        <ele>1783</ele>
        <time>2012-12-22T10:05:19Z</time>
      </trkpt>
      <trkpt lat="42.84666" lon="0.04533">
        <ele>1784</ele>
        <time>2012-12-22T10:05:21Z</time>
      </trkpt>
      <trkpt lat="42.84665" lon="0.04535">
        <ele>1784</ele>
        <time>2012-12-22T10:05:24Z</time>
      </trkpt>
      <trkpt lat="42.84665" lon="0.04536">
        <ele>1785</ele>
        <time>2012-12-22T10:05:26Z</time>
      </trkpt>
      <trkpt lat="42.84664" lon="0.04538">
        <ele>1785</ele>
        <time>2012-12-22T10:05:28Z</time>
      </trkpt>
      <trkpt lat="42.84664" lon="0.0454">
        <ele>1786</ele>
        <time>2012-12-22T10:05:30Z</time>
      </trkpt>
      <trkpt lat="42.84663" lon="0.04542">
        <ele>1786</ele>
        <time>2012-12-22T10:05:33Z</time>
      </trkpt>
      <trkpt lat="42.84663" lon="0.04543">
        <ele>1786</ele>
        <time>2012-12-22T10:05:35Z</time>
      </trkpt>
      <trkpt lat="42.84663" lon="0.04545">
        <ele>1786</ele>
        <time>2012-12-22T10:05:37Z</time>
      </trkpt>
      <trkpt lat="42.84663" lon="0.04546">
        <ele>1786</ele>
        <time>2012-12-22T10:05:39Z</time>
      </trkpt>
      <trkpt lat="42.84663" lon="0.04548">
        <ele>1786</ele>
        <time>2012-12-22T10:05:41Z</time>
      </trkpt>
      <trkpt lat="42.84663" lon="0.04549">
        <ele>1787</ele>
        <time>2012-12-22T10:05:43Z</time>
      </trkpt>
      <trkpt lat="42.84663" lon="0.04551">
        <ele>1787</ele>
        <time>2012-12-22T10:05:45Z</time>
      </trkpt>
      <trkpt lat="42.84663" lon="0.04553">
        <ele>1787</ele>
        <time>2012-12-22T10:05:47Z</time>
      </trkpt>
      <trkpt lat="42.84663" lon="0.04555">
        <ele>1787</ele>
        <time>2012-12-22T10:05:49Z</time>
      </trkpt>
      <trkpt lat="42.84663" lon="0.04556">
        <ele>1787</ele>
        <time>2012-12-22T10:05:51Z</time>
      </trkpt>
      <trkpt lat="42.84662" lon="0.04558">
        <ele>1787</ele>
        <time>2012-12-22T10:05:53Z</time>
      </trkpt>
      <trkpt lat="42.84662" lon="0.0456">
        <ele>1787</ele>
        <time>2012-12-22T10:05:55Z</time>
      </trkpt>
      <trkpt lat="42.84662" lon="0.04561">
        <ele>1788</ele>
        <time>2012-12-22T10:05:57Z</time>
      </trkpt>
      <trkpt lat="42.84662" lon="0.04563">
        <ele>1788</ele>
        <time>2012-12-22T10:05:59Z</time>
      </trkpt>
      <trkpt lat="42.84662" lon="0.04564">
        <ele>1788</ele>
        <time>2012-12-22T10:06:01Z</time>
      </trkpt>
      <trkpt lat="42.84663" lon="0.04566">
        <ele>1788</ele>
        <time>2012-12-22T10:06:04Z</time>
      </trkpt>
      <trkpt lat="42.84663" lon="0.04568">
        <ele>1789</ele>
        <time>2012-12-22T10:06:06Z</time>
      </trkpt>
      <trkpt lat="42.84663" lon="0.04569">
        <ele>1789</ele>
        <time>2012-12-22T10:06:08Z</time>
      </trkpt>
      <trkpt lat="42.84663" lon="0.04571">
        <ele>1789</ele>
        <time>2012-12-22T10:06:10Z</time>
      </trkpt>
      <trkpt lat="42.84663" lon="0.04573">
        <ele>1789</ele>
        <time>2012-12-22T10:06:12Z</time>
      </trkpt>
      <trkpt lat="42.84663" lon="0.04575">
        <ele>1790</ele>
        <time>2012-12-22T10:06:14Z</time>
      </trkpt>
      <trkpt lat="42.84663" lon="0.04576">
        <ele>1790</ele>
        <time>2012-12-22T10:06:16Z</time>
      </trkpt>
      <trkpt lat="42.84663" lon="0.04578">
        <ele>1790</ele>
        <time>2012-12-22T10:06:18Z</time>
      </trkpt>
      <trkpt lat="42.84663" lon="0.04579">
        <ele>1790</ele>
        <time>2012-12-22T10:06:20Z</time>
      </trkpt>
      <trkpt lat="42.84663" lon="0.04581">
        <ele>1791</ele>
        <time>2012-12-22T10:06:22Z</time>
      </trkpt>
      <trkpt lat="42.84663" lon="0.04583">
        <ele>1791</ele>
        <time>2012-12-22T10:06:24Z</time>
      </trkpt>
      <trkpt lat="42.84663" lon="0.04585">
        <ele>1791</ele>
        <time>2012-12-22T10:06:27Z</time>
      </trkpt>
      <trkpt lat="42.84663" lon="0.04587">
        <ele>1792</ele>
        <time>2012-12-22T10:06:29Z</time>
      </trkpt>
      <trkpt lat="42.84663" lon="0.04589">
        <ele>1792</ele>
        <time>2012-12-22T10:06:31Z</time>
      </trkpt>
      <trkpt lat="42.84663" lon="0.0459">
        <ele>1792</ele>
        <time>2012-12-22T10:06:33Z</time>
      </trkpt>
      <trkpt lat="42.84664" lon="0.04592">
        <ele>1792</ele>
        <time>2012-12-22T10:06:35Z</time>
      </trkpt>
      <trkpt lat="42.84664" lon="0.04594">
        <ele>1793</ele>
        <time>2012-12-22T10:06:38Z</time>
      </trkpt>
      <trkpt lat="42.84665" lon="0.04596">
        <ele>1793</ele>
        <time>2012-12-22T10:06:41Z</time>
      </trkpt>
      <trkpt lat="42.84665" lon="0.04597">
        <ele>1794</ele>
        <time>2012-12-22T10:06:44Z</time>
      </trkpt>
      <trkpt lat="42.84665" lon="0.04599">
        <ele>1794</ele>
        <time>2012-12-22T10:06:46Z</time>
      </trkpt>
      <trkpt lat="42.84665" lon="0.046">
        <ele>1794</ele>
        <time>2012-12-22T10:06:48Z</time>
      </trkpt>
      <trkpt lat="42.84665" lon="0.04602">
        <ele>1794</ele>
        <time>2012-12-22T10:06:50Z</time>
      </trkpt>
      <trkpt lat="42.84665" lon="0.04604">
        <ele>1795</ele>
        <time>2012-12-22T10:06:53Z</time>
      </trkpt>
      <trkpt lat="42.84664" lon="0.04606">
        <ele>1795</ele>
        <time>2012-12-22T10:06:55Z</time>
      </trkpt>
      <trkpt lat="42.84664" lon="0.04608">
        <ele>1795</ele>
        <time>2012-12-22T10:06:58Z</time>
      </trkpt>
      <trkpt lat="42.84663" lon="0.0461">
        <ele>1796</ele>
        <time>2012-12-22T10:07:01Z</time>
      </trkpt>
      <trkpt lat="42.84663" lon="0.04611">
        <ele>1796</ele>
        <time>2012-12-22T10:07:03Z</time>
      </trkpt>
      <trkpt lat="42.84663" lon="0.04613">
        <ele>1797</ele>
        <time>2012-12-22T10:07:06Z</time>
      </trkpt>
      <trkpt lat="42.84662" lon="0.04615">
        <ele>1797</ele>
        <time>2012-12-22T10:07:08Z</time>
      </trkpt>
      <trkpt lat="42.84662" lon="0.04616">
        <ele>1797</ele>
        <time>2012-12-22T10:07:10Z</time>
      </trkpt>
      <trkpt lat="42.84661" lon="0.04618">
        <ele>1797</ele>
        <time>2012-12-22T10:07:12Z</time>
      </trkpt>
      <trkpt lat="42.84661" lon="0.0462">
        <ele>1797</ele>
        <time>2012-12-22T10:07:14Z</time>
      </trkpt>
      <trkpt lat="42.8466" lon="0.04622">
        <ele>1797</ele>
        <time>2012-12-22T10:07:16Z</time>
      </trkpt>
      <trkpt lat="42.8466" lon="0.04623">
        <ele>1798</ele>
        <time>2012-12-22T10:07:18Z</time>
      </trkpt>
      <trkpt lat="42.84659" lon="0.04625">
        <ele>1798</ele>
        <time>2012-12-22T10:07:20Z</time>
      </trkpt>
      <trkpt lat="42.84659" lon="0.04627">
        <ele>1798</ele>
        <time>2012-12-22T10:07:22Z</time>
      </trkpt>
      <trkpt lat="42.84658" lon="0.04628">
        <ele>1798</ele>
        <time>2012-12-22T10:07:24Z</time>
      </trkpt>
      <trkpt lat="42.84658" lon="0.0463">
        <ele>1798</ele>
        <time>2012-12-22T10:07:26Z</time>
      </trkpt>
      <trkpt lat="42.84657" lon="0.04632">
        <ele>1799</ele>
        <time>2012-12-22T10:07:42Z</time>
      </trkpt>
      <trkpt lat="42.84656" lon="0.04633">
        <ele>1799</ele>
        <time>2012-12-22T10:07:52Z</time>
      </trkpt>
      <trkpt lat="42.84657" lon="0.04633">
        <ele>1799</ele>
        <time>2012-12-22T10:08:25Z</time>
      </trkpt>
      <trkpt lat="42.84657" lon="0.04634">
        <ele>1799</ele>
        <time>2012-12-22T10:08:44Z</time>
      </trkpt>
      <trkpt lat="42.84656" lon="0.04636">
        <ele>1799</ele>
        <time>2012-12-22T10:08:49Z</time>
      </trkpt>
      <trkpt lat="42.84656" lon="0.04634">
        <ele>1799</ele>
        <time>2012-12-22T10:09:17Z</time>
      </trkpt>
      <trkpt lat="42.84655" lon="0.04633">
        <ele>1799</ele>
        <time>2012-12-22T10:09:29Z</time>
      </trkpt>
      <trkpt lat="42.84655" lon="0.04631">
        <ele>1800</ele>
        <time>2012-12-22T10:10:01Z</time>
      </trkpt>
      <trkpt lat="42.84655" lon="0.04633">
        <ele>1801</ele>
        <time>2012-12-22T10:10:24Z</time>
      </trkpt>
      <trkpt lat="42.84656" lon="0.04631">
        <ele>1801</ele>
        <time>2012-12-22T10:11:01Z</time>
      </trkpt>
      <trkpt lat="42.84657" lon="0.0463">
        <ele>1802</ele>
        <time>2012-12-22T10:11:33Z</time>
      </trkpt>
      <trkpt lat="42.84656" lon="0.04629">
        <ele>1803</ele>
        <time>2012-12-22T10:12:06Z</time>
      </trkpt>
      <trkpt lat="42.84656" lon="0.0463">
        <ele>1803</ele>
        <time>2012-12-22T10:12:12Z</time>
      </trkpt>
      <trkpt lat="42.84656" lon="0.04632">
        <ele>1803</ele>
        <time>2012-12-22T10:12:16Z</time>
      </trkpt>
      <trkpt lat="42.84656" lon="0.04633">
        <ele>1802</ele>
        <time>2012-12-22T10:12:40Z</time>
      </trkpt>
      <trkpt lat="42.84657" lon="0.04632">
        <ele>1802</ele>
        <time>2012-12-22T10:13:09Z</time>
      </trkpt>
      <trkpt lat="42.84656" lon="0.04631">
        <ele>1802</ele>
        <time>2012-12-22T10:13:28Z</time>
      </trkpt>
      <trkpt lat="42.84655" lon="0.04629">
        <ele>1802</ele>
        <time>2012-12-22T10:13:34Z</time>
      </trkpt>
      <trkpt lat="42.84655" lon="0.04628">
        <ele>1803</ele>
        <time>2012-12-22T10:13:38Z</time>
      </trkpt>
      <trkpt lat="42.84655" lon="0.04629">
        <ele>1806</ele>
        <time>2012-12-22T10:13:56Z</time>
      </trkpt>
      <trkpt lat="42.84655" lon="0.04631">
        <ele>1806</ele>
        <time>2012-12-22T10:14:05Z</time>
      </trkpt>
      <trkpt lat="42.84655" lon="0.04633">
        <ele>1806</ele>
        <time>2012-12-22T10:14:09Z</time>
      </trkpt>
      <trkpt lat="42.84654" lon="0.04631">
        <ele>1806</ele>
        <time>2012-12-22T10:14:19Z</time>
      </trkpt>
      <trkpt lat="42.84654" lon="0.0463">
        <ele>1806</ele>
        <time>2012-12-22T10:14:24Z</time>
      </trkpt>
      <trkpt lat="42.84654" lon="0.04632">
        <ele>1807</ele>
        <time>2012-12-22T10:14:30Z</time>
      </trkpt>
      <trkpt lat="42.84655" lon="0.04633">
        <ele>1807</ele>
        <time>2012-12-22T10:14:32Z</time>
      </trkpt>
      <trkpt lat="42.84656" lon="0.04632">
        <ele>1806</ele>
        <time>2012-12-22T10:14:37Z</time>
      </trkpt>
      <trkpt lat="42.84656" lon="0.04633">
        <ele>1804</ele>
        <time>2012-12-22T10:14:52Z</time>
      </trkpt>
      <trkpt lat="42.84656" lon="0.04632">
        <ele>1804</ele>
        <time>2012-12-22T10:14:58Z</time>
      </trkpt>
      <trkpt lat="42.84655" lon="0.0463">
        <ele>1804</ele>
        <time>2012-12-22T10:15:00Z</time>
      </trkpt>
      <trkpt lat="42.84655" lon="0.04628">
        <ele>1804</ele>
        <time>2012-12-22T10:15:02Z</time>
      </trkpt>
      <trkpt lat="42.84655" lon="0.04626">
        <ele>1805</ele>
        <time>2012-12-22T10:15:04Z</time>
      </trkpt>
      <trkpt lat="42.84654" lon="0.04624">
        <ele>1807</ele>
        <time>2012-12-22T10:15:06Z</time>
      </trkpt>
      <trkpt lat="42.84653" lon="0.04622">
        <ele>1810</ele>
        <time>2012-12-22T10:15:29Z</time>
      </trkpt>
      <trkpt lat="42.84653" lon="0.0462">
        <ele>1810</ele>
        <time>2012-12-22T10:15:31Z</time>
      </trkpt>
      <trkpt lat="42.84653" lon="0.04623">
        <ele>1812</ele>
        <time>2012-12-22T10:15:37Z</time>
      </trkpt>
      <trkpt lat="42.84654" lon="0.04625">
        <ele>1812</ele>
        <time>2012-12-22T10:15:39Z</time>
      </trkpt>
      <trkpt lat="42.84654" lon="0.04626">
        <ele>1812</ele>
        <time>2012-12-22T10:15:42Z</time>
      </trkpt>
      <trkpt lat="42.84653" lon="0.04626">
        <ele>1812</ele>
        <time>2012-12-22T10:16:05Z</time>
      </trkpt>
      <trkpt lat="42.84653" lon="0.04628">
        <ele>1812</ele>
        <time>2012-12-22T10:16:11Z</time>
      </trkpt>
      <trkpt lat="42.84653" lon="0.0463">
        <ele>1812</ele>
        <time>2012-12-22T10:16:19Z</time>
      </trkpt>
      <trkpt lat="42.84654" lon="0.04631">
        <ele>1807</ele>
        <time>2012-12-22T10:16:36Z</time>
      </trkpt>
      <trkpt lat="42.84655" lon="0.04631">
        <ele>1805</ele>
        <time>2012-12-22T10:17:01Z</time>
      </trkpt>
      <trkpt lat="42.84655" lon="0.04633">
        <ele>1804</ele>
        <time>2012-12-22T10:17:06Z</time>
      </trkpt>
      <trkpt lat="42.84655" lon="0.04635">
        <ele>1804</ele>
        <time>2012-12-22T10:17:09Z</time>
      </trkpt>
      <trkpt lat="42.84655" lon="0.04636">
        <ele>1803</ele>
        <time>2012-12-22T10:17:12Z</time>
      </trkpt>
      <trkpt lat="42.84656" lon="0.04638">
        <ele>1801</ele>
        <time>2012-12-22T10:17:15Z</time>
      </trkpt>
      <trkpt lat="42.84656" lon="0.04639">
        <ele>1800</ele>
        <time>2012-12-22T10:17:18Z</time>
      </trkpt>
      <trkpt lat="42.84656" lon="0.04641">
        <ele>1799</ele>
        <time>2012-12-22T10:17:21Z</time>
      </trkpt>
      <trkpt lat="42.84656" lon="0.04642">
        <ele>1797</ele>
        <time>2012-12-22T10:17:27Z</time>
      </trkpt>
      <trkpt lat="42.84655" lon="0.04641">
        <ele>1797</ele>
        <time>2012-12-22T10:17:34Z</time>
      </trkpt>
      <trkpt lat="42.84656" lon="0.04639">
        <ele>1797</ele>
        <time>2012-12-22T10:17:53Z</time>
      </trkpt>
      <trkpt lat="42.84657" lon="0.04638">
        <ele>1797</ele>
        <time>2012-12-22T10:18:06Z</time>
      </trkpt>
      <trkpt lat="42.84657" lon="0.04637">
        <ele>1797</ele>
        <time>2012-12-22T10:18:15Z</time>
      </trkpt>
      <trkpt lat="42.84657" lon="0.04638">
        <ele>1797</ele>
        <time>2012-12-22T10:18:19Z</time>
      </trkpt>
      <trkpt lat="42.84656" lon="0.04637">
        <ele>1797</ele>
        <time>2012-12-22T10:18:42Z</time>
      </trkpt>
      <trkpt lat="42.84656" lon="0.04635">
        <ele>1798</ele>
        <time>2012-12-22T10:18:46Z</time>
      </trkpt>
      <trkpt lat="42.84656" lon="0.04634">
        <ele>1800</ele>
        <time>2012-12-22T10:18:56Z</time>
      </trkpt>
      <trkpt lat="42.84656" lon="0.04632">
        <ele>1802</ele>
        <time>2012-12-22T10:19:27Z</time>
      </trkpt>
      <trkpt lat="42.84657" lon="0.04631">
        <ele>1803</ele>
        <time>2012-12-22T10:19:46Z</time>
      </trkpt>
      <trkpt lat="42.84657" lon="0.04632">
        <ele>1803</ele>
        <time>2012-12-22T10:21:01Z</time>
      </trkpt>
      <trkpt lat="42.84656" lon="0.04634">
        <ele>1803</ele>
        <time>2012-12-22T10:21:05Z</time>
      </trkpt>
      <trkpt lat="42.84655" lon="0.04635">
        <ele>1803</ele>
        <time>2012-12-22T10:21:08Z</time>
      </trkpt>
      <trkpt lat="42.84655" lon="0.04637">
        <ele>1803</ele>
        <time>2012-12-22T10:21:10Z</time>
      </trkpt>
      <trkpt lat="42.84655" lon="0.04639">
        <ele>1803</ele>
        <time>2012-12-22T10:21:12Z</time>
      </trkpt>
      <trkpt lat="42.84654" lon="0.0464">
        <ele>1803</ele>
        <time>2012-12-22T10:21:14Z</time>
      </trkpt>
      <trkpt lat="42.84653" lon="0.04642">
        <ele>1803</ele>
        <time>2012-12-22T10:21:16Z</time>
      </trkpt>
      <trkpt lat="42.84653" lon="0.04643">
        <ele>1803</ele>
        <time>2012-12-22T10:21:18Z</time>
      </trkpt>
      <trkpt lat="42.84652" lon="0.04645">
        <ele>1803</ele>
        <time>2012-12-22T10:21:20Z</time>
      </trkpt>
      <trkpt lat="42.84651" lon="0.04646">
        <ele>1803</ele>
        <time>2012-12-22T10:21:22Z</time>
      </trkpt>
      <trkpt lat="42.84651" lon="0.04648">
        <ele>1803</ele>
        <time>2012-12-22T10:21:24Z</time>
      </trkpt>
      <trkpt lat="42.8465" lon="0.0465">
        <ele>1803</ele>
        <time>2012-12-22T10:21:27Z</time>
      </trkpt>
      <trkpt lat="42.84649" lon="0.04652">
        <ele>1803</ele>
        <time>2012-12-22T10:21:29Z</time>
      </trkpt>
      <trkpt lat="42.84648" lon="0.04653">
        <ele>1803</ele>
        <time>2012-12-22T10:21:31Z</time>
      </trkpt>
      <trkpt lat="42.84648" lon="0.04655">
        <ele>1803</ele>
        <time>2012-12-22T10:21:33Z</time>
      </trkpt>
      <trkpt lat="42.84647" lon="0.04656">
        <ele>1803</ele>
        <time>2012-12-22T10:21:35Z</time>
      </trkpt>
      <trkpt lat="42.84646" lon="0.04658">
        <ele>1803</ele>
        <time>2012-12-22T10:21:38Z</time>
      </trkpt>
      <trkpt lat="42.84645" lon="0.0466">
        <ele>1803</ele>
        <time>2012-12-22T10:21:41Z</time>
      </trkpt>
      <trkpt lat="42.84645" lon="0.04661">
        <ele>1803</ele>
        <time>2012-12-22T10:21:43Z</time>
      </trkpt>
      <trkpt lat="42.84644" lon="0.04663">
        <ele>1803</ele>
        <time>2012-12-22T10:21:46Z</time>
      </trkpt>
      <trkpt lat="42.84643" lon="0.04665">
        <ele>1804</ele>
        <time>2012-12-22T10:21:49Z</time>
      </trkpt>
      <trkpt lat="42.84643" lon="0.04667">
        <ele>1804</ele>
        <time>2012-12-22T10:21:51Z</time>
      </trkpt>
      <trkpt lat="42.84642" lon="0.04668">
        <ele>1804</ele>
        <time>2012-12-22T10:21:54Z</time>
      </trkpt>
      <trkpt lat="42.84641" lon="0.0467">
        <ele>1804</ele>
        <time>2012-12-22T10:21:57Z</time>
      </trkpt>
      <trkpt lat="42.8464" lon="0.04672">
        <ele>1804</ele>
        <time>2012-12-22T10:22:00Z</time>
      </trkpt>
      <trkpt lat="42.84639" lon="0.04673">
        <ele>1805</ele>
        <time>2012-12-22T10:22:03Z</time>
      </trkpt>
      <trkpt lat="42.84639" lon="0.04675">
        <ele>1805</ele>
        <time>2012-12-22T10:22:06Z</time>
      </trkpt>
      <trkpt lat="42.84638" lon="0.04677">
        <ele>1806</ele>
        <time>2012-12-22T10:22:09Z</time>
      </trkpt>
      <trkpt lat="42.84637" lon="0.04679">
        <ele>1806</ele>
        <time>2012-12-22T10:22:12Z</time>
      </trkpt>
      <trkpt lat="42.84637" lon="0.04681">
        <ele>1807</ele>
        <time>2012-12-22T10:22:15Z</time>
      </trkpt>
      <trkpt lat="42.84636" lon="0.04683">
        <ele>1807</ele>
        <time>2012-12-22T10:22:18Z</time>
      </trkpt>
      <trkpt lat="42.84635" lon="0.04685">
        <ele>1808</ele>
        <time>2012-12-22T10:22:21Z</time>
      </trkpt>
      <trkpt lat="42.84634" lon="0.04686">
        <ele>1808</ele>
        <time>2012-12-22T10:22:24Z</time>
      </trkpt>
      <trkpt lat="42.84634" lon="0.04688">
        <ele>1809</ele>
        <time>2012-12-22T10:22:27Z</time>
      </trkpt>
      <trkpt lat="42.84633" lon="0.0469">
        <ele>1809</ele>
        <time>2012-12-22T10:22:30Z</time>
      </trkpt>
      <trkpt lat="42.84632" lon="0.04691">
        <ele>1809</ele>
        <time>2012-12-22T10:22:33Z</time>
      </trkpt>
      <trkpt lat="42.84632" lon="0.04693">
        <ele>1810</ele>
        <time>2012-12-22T10:22:36Z</time>
      </trkpt>
      <trkpt lat="42.84631" lon="0.04695">
        <ele>1810</ele>
        <time>2012-12-22T10:22:39Z</time>
      </trkpt>
      <trkpt lat="42.84631" lon="0.04696">
        <ele>1811</ele>
        <time>2012-12-22T10:22:42Z</time>
      </trkpt>
      <trkpt lat="42.84631" lon="0.04698">
        <ele>1811</ele>
        <time>2012-12-22T10:22:46Z</time>
      </trkpt>
      <trkpt lat="42.84632" lon="0.04698">
        <ele>1812</ele>
        <time>2012-12-22T10:23:01Z</time>
      </trkpt>
      <trkpt lat="42.84631" lon="0.04699">
        <ele>1812</ele>
        <time>2012-12-22T10:23:13Z</time>
      </trkpt>
      <trkpt lat="42.8463" lon="0.047">
        <ele>1812</ele>
        <time>2012-12-22T10:23:38Z</time>
      </trkpt>
      <trkpt lat="42.84629" lon="0.047">
        <ele>1812</ele>
        <time>2012-12-22T10:24:05Z</time>
      </trkpt>
      <trkpt lat="42.8463" lon="0.047">
        <ele>1809</ele>
        <time>2012-12-22T10:24:16Z</time>
      </trkpt>
      <trkpt lat="42.84629" lon="0.04702">
        <ele>1809</ele>
        <time>2012-12-22T10:24:18Z</time>
      </trkpt>
      <trkpt lat="42.84628" lon="0.04701">
        <ele>1809</ele>
        <time>2012-12-22T10:24:22Z</time>
      </trkpt>
      <trkpt lat="42.84626" lon="0.04702">
        <ele>1809</ele>
        <time>2012-12-22T10:24:23Z</time>
      </trkpt>
      <trkpt lat="42.84628" lon="0.04702">
        <ele>1809</ele>
        <time>2012-12-22T10:24:28Z</time>
      </trkpt>
      <trkpt lat="42.84628" lon="0.047">
        <ele>1809</ele>
        <time>2012-12-22T10:24:40Z</time>
      </trkpt>
      <trkpt lat="42.84629" lon="0.04699">
        <ele>1809</ele>
        <time>2012-12-22T10:24:44Z</time>
      </trkpt>
      <trkpt lat="42.84631" lon="0.04699">
        <ele>1809</ele>
        <time>2012-12-22T10:24:48Z</time>
      </trkpt>
      <trkpt lat="42.84631" lon="0.04701">
        <ele>1811</ele>
        <time>2012-12-22T10:25:01Z</time>
      </trkpt>
      <trkpt lat="42.8463" lon="0.04702">
        <ele>1811</ele>
        <time>2012-12-22T10:25:03Z</time>
      </trkpt>
      <trkpt lat="42.8463" lon="0.04704">
        <ele>1811</ele>
        <time>2012-12-22T10:25:05Z</time>
      </trkpt>
      <trkpt lat="42.84629" lon="0.04705">
        <ele>1812</ele>
        <time>2012-12-22T10:25:07Z</time>
      </trkpt>
      <trkpt lat="42.84629" lon="0.04707">
        <ele>1812</ele>
        <time>2012-12-22T10:25:09Z</time>
      </trkpt>
      <trkpt lat="42.84629" lon="0.04709">
        <ele>1813</ele>
        <time>2012-12-22T10:25:11Z</time>
      </trkpt>
      <trkpt lat="42.84629" lon="0.04711">
        <ele>1813</ele>
        <time>2012-12-22T10:25:13Z</time>
      </trkpt>
      <trkpt lat="42.84628" lon="0.04713">
        <ele>1813</ele>
        <time>2012-12-22T10:25:15Z</time>
      </trkpt>
      <trkpt lat="42.84628" lon="0.04714">
        <ele>1813</ele>
        <time>2012-12-22T10:25:17Z</time>
      </trkpt>
      <trkpt lat="42.84627" lon="0.04716">
        <ele>1814</ele>
        <time>2012-12-22T10:25:20Z</time>
      </trkpt>
      <trkpt lat="42.84626" lon="0.04718">
        <ele>1814</ele>
        <time>2012-12-22T10:25:23Z</time>
      </trkpt>
      <trkpt lat="42.84625" lon="0.04719">
        <ele>1815</ele>
        <time>2012-12-22T10:25:25Z</time>
      </trkpt>
      <trkpt lat="42.84623" lon="0.04721">
        <ele>1815</ele>
        <time>2012-12-22T10:25:28Z</time>
      </trkpt>
      <trkpt lat="42.84623" lon="0.04723">
        <ele>1816</ele>
        <time>2012-12-22T10:25:30Z</time>
      </trkpt>
      <trkpt lat="42.84621" lon="0.04725">
        <ele>1816</ele>
        <time>2012-12-22T10:25:33Z</time>
      </trkpt>
      <trkpt lat="42.84621" lon="0.04726">
        <ele>1816</ele>
        <time>2012-12-22T10:25:35Z</time>
      </trkpt>
      <trkpt lat="42.8462" lon="0.04728">
        <ele>1817</ele>
        <time>2012-12-22T10:25:37Z</time>
      </trkpt>
      <trkpt lat="42.84619" lon="0.0473">
        <ele>1817</ele>
        <time>2012-12-22T10:25:39Z</time>
      </trkpt>
      <trkpt lat="42.84619" lon="0.04731">
        <ele>1817</ele>
        <time>2012-12-22T10:25:41Z</time>
      </trkpt>
      <trkpt lat="42.84618" lon="0.04733">
        <ele>1817</ele>
        <time>2012-12-22T10:25:43Z</time>
      </trkpt>
      <trkpt lat="42.84617" lon="0.04735">
        <ele>1818</ele>
        <time>2012-12-22T10:25:46Z</time>
      </trkpt>
      <trkpt lat="42.84616" lon="0.04736">
        <ele>1818</ele>
        <time>2012-12-22T10:25:49Z</time>
      </trkpt>
      <trkpt lat="42.84615" lon="0.04738">
        <ele>1819</ele>
        <time>2012-12-22T10:25:52Z</time>
      </trkpt>
      <trkpt lat="42.84614" lon="0.0474">
        <ele>1819</ele>
        <time>2012-12-22T10:25:54Z</time>
      </trkpt>
      <trkpt lat="42.84613" lon="0.04742">
        <ele>1819</ele>
        <time>2012-12-22T10:25:57Z</time>
      </trkpt>
      <trkpt lat="42.84613" lon="0.04744">
        <ele>1820</ele>
        <time>2012-12-22T10:25:59Z</time>
      </trkpt>
      <trkpt lat="42.84613" lon="0.04745">
        <ele>1820</ele>
        <time>2012-12-22T10:26:01Z</time>
      </trkpt>
      <trkpt lat="42.84612" lon="0.04747">
        <ele>1820</ele>
        <time>2012-12-22T10:26:04Z</time>
      </trkpt>
      <trkpt lat="42.84612" lon="0.04749">
        <ele>1821</ele>
        <time>2012-12-22T10:26:06Z</time>
      </trkpt>
      <trkpt lat="42.84611" lon="0.0475">
        <ele>1821</ele>
        <time>2012-12-22T10:26:08Z</time>
      </trkpt>
      <trkpt lat="42.84611" lon="0.04752">
        <ele>1821</ele>
        <time>2012-12-22T10:26:10Z</time>
      </trkpt>
      <trkpt lat="42.84611" lon="0.04753">
        <ele>1821</ele>
        <time>2012-12-22T10:26:12Z</time>
      </trkpt>
      <trkpt lat="42.8461" lon="0.04755">
        <ele>1822</ele>
        <time>2012-12-22T10:26:14Z</time>
      </trkpt>
      <trkpt lat="42.8461" lon="0.04756">
        <ele>1822</ele>
        <time>2012-12-22T10:26:16Z</time>
      </trkpt>
      <trkpt lat="42.84609" lon="0.04758">
        <ele>1823</ele>
        <time>2012-12-22T10:26:19Z</time>
      </trkpt>
      <trkpt lat="42.84608" lon="0.0476">
        <ele>1823</ele>
        <time>2012-12-22T10:26:21Z</time>
      </trkpt>
      <trkpt lat="42.84608" lon="0.04762">
        <ele>1824</ele>
        <time>2012-12-22T10:26:24Z</time>
      </trkpt>
      <trkpt lat="42.84608" lon="0.04763">
        <ele>1824</ele>
        <time>2012-12-22T10:26:26Z</time>
      </trkpt>
      <trkpt lat="42.84607" lon="0.04765">
        <ele>1824</ele>
        <time>2012-12-22T10:26:29Z</time>
      </trkpt>
      <trkpt lat="42.84607" lon="0.04766">
        <ele>1825</ele>
        <time>2012-12-22T10:26:32Z</time>
      </trkpt>
      <trkpt lat="42.84606" lon="0.04767">
        <ele>1825</ele>
        <time>2012-12-22T10:26:36Z</time>
      </trkpt>
      <trkpt lat="42.84604" lon="0.04766">
        <ele>1826</ele>
        <time>2012-12-22T10:26:39Z</time>
      </trkpt>
      <trkpt lat="42.84603" lon="0.04766">
        <ele>1826</ele>
        <time>2012-12-22T10:26:42Z</time>
      </trkpt>
      <trkpt lat="42.84602" lon="0.04764">
        <ele>1826</ele>
        <time>2012-12-22T10:26:46Z</time>
      </trkpt>
      <trkpt lat="42.84602" lon="0.04766">
        <ele>1828</ele>
        <time>2012-12-22T10:26:53Z</time>
      </trkpt>
      <trkpt lat="42.84601" lon="0.04768">
        <ele>1829</ele>
        <time>2012-12-22T10:26:56Z</time>
      </trkpt>
      <trkpt lat="42.84601" lon="0.04769">
        <ele>1829</ele>
        <time>2012-12-22T10:26:58Z</time>
      </trkpt>
      <trkpt lat="42.846" lon="0.04771">
        <ele>1829</ele>
        <time>2012-12-22T10:27:00Z</time>
      </trkpt>
      <trkpt lat="42.846" lon="0.04772">
        <ele>1830</ele>
        <time>2012-12-22T10:27:02Z</time>
      </trkpt>
      <trkpt lat="42.846" lon="0.04774">
        <ele>1830</ele>
        <time>2012-12-22T10:27:04Z</time>
      </trkpt>
      <trkpt lat="42.846" lon="0.04775">
        <ele>1831</ele>
        <time>2012-12-22T10:27:06Z</time>
      </trkpt>
      <trkpt lat="42.846" lon="0.04778">
        <ele>1831</ele>
        <time>2012-12-22T10:27:09Z</time>
      </trkpt>
      <trkpt lat="42.84598" lon="0.04777">
        <ele>1831</ele>
        <time>2012-12-22T10:27:12Z</time>
      </trkpt>
      <trkpt lat="42.84597" lon="0.04775">
        <ele>1832</ele>
        <time>2012-12-22T10:27:16Z</time>
      </trkpt>
      <trkpt lat="42.84597" lon="0.04774">
        <ele>1833</ele>
        <time>2012-12-22T10:27:19Z</time>
      </trkpt>
      <trkpt lat="42.84597" lon="0.04772">
        <ele>1833</ele>
        <time>2012-12-22T10:27:22Z</time>
      </trkpt>
      <trkpt lat="42.84597" lon="0.04771">
        <ele>1833</ele>
        <time>2012-12-22T10:27:24Z</time>
      </trkpt>
      <trkpt lat="42.84597" lon="0.04769">
        <ele>1833</ele>
        <time>2012-12-22T10:27:27Z</time>
      </trkpt>
      <trkpt lat="42.84596" lon="0.04767">
        <ele>1833</ele>
        <time>2012-12-22T10:27:30Z</time>
      </trkpt>
      <trkpt lat="42.84596" lon="0.04766">
        <ele>1833</ele>
        <time>2012-12-22T10:27:32Z</time>
      </trkpt>
      <trkpt lat="42.84596" lon="0.04764">
        <ele>1833</ele>
        <time>2012-12-22T10:27:35Z</time>
      </trkpt>
      <trkpt lat="42.84594" lon="0.04765">
        <ele>1834</ele>
        <time>2012-12-22T10:27:41Z</time>
      </trkpt>
      <trkpt lat="42.84594" lon="0.04766">
        <ele>1835</ele>
        <time>2012-12-22T10:27:43Z</time>
      </trkpt>
      <trkpt lat="42.84593" lon="0.04768">
        <ele>1835</ele>
        <time>2012-12-22T10:27:45Z</time>
      </trkpt>
      <trkpt lat="42.84592" lon="0.0477">
        <ele>1835</ele>
        <time>2012-12-22T10:27:48Z</time>
      </trkpt>
      <trkpt lat="42.84591" lon="0.04772">
        <ele>1835</ele>
        <time>2012-12-22T10:27:51Z</time>
      </trkpt>
      <trkpt lat="42.8459" lon="0.04773">
        <ele>1835</ele>
        <time>2012-12-22T10:27:54Z</time>
      </trkpt>
      <trkpt lat="42.84589" lon="0.04775">
        <ele>1836</ele>
        <time>2012-12-22T10:27:56Z</time>
      </trkpt>
      <trkpt lat="42.84589" lon="0.04777">
        <ele>1836</ele>
        <time>2012-12-22T10:27:59Z</time>
      </trkpt>
      <trkpt lat="42.84588" lon="0.04779">
        <ele>1837</ele>
        <time>2012-12-22T10:28:02Z</time>
      </trkpt>
      <trkpt lat="42.84587" lon="0.04781">
        <ele>1837</ele>
        <time>2012-12-22T10:28:05Z</time>
      </trkpt>
      <trkpt lat="42.84587" lon="0.04782">
        <ele>1837</ele>
        <time>2012-12-22T10:28:07Z</time>
      </trkpt>
      <trkpt lat="42.84586" lon="0.04784">
        <ele>1838</ele>
        <time>2012-12-22T10:28:10Z</time>
      </trkpt>
      <trkpt lat="42.84585" lon="0.04786">
        <ele>1838</ele>
        <time>2012-12-22T10:28:13Z</time>
      </trkpt>
      <trkpt lat="42.84584" lon="0.04787">
        <ele>1839</ele>
        <time>2012-12-22T10:28:16Z</time>
      </trkpt>
      <trkpt lat="42.84584" lon="0.04789">
        <ele>1839</ele>
        <time>2012-12-22T10:28:19Z</time>
      </trkpt>
      <trkpt lat="42.84583" lon="0.04791">
        <ele>1839</ele>
        <time>2012-12-22T10:28:21Z</time>
      </trkpt>
      <trkpt lat="42.84583" lon="0.04792">
        <ele>1840</ele>
        <time>2012-12-22T10:28:24Z</time>
      </trkpt>
      <trkpt lat="42.84581" lon="0.04794">
        <ele>1840</ele>
        <time>2012-12-22T10:28:27Z</time>
      </trkpt>
      <trkpt lat="42.84581" lon="0.04793">
        <ele>1841</ele>
        <time>2012-12-22T10:28:43Z</time>
      </trkpt>
      <trkpt lat="42.8458" lon="0.04791">
        <ele>1841</ele>
        <time>2012-12-22T10:28:45Z</time>
      </trkpt>
      <trkpt lat="42.84579" lon="0.0479">
        <ele>1841</ele>
        <time>2012-12-22T10:28:47Z</time>
      </trkpt>
      <trkpt lat="42.84579" lon="0.04788">
        <ele>1841</ele>
        <time>2012-12-22T10:28:49Z</time>
      </trkpt>
      <trkpt lat="42.84579" lon="0.04786">
        <ele>1841</ele>
        <time>2012-12-22T10:28:51Z</time>
      </trkpt>
      <trkpt lat="42.84578" lon="0.04785">
        <ele>1842</ele>
        <time>2012-12-22T10:28:53Z</time>
      </trkpt>
      <trkpt lat="42.84578" lon="0.04783">
        <ele>1842</ele>
        <time>2012-12-22T10:28:55Z</time>
      </trkpt>
      <trkpt lat="42.84578" lon="0.04781">
        <ele>1843</ele>
        <time>2012-12-22T10:28:59Z</time>
      </trkpt>
      <trkpt lat="42.84577" lon="0.0478">
        <ele>1843</ele>
        <time>2012-12-22T10:29:01Z</time>
      </trkpt>
      <trkpt lat="42.84577" lon="0.04778">
        <ele>1843</ele>
        <time>2012-12-22T10:29:03Z</time>
      </trkpt>
      <trkpt lat="42.84578" lon="0.04777">
        <ele>1844</ele>
        <time>2012-12-22T10:29:06Z</time>
      </trkpt>
      <trkpt lat="42.84578" lon="0.04775">
        <ele>1844</ele>
        <time>2012-12-22T10:29:08Z</time>
      </trkpt>
      <trkpt lat="42.84577" lon="0.04777">
        <ele>1845</ele>
        <time>2012-12-22T10:29:19Z</time>
      </trkpt>
      <trkpt lat="42.84576" lon="0.04778">
        <ele>1845</ele>
        <time>2012-12-22T10:29:21Z</time>
      </trkpt>
      <trkpt lat="42.84575" lon="0.04781">
        <ele>1845</ele>
        <time>2012-12-22T10:29:24Z</time>
      </trkpt>
      <trkpt lat="42.84575" lon="0.04782">
        <ele>1845</ele>
        <time>2012-12-22T10:29:26Z</time>
      </trkpt>
      <trkpt lat="42.84574" lon="0.04784">
        <ele>1845</ele>
        <time>2012-12-22T10:29:28Z</time>
      </trkpt>
      <trkpt lat="42.84573" lon="0.04786">
        <ele>1845</ele>
        <time>2012-12-22T10:29:30Z</time>
      </trkpt>
      <trkpt lat="42.84573" lon="0.04787">
        <ele>1845</ele>
        <time>2012-12-22T10:29:32Z</time>
      </trkpt>
      <trkpt lat="42.84573" lon="0.04789">
        <ele>1845</ele>
        <time>2012-12-22T10:29:34Z</time>
      </trkpt>
      <trkpt lat="42.84572" lon="0.04791">
        <ele>1845</ele>
        <time>2012-12-22T10:29:36Z</time>
      </trkpt>
      <trkpt lat="42.84571" lon="0.04793">
        <ele>1845</ele>
        <time>2012-12-22T10:29:39Z</time>
      </trkpt>
      <trkpt lat="42.84571" lon="0.04795">
        <ele>1845</ele>
        <time>2012-12-22T10:29:41Z</time>
      </trkpt>
      <trkpt lat="42.8457" lon="0.04796">
        <ele>1845</ele>
        <time>2012-12-22T10:29:43Z</time>
      </trkpt>
      <trkpt lat="42.8457" lon="0.04798">
        <ele>1846</ele>
        <time>2012-12-22T10:29:45Z</time>
      </trkpt>
      <trkpt lat="42.84569" lon="0.048">
        <ele>1847</ele>
        <time>2012-12-22T10:29:48Z</time>
      </trkpt>
      <trkpt lat="42.84569" lon="0.04802">
        <ele>1847</ele>
        <time>2012-12-22T10:29:51Z</time>
      </trkpt>
      <trkpt lat="42.84568" lon="0.04804">
        <ele>1848</ele>
        <time>2012-12-22T10:29:54Z</time>
      </trkpt>
      <trkpt lat="42.84568" lon="0.04806">
        <ele>1849</ele>
        <time>2012-12-22T10:29:57Z</time>
      </trkpt>
      <trkpt lat="42.84567" lon="0.04807">
        <ele>1849</ele>
        <time>2012-12-22T10:29:59Z</time>
      </trkpt>
      <trkpt lat="42.84567" lon="0.04809">
        <ele>1850</ele>
        <time>2012-12-22T10:30:02Z</time>
      </trkpt>
      <trkpt lat="42.84566" lon="0.0481">
        <ele>1850</ele>
        <time>2012-12-22T10:30:04Z</time>
      </trkpt>
      <trkpt lat="42.84566" lon="0.04812">
        <ele>1851</ele>
        <time>2012-12-22T10:30:07Z</time>
      </trkpt>
      <trkpt lat="42.84566" lon="0.04814">
        <ele>1851</ele>
        <time>2012-12-22T10:30:09Z</time>
      </trkpt>
      <trkpt lat="42.84565" lon="0.04815">
        <ele>1852</ele>
        <time>2012-12-22T10:30:12Z</time>
      </trkpt>
      <trkpt lat="42.84565" lon="0.04817">
        <ele>1852</ele>
        <time>2012-12-22T10:30:15Z</time>
      </trkpt>
      <trkpt lat="42.84565" lon="0.04819">
        <ele>1852</ele>
        <time>2012-12-22T10:30:17Z</time>
      </trkpt>
      <trkpt lat="42.84565" lon="0.0482">
        <ele>1853</ele>
        <time>2012-12-22T10:30:19Z</time>
      </trkpt>
      <trkpt lat="42.84565" lon="0.04822">
        <ele>1853</ele>
        <time>2012-12-22T10:30:21Z</time>
      </trkpt>
      <trkpt lat="42.84565" lon="0.04823">
        <ele>1853</ele>
        <time>2012-12-22T10:30:23Z</time>
      </trkpt>
      <trkpt lat="42.84565" lon="0.04825">
        <ele>1853</ele>
        <time>2012-12-22T10:30:25Z</time>
      </trkpt>
      <trkpt lat="42.84565" lon="0.04827">
        <ele>1853</ele>
        <time>2012-12-22T10:30:27Z</time>
      </trkpt>
      <trkpt lat="42.84565" lon="0.04829">
        <ele>1853</ele>
        <time>2012-12-22T10:30:29Z</time>
      </trkpt>
      <trkpt lat="42.84565" lon="0.0483">
        <ele>1854</ele>
        <time>2012-12-22T10:30:31Z</time>
      </trkpt>
      <trkpt lat="42.84566" lon="0.04832">
        <ele>1854</ele>
        <time>2012-12-22T10:30:34Z</time>
      </trkpt>
      <trkpt lat="42.84568" lon="0.04832">
        <ele>1854</ele>
        <time>2012-12-22T10:30:36Z</time>
      </trkpt>
      <trkpt lat="42.84569" lon="0.04834">
        <ele>1855</ele>
        <time>2012-12-22T10:30:39Z</time>
      </trkpt>
      <trkpt lat="42.84568" lon="0.04834">
        <ele>1856</ele>
        <time>2012-12-22T10:30:48Z</time>
      </trkpt>
      <trkpt lat="42.84566" lon="0.04835">
        <ele>1856</ele>
        <time>2012-12-22T10:30:50Z</time>
      </trkpt>
      <trkpt lat="42.84565" lon="0.04836">
        <ele>1856</ele>
        <time>2012-12-22T10:30:52Z</time>
      </trkpt>
      <trkpt lat="42.84564" lon="0.04836">
        <ele>1856</ele>
        <time>2012-12-22T10:30:54Z</time>
      </trkpt>
      <trkpt lat="42.84563" lon="0.04838">
        <ele>1857</ele>
        <time>2012-12-22T10:30:57Z</time>
      </trkpt>
      <trkpt lat="42.84562" lon="0.04839">
        <ele>1857</ele>
        <time>2012-12-22T10:31:00Z</time>
      </trkpt>
      <trkpt lat="42.8456" lon="0.04841">
        <ele>1858</ele>
        <time>2012-12-22T10:31:03Z</time>
      </trkpt>
      <trkpt lat="42.8456" lon="0.04842">
        <ele>1858</ele>
        <time>2012-12-22T10:31:06Z</time>
      </trkpt>
      <trkpt lat="42.84559" lon="0.04844">
        <ele>1859</ele>
        <time>2012-12-22T10:31:09Z</time>
      </trkpt>
      <trkpt lat="42.84557" lon="0.04845">
        <ele>1859</ele>
        <time>2012-12-22T10:31:12Z</time>
      </trkpt>
      <trkpt lat="42.84557" lon="0.04847">
        <ele>1859</ele>
        <time>2012-12-22T10:31:15Z</time>
      </trkpt>
      <trkpt lat="42.84556" lon="0.04849">
        <ele>1860</ele>
        <time>2012-12-22T10:31:18Z</time>
      </trkpt>
      <trkpt lat="42.84555" lon="0.0485">
        <ele>1861</ele>
        <time>2012-12-22T10:31:21Z</time>
      </trkpt>
      <trkpt lat="42.84554" lon="0.04852">
        <ele>1861</ele>
        <time>2012-12-22T10:31:24Z</time>
      </trkpt>
      <trkpt lat="42.84554" lon="0.04854">
        <ele>1862</ele>
        <time>2012-12-22T10:31:27Z</time>
      </trkpt>
      <trkpt lat="42.84553" lon="0.04855">
        <ele>1863</ele>
        <time>2012-12-22T10:31:30Z</time>
      </trkpt>
      <trkpt lat="42.84552" lon="0.04857">
        <ele>1863</ele>
        <time>2012-12-22T10:31:33Z</time>
      </trkpt>
      <trkpt lat="42.84551" lon="0.04858">
        <ele>1864</ele>
        <time>2012-12-22T10:31:36Z</time>
      </trkpt>
      <trkpt lat="42.8455" lon="0.0486">
        <ele>1865</ele>
        <time>2012-12-22T10:31:39Z</time>
      </trkpt>
      <trkpt lat="42.84549" lon="0.04861">
        <ele>1865</ele>
        <time>2012-12-22T10:31:42Z</time>
      </trkpt>
      <trkpt lat="42.84548" lon="0.04863">
        <ele>1865</ele>
        <time>2012-12-22T10:31:45Z</time>
      </trkpt>
      <trkpt lat="42.84546" lon="0.04864">
        <ele>1866</ele>
        <time>2012-12-22T10:31:49Z</time>
      </trkpt>
      <trkpt lat="42.84545" lon="0.04865">
        <ele>1866</ele>
        <time>2012-12-22T10:31:51Z</time>
      </trkpt>
      <trkpt lat="42.84544" lon="0.04865">
        <ele>1867</ele>
        <time>2012-12-22T10:31:54Z</time>
      </trkpt>
      <trkpt lat="42.84543" lon="0.04864">
        <ele>1867</ele>
        <time>2012-12-22T10:31:57Z</time>
      </trkpt>
      <trkpt lat="42.84542" lon="0.04862">
        <ele>1867</ele>
        <time>2012-12-22T10:32:00Z</time>
      </trkpt>
      <trkpt lat="42.84542" lon="0.0486">
        <ele>1867</ele>
        <time>2012-12-22T10:32:02Z</time>
      </trkpt>
      <trkpt lat="42.84542" lon="0.04859">
        <ele>1867</ele>
        <time>2012-12-22T10:32:05Z</time>
      </trkpt>
      <trkpt lat="42.84541" lon="0.04857">
        <ele>1867</ele>
        <time>2012-12-22T10:32:07Z</time>
      </trkpt>
      <trkpt lat="42.84541" lon="0.04855">
        <ele>1868</ele>
        <time>2012-12-22T10:32:10Z</time>
      </trkpt>
      <trkpt lat="42.84539" lon="0.04855">
        <ele>1869</ele>
        <time>2012-12-22T10:32:17Z</time>
      </trkpt>
      <trkpt lat="42.84539" lon="0.04857">
        <ele>1870</ele>
        <time>2012-12-22T10:32:21Z</time>
      </trkpt>
      <trkpt lat="42.84538" lon="0.04858">
        <ele>1870</ele>
        <time>2012-12-22T10:32:24Z</time>
      </trkpt>
      <trkpt lat="42.84537" lon="0.0486">
        <ele>1870</ele>
        <time>2012-12-22T10:32:26Z</time>
      </trkpt>
      <trkpt lat="42.84537" lon="0.04861">
        <ele>1870</ele>
        <time>2012-12-22T10:32:28Z</time>
      </trkpt>
      <trkpt lat="42.84536" lon="0.04863">
        <ele>1871</ele>
        <time>2012-12-22T10:32:31Z</time>
      </trkpt>
      <trkpt lat="42.84535" lon="0.04865">
        <ele>1871</ele>
        <time>2012-12-22T10:32:33Z</time>
      </trkpt>
      <trkpt lat="42.84534" lon="0.04867">
        <ele>1871</ele>
        <time>2012-12-22T10:32:36Z</time>
      </trkpt>
      <trkpt lat="42.84534" lon="0.04868">
        <ele>1871</ele>
        <time>2012-12-22T10:32:38Z</time>
      </trkpt>
      <trkpt lat="42.84533" lon="0.0487">
        <ele>1872</ele>
        <time>2012-12-22T10:32:40Z</time>
      </trkpt>
      <trkpt lat="42.84533" lon="0.04871">
        <ele>1872</ele>
        <time>2012-12-22T10:32:42Z</time>
      </trkpt>
      <trkpt lat="42.84532" lon="0.04873">
        <ele>1872</ele>
        <time>2012-12-22T10:32:44Z</time>
      </trkpt>
      <trkpt lat="42.84532" lon="0.04874">
        <ele>1872</ele>
        <time>2012-12-22T10:32:46Z</time>
      </trkpt>
      <trkpt lat="42.84531" lon="0.04876">
        <ele>1872</ele>
        <time>2012-12-22T10:32:48Z</time>
      </trkpt>
      <trkpt lat="42.8453" lon="0.04878">
        <ele>1873</ele>
        <time>2012-12-22T10:32:51Z</time>
      </trkpt>
      <trkpt lat="42.8453" lon="0.04879">
        <ele>1874</ele>
        <time>2012-12-22T10:32:53Z</time>
      </trkpt>
      <trkpt lat="42.84529" lon="0.04881">
        <ele>1874</ele>
        <time>2012-12-22T10:32:55Z</time>
      </trkpt>
      <trkpt lat="42.84529" lon="0.04882">
        <ele>1875</ele>
        <time>2012-12-22T10:32:57Z</time>
      </trkpt>
      <trkpt lat="42.84529" lon="0.04884">
        <ele>1875</ele>
        <time>2012-12-22T10:33:00Z</time>
      </trkpt>
      <trkpt lat="42.84528" lon="0.04886">
        <ele>1875</ele>
        <time>2012-12-22T10:33:03Z</time>
      </trkpt>
      <trkpt lat="42.84527" lon="0.04888">
        <ele>1876</ele>
        <time>2012-12-22T10:33:06Z</time>
      </trkpt>
      <trkpt lat="42.84526" lon="0.04889">
        <ele>1877</ele>
        <time>2012-12-22T10:33:09Z</time>
      </trkpt>
      <trkpt lat="42.84525" lon="0.04891">
        <ele>1877</ele>
        <time>2012-12-22T10:33:12Z</time>
      </trkpt>
      <trkpt lat="42.84525" lon="0.04893">
        <ele>1877</ele>
        <time>2012-12-22T10:33:15Z</time>
      </trkpt>
      <trkpt lat="42.84523" lon="0.04894">
        <ele>1878</ele>
        <time>2012-12-22T10:33:18Z</time>
      </trkpt>
      <trkpt lat="42.84523" lon="0.04896">
        <ele>1878</ele>
        <time>2012-12-22T10:33:21Z</time>
      </trkpt>
      <trkpt lat="42.84521" lon="0.04898">
        <ele>1878</ele>
        <time>2012-12-22T10:33:24Z</time>
      </trkpt>
      <trkpt lat="42.8452" lon="0.049">
        <ele>1879</ele>
        <time>2012-12-22T10:33:27Z</time>
      </trkpt>
      <trkpt lat="42.84519" lon="0.04901">
        <ele>1879</ele>
        <time>2012-12-22T10:33:29Z</time>
      </trkpt>
      <trkpt lat="42.84518" lon="0.04903">
        <ele>1879</ele>
        <time>2012-12-22T10:33:32Z</time>
      </trkpt>
      <trkpt lat="42.84517" lon="0.04905">
        <ele>1880</ele>
        <time>2012-12-22T10:33:35Z</time>
      </trkpt>
      <trkpt lat="42.84517" lon="0.04907">
        <ele>1880</ele>
        <time>2012-12-22T10:33:37Z</time>
      </trkpt>
      <trkpt lat="42.84516" lon="0.04908">
        <ele>1880</ele>
        <time>2012-12-22T10:33:39Z</time>
      </trkpt>
      <trkpt lat="42.84516" lon="0.0491">
        <ele>1881</ele>
        <time>2012-12-22T10:33:41Z</time>
      </trkpt>
      <trkpt lat="42.84518" lon="0.04912">
        <ele>1881</ele>
        <time>2012-12-22T10:33:43Z</time>
      </trkpt>
      <trkpt lat="42.84519" lon="0.04913">
        <ele>1882</ele>
        <time>2012-12-22T10:33:46Z</time>
      </trkpt>
      <trkpt lat="42.8452" lon="0.04914">
        <ele>1882</ele>
        <time>2012-12-22T10:33:50Z</time>
      </trkpt>
      <trkpt lat="42.84521" lon="0.04915">
        <ele>1882</ele>
        <time>2012-12-22T10:33:53Z</time>
      </trkpt>
      <trkpt lat="42.84523" lon="0.04916">
        <ele>1883</ele>
        <time>2012-12-22T10:33:56Z</time>
      </trkpt>
      <trkpt lat="42.84524" lon="0.04916">
        <ele>1884</ele>
        <time>2012-12-22T10:33:59Z</time>
      </trkpt>
      <trkpt lat="42.84523" lon="0.04918">
        <ele>1884</ele>
        <time>2012-12-22T10:34:18Z</time>
      </trkpt>
      <trkpt lat="42.84522" lon="0.04919">
        <ele>1884</ele>
        <time>2012-12-22T10:34:20Z</time>
      </trkpt>
      <trkpt lat="42.84521" lon="0.04919">
        <ele>1884</ele>
        <time>2012-12-22T10:34:22Z</time>
      </trkpt>
      <trkpt lat="42.8452" lon="0.04921">
        <ele>1884</ele>
        <time>2012-12-22T10:34:25Z</time>
      </trkpt>
      <trkpt lat="42.84518" lon="0.04922">
        <ele>1884</ele>
        <time>2012-12-22T10:34:28Z</time>
      </trkpt>
      <trkpt lat="42.84516" lon="0.04924">
        <ele>1884</ele>
        <time>2012-12-22T10:34:31Z</time>
      </trkpt>
      <trkpt lat="42.84515" lon="0.04925">
        <ele>1884</ele>
        <time>2012-12-22T10:34:34Z</time>
      </trkpt>
      <trkpt lat="42.84513" lon="0.04926">
        <ele>1884</ele>
        <time>2012-12-22T10:34:36Z</time>
      </trkpt>
      <trkpt lat="42.84512" lon="0.04927">
        <ele>1884</ele>
        <time>2012-12-22T10:34:38Z</time>
      </trkpt>
      <trkpt lat="42.84511" lon="0.04927">
        <ele>1884</ele>
        <time>2012-12-22T10:34:40Z</time>
      </trkpt>
      <trkpt lat="42.8451" lon="0.04928">
        <ele>1884</ele>
        <time>2012-12-22T10:34:42Z</time>
      </trkpt>
      <trkpt lat="42.84509" lon="0.04929">
        <ele>1885</ele>
        <time>2012-12-22T10:34:44Z</time>
      </trkpt>
      <trkpt lat="42.84507" lon="0.0493">
        <ele>1885</ele>
        <time>2012-12-22T10:34:47Z</time>
      </trkpt>
      <trkpt lat="42.84505" lon="0.04932">
        <ele>1885</ele>
        <time>2012-12-22T10:34:50Z</time>
      </trkpt>
      <trkpt lat="42.84504" lon="0.04933">
        <ele>1885</ele>
        <time>2012-12-22T10:34:52Z</time>
      </trkpt>
      <trkpt lat="42.84503" lon="0.04934">
        <ele>1885</ele>
        <time>2012-12-22T10:34:55Z</time>
      </trkpt>
      <trkpt lat="42.84502" lon="0.04936">
        <ele>1885</ele>
        <time>2012-12-22T10:34:58Z</time>
      </trkpt>
      <trkpt lat="42.845" lon="0.04936">
        <ele>1885</ele>
        <time>2012-12-22T10:35:01Z</time>
      </trkpt>
      <trkpt lat="42.84499" lon="0.04938">
        <ele>1885</ele>
        <time>2012-12-22T10:35:04Z</time>
      </trkpt>
      <trkpt lat="42.84498" lon="0.04939">
        <ele>1885</ele>
        <time>2012-12-22T10:35:06Z</time>
      </trkpt>
      <trkpt lat="42.84497" lon="0.04939">
        <ele>1885</ele>
        <time>2012-12-22T10:35:08Z</time>
      </trkpt>
      <trkpt lat="42.84495" lon="0.04941">
        <ele>1885</ele>
        <time>2012-12-22T10:35:11Z</time>
      </trkpt>
      <trkpt lat="42.84494" lon="0.04941">
        <ele>1885</ele>
        <time>2012-12-22T10:35:13Z</time>
      </trkpt>
      <trkpt lat="42.84493" lon="0.04943">
        <ele>1885</ele>
        <time>2012-12-22T10:35:16Z</time>
      </trkpt>
      <trkpt lat="42.84491" lon="0.04945">
        <ele>1886</ele>
        <time>2012-12-22T10:35:19Z</time>
      </trkpt>
      <trkpt lat="42.8449" lon="0.04947">
        <ele>1886</ele>
        <time>2012-12-22T10:35:22Z</time>
      </trkpt>
      <trkpt lat="42.84489" lon="0.04949">
        <ele>1886</ele>
        <time>2012-12-22T10:35:24Z</time>
      </trkpt>
      <trkpt lat="42.84488" lon="0.0495">
        <ele>1887</ele>
        <time>2012-12-22T10:35:26Z</time>
      </trkpt>
      <trkpt lat="42.84487" lon="0.04952">
        <ele>1887</ele>
        <time>2012-12-22T10:35:28Z</time>
      </trkpt>
      <trkpt lat="42.84486" lon="0.04954">
        <ele>1887</ele>
        <time>2012-12-22T10:35:30Z</time>
      </trkpt>
      <trkpt lat="42.84485" lon="0.04955">
        <ele>1887</ele>
        <time>2012-12-22T10:35:32Z</time>
      </trkpt>
      <trkpt lat="42.84484" lon="0.04957">
        <ele>1887</ele>
        <time>2012-12-22T10:35:34Z</time>
      </trkpt>
      <trkpt lat="42.84483" lon="0.04959">
        <ele>1888</ele>
        <time>2012-12-22T10:35:36Z</time>
      </trkpt>
      <trkpt lat="42.84483" lon="0.04961">
        <ele>1888</ele>
        <time>2012-12-22T10:35:38Z</time>
      </trkpt>
      <trkpt lat="42.84482" lon="0.04963">
        <ele>1889</ele>
        <time>2012-12-22T10:35:40Z</time>
      </trkpt>
      <trkpt lat="42.84481" lon="0.04964">
        <ele>1889</ele>
        <time>2012-12-22T10:35:42Z</time>
      </trkpt>
      <trkpt lat="42.8448" lon="0.04966">
        <ele>1889</ele>
        <time>2012-12-22T10:35:44Z</time>
      </trkpt>
      <trkpt lat="42.84478" lon="0.04968">
        <ele>1889</ele>
        <time>2012-12-22T10:35:47Z</time>
      </trkpt>
      <trkpt lat="42.84478" lon="0.0497">
        <ele>1889</ele>
        <time>2012-12-22T10:35:49Z</time>
      </trkpt>
      <trkpt lat="42.84477" lon="0.04971">
        <ele>1889</ele>
        <time>2012-12-22T10:35:51Z</time>
      </trkpt>
      <trkpt lat="42.84475" lon="0.04972">
        <ele>1890</ele>
        <time>2012-12-22T10:35:53Z</time>
      </trkpt>
      <trkpt lat="42.84475" lon="0.04974">
        <ele>1890</ele>
        <time>2012-12-22T10:35:55Z</time>
      </trkpt>
      <trkpt lat="42.84474" lon="0.04976">
        <ele>1890</ele>
        <time>2012-12-22T10:35:57Z</time>
      </trkpt>
      <trkpt lat="42.84473" lon="0.04978">
        <ele>1890</ele>
        <time>2012-12-22T10:35:59Z</time>
      </trkpt>
      <trkpt lat="42.84472" lon="0.04979">
        <ele>1891</ele>
        <time>2012-12-22T10:36:01Z</time>
      </trkpt>
      <trkpt lat="42.84472" lon="0.04981">
        <ele>1891</ele>
        <time>2012-12-22T10:36:03Z</time>
      </trkpt>
      <trkpt lat="42.84471" lon="0.04982">
        <ele>1891</ele>
        <time>2012-12-22T10:36:05Z</time>
      </trkpt>
      <trkpt lat="42.8447" lon="0.04984">
        <ele>1892</ele>
        <time>2012-12-22T10:36:07Z</time>
      </trkpt>
      <trkpt lat="42.84469" lon="0.04986">
        <ele>1892</ele>
        <time>2012-12-22T10:36:09Z</time>
      </trkpt>
      <trkpt lat="42.84468" lon="0.04987">
        <ele>1893</ele>
        <time>2012-12-22T10:36:11Z</time>
      </trkpt>
      <trkpt lat="42.84468" lon="0.04989">
        <ele>1893</ele>
        <time>2012-12-22T10:36:13Z</time>
      </trkpt>
      <trkpt lat="42.84467" lon="0.04991">
        <ele>1893</ele>
        <time>2012-12-22T10:36:15Z</time>
      </trkpt>
      <trkpt lat="42.84466" lon="0.04992">
        <ele>1893</ele>
        <time>2012-12-22T10:36:17Z</time>
      </trkpt>
      <trkpt lat="42.84465" lon="0.04994">
        <ele>1894</ele>
        <time>2012-12-22T10:36:19Z</time>
      </trkpt>
      <trkpt lat="42.84464" lon="0.04996">
        <ele>1894</ele>
        <time>2012-12-22T10:36:21Z</time>
      </trkpt>
      <trkpt lat="42.84464" lon="0.04998">
        <ele>1894</ele>
        <time>2012-12-22T10:36:23Z</time>
      </trkpt>
      <trkpt lat="42.84463" lon="0.04999">
        <ele>1895</ele>
        <time>2012-12-22T10:36:25Z</time>
      </trkpt>
      <trkpt lat="42.84462" lon="0.05001">
        <ele>1895</ele>
        <time>2012-12-22T10:36:27Z</time>
      </trkpt>
      <trkpt lat="42.84461" lon="0.05003">
        <ele>1895</ele>
        <time>2012-12-22T10:36:29Z</time>
      </trkpt>
      <trkpt lat="42.8446" lon="0.05004">
        <ele>1896</ele>
        <time>2012-12-22T10:36:31Z</time>
      </trkpt>
      <trkpt lat="42.8446" lon="0.05006">
        <ele>1896</ele>
        <time>2012-12-22T10:36:33Z</time>
      </trkpt>
      <trkpt lat="42.84459" lon="0.05008">
        <ele>1896</ele>
        <time>2012-12-22T10:36:35Z</time>
      </trkpt>
      <trkpt lat="42.84458" lon="0.05009">
        <ele>1896</ele>
        <time>2012-12-22T10:36:37Z</time>
      </trkpt>
      <trkpt lat="42.84457" lon="0.05011">
        <ele>1896</ele>
        <time>2012-12-22T10:36:39Z</time>
      </trkpt>
      <trkpt lat="42.84456" lon="0.05013">
        <ele>1896</ele>
        <time>2012-12-22T10:36:41Z</time>
      </trkpt>
      <trkpt lat="42.84455" lon="0.05015">
        <ele>1896</ele>
        <time>2012-12-22T10:36:43Z</time>
      </trkpt>
      <trkpt lat="42.84454" lon="0.05017">
        <ele>1897</ele>
        <time>2012-12-22T10:36:45Z</time>
      </trkpt>
      <trkpt lat="42.84454" lon="0.05018">
        <ele>1897</ele>
        <time>2012-12-22T10:36:47Z</time>
      </trkpt>
      <trkpt lat="42.84453" lon="0.0502">
        <ele>1897</ele>
        <time>2012-12-22T10:36:50Z</time>
      </trkpt>
      <trkpt lat="42.84452" lon="0.05022">
        <ele>1897</ele>
        <time>2012-12-22T10:36:52Z</time>
      </trkpt>
      <trkpt lat="42.84451" lon="0.05024">
        <ele>1897</ele>
        <time>2012-12-22T10:36:54Z</time>
      </trkpt>
      <trkpt lat="42.84451" lon="0.05026">
        <ele>1898</ele>
        <time>2012-12-22T10:36:57Z</time>
      </trkpt>
      <trkpt lat="42.8445" lon="0.05028">
        <ele>1898</ele>
        <time>2012-12-22T10:36:59Z</time>
      </trkpt>
      <trkpt lat="42.84449" lon="0.0503">
        <ele>1898</ele>
        <time>2012-12-22T10:37:01Z</time>
      </trkpt>
      <trkpt lat="42.84449" lon="0.05032">
        <ele>1899</ele>
        <time>2012-12-22T10:37:03Z</time>
      </trkpt>
      <trkpt lat="42.84448" lon="0.05034">
        <ele>1899</ele>
        <time>2012-12-22T10:37:05Z</time>
      </trkpt>
      <trkpt lat="42.84447" lon="0.05036">
        <ele>1899</ele>
        <time>2012-12-22T10:37:07Z</time>
      </trkpt>
      <trkpt lat="42.84446" lon="0.05037">
        <ele>1900</ele>
        <time>2012-12-22T10:37:09Z</time>
      </trkpt>
      <trkpt lat="42.84446" lon="0.05039">
        <ele>1900</ele>
        <time>2012-12-22T10:37:11Z</time>
      </trkpt>
      <trkpt lat="42.84445" lon="0.0504">
        <ele>1900</ele>
        <time>2012-12-22T10:37:13Z</time>
      </trkpt>
      <trkpt lat="42.84444" lon="0.05042">
        <ele>1901</ele>
        <time>2012-12-22T10:37:15Z</time>
      </trkpt>
      <trkpt lat="42.84443" lon="0.05044">
        <ele>1901</ele>
        <time>2012-12-22T10:37:17Z</time>
      </trkpt>
      <trkpt lat="42.84442" lon="0.05045">
        <ele>1901</ele>
        <time>2012-12-22T10:37:19Z</time>
      </trkpt>
      <trkpt lat="42.84441" lon="0.05047">
        <ele>1901</ele>
        <time>2012-12-22T10:37:21Z</time>
      </trkpt>
      <trkpt lat="42.8444" lon="0.05049">
        <ele>1901</ele>
        <time>2012-12-22T10:37:23Z</time>
      </trkpt>
      <trkpt lat="42.84439" lon="0.05051">
        <ele>1901</ele>
        <time>2012-12-22T10:37:25Z</time>
      </trkpt>
      <trkpt lat="42.84438" lon="0.05053">
        <ele>1901</ele>
        <time>2012-12-22T10:37:27Z</time>
      </trkpt>
      <trkpt lat="42.84437" lon="0.05055">
        <ele>1901</ele>
        <time>2012-12-22T10:37:29Z</time>
      </trkpt>
      <trkpt lat="42.84436" lon="0.05057">
        <ele>1901</ele>
        <time>2012-12-22T10:37:31Z</time>
      </trkpt>
      <trkpt lat="42.84435" lon="0.05058">
        <ele>1901</ele>
        <time>2012-12-22T10:37:33Z</time>
      </trkpt>
      <trkpt lat="42.84433" lon="0.0506">
        <ele>1901</ele>
        <time>2012-12-22T10:37:36Z</time>
      </trkpt>
      <trkpt lat="42.84432" lon="0.05062">
        <ele>1901</ele>
        <time>2012-12-22T10:37:38Z</time>
      </trkpt>
      <trkpt lat="42.84431" lon="0.05063">
        <ele>1901</ele>
        <time>2012-12-22T10:37:41Z</time>
      </trkpt>
      <trkpt lat="42.8443" lon="0.05065">
        <ele>1901</ele>
        <time>2012-12-22T10:37:43Z</time>
      </trkpt>
      <trkpt lat="42.84428" lon="0.05067">
        <ele>1901</ele>
        <time>2012-12-22T10:37:46Z</time>
      </trkpt>
      <trkpt lat="42.84427" lon="0.05068">
        <ele>1901</ele>
        <time>2012-12-22T10:37:49Z</time>
      </trkpt>
      <trkpt lat="42.84425" lon="0.0507">
        <ele>1902</ele>
        <time>2012-12-22T10:37:52Z</time>
      </trkpt>
      <trkpt lat="42.84425" lon="0.05072">
        <ele>1902</ele>
        <time>2012-12-22T10:37:54Z</time>
      </trkpt>
      <trkpt lat="42.84424" lon="0.05074">
        <ele>1902</ele>
        <time>2012-12-22T10:37:56Z</time>
      </trkpt>
      <trkpt lat="42.84423" lon="0.05075">
        <ele>1903</ele>
        <time>2012-12-22T10:37:58Z</time>
      </trkpt>
      <trkpt lat="42.84422" lon="0.05077">
        <ele>1903</ele>
        <time>2012-12-22T10:38:00Z</time>
      </trkpt>
      <trkpt lat="42.84421" lon="0.05079">
        <ele>1904</ele>
        <time>2012-12-22T10:38:02Z</time>
      </trkpt>
      <trkpt lat="42.8442" lon="0.05081">
        <ele>1904</ele>
        <time>2012-12-22T10:38:04Z</time>
      </trkpt>
      <trkpt lat="42.8442" lon="0.05082">
        <ele>1904</ele>
        <time>2012-12-22T10:38:06Z</time>
      </trkpt>
      <trkpt lat="42.8442" lon="0.05084">
        <ele>1904</ele>
        <time>2012-12-22T10:38:15Z</time>
      </trkpt>
      <trkpt lat="42.8442" lon="0.05085">
        <ele>1904</ele>
        <time>2012-12-22T10:38:17Z</time>
      </trkpt>
      <trkpt lat="42.8442" lon="0.05087">
        <ele>1904</ele>
        <time>2012-12-22T10:38:19Z</time>
      </trkpt>
      <trkpt lat="42.8442" lon="0.05089">
        <ele>1904</ele>
        <time>2012-12-22T10:38:21Z</time>
      </trkpt>
      <trkpt lat="42.84419" lon="0.05091">
        <ele>1904</ele>
        <time>2012-12-22T10:38:23Z</time>
      </trkpt>
      <trkpt lat="42.8442" lon="0.05092">
        <ele>1904</ele>
        <time>2012-12-22T10:39:15Z</time>
      </trkpt>
      <trkpt lat="42.84422" lon="0.05093">
        <ele>1904</ele>
        <time>2012-12-22T10:39:30Z</time>
      </trkpt>
      <trkpt lat="42.8442" lon="0.05094">
        <ele>1904</ele>
        <time>2012-12-22T10:40:02Z</time>
      </trkpt>
      <trkpt lat="42.84419" lon="0.05094">
        <ele>1904</ele>
        <time>2012-12-22T10:40:58Z</time>
      </trkpt>
      <trkpt lat="42.84418" lon="0.05095">
        <ele>1904</ele>
        <time>2012-12-22T10:41:00Z</time>
      </trkpt>
      <trkpt lat="42.84416" lon="0.05096">
        <ele>1904</ele>
        <time>2012-12-22T10:41:03Z</time>
      </trkpt>
      <trkpt lat="42.84415" lon="0.05097">
        <ele>1904</ele>
        <time>2012-12-22T10:41:05Z</time>
      </trkpt>
      <trkpt lat="42.84413" lon="0.05099">
        <ele>1904</ele>
        <time>2012-12-22T10:41:07Z</time>
      </trkpt>
      <trkpt lat="42.84412" lon="0.051">
        <ele>1904</ele>
        <time>2012-12-22T10:41:09Z</time>
      </trkpt>
      <trkpt lat="42.84411" lon="0.05102">
        <ele>1904</ele>
        <time>2012-12-22T10:41:11Z</time>
      </trkpt>
      <trkpt lat="42.8441" lon="0.05103">
        <ele>1904</ele>
        <time>2012-12-22T10:41:13Z</time>
      </trkpt>
      <trkpt lat="42.84408" lon="0.05105">
        <ele>1904</ele>
        <time>2012-12-22T10:41:15Z</time>
      </trkpt>
      <trkpt lat="42.84407" lon="0.05106">
        <ele>1904</ele>
        <time>2012-12-22T10:41:17Z</time>
      </trkpt>
      <trkpt lat="42.84405" lon="0.05107">
        <ele>1904</ele>
        <time>2012-12-22T10:41:19Z</time>
      </trkpt>
      <trkpt lat="42.84404" lon="0.05108">
        <ele>1904</ele>
        <time>2012-12-22T10:41:21Z</time>
      </trkpt>
      <trkpt lat="42.84403" lon="0.0511">
        <ele>1904</ele>
        <time>2012-12-22T10:41:23Z</time>
      </trkpt>
      <trkpt lat="42.84401" lon="0.05111">
        <ele>1904</ele>
        <time>2012-12-22T10:41:26Z</time>
      </trkpt>
      <trkpt lat="42.844" lon="0.05113">
        <ele>1904</ele>
        <time>2012-12-22T10:41:29Z</time>
      </trkpt>
      <trkpt lat="42.84399" lon="0.05114">
        <ele>1904</ele>
        <time>2012-12-22T10:41:32Z</time>
      </trkpt>
      <trkpt lat="42.84398" lon="0.05116">
        <ele>1904</ele>
        <time>2012-12-22T10:41:35Z</time>
      </trkpt>
      <trkpt lat="42.84396" lon="0.05118">
        <ele>1904</ele>
        <time>2012-12-22T10:41:38Z</time>
      </trkpt>
      <trkpt lat="42.84396" lon="0.05119">
        <ele>1904</ele>
        <time>2012-12-22T10:41:40Z</time>
      </trkpt>
      <trkpt lat="42.84394" lon="0.05121">
        <ele>1904</ele>
        <time>2012-12-22T10:41:43Z</time>
      </trkpt>
      <trkpt lat="42.84393" lon="0.05123">
        <ele>1903</ele>
        <time>2012-12-22T10:41:46Z</time>
      </trkpt>
      <trkpt lat="42.84391" lon="0.05125">
        <ele>1903</ele>
        <time>2012-12-22T10:41:49Z</time>
      </trkpt>
      <trkpt lat="42.8439" lon="0.05127">
        <ele>1903</ele>
        <time>2012-12-22T10:41:52Z</time>
      </trkpt>
      <trkpt lat="42.84389" lon="0.05128">
        <ele>1903</ele>
        <time>2012-12-22T10:41:54Z</time>
      </trkpt>
      <trkpt lat="42.84388" lon="0.0513">
        <ele>1903</ele>
        <time>2012-12-22T10:41:57Z</time>
      </trkpt>
      <trkpt lat="42.84386" lon="0.05132">
        <ele>1903</ele>
        <time>2012-12-22T10:42:00Z</time>
      </trkpt>
      <trkpt lat="42.84385" lon="0.05134">
        <ele>1903</ele>
        <time>2012-12-22T10:42:03Z</time>
      </trkpt>
      <trkpt lat="42.84383" lon="0.05135">
        <ele>1902</ele>
        <time>2012-12-22T10:42:06Z</time>
      </trkpt>
      <trkpt lat="42.84382" lon="0.05137">
        <ele>1902</ele>
        <time>2012-12-22T10:42:09Z</time>
      </trkpt>
      <trkpt lat="42.84381" lon="0.05138">
        <ele>1902</ele>
        <time>2012-12-22T10:42:11Z</time>
      </trkpt>
      <trkpt lat="42.84379" lon="0.0514">
        <ele>1901</ele>
        <time>2012-12-22T10:42:14Z</time>
      </trkpt>
      <trkpt lat="42.84378" lon="0.05142">
        <ele>1901</ele>
        <time>2012-12-22T10:42:17Z</time>
      </trkpt>
      <trkpt lat="42.84377" lon="0.05142">
        <ele>1901</ele>
        <time>2012-12-22T10:42:19Z</time>
      </trkpt>
      <trkpt lat="42.84375" lon="0.05144">
        <ele>1901</ele>
        <time>2012-12-22T10:42:22Z</time>
      </trkpt>
      <trkpt lat="42.84373" lon="0.05146">
        <ele>1901</ele>
        <time>2012-12-22T10:42:25Z</time>
      </trkpt>
      <trkpt lat="42.84372" lon="0.05147">
        <ele>1901</ele>
        <time>2012-12-22T10:42:28Z</time>
      </trkpt>
      <trkpt lat="42.84371" lon="0.05149">
        <ele>1900</ele>
        <time>2012-12-22T10:42:31Z</time>
      </trkpt>
      <trkpt lat="42.84369" lon="0.0515">
        <ele>1900</ele>
        <time>2012-12-22T10:42:34Z</time>
      </trkpt>
      <trkpt lat="42.84368" lon="0.05151">
        <ele>1900</ele>
        <time>2012-12-22T10:42:37Z</time>
      </trkpt>
      <trkpt lat="42.84367" lon="0.05152">
        <ele>1899</ele>
        <time>2012-12-22T10:42:42Z</time>
      </trkpt>
      <trkpt lat="42.84365" lon="0.05154">
        <ele>1899</ele>
        <time>2012-12-22T10:42:45Z</time>
      </trkpt>
      <trkpt lat="42.84364" lon="0.05155">
        <ele>1899</ele>
        <time>2012-12-22T10:42:47Z</time>
      </trkpt>
      <trkpt lat="42.84362" lon="0.05156">
        <ele>1899</ele>
        <time>2012-12-22T10:42:50Z</time>
      </trkpt>
      <trkpt lat="42.84361" lon="0.05157">
        <ele>1899</ele>
        <time>2012-12-22T10:42:52Z</time>
      </trkpt>
      <trkpt lat="42.8436" lon="0.05158">
        <ele>1898</ele>
        <time>2012-12-22T10:42:55Z</time>
      </trkpt>
      <trkpt lat="42.84358" lon="0.05159">
        <ele>1898</ele>
        <time>2012-12-22T10:42:57Z</time>
      </trkpt>
      <trkpt lat="42.84357" lon="0.05159">
        <ele>1898</ele>
        <time>2012-12-22T10:42:59Z</time>
      </trkpt>
      <trkpt lat="42.84356" lon="0.05161">
        <ele>1897</ele>
        <time>2012-12-22T10:43:01Z</time>
      </trkpt>
      <trkpt lat="42.84355" lon="0.05162">
        <ele>1897</ele>
        <time>2012-12-22T10:43:04Z</time>
      </trkpt>
      <trkpt lat="42.84354" lon="0.05162">
        <ele>1896</ele>
        <time>2012-12-22T10:43:07Z</time>
      </trkpt>
      <trkpt lat="42.84352" lon="0.05162">
        <ele>1896</ele>
        <time>2012-12-22T10:43:10Z</time>
      </trkpt>
      <trkpt lat="42.84351" lon="0.05164">
        <ele>1896</ele>
        <time>2012-12-22T10:43:13Z</time>
      </trkpt>
      <trkpt lat="42.8435" lon="0.05165">
        <ele>1896</ele>
        <time>2012-12-22T10:43:15Z</time>
      </trkpt>
      <trkpt lat="42.84348" lon="0.05166">
        <ele>1896</ele>
        <time>2012-12-22T10:43:18Z</time>
      </trkpt>
      <trkpt lat="42.84347" lon="0.05168">
        <ele>1896</ele>
        <time>2012-12-22T10:43:21Z</time>
      </trkpt>
      <trkpt lat="42.84346" lon="0.05169">
        <ele>1895</ele>
        <time>2012-12-22T10:43:27Z</time>
      </trkpt>
      <trkpt lat="42.84344" lon="0.0517">
        <ele>1895</ele>
        <time>2012-12-22T10:43:30Z</time>
      </trkpt>
      <trkpt lat="42.84343" lon="0.05171">
        <ele>1895</ele>
        <time>2012-12-22T10:43:32Z</time>
      </trkpt>
      <trkpt lat="42.84342" lon="0.05172">
        <ele>1895</ele>
        <time>2012-12-22T10:43:34Z</time>
      </trkpt>
      <trkpt lat="42.84341" lon="0.05173">
        <ele>1895</ele>
        <time>2012-12-22T10:43:36Z</time>
      </trkpt>
      <trkpt lat="42.84339" lon="0.05174">
        <ele>1895</ele>
        <time>2012-12-22T10:43:38Z</time>
      </trkpt>
      <trkpt lat="42.84338" lon="0.05175">
        <ele>1895</ele>
        <time>2012-12-22T10:43:40Z</time>
      </trkpt>
      <trkpt lat="42.84337" lon="0.05175">
        <ele>1895</ele>
        <time>2012-12-22T10:43:42Z</time>
      </trkpt>
      <trkpt lat="42.84335" lon="0.05176">
        <ele>1895</ele>
        <time>2012-12-22T10:43:45Z</time>
      </trkpt>
      <trkpt lat="42.84335" lon="0.05178">
        <ele>1894</ele>
        <time>2012-12-22T10:43:48Z</time>
      </trkpt>
      <trkpt lat="42.84333" lon="0.0518">
        <ele>1893</ele>
        <time>2012-12-22T10:43:51Z</time>
      </trkpt>
      <trkpt lat="42.84332" lon="0.05181">
        <ele>1892</ele>
        <time>2012-12-22T10:43:54Z</time>
      </trkpt>
      <trkpt lat="42.84331" lon="0.05182">
        <ele>1892</ele>
        <time>2012-12-22T10:43:57Z</time>
      </trkpt>
      <trkpt lat="42.84329" lon="0.05184">
        <ele>1892</ele>
        <time>2012-12-22T10:44:00Z</time>
      </trkpt>
      <trkpt lat="42.84328" lon="0.05185">
        <ele>1892</ele>
        <time>2012-12-22T10:44:03Z</time>
      </trkpt>
      <trkpt lat="42.84327" lon="0.05186">
        <ele>1892</ele>
        <time>2012-12-22T10:44:05Z</time>
      </trkpt>
      <trkpt lat="42.84325" lon="0.05187">
        <ele>1892</ele>
        <time>2012-12-22T10:44:08Z</time>
      </trkpt>
      <trkpt lat="42.84323" lon="0.05189">
        <ele>1892</ele>
        <time>2012-12-22T10:44:12Z</time>
      </trkpt>
      <trkpt lat="42.84322" lon="0.0519">
        <ele>1892</ele>
        <time>2012-12-22T10:44:14Z</time>
      </trkpt>
      <trkpt lat="42.84321" lon="0.0519">
        <ele>1892</ele>
        <time>2012-12-22T10:44:16Z</time>
      </trkpt>
      <trkpt lat="42.84319" lon="0.05192">
        <ele>1892</ele>
        <time>2012-12-22T10:44:19Z</time>
      </trkpt>
      <trkpt lat="42.84318" lon="0.05193">
        <ele>1892</ele>
        <time>2012-12-22T10:44:21Z</time>
      </trkpt>
      <trkpt lat="42.84317" lon="0.05195">
        <ele>1892</ele>
        <time>2012-12-22T10:44:24Z</time>
      </trkpt>
      <trkpt lat="42.84316" lon="0.05196">
        <ele>1891</ele>
        <time>2012-12-22T10:44:26Z</time>
      </trkpt>
      <trkpt lat="42.84314" lon="0.05197">
        <ele>1891</ele>
        <time>2012-12-22T10:44:29Z</time>
      </trkpt>
      <trkpt lat="42.84313" lon="0.05198">
        <ele>1891</ele>
        <time>2012-12-22T10:44:31Z</time>
      </trkpt>
      <trkpt lat="42.84312" lon="0.05199">
        <ele>1890</ele>
        <time>2012-12-22T10:44:33Z</time>
      </trkpt>
      <trkpt lat="42.8431" lon="0.05201">
        <ele>1890</ele>
        <time>2012-12-22T10:44:36Z</time>
      </trkpt>
      <trkpt lat="42.84309" lon="0.05202">
        <ele>1890</ele>
        <time>2012-12-22T10:44:46Z</time>
      </trkpt>
      <trkpt lat="42.84307" lon="0.05202">
        <ele>1890</ele>
        <time>2012-12-22T10:44:50Z</time>
      </trkpt>
      <trkpt lat="42.84306" lon="0.05203">
        <ele>1890</ele>
        <time>2012-12-22T10:44:52Z</time>
      </trkpt>
      <trkpt lat="42.84305" lon="0.05204">
        <ele>1890</ele>
        <time>2012-12-22T10:44:55Z</time>
      </trkpt>
      <trkpt lat="42.84304" lon="0.05206">
        <ele>1889</ele>
        <time>2012-12-22T10:44:57Z</time>
      </trkpt>
      <trkpt lat="42.84302" lon="0.05207">
        <ele>1889</ele>
        <time>2012-12-22T10:45:00Z</time>
      </trkpt>
      <trkpt lat="42.84301" lon="0.05208">
        <ele>1888</ele>
        <time>2012-12-22T10:45:02Z</time>
      </trkpt>
      <trkpt lat="42.843" lon="0.05209">
        <ele>1888</ele>
        <time>2012-12-22T10:45:04Z</time>
      </trkpt>
      <trkpt lat="42.84299" lon="0.0521">
        <ele>1888</ele>
        <time>2012-12-22T10:45:06Z</time>
      </trkpt>
      <trkpt lat="42.84298" lon="0.05211">
        <ele>1888</ele>
        <time>2012-12-22T10:45:08Z</time>
      </trkpt>
      <trkpt lat="42.84296" lon="0.05212">
        <ele>1887</ele>
        <time>2012-12-22T10:45:10Z</time>
      </trkpt>
      <trkpt lat="42.84295" lon="0.05213">
        <ele>1887</ele>
        <time>2012-12-22T10:45:12Z</time>
      </trkpt>
      <trkpt lat="42.84293" lon="0.05215">
        <ele>1887</ele>
        <time>2012-12-22T10:45:15Z</time>
      </trkpt>
      <trkpt lat="42.84292" lon="0.05216">
        <ele>1887</ele>
        <time>2012-12-22T10:45:17Z</time>
      </trkpt>
      <trkpt lat="42.84291" lon="0.05217">
        <ele>1887</ele>
        <time>2012-12-22T10:45:19Z</time>
      </trkpt>
      <trkpt lat="42.8429" lon="0.05218">
        <ele>1886</ele>
        <time>2012-12-22T10:45:21Z</time>
      </trkpt>
      <trkpt lat="42.84288" lon="0.0522">
        <ele>1886</ele>
        <time>2012-12-22T10:45:23Z</time>
      </trkpt>
      <trkpt lat="42.84287" lon="0.05221">
        <ele>1886</ele>
        <time>2012-12-22T10:45:25Z</time>
      </trkpt>
      <trkpt lat="42.84285" lon="0.05223">
        <ele>1886</ele>
        <time>2012-12-22T10:45:27Z</time>
      </trkpt>
      <trkpt lat="42.84284" lon="0.05224">
        <ele>1886</ele>
        <time>2012-12-22T10:45:29Z</time>
      </trkpt>
      <trkpt lat="42.84283" lon="0.05225">
        <ele>1886</ele>
        <time>2012-12-22T10:45:31Z</time>
      </trkpt>
      <trkpt lat="42.84282" lon="0.05226">
        <ele>1885</ele>
        <time>2012-12-22T10:45:33Z</time>
      </trkpt>
      <trkpt lat="42.8428" lon="0.05227">
        <ele>1885</ele>
        <time>2012-12-22T10:45:35Z</time>
      </trkpt>
      <trkpt lat="42.84279" lon="0.05229">
        <ele>1885</ele>
        <time>2012-12-22T10:45:37Z</time>
      </trkpt>
      <trkpt lat="42.84277" lon="0.0523">
        <ele>1885</ele>
        <time>2012-12-22T10:45:39Z</time>
      </trkpt>
      <trkpt lat="42.84276" lon="0.05231">
        <ele>1885</ele>
        <time>2012-12-22T10:45:41Z</time>
      </trkpt>
      <trkpt lat="42.84275" lon="0.05232">
        <ele>1885</ele>
        <time>2012-12-22T10:45:43Z</time>
      </trkpt>
      <trkpt lat="42.84273" lon="0.05233">
        <ele>1885</ele>
        <time>2012-12-22T10:45:45Z</time>
      </trkpt>
      <trkpt lat="42.84272" lon="0.05234">
        <ele>1885</ele>
        <time>2012-12-22T10:45:47Z</time>
      </trkpt>
      <trkpt lat="42.8427" lon="0.05235">
        <ele>1885</ele>
        <time>2012-12-22T10:45:49Z</time>
      </trkpt>
      <trkpt lat="42.84269" lon="0.05236">
        <ele>1885</ele>
        <time>2012-12-22T10:45:51Z</time>
      </trkpt>
      <trkpt lat="42.84268" lon="0.05237">
        <ele>1885</ele>
        <time>2012-12-22T10:45:53Z</time>
      </trkpt>
      <trkpt lat="42.84267" lon="0.05238">
        <ele>1885</ele>
        <time>2012-12-22T10:45:55Z</time>
      </trkpt>
      <trkpt lat="42.84265" lon="0.05239">
        <ele>1885</ele>
        <time>2012-12-22T10:45:57Z</time>
      </trkpt>
      <trkpt lat="42.84264" lon="0.0524">
        <ele>1885</ele>
        <time>2012-12-22T10:45:59Z</time>
      </trkpt>
      <trkpt lat="42.84262" lon="0.05241">
        <ele>1885</ele>
        <time>2012-12-22T10:46:01Z</time>
      </trkpt>
      <trkpt lat="42.84261" lon="0.05242">
        <ele>1885</ele>
        <time>2012-12-22T10:46:03Z</time>
      </trkpt>
      <trkpt lat="42.8426" lon="0.05243">
        <ele>1885</ele>
        <time>2012-12-22T10:46:05Z</time>
      </trkpt>
      <trkpt lat="42.84258" lon="0.05243">
        <ele>1885</ele>
        <time>2012-12-22T10:46:07Z</time>
      </trkpt>
      <trkpt lat="42.84257" lon="0.05244">
        <ele>1885</ele>
        <time>2012-12-22T10:46:09Z</time>
      </trkpt>
      <trkpt lat="42.84256" lon="0.05245">
        <ele>1885</ele>
        <time>2012-12-22T10:46:11Z</time>
      </trkpt>
      <trkpt lat="42.84254" lon="0.05246">
        <ele>1885</ele>
        <time>2012-12-22T10:46:13Z</time>
      </trkpt>
      <trkpt lat="42.84254" lon="0.05248">
        <ele>1884</ele>
        <time>2012-12-22T10:46:15Z</time>
      </trkpt>
      <trkpt lat="42.84252" lon="0.05249">
        <ele>1883</ele>
        <time>2012-12-22T10:46:18Z</time>
      </trkpt>
      <trkpt lat="42.84251" lon="0.05251">
        <ele>1883</ele>
        <time>2012-12-22T10:46:20Z</time>
      </trkpt>
      <trkpt lat="42.8425" lon="0.05252">
        <ele>1882</ele>
        <time>2012-12-22T10:46:25Z</time>
      </trkpt>
      <trkpt lat="42.84248" lon="0.05253">
        <ele>1882</ele>
        <time>2012-12-22T10:46:28Z</time>
      </trkpt>
      <trkpt lat="42.84246" lon="0.05254">
        <ele>1882</ele>
        <time>2012-12-22T10:46:31Z</time>
      </trkpt>
      <trkpt lat="42.84245" lon="0.05255">
        <ele>1882</ele>
        <time>2012-12-22T10:46:33Z</time>
      </trkpt>
      <trkpt lat="42.84243" lon="0.05256">
        <ele>1882</ele>
        <time>2012-12-22T10:46:35Z</time>
      </trkpt>
      <trkpt lat="42.84242" lon="0.05257">
        <ele>1882</ele>
        <time>2012-12-22T10:46:38Z</time>
      </trkpt>
      <trkpt lat="42.8424" lon="0.05258">
        <ele>1882</ele>
        <time>2012-12-22T10:46:40Z</time>
      </trkpt>
      <trkpt lat="42.84239" lon="0.05259">
        <ele>1882</ele>
        <time>2012-12-22T10:46:42Z</time>
      </trkpt>
      <trkpt lat="42.84238" lon="0.0526">
        <ele>1882</ele>
        <time>2012-12-22T10:46:45Z</time>
      </trkpt>
      <trkpt lat="42.84236" lon="0.0526">
        <ele>1882</ele>
        <time>2012-12-22T10:46:50Z</time>
      </trkpt>
      <trkpt lat="42.84235" lon="0.05261">
        <ele>1882</ele>
        <time>2012-12-22T10:46:52Z</time>
      </trkpt>
      <trkpt lat="42.84233" lon="0.05262">
        <ele>1882</ele>
        <time>2012-12-22T10:46:54Z</time>
      </trkpt>
      <trkpt lat="42.84232" lon="0.05263">
        <ele>1882</ele>
        <time>2012-12-22T10:46:56Z</time>
      </trkpt>
      <trkpt lat="42.8423" lon="0.05265">
        <ele>1882</ele>
        <time>2012-12-22T10:46:58Z</time>
      </trkpt>
      <trkpt lat="42.84229" lon="0.05266">
        <ele>1882</ele>
        <time>2012-12-22T10:47:00Z</time>
      </trkpt>
      <trkpt lat="42.84227" lon="0.05268">
        <ele>1882</ele>
        <time>2012-12-22T10:47:02Z</time>
      </trkpt>
      <trkpt lat="42.84226" lon="0.0527">
        <ele>1882</ele>
        <time>2012-12-22T10:47:04Z</time>
      </trkpt>
      <trkpt lat="42.84225" lon="0.05272">
        <ele>1882</ele>
        <time>2012-12-22T10:47:06Z</time>
      </trkpt>
      <trkpt lat="42.84223" lon="0.05274">
        <ele>1881</ele>
        <time>2012-12-22T10:47:08Z</time>
      </trkpt>
      <trkpt lat="42.84222" lon="0.05276">
        <ele>1881</ele>
        <time>2012-12-22T10:47:10Z</time>
      </trkpt>
      <trkpt lat="42.8422" lon="0.05277">
        <ele>1881</ele>
        <time>2012-12-22T10:47:12Z</time>
      </trkpt>
      <trkpt lat="42.84219" lon="0.05278">
        <ele>1881</ele>
        <time>2012-12-22T10:47:14Z</time>
      </trkpt>
      <trkpt lat="42.84218" lon="0.0528">
        <ele>1880</ele>
        <time>2012-12-22T10:47:16Z</time>
      </trkpt>
      <trkpt lat="42.84218" lon="0.05282">
        <ele>1879</ele>
        <time>2012-12-22T10:47:18Z</time>
      </trkpt>
      <trkpt lat="42.84217" lon="0.05284">
        <ele>1878</ele>
        <time>2012-12-22T10:47:20Z</time>
      </trkpt>
      <trkpt lat="42.84217" lon="0.05286">
        <ele>1877</ele>
        <time>2012-12-22T10:47:22Z</time>
      </trkpt>
      <trkpt lat="42.84216" lon="0.05288">
        <ele>1876</ele>
        <time>2012-12-22T10:47:24Z</time>
      </trkpt>
      <trkpt lat="42.84215" lon="0.0529">
        <ele>1876</ele>
        <time>2012-12-22T10:47:26Z</time>
      </trkpt>
      <trkpt lat="42.84214" lon="0.05292">
        <ele>1876</ele>
        <time>2012-12-22T10:47:28Z</time>
      </trkpt>
      <trkpt lat="42.84214" lon="0.05294">
        <ele>1876</ele>
        <time>2012-12-22T10:47:30Z</time>
      </trkpt>
      <trkpt lat="42.84213" lon="0.05295">
        <ele>1876</ele>
        <time>2012-12-22T10:47:32Z</time>
      </trkpt>
      <trkpt lat="42.84213" lon="0.05297">
        <ele>1876</ele>
        <time>2012-12-22T10:47:34Z</time>
      </trkpt>
      <trkpt lat="42.84213" lon="0.053">
        <ele>1876</ele>
        <time>2012-12-22T10:47:36Z</time>
      </trkpt>
      <trkpt lat="42.84212" lon="0.05301">
        <ele>1876</ele>
        <time>2012-12-22T10:47:37Z</time>
      </trkpt>
      <trkpt lat="42.84212" lon="0.05303">
        <ele>1876</ele>
        <time>2012-12-22T10:47:39Z</time>
      </trkpt>
      <trkpt lat="42.84212" lon="0.05305">
        <ele>1876</ele>
        <time>2012-12-22T10:47:41Z</time>
      </trkpt>
      <trkpt lat="42.84212" lon="0.05306">
        <ele>1875</ele>
        <time>2012-12-22T10:47:44Z</time>
      </trkpt>
      <trkpt lat="42.84212" lon="0.05308">
        <ele>1875</ele>
        <time>2012-12-22T10:47:45Z</time>
      </trkpt>
      <trkpt lat="42.84212" lon="0.05311">
        <ele>1874</ele>
        <time>2012-12-22T10:47:47Z</time>
      </trkpt>
      <trkpt lat="42.84211" lon="0.05313">
        <ele>1874</ele>
        <time>2012-12-22T10:47:49Z</time>
      </trkpt>
      <trkpt lat="42.84211" lon="0.05316">
        <ele>1873</ele>
        <time>2012-12-22T10:47:51Z</time>
      </trkpt>
      <trkpt lat="42.84211" lon="0.05317">
        <ele>1872</ele>
        <time>2012-12-22T10:47:53Z</time>
      </trkpt>
      <trkpt lat="42.84211" lon="0.0532">
        <ele>1872</ele>
        <time>2012-12-22T10:47:55Z</time>
      </trkpt>
      <trkpt lat="42.84211" lon="0.05322">
        <ele>1872</ele>
        <time>2012-12-22T10:47:57Z</time>
      </trkpt>
      <trkpt lat="42.84211" lon="0.05324">
        <ele>1871</ele>
        <time>2012-12-22T10:47:59Z</time>
      </trkpt>
      <trkpt lat="42.84211" lon="0.05326">
        <ele>1870</ele>
        <time>2012-12-22T10:48:01Z</time>
      </trkpt>
      <trkpt lat="42.84211" lon="0.05328">
        <ele>1870</ele>
        <time>2012-12-22T10:48:06Z</time>
      </trkpt>
      <trkpt lat="42.84211" lon="0.0533">
        <ele>1870</ele>
        <time>2012-12-22T10:48:08Z</time>
      </trkpt>
      <trkpt lat="42.84211" lon="0.05333">
        <ele>1870</ele>
        <time>2012-12-22T10:48:10Z</time>
      </trkpt>
      <trkpt lat="42.84211" lon="0.05335">
        <ele>1870</ele>
        <time>2012-12-22T10:48:12Z</time>
      </trkpt>
      <trkpt lat="42.84211" lon="0.05337">
        <ele>1869</ele>
        <time>2012-12-22T10:48:13Z</time>
      </trkpt>
      <trkpt lat="42.84211" lon="0.05339">
        <ele>1869</ele>
        <time>2012-12-22T10:48:15Z</time>
      </trkpt>
      <trkpt lat="42.84211" lon="0.05342">
        <ele>1869</ele>
        <time>2012-12-22T10:48:17Z</time>
      </trkpt>
      <trkpt lat="42.84211" lon="0.05344">
        <ele>1869</ele>
        <time>2012-12-22T10:48:19Z</time>
      </trkpt>
      <trkpt lat="42.84211" lon="0.05346">
        <ele>1869</ele>
        <time>2012-12-22T10:48:21Z</time>
      </trkpt>
      <trkpt lat="42.84211" lon="0.05349">
        <ele>1869</ele>
        <time>2012-12-22T10:48:23Z</time>
      </trkpt>
      <trkpt lat="42.84211" lon="0.05351">
        <ele>1869</ele>
        <time>2012-12-22T10:48:25Z</time>
      </trkpt>
      <trkpt lat="42.84211" lon="0.05353">
        <ele>1869</ele>
        <time>2012-12-22T10:48:26Z</time>
      </trkpt>
      <trkpt lat="42.84212" lon="0.05354">
        <ele>1869</ele>
        <time>2012-12-22T10:48:27Z</time>
      </trkpt>
      <trkpt lat="42.84212" lon="0.05356">
        <ele>1869</ele>
        <time>2012-12-22T10:48:28Z</time>
      </trkpt>
      <trkpt lat="42.84212" lon="0.05358">
        <ele>1869</ele>
        <time>2012-12-22T10:48:29Z</time>
      </trkpt>
      <trkpt lat="42.84212" lon="0.05359">
        <ele>1868</ele>
        <time>2012-12-22T10:48:31Z</time>
      </trkpt>
      <trkpt lat="42.84213" lon="0.05361">
        <ele>1868</ele>
        <time>2012-12-22T10:48:32Z</time>
      </trkpt>
      <trkpt lat="42.84213" lon="0.05363">
        <ele>1868</ele>
        <time>2012-12-22T10:48:34Z</time>
      </trkpt>
      <trkpt lat="42.84213" lon="0.05365">
        <ele>1868</ele>
        <time>2012-12-22T10:48:35Z</time>
      </trkpt>
      <trkpt lat="42.84213" lon="0.05367">
        <ele>1868</ele>
        <time>2012-12-22T10:48:37Z</time>
      </trkpt>
      <trkpt lat="42.84213" lon="0.05368">
        <ele>1868</ele>
        <time>2012-12-22T10:48:38Z</time>
      </trkpt>
      <trkpt lat="42.84212" lon="0.0537">
        <ele>1868</ele>
        <time>2012-12-22T10:48:39Z</time>
      </trkpt>
      <trkpt lat="42.84212" lon="0.05371">
        <ele>1868</ele>
        <time>2012-12-22T10:48:40Z</time>
      </trkpt>
      <trkpt lat="42.84212" lon="0.05373">
        <ele>1868</ele>
        <time>2012-12-22T10:48:42Z</time>
      </trkpt>
      <trkpt lat="42.84212" lon="0.05376">
        <ele>1868</ele>
        <time>2012-12-22T10:48:44Z</time>
      </trkpt>
      <trkpt lat="42.84213" lon="0.05379">
        <ele>1868</ele>
        <time>2012-12-22T10:48:46Z</time>
      </trkpt>
      <trkpt lat="42.84213" lon="0.05381">
        <ele>1868</ele>
        <time>2012-12-22T10:48:48Z</time>
      </trkpt>
      <trkpt lat="42.84213" lon="0.05384">
        <ele>1868</ele>
        <time>2012-12-22T10:48:50Z</time>
      </trkpt>
      <trkpt lat="42.84214" lon="0.05386">
        <ele>1868</ele>
        <time>2012-12-22T10:48:52Z</time>
      </trkpt>
      <trkpt lat="42.84214" lon="0.05388">
        <ele>1868</ele>
        <time>2012-12-22T10:48:54Z</time>
      </trkpt>
      <trkpt lat="42.84214" lon="0.0539">
        <ele>1868</ele>
        <time>2012-12-22T10:48:56Z</time>
      </trkpt>
      <trkpt lat="42.84215" lon="0.05392">
        <ele>1868</ele>
        <time>2012-12-22T10:48:58Z</time>
      </trkpt>
      <trkpt lat="42.84215" lon="0.05394">
        <ele>1868</ele>
        <time>2012-12-22T10:48:59Z</time>
      </trkpt>
      <trkpt lat="42.84216" lon="0.05396">
        <ele>1868</ele>
        <time>2012-12-22T10:49:00Z</time>
      </trkpt>
      <trkpt lat="42.84217" lon="0.05398">
        <ele>1868</ele>
        <time>2012-12-22T10:49:02Z</time>
      </trkpt>
      <trkpt lat="42.84217" lon="0.054">
        <ele>1868</ele>
        <time>2012-12-22T10:49:04Z</time>
      </trkpt>
      <trkpt lat="42.84218" lon="0.05402">
        <ele>1868</ele>
        <time>2012-12-22T10:49:06Z</time>
      </trkpt>
      <trkpt lat="42.84219" lon="0.05404">
        <ele>1868</ele>
        <time>2012-12-22T10:49:08Z</time>
      </trkpt>
      <trkpt lat="42.84219" lon="0.05406">
        <ele>1868</ele>
        <time>2012-12-22T10:49:10Z</time>
      </trkpt>
      <trkpt lat="42.84218" lon="0.05407">
        <ele>1868</ele>
        <time>2012-12-22T10:49:13Z</time>
      </trkpt>
      <trkpt lat="42.84216" lon="0.05407">
        <ele>1867</ele>
        <time>2012-12-22T10:49:24Z</time>
      </trkpt>
      <trkpt lat="42.84217" lon="0.05405">
        <ele>1867</ele>
        <time>2012-12-22T10:49:45Z</time>
      </trkpt>
      <trkpt lat="42.84215" lon="0.05404">
        <ele>1867</ele>
        <time>2012-12-22T10:50:02Z</time>
      </trkpt>
      <trkpt lat="42.84214" lon="0.05403">
        <ele>1867</ele>
        <time>2012-12-22T10:50:13Z</time>
      </trkpt>
      <trkpt lat="42.84215" lon="0.05405">
        <ele>1867</ele>
        <time>2012-12-22T10:51:28Z</time>
      </trkpt>
      <trkpt lat="42.84214" lon="0.05406">
        <ele>1867</ele>
        <time>2012-12-22T10:51:59Z</time>
      </trkpt>
      <trkpt lat="42.84214" lon="0.05408">
        <ele>1867</ele>
        <time>2012-12-22T10:52:14Z</time>
      </trkpt>
      <trkpt lat="42.84217" lon="0.05409">
        <ele>1867</ele>
        <time>2012-12-22T10:52:20Z</time>
      </trkpt>
      <trkpt lat="42.84218" lon="0.0541">
        <ele>1867</ele>
        <time>2012-12-22T10:52:23Z</time>
      </trkpt>
      <trkpt lat="42.84218" lon="0.05408">
        <ele>1866</ele>
        <time>2012-12-22T10:52:28Z</time>
      </trkpt>
      <trkpt lat="42.84217" lon="0.05407">
        <ele>1866</ele>
        <time>2012-12-22T10:52:40Z</time>
      </trkpt>
      <trkpt lat="42.84216" lon="0.05407">
        <ele>1864</ele>
        <time>2012-12-22T10:53:15Z</time>
      </trkpt>
      <trkpt lat="42.84214" lon="0.05408">
        <ele>1863</ele>
        <time>2012-12-22T10:53:32Z</time>
      </trkpt>
      <trkpt lat="42.84215" lon="0.05407">
        <ele>1863</ele>
        <time>2012-12-22T10:53:50Z</time>
      </trkpt>
      <trkpt lat="42.84214" lon="0.05408">
        <ele>1863</ele>
        <time>2012-12-22T10:54:39Z</time>
      </trkpt>
      <trkpt lat="42.84214" lon="0.0541">
        <ele>1863</ele>
        <time>2012-12-22T10:55:17Z</time>
      </trkpt>
      <trkpt lat="42.84213" lon="0.05411">
        <ele>1863</ele>
        <time>2012-12-22T10:55:21Z</time>
      </trkpt>
      <trkpt lat="42.84212" lon="0.05411">
        <ele>1863</ele>
        <time>2012-12-22T10:55:24Z</time>
      </trkpt>
      <trkpt lat="42.84211" lon="0.05412">
        <ele>1864</ele>
        <time>2012-12-22T10:55:28Z</time>
      </trkpt>
      <trkpt lat="42.84209" lon="0.05413">
        <ele>1864</ele>
        <time>2012-12-22T10:55:31Z</time>
      </trkpt>
      <trkpt lat="42.84208" lon="0.05414">
        <ele>1865</ele>
        <time>2012-12-22T10:55:33Z</time>
      </trkpt>
      <trkpt lat="42.84206" lon="0.05414">
        <ele>1865</ele>
        <time>2012-12-22T10:55:35Z</time>
      </trkpt>
      <trkpt lat="42.84206" lon="0.05416">
        <ele>1867</ele>
        <time>2012-12-22T10:55:39Z</time>
      </trkpt>
      <trkpt lat="42.84204" lon="0.05417">
        <ele>1868</ele>
        <time>2012-12-22T10:55:42Z</time>
      </trkpt>
      <trkpt lat="42.84203" lon="0.05419">
        <ele>1868</ele>
        <time>2012-12-22T10:55:45Z</time>
      </trkpt>
      <trkpt lat="42.84201" lon="0.0542">
        <ele>1868</ele>
        <time>2012-12-22T10:55:47Z</time>
      </trkpt>
      <trkpt lat="42.842" lon="0.0542">
        <ele>1868</ele>
        <time>2012-12-22T10:55:49Z</time>
      </trkpt>
      <trkpt lat="42.84198" lon="0.05421">
        <ele>1869</ele>
        <time>2012-12-22T10:55:51Z</time>
      </trkpt>
      <trkpt lat="42.84197" lon="0.05423">
        <ele>1869</ele>
        <time>2012-12-22T10:55:54Z</time>
      </trkpt>
      <trkpt lat="42.84196" lon="0.05424">
        <ele>1870</ele>
        <time>2012-12-22T10:55:57Z</time>
      </trkpt>
      <trkpt lat="42.84194" lon="0.05426">
        <ele>1870</ele>
        <time>2012-12-22T10:56:00Z</time>
      </trkpt>
      <trkpt lat="42.84193" lon="0.05426">
        <ele>1870</ele>
        <time>2012-12-22T10:56:02Z</time>
      </trkpt>
      <trkpt lat="42.84192" lon="0.05427">
        <ele>1870</ele>
        <time>2012-12-22T10:56:04Z</time>
      </trkpt>
      <trkpt lat="42.8419" lon="0.05427">
        <ele>1870</ele>
        <time>2012-12-22T10:56:06Z</time>
      </trkpt>
      <trkpt lat="42.84189" lon="0.05427">
        <ele>1871</ele>
        <time>2012-12-22T10:56:08Z</time>
      </trkpt>
      <trkpt lat="42.84188" lon="0.05429">
        <ele>1872</ele>
        <time>2012-12-22T10:56:10Z</time>
      </trkpt>
      <trkpt lat="42.84187" lon="0.0543">
        <ele>1872</ele>
        <time>2012-12-22T10:56:13Z</time>
      </trkpt>
      <trkpt lat="42.84186" lon="0.05432">
        <ele>1872</ele>
        <time>2012-12-22T10:56:16Z</time>
      </trkpt>
      <trkpt lat="42.84185" lon="0.05433">
        <ele>1872</ele>
        <time>2012-12-22T10:56:20Z</time>
      </trkpt>
      <trkpt lat="42.84184" lon="0.05435">
        <ele>1872</ele>
        <time>2012-12-22T10:56:23Z</time>
      </trkpt>
      <trkpt lat="42.84183" lon="0.05436">
        <ele>1872</ele>
        <time>2012-12-22T10:56:26Z</time>
      </trkpt>
      <trkpt lat="42.84182" lon="0.05438">
        <ele>1872</ele>
        <time>2012-12-22T10:56:29Z</time>
      </trkpt>
      <trkpt lat="42.8418" lon="0.05439">
        <ele>1872</ele>
        <time>2012-12-22T10:56:31Z</time>
      </trkpt>
      <trkpt lat="42.84179" lon="0.05441">
        <ele>1872</ele>
        <time>2012-12-22T10:56:34Z</time>
      </trkpt>
      <trkpt lat="42.84178" lon="0.05442">
        <ele>1872</ele>
        <time>2012-12-22T10:56:37Z</time>
      </trkpt>
      <trkpt lat="42.84177" lon="0.05444">
        <ele>1872</ele>
        <time>2012-12-22T10:56:40Z</time>
      </trkpt>
      <trkpt lat="42.84176" lon="0.05446">
        <ele>1872</ele>
        <time>2012-12-22T10:56:43Z</time>
      </trkpt>
      <trkpt lat="42.84174" lon="0.05447">
        <ele>1873</ele>
        <time>2012-12-22T10:56:46Z</time>
      </trkpt>
      <trkpt lat="42.84174" lon="0.05449">
        <ele>1873</ele>
        <time>2012-12-22T10:56:48Z</time>
      </trkpt>
      <trkpt lat="42.84172" lon="0.05451">
        <ele>1873</ele>
        <time>2012-12-22T10:56:51Z</time>
      </trkpt>
      <trkpt lat="42.84171" lon="0.05453">
        <ele>1873</ele>
        <time>2012-12-22T10:56:54Z</time>
      </trkpt>
      <trkpt lat="42.8417" lon="0.05454">
        <ele>1873</ele>
        <time>2012-12-22T10:56:57Z</time>
      </trkpt>
      <trkpt lat="42.84169" lon="0.05456">
        <ele>1873</ele>
        <time>2012-12-22T10:56:59Z</time>
      </trkpt>
      <trkpt lat="42.84168" lon="0.05457">
        <ele>1874</ele>
        <time>2012-12-22T10:57:02Z</time>
      </trkpt>
      <trkpt lat="42.84167" lon="0.05459">
        <ele>1874</ele>
        <time>2012-12-22T10:57:05Z</time>
      </trkpt>
      <trkpt lat="42.84166" lon="0.0546">
        <ele>1874</ele>
        <time>2012-12-22T10:57:08Z</time>
      </trkpt>
      <trkpt lat="42.84165" lon="0.05462">
        <ele>1874</ele>
        <time>2012-12-22T10:57:11Z</time>
      </trkpt>
      <trkpt lat="42.84164" lon="0.05464">
        <ele>1874</ele>
        <time>2012-12-22T10:57:14Z</time>
      </trkpt>
      <trkpt lat="42.84163" lon="0.05465">
        <ele>1874</ele>
        <time>2012-12-22T10:57:17Z</time>
      </trkpt>
      <trkpt lat="42.84161" lon="0.05466">
        <ele>1875</ele>
        <time>2012-12-22T10:57:20Z</time>
      </trkpt>
      <trkpt lat="42.8416" lon="0.05468">
        <ele>1875</ele>
        <time>2012-12-22T10:57:24Z</time>
      </trkpt>
      <trkpt lat="42.84159" lon="0.05469">
        <ele>1876</ele>
        <time>2012-12-22T10:57:28Z</time>
      </trkpt>
      <trkpt lat="42.84158" lon="0.05471">
        <ele>1877</ele>
        <time>2012-12-22T10:57:31Z</time>
      </trkpt>
      <trkpt lat="42.84156" lon="0.05472">
        <ele>1877</ele>
        <time>2012-12-22T10:57:35Z</time>
      </trkpt>
      <trkpt lat="42.84155" lon="0.05474">
        <ele>1877</ele>
        <time>2012-12-22T10:57:39Z</time>
      </trkpt>
      <trkpt lat="42.84153" lon="0.05474">
        <ele>1878</ele>
        <time>2012-12-22T10:57:42Z</time>
      </trkpt>
      <trkpt lat="42.84152" lon="0.05475">
        <ele>1878</ele>
        <time>2012-12-22T10:57:45Z</time>
      </trkpt>
      <trkpt lat="42.84151" lon="0.05477">
        <ele>1879</ele>
        <time>2012-12-22T10:57:50Z</time>
      </trkpt>
      <trkpt lat="42.84149" lon="0.05477">
        <ele>1879</ele>
        <time>2012-12-22T10:57:52Z</time>
      </trkpt>
      <trkpt lat="42.84148" lon="0.05477">
        <ele>1880</ele>
        <time>2012-12-22T10:57:55Z</time>
      </trkpt>
      <trkpt lat="42.84146" lon="0.05477">
        <ele>1881</ele>
        <time>2012-12-22T10:57:58Z</time>
      </trkpt>
      <trkpt lat="42.84145" lon="0.05478">
        <ele>1881</ele>
        <time>2012-12-22T10:58:01Z</time>
      </trkpt>
      <trkpt lat="42.84143" lon="0.05478">
        <ele>1882</ele>
        <time>2012-12-22T10:58:03Z</time>
      </trkpt>
      <trkpt lat="42.84142" lon="0.05479">
        <ele>1882</ele>
        <time>2012-12-22T10:58:06Z</time>
      </trkpt>
      <trkpt lat="42.8414" lon="0.05479">
        <ele>1883</ele>
        <time>2012-12-22T10:58:09Z</time>
      </trkpt>
      <trkpt lat="42.84139" lon="0.0548">
        <ele>1883</ele>
        <time>2012-12-22T10:58:12Z</time>
      </trkpt>
      <trkpt lat="42.84137" lon="0.0548">
        <ele>1884</ele>
        <time>2012-12-22T10:58:15Z</time>
      </trkpt>
      <trkpt lat="42.84136" lon="0.05481">
        <ele>1884</ele>
        <time>2012-12-22T10:58:18Z</time>
      </trkpt>
      <trkpt lat="42.84134" lon="0.05481">
        <ele>1884</ele>
        <time>2012-12-22T10:58:21Z</time>
      </trkpt>
      <trkpt lat="42.84133" lon="0.05481">
        <ele>1885</ele>
        <time>2012-12-22T10:58:24Z</time>
      </trkpt>
      <trkpt lat="42.84131" lon="0.0548">
        <ele>1885</ele>
        <time>2012-12-22T10:58:28Z</time>
      </trkpt>
      <trkpt lat="42.8413" lon="0.05481">
        <ele>1885</ele>
        <time>2012-12-22T10:58:30Z</time>
      </trkpt>
      <trkpt lat="42.84129" lon="0.05483">
        <ele>1886</ele>
        <time>2012-12-22T10:58:34Z</time>
      </trkpt>
      <trkpt lat="42.84129" lon="0.05485">
        <ele>1886</ele>
        <time>2012-12-22T10:58:37Z</time>
      </trkpt>
      <trkpt lat="42.84129" lon="0.05487">
        <ele>1887</ele>
        <time>2012-12-22T10:58:40Z</time>
      </trkpt>
      <trkpt lat="42.84129" lon="0.05488">
        <ele>1887</ele>
        <time>2012-12-22T10:58:43Z</time>
      </trkpt>
      <trkpt lat="42.84129" lon="0.05491">
        <ele>1887</ele>
        <time>2012-12-22T10:58:46Z</time>
      </trkpt>
      <trkpt lat="42.8413" lon="0.05492">
        <ele>1887</ele>
        <time>2012-12-22T10:58:49Z</time>
      </trkpt>
      <trkpt lat="42.8413" lon="0.05494">
        <ele>1887</ele>
        <time>2012-12-22T10:58:52Z</time>
      </trkpt>
      <trkpt lat="42.84131" lon="0.05496">
        <ele>1887</ele>
        <time>2012-12-22T10:58:55Z</time>
      </trkpt>
      <trkpt lat="42.84132" lon="0.05497">
        <ele>1887</ele>
        <time>2012-12-22T10:58:58Z</time>
      </trkpt>
      <trkpt lat="42.84133" lon="0.05499">
        <ele>1888</ele>
        <time>2012-12-22T10:59:01Z</time>
      </trkpt>
      <trkpt lat="42.84134" lon="0.05501">
        <ele>1889</ele>
        <time>2012-12-22T10:59:04Z</time>
      </trkpt>
      <trkpt lat="42.84135" lon="0.05503">
        <ele>1889</ele>
        <time>2012-12-22T10:59:07Z</time>
      </trkpt>
      <trkpt lat="42.84136" lon="0.05504">
        <ele>1890</ele>
        <time>2012-12-22T10:59:10Z</time>
      </trkpt>
      <trkpt lat="42.84136" lon="0.05506">
        <ele>1890</ele>
        <time>2012-12-22T10:59:12Z</time>
      </trkpt>
      <trkpt lat="42.84137" lon="0.05507">
        <ele>1891</ele>
        <time>2012-12-22T10:59:14Z</time>
      </trkpt>
      <trkpt lat="42.84137" lon="0.05509">
        <ele>1892</ele>
        <time>2012-12-22T10:59:17Z</time>
      </trkpt>
      <trkpt lat="42.84138" lon="0.0551">
        <ele>1892</ele>
        <time>2012-12-22T10:59:19Z</time>
      </trkpt>
      <trkpt lat="42.84138" lon="0.05512">
        <ele>1893</ele>
        <time>2012-12-22T10:59:21Z</time>
      </trkpt>
      <trkpt lat="42.84139" lon="0.05514">
        <ele>1894</ele>
        <time>2012-12-22T10:59:23Z</time>
      </trkpt>
      <trkpt lat="42.84139" lon="0.05516">
        <ele>1895</ele>
        <time>2012-12-22T10:59:25Z</time>
      </trkpt>
      <trkpt lat="42.8414" lon="0.05517">
        <ele>1896</ele>
        <time>2012-12-22T10:59:28Z</time>
      </trkpt>
      <trkpt lat="42.84141" lon="0.05519">
        <ele>1897</ele>
        <time>2012-12-22T10:59:31Z</time>
      </trkpt>
      <trkpt lat="42.8414" lon="0.05519">
        <ele>1897</ele>
        <time>2012-12-22T10:59:36Z</time>
      </trkpt>
      <trkpt lat="42.84138" lon="0.05519">
        <ele>1897</ele>
        <time>2012-12-22T10:59:38Z</time>
      </trkpt>
      <trkpt lat="42.84137" lon="0.05519">
        <ele>1897</ele>
        <time>2012-12-22T10:59:40Z</time>
      </trkpt>
      <trkpt lat="42.84136" lon="0.05519">
        <ele>1897</ele>
        <time>2012-12-22T10:59:43Z</time>
      </trkpt>
      <trkpt lat="42.84135" lon="0.05519">
        <ele>1897</ele>
        <time>2012-12-22T10:59:46Z</time>
      </trkpt>
      <trkpt lat="42.84134" lon="0.05519">
        <ele>1897</ele>
        <time>2012-12-22T10:59:48Z</time>
      </trkpt>
      <trkpt lat="42.84132" lon="0.05519">
        <ele>1897</ele>
        <time>2012-12-22T10:59:50Z</time>
      </trkpt>
      <trkpt lat="42.84131" lon="0.05519">
        <ele>1897</ele>
        <time>2012-12-22T10:59:53Z</time>
      </trkpt>
      <trkpt lat="42.84129" lon="0.05519">
        <ele>1897</ele>
        <time>2012-12-22T10:59:55Z</time>
      </trkpt>
      <trkpt lat="42.84128" lon="0.05519">
        <ele>1897</ele>
        <time>2012-12-22T10:59:57Z</time>
      </trkpt>
      <trkpt lat="42.84127" lon="0.05519">
        <ele>1897</ele>
        <time>2012-12-22T10:59:59Z</time>
      </trkpt>
      <trkpt lat="42.84125" lon="0.05519">
        <ele>1897</ele>
        <time>2012-12-22T11:00:02Z</time>
      </trkpt>
      <trkpt lat="42.84124" lon="0.05519">
        <ele>1897</ele>
        <time>2012-12-22T11:00:04Z</time>
      </trkpt>
      <trkpt lat="42.84122" lon="0.0552">
        <ele>1897</ele>
        <time>2012-12-22T11:00:06Z</time>
      </trkpt>
      <trkpt lat="42.84121" lon="0.0552">
        <ele>1897</ele>
        <time>2012-12-22T11:00:08Z</time>
      </trkpt>
      <trkpt lat="42.8412" lon="0.0552">
        <ele>1897</ele>
        <time>2012-12-22T11:00:10Z</time>
      </trkpt>
      <trkpt lat="42.84118" lon="0.0552">
        <ele>1897</ele>
        <time>2012-12-22T11:00:12Z</time>
      </trkpt>
      <trkpt lat="42.84117" lon="0.0552">
        <ele>1897</ele>
        <time>2012-12-22T11:00:14Z</time>
      </trkpt>
      <trkpt lat="42.84115" lon="0.0552">
        <ele>1897</ele>
        <time>2012-12-22T11:00:16Z</time>
      </trkpt>
      <trkpt lat="42.84114" lon="0.0552">
        <ele>1897</ele>
        <time>2012-12-22T11:00:19Z</time>
      </trkpt>
      <trkpt lat="42.84113" lon="0.0552">
        <ele>1897</ele>
        <time>2012-12-22T11:00:20Z</time>
      </trkpt>
      <trkpt lat="42.84111" lon="0.05521">
        <ele>1897</ele>
        <time>2012-12-22T11:00:22Z</time>
      </trkpt>
      <trkpt lat="42.8411" lon="0.05521">
        <ele>1897</ele>
        <time>2012-12-22T11:00:25Z</time>
      </trkpt>
      <trkpt lat="42.84108" lon="0.05522">
        <ele>1898</ele>
        <time>2012-12-22T11:00:28Z</time>
      </trkpt>
      <trkpt lat="42.84107" lon="0.05522">
        <ele>1898</ele>
        <time>2012-12-22T11:00:31Z</time>
      </trkpt>
      <trkpt lat="42.84106" lon="0.05523">
        <ele>1898</ele>
        <time>2012-12-22T11:00:36Z</time>
      </trkpt>
      <trkpt lat="42.84105" lon="0.05525">
        <ele>1898</ele>
        <time>2012-12-22T11:00:39Z</time>
      </trkpt>
      <trkpt lat="42.84105" lon="0.05527">
        <ele>1898</ele>
        <time>2012-12-22T11:00:41Z</time>
      </trkpt>
      <trkpt lat="42.84105" lon="0.05528">
        <ele>1898</ele>
        <time>2012-12-22T11:00:43Z</time>
      </trkpt>
      <trkpt lat="42.84106" lon="0.0553">
        <ele>1899</ele>
        <time>2012-12-22T11:00:46Z</time>
      </trkpt>
      <trkpt lat="42.84107" lon="0.05533">
        <ele>1899</ele>
        <time>2012-12-22T11:00:49Z</time>
      </trkpt>
      <trkpt lat="42.84108" lon="0.05534">
        <ele>1899</ele>
        <time>2012-12-22T11:00:52Z</time>
      </trkpt>
      <trkpt lat="42.84108" lon="0.05536">
        <ele>1899</ele>
        <time>2012-12-22T11:00:54Z</time>
      </trkpt>
      <trkpt lat="42.84109" lon="0.05538">
        <ele>1900</ele>
        <time>2012-12-22T11:00:56Z</time>
      </trkpt>
      <trkpt lat="42.84109" lon="0.05539">
        <ele>1900</ele>
        <time>2012-12-22T11:00:59Z</time>
      </trkpt>
      <trkpt lat="42.8411" lon="0.05541">
        <ele>1901</ele>
        <time>2012-12-22T11:01:03Z</time>
      </trkpt>
      <trkpt lat="42.84109" lon="0.05542">
        <ele>1902</ele>
        <time>2012-12-22T11:01:09Z</time>
      </trkpt>
      <trkpt lat="42.84107" lon="0.05541">
        <ele>1902</ele>
        <time>2012-12-22T11:01:11Z</time>
      </trkpt>
      <trkpt lat="42.84106" lon="0.05541">
        <ele>1902</ele>
        <time>2012-12-22T11:01:13Z</time>
      </trkpt>
      <trkpt lat="42.84105" lon="0.0554">
        <ele>1902</ele>
        <time>2012-12-22T11:01:15Z</time>
      </trkpt>
      <trkpt lat="42.84103" lon="0.0554">
        <ele>1902</ele>
        <time>2012-12-22T11:01:17Z</time>
      </trkpt>
      <trkpt lat="42.84101" lon="0.05539">
        <ele>1902</ele>
        <time>2012-12-22T11:01:19Z</time>
      </trkpt>
      <trkpt lat="42.841" lon="0.05539">
        <ele>1902</ele>
        <time>2012-12-22T11:01:21Z</time>
      </trkpt>
      <trkpt lat="42.84099" lon="0.05539">
        <ele>1902</ele>
        <time>2012-12-22T11:01:24Z</time>
      </trkpt>
      <trkpt lat="42.84097" lon="0.05539">
        <ele>1902</ele>
        <time>2012-12-22T11:01:27Z</time>
      </trkpt>
      <trkpt lat="42.84096" lon="0.0554">
        <ele>1902</ele>
        <time>2012-12-22T11:01:29Z</time>
      </trkpt>
      <trkpt lat="42.84095" lon="0.0554">
        <ele>1902</ele>
        <time>2012-12-22T11:01:31Z</time>
      </trkpt>
      <trkpt lat="42.84093" lon="0.0554">
        <ele>1902</ele>
        <time>2012-12-22T11:01:34Z</time>
      </trkpt>
      <trkpt lat="42.84092" lon="0.05541">
        <ele>1902</ele>
        <time>2012-12-22T11:01:37Z</time>
      </trkpt>
      <trkpt lat="42.84091" lon="0.05541">
        <ele>1902</ele>
        <time>2012-12-22T11:01:39Z</time>
      </trkpt>
      <trkpt lat="42.8409" lon="0.05542">
        <ele>1902</ele>
        <time>2012-12-22T11:01:42Z</time>
      </trkpt>
      <trkpt lat="42.84088" lon="0.05542">
        <ele>1902</ele>
        <time>2012-12-22T11:01:45Z</time>
      </trkpt>
      <trkpt lat="42.84087" lon="0.05542">
        <ele>1903</ele>
        <time>2012-12-22T11:01:48Z</time>
      </trkpt>
      <trkpt lat="42.84085" lon="0.05542">
        <ele>1903</ele>
        <time>2012-12-22T11:01:52Z</time>
      </trkpt>
      <trkpt lat="42.84086" lon="0.05544">
        <ele>1903</ele>
        <time>2012-12-22T11:01:58Z</time>
      </trkpt>
      <trkpt lat="42.84087" lon="0.05545">
        <ele>1904</ele>
        <time>2012-12-22T11:02:02Z</time>
      </trkpt>
      <trkpt lat="42.84088" lon="0.05547">
        <ele>1905</ele>
        <time>2012-12-22T11:02:05Z</time>
      </trkpt>
      <trkpt lat="42.84089" lon="0.05549">
        <ele>1905</ele>
        <time>2012-12-22T11:02:08Z</time>
      </trkpt>
      <trkpt lat="42.8409" lon="0.0555">
        <ele>1906</ele>
        <time>2012-12-22T11:02:10Z</time>
      </trkpt>
      <trkpt lat="42.84091" lon="0.05552">
        <ele>1906</ele>
        <time>2012-12-22T11:02:13Z</time>
      </trkpt>
      <trkpt lat="42.84092" lon="0.05554">
        <ele>1907</ele>
        <time>2012-12-22T11:02:17Z</time>
      </trkpt>
      <trkpt lat="42.84093" lon="0.05556">
        <ele>1907</ele>
        <time>2012-12-22T11:02:19Z</time>
      </trkpt>
      <trkpt lat="42.84093" lon="0.05558">
        <ele>1908</ele>
        <time>2012-12-22T11:02:21Z</time>
      </trkpt>
      <trkpt lat="42.84094" lon="0.05559">
        <ele>1908</ele>
        <time>2012-12-22T11:02:24Z</time>
      </trkpt>
      <trkpt lat="42.84095" lon="0.05562">
        <ele>1909</ele>
        <time>2012-12-22T11:02:28Z</time>
      </trkpt>
      <trkpt lat="42.84097" lon="0.05563">
        <ele>1909</ele>
        <time>2012-12-22T11:02:31Z</time>
      </trkpt>
      <trkpt lat="42.84095" lon="0.05562">
        <ele>1910</ele>
        <time>2012-12-22T11:02:52Z</time>
      </trkpt>
      <trkpt lat="42.84094" lon="0.05562">
        <ele>1910</ele>
        <time>2012-12-22T11:02:54Z</time>
      </trkpt>
      <trkpt lat="42.84092" lon="0.05562">
        <ele>1910</ele>
        <time>2012-12-22T11:02:56Z</time>
      </trkpt>
      <trkpt lat="42.84091" lon="0.05562">
        <ele>1910</ele>
        <time>2012-12-22T11:02:58Z</time>
      </trkpt>
      <trkpt lat="42.8409" lon="0.05562">
        <ele>1910</ele>
        <time>2012-12-22T11:03:00Z</time>
      </trkpt>
      <trkpt lat="42.84088" lon="0.05562">
        <ele>1911</ele>
        <time>2012-12-22T11:03:02Z</time>
      </trkpt>
      <trkpt lat="42.84087" lon="0.05562">
        <ele>1911</ele>
        <time>2012-12-22T11:03:04Z</time>
      </trkpt>
      <trkpt lat="42.84085" lon="0.05563">
        <ele>1912</ele>
        <time>2012-12-22T11:03:06Z</time>
      </trkpt>
      <trkpt lat="42.84084" lon="0.05563">
        <ele>1912</ele>
        <time>2012-12-22T11:03:08Z</time>
      </trkpt>
      <trkpt lat="42.84083" lon="0.05564">
        <ele>1913</ele>
        <time>2012-12-22T11:03:10Z</time>
      </trkpt>
      <trkpt lat="42.84082" lon="0.05565">
        <ele>1914</ele>
        <time>2012-12-22T11:03:13Z</time>
      </trkpt>
      <trkpt lat="42.84081" lon="0.05567">
        <ele>1915</ele>
        <time>2012-12-22T11:03:20Z</time>
      </trkpt>
      <trkpt lat="42.84082" lon="0.05568">
        <ele>1916</ele>
        <time>2012-12-22T11:03:27Z</time>
      </trkpt>
      <trkpt lat="42.84083" lon="0.0557">
        <ele>1916</ele>
        <time>2012-12-22T11:03:30Z</time>
      </trkpt>
      <trkpt lat="42.84084" lon="0.0557">
        <ele>1917</ele>
        <time>2012-12-22T11:03:32Z</time>
      </trkpt>
      <trkpt lat="42.84085" lon="0.05572">
        <ele>1918</ele>
        <time>2012-12-22T11:03:34Z</time>
      </trkpt>
      <trkpt lat="42.84087" lon="0.05573">
        <ele>1919</ele>
        <time>2012-12-22T11:03:37Z</time>
      </trkpt>
      <trkpt lat="42.84088" lon="0.05575">
        <ele>1920</ele>
        <time>2012-12-22T11:03:39Z</time>
      </trkpt>
      <trkpt lat="42.8409" lon="0.05576">
        <ele>1921</ele>
        <time>2012-12-22T11:03:42Z</time>
      </trkpt>
      <trkpt lat="42.84091" lon="0.05578">
        <ele>1921</ele>
        <time>2012-12-22T11:03:44Z</time>
      </trkpt>
      <trkpt lat="42.84092" lon="0.05579">
        <ele>1922</ele>
        <time>2012-12-22T11:03:47Z</time>
      </trkpt>
      <trkpt lat="42.84093" lon="0.05579">
        <ele>1923</ele>
        <time>2012-12-22T11:03:52Z</time>
      </trkpt>
      <trkpt lat="42.84092" lon="0.05579">
        <ele>1924</ele>
        <time>2012-12-22T11:04:03Z</time>
      </trkpt>
      <trkpt lat="42.8409" lon="0.05579">
        <ele>1924</ele>
        <time>2012-12-22T11:04:05Z</time>
      </trkpt>
      <trkpt lat="42.84089" lon="0.05579">
        <ele>1924</ele>
        <time>2012-12-22T11:04:07Z</time>
      </trkpt>
      <trkpt lat="42.84088" lon="0.0558">
        <ele>1924</ele>
        <time>2012-12-22T11:04:09Z</time>
      </trkpt>
      <trkpt lat="42.84087" lon="0.0558">
        <ele>1924</ele>
        <time>2012-12-22T11:04:11Z</time>
      </trkpt>
      <trkpt lat="42.84086" lon="0.05581">
        <ele>1924</ele>
        <time>2012-12-22T11:04:13Z</time>
      </trkpt>
      <trkpt lat="42.84084" lon="0.05582">
        <ele>1924</ele>
        <time>2012-12-22T11:04:16Z</time>
      </trkpt>
      <trkpt lat="42.84083" lon="0.05582">
        <ele>1924</ele>
        <time>2012-12-22T11:04:18Z</time>
      </trkpt>
      <trkpt lat="42.84081" lon="0.05582">
        <ele>1925</ele>
        <time>2012-12-22T11:04:21Z</time>
      </trkpt>
      <trkpt lat="42.8408" lon="0.05583">
        <ele>1925</ele>
        <time>2012-12-22T11:04:25Z</time>
      </trkpt>
      <trkpt lat="42.84081" lon="0.05584">
        <ele>1925</ele>
        <time>2012-12-22T11:04:31Z</time>
      </trkpt>
      <trkpt lat="42.84083" lon="0.05584">
        <ele>1925</ele>
        <time>2012-12-22T11:04:34Z</time>
      </trkpt>
      <trkpt lat="42.84084" lon="0.05585">
        <ele>1925</ele>
        <time>2012-12-22T11:04:36Z</time>
      </trkpt>
      <trkpt lat="42.84085" lon="0.05586">
        <ele>1925</ele>
        <time>2012-12-22T11:04:38Z</time>
      </trkpt>
      <trkpt lat="42.84086" lon="0.05587">
        <ele>1926</ele>
        <time>2012-12-22T11:04:40Z</time>
      </trkpt>
      <trkpt lat="42.84088" lon="0.05588">
        <ele>1926</ele>
        <time>2012-12-22T11:04:43Z</time>
      </trkpt>
      <trkpt lat="42.8409" lon="0.0559">
        <ele>1926</ele>
        <time>2012-12-22T11:04:46Z</time>
      </trkpt>
      <trkpt lat="42.84089" lon="0.05588">
        <ele>1927</ele>
        <time>2012-12-22T11:04:55Z</time>
      </trkpt>
      <trkpt lat="42.84088" lon="0.05588">
        <ele>1927</ele>
        <time>2012-12-22T11:04:57Z</time>
      </trkpt>
      <trkpt lat="42.84086" lon="0.05588">
        <ele>1927</ele>
        <time>2012-12-22T11:04:59Z</time>
      </trkpt>
      <trkpt lat="42.84085" lon="0.05588">
        <ele>1927</ele>
        <time>2012-12-22T11:05:01Z</time>
      </trkpt>
      <trkpt lat="42.84084" lon="0.05589">
        <ele>1927</ele>
        <time>2012-12-22T11:05:03Z</time>
      </trkpt>
      <trkpt lat="42.84082" lon="0.0559">
        <ele>1927</ele>
        <time>2012-12-22T11:05:05Z</time>
      </trkpt>
      <trkpt lat="42.84081" lon="0.0559">
        <ele>1927</ele>
        <time>2012-12-22T11:05:08Z</time>
      </trkpt>
      <trkpt lat="42.84079" lon="0.05591">
        <ele>1927</ele>
        <time>2012-12-22T11:05:14Z</time>
      </trkpt>
      <trkpt lat="42.84079" lon="0.05593">
        <ele>1927</ele>
        <time>2012-12-22T11:05:19Z</time>
      </trkpt>
      <trkpt lat="42.84078" lon="0.05594">
        <ele>1927</ele>
        <time>2012-12-22T11:05:22Z</time>
      </trkpt>
      <trkpt lat="42.84076" lon="0.05595">
        <ele>1927</ele>
        <time>2012-12-22T11:05:25Z</time>
      </trkpt>
      <trkpt lat="42.84075" lon="0.05596">
        <ele>1927</ele>
        <time>2012-12-22T11:05:28Z</time>
      </trkpt>
      <trkpt lat="42.84074" lon="0.05596">
        <ele>1927</ele>
        <time>2012-12-22T11:05:34Z</time>
      </trkpt>
      <trkpt lat="42.84075" lon="0.05598">
        <ele>1927</ele>
        <time>2012-12-22T11:05:43Z</time>
      </trkpt>
      <trkpt lat="42.84076" lon="0.05598">
        <ele>1928</ele>
        <time>2012-12-22T11:05:45Z</time>
      </trkpt>
      <trkpt lat="42.84077" lon="0.05599">
        <ele>1928</ele>
        <time>2012-12-22T11:05:47Z</time>
      </trkpt>
      <trkpt lat="42.84078" lon="0.056">
        <ele>1929</ele>
        <time>2012-12-22T11:05:49Z</time>
      </trkpt>
      <trkpt lat="42.84079" lon="0.05601">
        <ele>1930</ele>
        <time>2012-12-22T11:05:52Z</time>
      </trkpt>
      <trkpt lat="42.84081" lon="0.05601">
        <ele>1931</ele>
        <time>2012-12-22T11:05:57Z</time>
      </trkpt>
      <trkpt lat="42.8408" lon="0.05603">
        <ele>1934</ele>
        <time>2012-12-22T11:06:09Z</time>
      </trkpt>
      <trkpt lat="42.84079" lon="0.05603">
        <ele>1935</ele>
        <time>2012-12-22T11:06:11Z</time>
      </trkpt>
      <trkpt lat="42.84077" lon="0.05605">
        <ele>1937</ele>
        <time>2012-12-22T11:06:15Z</time>
      </trkpt>
      <trkpt lat="42.84076" lon="0.05606">
        <ele>1937</ele>
        <time>2012-12-22T11:06:18Z</time>
      </trkpt>
      <trkpt lat="42.84074" lon="0.05606">
        <ele>1938</ele>
        <time>2012-12-22T11:06:20Z</time>
      </trkpt>
      <trkpt lat="42.84072" lon="0.05607">
        <ele>1938</ele>
        <time>2012-12-22T11:06:23Z</time>
      </trkpt>
      <trkpt lat="42.84071" lon="0.05608">
        <ele>1939</ele>
        <time>2012-12-22T11:06:25Z</time>
      </trkpt>
      <trkpt lat="42.8407" lon="0.05609">
        <ele>1939</ele>
        <time>2012-12-22T11:06:28Z</time>
      </trkpt>
      <trkpt lat="42.84068" lon="0.0561">
        <ele>1940</ele>
        <time>2012-12-22T11:06:31Z</time>
      </trkpt>
      <trkpt lat="42.84067" lon="0.05612">
        <ele>1940</ele>
        <time>2012-12-22T11:06:34Z</time>
      </trkpt>
      <trkpt lat="42.84066" lon="0.05613">
        <ele>1940</ele>
        <time>2012-12-22T11:06:36Z</time>
      </trkpt>
      <trkpt lat="42.84064" lon="0.05613">
        <ele>1941</ele>
        <time>2012-12-22T11:06:38Z</time>
      </trkpt>
      <trkpt lat="42.84063" lon="0.05615">
        <ele>1941</ele>
        <time>2012-12-22T11:06:41Z</time>
      </trkpt>
      <trkpt lat="42.84062" lon="0.05617">
        <ele>1942</ele>
        <time>2012-12-22T11:06:44Z</time>
      </trkpt>
      <trkpt lat="42.84061" lon="0.05618">
        <ele>1942</ele>
        <time>2012-12-22T11:06:47Z</time>
      </trkpt>
      <trkpt lat="42.84059" lon="0.05618">
        <ele>1942</ele>
        <time>2012-12-22T11:06:52Z</time>
      </trkpt>
      <trkpt lat="42.84061" lon="0.05619">
        <ele>1942</ele>
        <time>2012-12-22T11:06:59Z</time>
      </trkpt>
      <trkpt lat="42.84062" lon="0.0562">
        <ele>1942</ele>
        <time>2012-12-22T11:07:02Z</time>
      </trkpt>
      <trkpt lat="42.84063" lon="0.05621">
        <ele>1942</ele>
        <time>2012-12-22T11:07:04Z</time>
      </trkpt>
      <trkpt lat="42.84065" lon="0.05621">
        <ele>1942</ele>
        <time>2012-12-22T11:07:06Z</time>
      </trkpt>
      <trkpt lat="42.84066" lon="0.05622">
        <ele>1942</ele>
        <time>2012-12-22T11:07:08Z</time>
      </trkpt>
      <trkpt lat="42.84067" lon="0.05622">
        <ele>1942</ele>
        <time>2012-12-22T11:07:10Z</time>
      </trkpt>
      <trkpt lat="42.84069" lon="0.05623">
        <ele>1942</ele>
        <time>2012-12-22T11:07:13Z</time>
      </trkpt>
      <trkpt lat="42.8407" lon="0.05624">
        <ele>1943</ele>
        <time>2012-12-22T11:07:15Z</time>
      </trkpt>
      <trkpt lat="42.84071" lon="0.05625">
        <ele>1944</ele>
        <time>2012-12-22T11:07:18Z</time>
      </trkpt>
      <trkpt lat="42.84073" lon="0.05626">
        <ele>1945</ele>
        <time>2012-12-22T11:07:22Z</time>
      </trkpt>
      <trkpt lat="42.84074" lon="0.05626">
        <ele>1945</ele>
        <time>2012-12-22T11:07:37Z</time>
      </trkpt>
      <trkpt lat="42.84075" lon="0.05626">
        <ele>1945</ele>
        <time>2012-12-22T11:07:40Z</time>
      </trkpt>
      <trkpt lat="42.84075" lon="0.05628">
        <ele>1946</ele>
        <time>2012-12-22T11:07:50Z</time>
      </trkpt>
      <trkpt lat="42.84073" lon="0.05629">
        <ele>1946</ele>
        <time>2012-12-22T11:07:53Z</time>
      </trkpt>
      <trkpt lat="42.84072" lon="0.0563">
        <ele>1946</ele>
        <time>2012-12-22T11:07:56Z</time>
      </trkpt>
      <trkpt lat="42.8407" lon="0.05631">
        <ele>1947</ele>
        <time>2012-12-22T11:07:59Z</time>
      </trkpt>
      <trkpt lat="42.84069" lon="0.05631">
        <ele>1947</ele>
        <time>2012-12-22T11:08:01Z</time>
      </trkpt>
      <trkpt lat="42.84068" lon="0.05632">
        <ele>1948</ele>
        <time>2012-12-22T11:08:03Z</time>
      </trkpt>
      <trkpt lat="42.84067" lon="0.05633">
        <ele>1949</ele>
        <time>2012-12-22T11:08:06Z</time>
      </trkpt>
      <trkpt lat="42.84065" lon="0.05634">
        <ele>1949</ele>
        <time>2012-12-22T11:08:08Z</time>
      </trkpt>
      <trkpt lat="42.84064" lon="0.05635">
        <ele>1950</ele>
        <time>2012-12-22T11:08:10Z</time>
      </trkpt>
      <trkpt lat="42.84063" lon="0.05636">
        <ele>1950</ele>
        <time>2012-12-22T11:08:13Z</time>
      </trkpt>
      <trkpt lat="42.84062" lon="0.05637">
        <ele>1950</ele>
        <time>2012-12-22T11:08:16Z</time>
      </trkpt>
      <trkpt lat="42.8406" lon="0.05638">
        <ele>1950</ele>
        <time>2012-12-22T11:08:19Z</time>
      </trkpt>
      <trkpt lat="42.84058" lon="0.05639">
        <ele>1951</ele>
        <time>2012-12-22T11:08:22Z</time>
      </trkpt>
      <trkpt lat="42.84057" lon="0.0564">
        <ele>1951</ele>
        <time>2012-12-22T11:08:24Z</time>
      </trkpt>
      <trkpt lat="42.84057" lon="0.05641">
        <ele>1951</ele>
        <time>2012-12-22T11:08:33Z</time>
      </trkpt>
      <trkpt lat="42.84058" lon="0.05642">
        <ele>1951</ele>
        <time>2012-12-22T11:08:36Z</time>
      </trkpt>
      <trkpt lat="42.8406" lon="0.05643">
        <ele>1952</ele>
        <time>2012-12-22T11:08:42Z</time>
      </trkpt>
      <trkpt lat="42.84061" lon="0.05644">
        <ele>1952</ele>
        <time>2012-12-22T11:08:44Z</time>
      </trkpt>
      <trkpt lat="42.84062" lon="0.05645">
        <ele>1952</ele>
        <time>2012-12-22T11:08:46Z</time>
      </trkpt>
      <trkpt lat="42.84064" lon="0.05646">
        <ele>1952</ele>
        <time>2012-12-22T11:08:49Z</time>
      </trkpt>
      <trkpt lat="42.84065" lon="0.05645">
        <ele>1952</ele>
        <time>2012-12-22T11:08:52Z</time>
      </trkpt>
      <trkpt lat="42.84067" lon="0.05645">
        <ele>1953</ele>
        <time>2012-12-22T11:08:55Z</time>
      </trkpt>
      <trkpt lat="42.84068" lon="0.05646">
        <ele>1953</ele>
        <time>2012-12-22T11:08:57Z</time>
      </trkpt>
      <trkpt lat="42.84067" lon="0.05646">
        <ele>1954</ele>
        <time>2012-12-22T11:09:17Z</time>
      </trkpt>
      <trkpt lat="42.84066" lon="0.05647">
        <ele>1954</ele>
        <time>2012-12-22T11:09:20Z</time>
      </trkpt>
      <trkpt lat="42.84064" lon="0.05649">
        <ele>1954</ele>
        <time>2012-12-22T11:09:23Z</time>
      </trkpt>
      <trkpt lat="42.84063" lon="0.05649">
        <ele>1954</ele>
        <time>2012-12-22T11:09:25Z</time>
      </trkpt>
      <trkpt lat="42.84062" lon="0.0565">
        <ele>1954</ele>
        <time>2012-12-22T11:09:28Z</time>
      </trkpt>
      <trkpt lat="42.84061" lon="0.05651">
        <ele>1954</ele>
        <time>2012-12-22T11:09:30Z</time>
      </trkpt>
      <trkpt lat="42.84059" lon="0.05652">
        <ele>1954</ele>
        <time>2012-12-22T11:09:32Z</time>
      </trkpt>
      <trkpt lat="42.84058" lon="0.05653">
        <ele>1954</ele>
        <time>2012-12-22T11:09:35Z</time>
      </trkpt>
      <trkpt lat="42.84056" lon="0.05654">
        <ele>1954</ele>
        <time>2012-12-22T11:09:37Z</time>
      </trkpt>
      <trkpt lat="42.84055" lon="0.05654">
        <ele>1954</ele>
        <time>2012-12-22T11:09:40Z</time>
      </trkpt>
      <trkpt lat="42.84056" lon="0.05655">
        <ele>1955</ele>
        <time>2012-12-22T11:09:52Z</time>
      </trkpt>
      <trkpt lat="42.84058" lon="0.05656">
        <ele>1956</ele>
        <time>2012-12-22T11:09:55Z</time>
      </trkpt>
      <trkpt lat="42.84059" lon="0.05656">
        <ele>1956</ele>
        <time>2012-12-22T11:09:58Z</time>
      </trkpt>
      <trkpt lat="42.84061" lon="0.05656">
        <ele>1957</ele>
        <time>2012-12-22T11:10:01Z</time>
      </trkpt>
      <trkpt lat="42.84062" lon="0.05657">
        <ele>1958</ele>
        <time>2012-12-22T11:10:04Z</time>
      </trkpt>
      <trkpt lat="42.84064" lon="0.05657">
        <ele>1958</ele>
        <time>2012-12-22T11:10:07Z</time>
      </trkpt>
      <trkpt lat="42.84062" lon="0.05658">
        <ele>1960</ele>
        <time>2012-12-22T11:10:24Z</time>
      </trkpt>
      <trkpt lat="42.84061" lon="0.0566">
        <ele>1960</ele>
        <time>2012-12-22T11:10:27Z</time>
      </trkpt>
      <trkpt lat="42.8406" lon="0.0566">
        <ele>1960</ele>
        <time>2012-12-22T11:10:29Z</time>
      </trkpt>
      <trkpt lat="42.84058" lon="0.05661">
        <ele>1960</ele>
        <time>2012-12-22T11:10:34Z</time>
      </trkpt>
      <trkpt lat="42.84057" lon="0.05661">
        <ele>1960</ele>
        <time>2012-12-22T11:10:37Z</time>
      </trkpt>
      <trkpt lat="42.84056" lon="0.05663">
        <ele>1960</ele>
        <time>2012-12-22T11:10:40Z</time>
      </trkpt>
      <trkpt lat="42.84054" lon="0.05664">
        <ele>1960</ele>
        <time>2012-12-22T11:10:43Z</time>
      </trkpt>
      <trkpt lat="42.84055" lon="0.05665">
        <ele>1960</ele>
        <time>2012-12-22T11:10:53Z</time>
      </trkpt>
      <trkpt lat="42.84057" lon="0.05665">
        <ele>1960</ele>
        <time>2012-12-22T11:10:55Z</time>
      </trkpt>
      <trkpt lat="42.84058" lon="0.05665">
        <ele>1961</ele>
        <time>2012-12-22T11:10:58Z</time>
      </trkpt>
      <trkpt lat="42.8406" lon="0.05665">
        <ele>1962</ele>
        <time>2012-12-22T11:11:01Z</time>
      </trkpt>
      <trkpt lat="42.84061" lon="0.05665">
        <ele>1962</ele>
        <time>2012-12-22T11:11:03Z</time>
      </trkpt>
      <trkpt lat="42.84062" lon="0.05665">
        <ele>1963</ele>
        <time>2012-12-22T11:11:05Z</time>
      </trkpt>
      <trkpt lat="42.84063" lon="0.05664">
        <ele>1963</ele>
        <time>2012-12-22T11:11:07Z</time>
      </trkpt>
      <trkpt lat="42.84065" lon="0.05664">
        <ele>1963</ele>
        <time>2012-12-22T11:11:10Z</time>
      </trkpt>
      <trkpt lat="42.84064" lon="0.05666">
        <ele>1963</ele>
        <time>2012-12-22T11:11:31Z</time>
      </trkpt>
      <trkpt lat="42.84062" lon="0.05667">
        <ele>1963</ele>
        <time>2012-12-22T11:11:35Z</time>
      </trkpt>
      <trkpt lat="42.84061" lon="0.05669">
        <ele>1963</ele>
        <time>2012-12-22T11:11:39Z</time>
      </trkpt>
      <trkpt lat="42.8406" lon="0.05669">
        <ele>1963</ele>
        <time>2012-12-22T11:11:41Z</time>
      </trkpt>
      <trkpt lat="42.84059" lon="0.0567">
        <ele>1963</ele>
        <time>2012-12-22T11:11:43Z</time>
      </trkpt>
      <trkpt lat="42.84058" lon="0.05671">
        <ele>1963</ele>
        <time>2012-12-22T11:11:45Z</time>
      </trkpt>
      <trkpt lat="42.84056" lon="0.05672">
        <ele>1963</ele>
        <time>2012-12-22T11:11:48Z</time>
      </trkpt>
      <trkpt lat="42.84054" lon="0.05673">
        <ele>1963</ele>
        <time>2012-12-22T11:11:51Z</time>
      </trkpt>
      <trkpt lat="42.84053" lon="0.05674">
        <ele>1963</ele>
        <time>2012-12-22T11:11:54Z</time>
      </trkpt>
      <trkpt lat="42.84052" lon="0.05674">
        <ele>1963</ele>
        <time>2012-12-22T11:11:57Z</time>
      </trkpt>
      <trkpt lat="42.84053" lon="0.05676">
        <ele>1963</ele>
        <time>2012-12-22T11:12:12Z</time>
      </trkpt>
      <trkpt lat="42.84054" lon="0.05677">
        <ele>1964</ele>
        <time>2012-12-22T11:12:15Z</time>
      </trkpt>
      <trkpt lat="42.84056" lon="0.05677">
        <ele>1964</ele>
        <time>2012-12-22T11:12:18Z</time>
      </trkpt>
      <trkpt lat="42.84057" lon="0.05677">
        <ele>1965</ele>
        <time>2012-12-22T11:12:21Z</time>
      </trkpt>
      <trkpt lat="42.84059" lon="0.05678">
        <ele>1966</ele>
        <time>2012-12-22T11:12:24Z</time>
      </trkpt>
      <trkpt lat="42.8406" lon="0.05678">
        <ele>1967</ele>
        <time>2012-12-22T11:12:27Z</time>
      </trkpt>
      <trkpt lat="42.84062" lon="0.05678">
        <ele>1968</ele>
        <time>2012-12-22T11:12:29Z</time>
      </trkpt>
      <trkpt lat="42.84063" lon="0.05678">
        <ele>1968</ele>
        <time>2012-12-22T11:12:31Z</time>
      </trkpt>
      <trkpt lat="42.84064" lon="0.05678">
        <ele>1968</ele>
        <time>2012-12-22T11:12:33Z</time>
      </trkpt>
      <trkpt lat="42.84066" lon="0.05678">
        <ele>1968</ele>
        <time>2012-12-22T11:12:36Z</time>
      </trkpt>
      <trkpt lat="42.84067" lon="0.05678">
        <ele>1968</ele>
        <time>2012-12-22T11:12:38Z</time>
      </trkpt>
      <trkpt lat="42.84069" lon="0.05677">
        <ele>1968</ele>
        <time>2012-12-22T11:12:41Z</time>
      </trkpt>
      <trkpt lat="42.8407" lon="0.05677">
        <ele>1968</ele>
        <time>2012-12-22T11:12:43Z</time>
      </trkpt>
      <trkpt lat="42.84071" lon="0.05678">
        <ele>1969</ele>
        <time>2012-12-22T11:12:45Z</time>
      </trkpt>
      <trkpt lat="42.8407" lon="0.05678">
        <ele>1969</ele>
        <time>2012-12-22T11:13:02Z</time>
      </trkpt>
      <trkpt lat="42.84069" lon="0.0568">
        <ele>1969</ele>
        <time>2012-12-22T11:13:06Z</time>
      </trkpt>
      <trkpt lat="42.84068" lon="0.05681">
        <ele>1969</ele>
        <time>2012-12-22T11:13:12Z</time>
      </trkpt>
      <trkpt lat="42.84066" lon="0.05682">
        <ele>1969</ele>
        <time>2012-12-22T11:13:15Z</time>
      </trkpt>
      <trkpt lat="42.84065" lon="0.05683">
        <ele>1969</ele>
        <time>2012-12-22T11:13:17Z</time>
      </trkpt>
      <trkpt lat="42.84064" lon="0.05684">
        <ele>1969</ele>
        <time>2012-12-22T11:13:20Z</time>
      </trkpt>
      <trkpt lat="42.84063" lon="0.05686">
        <ele>1969</ele>
        <time>2012-12-22T11:13:23Z</time>
      </trkpt>
      <trkpt lat="42.84061" lon="0.05687">
        <ele>1969</ele>
        <time>2012-12-22T11:13:26Z</time>
      </trkpt>
      <trkpt lat="42.8406" lon="0.05688">
        <ele>1969</ele>
        <time>2012-12-22T11:13:30Z</time>
      </trkpt>
      <trkpt lat="42.84059" lon="0.0569">
        <ele>1969</ele>
        <time>2012-12-22T11:13:33Z</time>
      </trkpt>
      <trkpt lat="42.84058" lon="0.05692">
        <ele>1969</ele>
        <time>2012-12-22T11:13:37Z</time>
      </trkpt>
      <trkpt lat="42.84056" lon="0.05693">
        <ele>1969</ele>
        <time>2012-12-22T11:13:40Z</time>
      </trkpt>
      <trkpt lat="42.84055" lon="0.05694">
        <ele>1969</ele>
        <time>2012-12-22T11:13:43Z</time>
      </trkpt>
      <trkpt lat="42.84054" lon="0.05695">
        <ele>1969</ele>
        <time>2012-12-22T11:13:47Z</time>
      </trkpt>
      <trkpt lat="42.84053" lon="0.05696">
        <ele>1969</ele>
        <time>2012-12-22T11:13:50Z</time>
      </trkpt>
      <trkpt lat="42.84051" lon="0.05697">
        <ele>1969</ele>
        <time>2012-12-22T11:13:53Z</time>
      </trkpt>
      <trkpt lat="42.8405" lon="0.05698">
        <ele>1969</ele>
        <time>2012-12-22T11:13:56Z</time>
      </trkpt>
      <trkpt lat="42.84049" lon="0.05699">
        <ele>1969</ele>
        <time>2012-12-22T11:14:14Z</time>
      </trkpt>
      <trkpt lat="42.84047" lon="0.05699">
        <ele>1969</ele>
        <time>2012-12-22T11:14:16Z</time>
      </trkpt>
      <trkpt lat="42.84046" lon="0.05699">
        <ele>1969</ele>
        <time>2012-12-22T11:14:18Z</time>
      </trkpt>
      <trkpt lat="42.84045" lon="0.05698">
        <ele>1969</ele>
        <time>2012-12-22T11:14:21Z</time>
      </trkpt>
      <trkpt lat="42.84043" lon="0.05698">
        <ele>1969</ele>
        <time>2012-12-22T11:14:23Z</time>
      </trkpt>
      <trkpt lat="42.84042" lon="0.05699">
        <ele>1969</ele>
        <time>2012-12-22T11:14:26Z</time>
      </trkpt>
      <trkpt lat="42.8404" lon="0.057">
        <ele>1969</ele>
        <time>2012-12-22T11:14:29Z</time>
      </trkpt>
      <trkpt lat="42.84038" lon="0.057">
        <ele>1969</ele>
        <time>2012-12-22T11:14:32Z</time>
      </trkpt>
      <trkpt lat="42.84037" lon="0.05701">
        <ele>1970</ele>
        <time>2012-12-22T11:14:35Z</time>
      </trkpt>
      <trkpt lat="42.84035" lon="0.05702">
        <ele>1971</ele>
        <time>2012-12-22T11:14:38Z</time>
      </trkpt>
      <trkpt lat="42.84034" lon="0.05704">
        <ele>1972</ele>
        <time>2012-12-22T11:14:41Z</time>
      </trkpt>
      <trkpt lat="42.84032" lon="0.05704">
        <ele>1972</ele>
        <time>2012-12-22T11:14:43Z</time>
      </trkpt>
      <trkpt lat="42.84031" lon="0.05706">
        <ele>1973</ele>
        <time>2012-12-22T11:14:46Z</time>
      </trkpt>
      <trkpt lat="42.84029" lon="0.05708">
        <ele>1973</ele>
        <time>2012-12-22T11:14:49Z</time>
      </trkpt>
      <trkpt lat="42.84028" lon="0.05708">
        <ele>1974</ele>
        <time>2012-12-22T11:14:51Z</time>
      </trkpt>
      <trkpt lat="42.84027" lon="0.05709">
        <ele>1975</ele>
        <time>2012-12-22T11:14:53Z</time>
      </trkpt>
      <trkpt lat="42.84026" lon="0.05709">
        <ele>1976</ele>
        <time>2012-12-22T11:14:55Z</time>
      </trkpt>
      <trkpt lat="42.84024" lon="0.05709">
        <ele>1977</ele>
        <time>2012-12-22T11:14:59Z</time>
      </trkpt>
      <trkpt lat="42.84023" lon="0.05709">
        <ele>1977</ele>
        <time>2012-12-22T11:15:01Z</time>
      </trkpt>
      <trkpt lat="42.84021" lon="0.05709">
        <ele>1978</ele>
        <time>2012-12-22T11:15:03Z</time>
      </trkpt>
      <trkpt lat="42.8402" lon="0.0571">
        <ele>1979</ele>
        <time>2012-12-22T11:15:06Z</time>
      </trkpt>
      <trkpt lat="42.84019" lon="0.0571">
        <ele>1979</ele>
        <time>2012-12-22T11:15:08Z</time>
      </trkpt>
      <trkpt lat="42.84017" lon="0.05709">
        <ele>1979</ele>
        <time>2012-12-22T11:15:10Z</time>
      </trkpt>
      <trkpt lat="42.84016" lon="0.05709">
        <ele>1980</ele>
        <time>2012-12-22T11:15:13Z</time>
      </trkpt>
      <trkpt lat="42.84017" lon="0.05711">
        <ele>1980</ele>
        <time>2012-12-22T11:15:23Z</time>
      </trkpt>
      <trkpt lat="42.84018" lon="0.05711">
        <ele>1980</ele>
        <time>2012-12-22T11:15:25Z</time>
      </trkpt>
      <trkpt lat="42.8402" lon="0.05712">
        <ele>1980</ele>
        <time>2012-12-22T11:15:27Z</time>
      </trkpt>
      <trkpt lat="42.84021" lon="0.05713">
        <ele>1981</ele>
        <time>2012-12-22T11:15:30Z</time>
      </trkpt>
      <trkpt lat="42.84023" lon="0.05714">
        <ele>1981</ele>
        <time>2012-12-22T11:15:33Z</time>
      </trkpt>
      <trkpt lat="42.84024" lon="0.05714">
        <ele>1981</ele>
        <time>2012-12-22T11:15:35Z</time>
      </trkpt>
      <trkpt lat="42.84023" lon="0.05715">
        <ele>1983</ele>
        <time>2012-12-22T11:15:53Z</time>
      </trkpt>
      <trkpt lat="42.84021" lon="0.05715">
        <ele>1983</ele>
        <time>2012-12-22T11:15:56Z</time>
      </trkpt>
      <trkpt lat="42.8402" lon="0.05716">
        <ele>1983</ele>
        <time>2012-12-22T11:15:59Z</time>
      </trkpt>
      <trkpt lat="42.84019" lon="0.05717">
        <ele>1983</ele>
        <time>2012-12-22T11:16:02Z</time>
      </trkpt>
      <trkpt lat="42.84017" lon="0.05717">
        <ele>1983</ele>
        <time>2012-12-22T11:16:05Z</time>
      </trkpt>
      <trkpt lat="42.84016" lon="0.05718">
        <ele>1984</ele>
        <time>2012-12-22T11:16:08Z</time>
      </trkpt>
      <trkpt lat="42.84014" lon="0.05719">
        <ele>1984</ele>
        <time>2012-12-22T11:16:11Z</time>
      </trkpt>
      <trkpt lat="42.84014" lon="0.05721">
        <ele>1984</ele>
        <time>2012-12-22T11:16:27Z</time>
      </trkpt>
      <trkpt lat="42.84015" lon="0.05721">
        <ele>1984</ele>
        <time>2012-12-22T11:16:47Z</time>
      </trkpt>
      <trkpt lat="42.84014" lon="0.05723">
        <ele>1984</ele>
        <time>2012-12-22T11:16:52Z</time>
      </trkpt>
      <trkpt lat="42.84013" lon="0.05724">
        <ele>1984</ele>
        <time>2012-12-22T11:16:55Z</time>
      </trkpt>
      <trkpt lat="42.84011" lon="0.05725">
        <ele>1984</ele>
        <time>2012-12-22T11:16:58Z</time>
      </trkpt>
      <trkpt lat="42.8401" lon="0.05725">
        <ele>1984</ele>
        <time>2012-12-22T11:17:01Z</time>
      </trkpt>
      <trkpt lat="42.84008" lon="0.05724">
        <ele>1984</ele>
        <time>2012-12-22T11:17:02Z</time>
      </trkpt>
      <trkpt lat="42.84007" lon="0.05723">
        <ele>1984</ele>
        <time>2012-12-22T11:17:04Z</time>
      </trkpt>
      <trkpt lat="42.84006" lon="0.05723">
        <ele>1984</ele>
        <time>2012-12-22T11:17:06Z</time>
      </trkpt>
      <trkpt lat="42.84005" lon="0.05722">
        <ele>1984</ele>
        <time>2012-12-22T11:17:08Z</time>
      </trkpt>
      <trkpt lat="42.84004" lon="0.0572">
        <ele>1987</ele>
        <time>2012-12-22T11:17:16Z</time>
      </trkpt>
      <trkpt lat="42.84003" lon="0.0572">
        <ele>1988</ele>
        <time>2012-12-22T11:17:32Z</time>
      </trkpt>
      <trkpt lat="42.84003" lon="0.05721">
        <ele>1988</ele>
        <time>2012-12-22T11:17:38Z</time>
      </trkpt>
      <trkpt lat="42.84003" lon="0.05723">
        <ele>1988</ele>
        <time>2012-12-22T11:17:40Z</time>
      </trkpt>
      <trkpt lat="42.84004" lon="0.05725">
        <ele>1988</ele>
        <time>2012-12-22T11:17:42Z</time>
      </trkpt>
      <trkpt lat="42.84005" lon="0.05726">
        <ele>1988</ele>
        <time>2012-12-22T11:17:44Z</time>
      </trkpt>
      <trkpt lat="42.84005" lon="0.05728">
        <ele>1988</ele>
        <time>2012-12-22T11:17:46Z</time>
      </trkpt>
      <trkpt lat="42.84006" lon="0.05729">
        <ele>1989</ele>
        <time>2012-12-22T11:17:48Z</time>
      </trkpt>
      <trkpt lat="42.84007" lon="0.05731">
        <ele>1989</ele>
        <time>2012-12-22T11:17:51Z</time>
      </trkpt>
      <trkpt lat="42.84008" lon="0.05733">
        <ele>1990</ele>
        <time>2012-12-22T11:17:53Z</time>
      </trkpt>
      <trkpt lat="42.8401" lon="0.05734">
        <ele>1991</ele>
        <time>2012-12-22T11:17:56Z</time>
      </trkpt>
      <trkpt lat="42.84011" lon="0.05734">
        <ele>1992</ele>
        <time>2012-12-22T11:17:59Z</time>
      </trkpt>
      <trkpt lat="42.8401" lon="0.05736">
        <ele>1993</ele>
        <time>2012-12-22T11:18:11Z</time>
      </trkpt>
      <trkpt lat="42.84009" lon="0.05737">
        <ele>1993</ele>
        <time>2012-12-22T11:18:13Z</time>
      </trkpt>
      <trkpt lat="42.84008" lon="0.05739">
        <ele>1994</ele>
        <time>2012-12-22T11:18:16Z</time>
      </trkpt>
      <trkpt lat="42.84007" lon="0.0574">
        <ele>1994</ele>
        <time>2012-12-22T11:18:18Z</time>
      </trkpt>
      <trkpt lat="42.84005" lon="0.05741">
        <ele>1995</ele>
        <time>2012-12-22T11:18:21Z</time>
      </trkpt>
      <trkpt lat="42.84004" lon="0.05743">
        <ele>1995</ele>
        <time>2012-12-22T11:18:24Z</time>
      </trkpt>
      <trkpt lat="42.84003" lon="0.05745">
        <ele>1996</ele>
        <time>2012-12-22T11:18:27Z</time>
      </trkpt>
      <trkpt lat="42.84001" lon="0.05746">
        <ele>1996</ele>
        <time>2012-12-22T11:18:29Z</time>
      </trkpt>
      <trkpt lat="42.84" lon="0.05747">
        <ele>1996</ele>
        <time>2012-12-22T11:18:31Z</time>
      </trkpt>
      <trkpt lat="42.83998" lon="0.05747">
        <ele>1997</ele>
        <time>2012-12-22T11:18:34Z</time>
      </trkpt>
      <trkpt lat="42.83997" lon="0.05745">
        <ele>1997</ele>
        <time>2012-12-22T11:18:37Z</time>
      </trkpt>
      <trkpt lat="42.83997" lon="0.05744">
        <ele>1997</ele>
        <time>2012-12-22T11:18:39Z</time>
      </trkpt>
      <trkpt lat="42.83997" lon="0.05742">
        <ele>1997</ele>
        <time>2012-12-22T11:18:46Z</time>
      </trkpt>
      <trkpt lat="42.83995" lon="0.05744">
        <ele>1999</ele>
        <time>2012-12-22T11:18:58Z</time>
      </trkpt>
      <trkpt lat="42.83995" lon="0.05746">
        <ele>1999</ele>
        <time>2012-12-22T11:19:00Z</time>
      </trkpt>
      <trkpt lat="42.83996" lon="0.05748">
        <ele>1999</ele>
        <time>2012-12-22T11:19:02Z</time>
      </trkpt>
      <trkpt lat="42.83995" lon="0.0575">
        <ele>1999</ele>
        <time>2012-12-22T11:19:04Z</time>
      </trkpt>
      <trkpt lat="42.83995" lon="0.05752">
        <ele>1999</ele>
        <time>2012-12-22T11:19:06Z</time>
      </trkpt>
      <trkpt lat="42.83996" lon="0.05754">
        <ele>1999</ele>
        <time>2012-12-22T11:19:08Z</time>
      </trkpt>
      <trkpt lat="42.83998" lon="0.05756">
        <ele>1999</ele>
        <time>2012-12-22T11:19:10Z</time>
      </trkpt>
      <trkpt lat="42.83999" lon="0.05756">
        <ele>1999</ele>
        <time>2012-12-22T11:19:12Z</time>
      </trkpt>
      <trkpt lat="42.84" lon="0.05756">
        <ele>2000</ele>
        <time>2012-12-22T11:19:14Z</time>
      </trkpt>
      <trkpt lat="42.84002" lon="0.05756">
        <ele>2000</ele>
        <time>2012-12-22T11:19:16Z</time>
      </trkpt>
      <trkpt lat="42.84003" lon="0.05757">
        <ele>2001</ele>
        <time>2012-12-22T11:19:18Z</time>
      </trkpt>
      <trkpt lat="42.84004" lon="0.05757">
        <ele>2001</ele>
        <time>2012-12-22T11:19:20Z</time>
      </trkpt>
      <trkpt lat="42.84005" lon="0.05757">
        <ele>2002</ele>
        <time>2012-12-22T11:19:22Z</time>
      </trkpt>
      <trkpt lat="42.84007" lon="0.05757">
        <ele>2002</ele>
        <time>2012-12-22T11:19:24Z</time>
      </trkpt>
      <trkpt lat="42.84006" lon="0.05758">
        <ele>2003</ele>
        <time>2012-12-22T11:19:42Z</time>
      </trkpt>
      <trkpt lat="42.84005" lon="0.0576">
        <ele>2003</ele>
        <time>2012-12-22T11:19:44Z</time>
      </trkpt>
      <trkpt lat="42.84003" lon="0.05762">
        <ele>2003</ele>
        <time>2012-12-22T11:19:47Z</time>
      </trkpt>
      <trkpt lat="42.84002" lon="0.05762">
        <ele>2003</ele>
        <time>2012-12-22T11:19:49Z</time>
      </trkpt>
      <trkpt lat="42.84" lon="0.05764">
        <ele>2003</ele>
        <time>2012-12-22T11:19:51Z</time>
      </trkpt>
      <trkpt lat="42.83999" lon="0.05765">
        <ele>2003</ele>
        <time>2012-12-22T11:19:53Z</time>
      </trkpt>
      <trkpt lat="42.83997" lon="0.05767">
        <ele>2003</ele>
        <time>2012-12-22T11:19:56Z</time>
      </trkpt>
      <trkpt lat="42.83996" lon="0.05768">
        <ele>2004</ele>
        <time>2012-12-22T11:19:59Z</time>
      </trkpt>
      <trkpt lat="42.83995" lon="0.0577">
        <ele>2004</ele>
        <time>2012-12-22T11:20:01Z</time>
      </trkpt>
      <trkpt lat="42.83994" lon="0.05771">
        <ele>2004</ele>
        <time>2012-12-22T11:20:03Z</time>
      </trkpt>
      <trkpt lat="42.83992" lon="0.05773">
        <ele>2005</ele>
        <time>2012-12-22T11:20:06Z</time>
      </trkpt>
      <trkpt lat="42.83991" lon="0.05774">
        <ele>2005</ele>
        <time>2012-12-22T11:20:09Z</time>
      </trkpt>
      <trkpt lat="42.8399" lon="0.05775">
        <ele>2005</ele>
        <time>2012-12-22T11:20:12Z</time>
      </trkpt>
      <trkpt lat="42.83989" lon="0.05776">
        <ele>2005</ele>
        <time>2012-12-22T11:20:15Z</time>
      </trkpt>
      <trkpt lat="42.83987" lon="0.05777">
        <ele>2006</ele>
        <time>2012-12-22T11:20:18Z</time>
      </trkpt>
      <trkpt lat="42.83987" lon="0.05779">
        <ele>2007</ele>
        <time>2012-12-22T11:20:21Z</time>
      </trkpt>
      <trkpt lat="42.83986" lon="0.0578">
        <ele>2007</ele>
        <time>2012-12-22T11:20:25Z</time>
      </trkpt>
      <trkpt lat="42.83984" lon="0.05781">
        <ele>2008</ele>
        <time>2012-12-22T11:20:50Z</time>
      </trkpt>
      <trkpt lat="42.83983" lon="0.0578">
        <ele>2008</ele>
        <time>2012-12-22T11:20:53Z</time>
      </trkpt>
      <trkpt lat="42.83981" lon="0.05779">
        <ele>2008</ele>
        <time>2012-12-22T11:20:58Z</time>
      </trkpt>
      <trkpt lat="42.8398" lon="0.05779">
        <ele>2010</ele>
        <time>2012-12-22T11:21:03Z</time>
      </trkpt>
      <trkpt lat="42.8398" lon="0.05781">
        <ele>2011</ele>
        <time>2012-12-22T11:21:07Z</time>
      </trkpt>
      <trkpt lat="42.8398" lon="0.05783">
        <ele>2011</ele>
        <time>2012-12-22T11:21:09Z</time>
      </trkpt>
      <trkpt lat="42.8398" lon="0.05785">
        <ele>2011</ele>
        <time>2012-12-22T11:21:11Z</time>
      </trkpt>
      <trkpt lat="42.8398" lon="0.05787">
        <ele>2011</ele>
        <time>2012-12-22T11:21:13Z</time>
      </trkpt>
      <trkpt lat="42.8398" lon="0.05789">
        <ele>2011</ele>
        <time>2012-12-22T11:21:15Z</time>
      </trkpt>
      <trkpt lat="42.8398" lon="0.05791">
        <ele>2012</ele>
        <time>2012-12-22T11:21:17Z</time>
      </trkpt>
      <trkpt lat="42.83981" lon="0.05792">
        <ele>2012</ele>
        <time>2012-12-22T11:21:19Z</time>
      </trkpt>
      <trkpt lat="42.83982" lon="0.05794">
        <ele>2013</ele>
        <time>2012-12-22T11:21:22Z</time>
      </trkpt>
      <trkpt lat="42.8398" lon="0.05796">
        <ele>2014</ele>
        <time>2012-12-22T11:21:35Z</time>
      </trkpt>
      <trkpt lat="42.83979" lon="0.05796">
        <ele>2014</ele>
        <time>2012-12-22T11:21:37Z</time>
      </trkpt>
      <trkpt lat="42.83978" lon="0.05797">
        <ele>2014</ele>
        <time>2012-12-22T11:21:39Z</time>
      </trkpt>
      <trkpt lat="42.83976" lon="0.05799">
        <ele>2014</ele>
        <time>2012-12-22T11:21:42Z</time>
      </trkpt>
      <trkpt lat="42.83976" lon="0.05801">
        <ele>2014</ele>
        <time>2012-12-22T11:21:44Z</time>
      </trkpt>
      <trkpt lat="42.83976" lon="0.05803">
        <ele>2014</ele>
        <time>2012-12-22T11:21:46Z</time>
      </trkpt>
      <trkpt lat="42.83976" lon="0.05804">
        <ele>2014</ele>
        <time>2012-12-22T11:21:48Z</time>
      </trkpt>
      <trkpt lat="42.83978" lon="0.05805">
        <ele>2014</ele>
        <time>2012-12-22T11:21:50Z</time>
      </trkpt>
      <trkpt lat="42.83979" lon="0.05806">
        <ele>2015</ele>
        <time>2012-12-22T11:21:53Z</time>
      </trkpt>
      <trkpt lat="42.83978" lon="0.05806">
        <ele>2017</ele>
        <time>2012-12-22T11:22:01Z</time>
      </trkpt>
      <trkpt lat="42.83976" lon="0.05807">
        <ele>2017</ele>
        <time>2012-12-22T11:22:03Z</time>
      </trkpt>
      <trkpt lat="42.83975" lon="0.05808">
        <ele>2017</ele>
        <time>2012-12-22T11:22:05Z</time>
      </trkpt>
      <trkpt lat="42.83974" lon="0.05809">
        <ele>2017</ele>
        <time>2012-12-22T11:22:07Z</time>
      </trkpt>
      <trkpt lat="42.83972" lon="0.05811">
        <ele>2017</ele>
        <time>2012-12-22T11:22:10Z</time>
      </trkpt>
      <trkpt lat="42.83971" lon="0.05812">
        <ele>2017</ele>
        <time>2012-12-22T11:22:12Z</time>
      </trkpt>
      <trkpt lat="42.8397" lon="0.05813">
        <ele>2017</ele>
        <time>2012-12-22T11:22:14Z</time>
      </trkpt>
      <trkpt lat="42.83968" lon="0.05813">
        <ele>2017</ele>
        <time>2012-12-22T11:22:16Z</time>
      </trkpt>
      <trkpt lat="42.83967" lon="0.05813">
        <ele>2017</ele>
        <time>2012-12-22T11:22:18Z</time>
      </trkpt>
      <trkpt lat="42.83966" lon="0.05812">
        <ele>2018</ele>
        <time>2012-12-22T11:22:21Z</time>
      </trkpt>
      <trkpt lat="42.83965" lon="0.0581">
        <ele>2018</ele>
        <time>2012-12-22T11:22:23Z</time>
      </trkpt>
      <trkpt lat="42.83964" lon="0.05809">
        <ele>2019</ele>
        <time>2012-12-22T11:22:25Z</time>
      </trkpt>
      <trkpt lat="42.83964" lon="0.05807">
        <ele>2019</ele>
        <time>2012-12-22T11:22:27Z</time>
      </trkpt>
      <trkpt lat="42.83963" lon="0.05805">
        <ele>2020</ele>
        <time>2012-12-22T11:22:29Z</time>
      </trkpt>
      <trkpt lat="42.83962" lon="0.05803">
        <ele>2020</ele>
        <time>2012-12-22T11:22:31Z</time>
      </trkpt>
      <trkpt lat="42.83961" lon="0.05802">
        <ele>2021</ele>
        <time>2012-12-22T11:22:33Z</time>
      </trkpt>
      <trkpt lat="42.8396" lon="0.05801">
        <ele>2021</ele>
        <time>2012-12-22T11:22:35Z</time>
      </trkpt>
      <trkpt lat="42.83958" lon="0.05801">
        <ele>2021</ele>
        <time>2012-12-22T11:22:37Z</time>
      </trkpt>
      <trkpt lat="42.83957" lon="0.05803">
        <ele>2021</ele>
        <time>2012-12-22T11:22:39Z</time>
      </trkpt>
      <trkpt lat="42.83957" lon="0.05804">
        <ele>2021</ele>
        <time>2012-12-22T11:22:41Z</time>
      </trkpt>
      <trkpt lat="42.83957" lon="0.05806">
        <ele>2021</ele>
        <time>2012-12-22T11:22:43Z</time>
      </trkpt>
      <trkpt lat="42.83957" lon="0.05808">
        <ele>2021</ele>
        <time>2012-12-22T11:22:45Z</time>
      </trkpt>
      <trkpt lat="42.83956" lon="0.0581">
        <ele>2023</ele>
        <time>2012-12-22T11:23:06Z</time>
      </trkpt>
      <trkpt lat="42.83955" lon="0.05812">
        <ele>2023</ele>
        <time>2012-12-22T11:23:08Z</time>
      </trkpt>
      <trkpt lat="42.83955" lon="0.05813">
        <ele>2023</ele>
        <time>2012-12-22T11:23:10Z</time>
      </trkpt>
      <trkpt lat="42.83954" lon="0.05815">
        <ele>2023</ele>
        <time>2012-12-22T11:23:12Z</time>
      </trkpt>
      <trkpt lat="42.83953" lon="0.05817">
        <ele>2023</ele>
        <time>2012-12-22T11:23:14Z</time>
      </trkpt>
      <trkpt lat="42.83952" lon="0.05818">
        <ele>2023</ele>
        <time>2012-12-22T11:23:16Z</time>
      </trkpt>
      <trkpt lat="42.83951" lon="0.0582">
        <ele>2023</ele>
        <time>2012-12-22T11:23:18Z</time>
      </trkpt>
      <trkpt lat="42.8395" lon="0.05822">
        <ele>2024</ele>
        <time>2012-12-22T11:23:21Z</time>
      </trkpt>
      <trkpt lat="42.83949" lon="0.05824">
        <ele>2024</ele>
        <time>2012-12-22T11:23:23Z</time>
      </trkpt>
      <trkpt lat="42.83948" lon="0.05825">
        <ele>2024</ele>
        <time>2012-12-22T11:23:25Z</time>
      </trkpt>
      <trkpt lat="42.83947" lon="0.05827">
        <ele>2025</ele>
        <time>2012-12-22T11:23:28Z</time>
      </trkpt>
      <trkpt lat="42.83946" lon="0.05829">
        <ele>2026</ele>
        <time>2012-12-22T11:23:31Z</time>
      </trkpt>
      <trkpt lat="42.83946" lon="0.05832">
        <ele>2027</ele>
        <time>2012-12-22T11:23:56Z</time>
      </trkpt>
      <trkpt lat="42.83945" lon="0.05834">
        <ele>2027</ele>
        <time>2012-12-22T11:23:58Z</time>
      </trkpt>
      <trkpt lat="42.83944" lon="0.05835">
        <ele>2028</ele>
        <time>2012-12-22T11:24:14Z</time>
      </trkpt>
      <trkpt lat="42.83943" lon="0.05834">
        <ele>2028</ele>
        <time>2012-12-22T11:24:57Z</time>
      </trkpt>
      <trkpt lat="42.83943" lon="0.05836">
        <ele>2028</ele>
        <time>2012-12-22T11:25:04Z</time>
      </trkpt>
      <trkpt lat="42.83943" lon="0.05838">
        <ele>2028</ele>
        <time>2012-12-22T11:25:06Z</time>
      </trkpt>
      <trkpt lat="42.83943" lon="0.05839">
        <ele>2028</ele>
        <time>2012-12-22T11:25:08Z</time>
      </trkpt>
      <trkpt lat="42.83943" lon="0.05841">
        <ele>2028</ele>
        <time>2012-12-22T11:25:15Z</time>
      </trkpt>
      <trkpt lat="42.83943" lon="0.05839">
        <ele>2028</ele>
        <time>2012-12-22T11:25:38Z</time>
      </trkpt>
      <trkpt lat="42.83943" lon="0.05841">
        <ele>2028</ele>
        <time>2012-12-22T11:26:03Z</time>
      </trkpt>
      <trkpt lat="42.83944" lon="0.0584">
        <ele>2028</ele>
        <time>2012-12-22T11:27:03Z</time>
      </trkpt>
      <trkpt lat="42.83943" lon="0.05838">
        <ele>2028</ele>
        <time>2012-12-22T11:27:51Z</time>
      </trkpt>
      <trkpt lat="42.83944" lon="0.05837">
        <ele>2028</ele>
        <time>2012-12-22T11:28:21Z</time>
      </trkpt>
      <trkpt lat="42.83943" lon="0.05835">
        <ele>2028</ele>
        <time>2012-12-22T11:28:27Z</time>
      </trkpt>
      <trkpt lat="42.83943" lon="0.05834">
        <ele>2028</ele>
        <time>2012-12-22T11:28:31Z</time>
      </trkpt>
      <trkpt lat="42.83943" lon="0.05832">
        <ele>2028</ele>
        <time>2012-12-22T11:28:35Z</time>
      </trkpt>
      <trkpt lat="42.83943" lon="0.05834">
        <ele>2028</ele>
        <time>2012-12-22T11:29:45Z</time>
      </trkpt>
      <trkpt lat="42.83943" lon="0.05835">
        <ele>2028</ele>
        <time>2012-12-22T11:29:48Z</time>
      </trkpt>
      <trkpt lat="42.83943" lon="0.05837">
        <ele>2028</ele>
        <time>2012-12-22T11:29:51Z</time>
      </trkpt>
      <trkpt lat="42.83942" lon="0.05839">
        <ele>2029</ele>
        <time>2012-12-22T11:30:46Z</time>
      </trkpt>
      <trkpt lat="42.83942" lon="0.05841">
        <ele>2030</ele>
        <time>2012-12-22T11:31:37Z</time>
      </trkpt>
      <trkpt lat="42.83941" lon="0.05842">
        <ele>2030</ele>
        <time>2012-12-22T11:31:39Z</time>
      </trkpt>
      <trkpt lat="42.8394" lon="0.05844">
        <ele>2030</ele>
        <time>2012-12-22T11:31:41Z</time>
      </trkpt>
      <trkpt lat="42.83939" lon="0.05846">
        <ele>2030</ele>
        <time>2012-12-22T11:31:43Z</time>
      </trkpt>
      <trkpt lat="42.83939" lon="0.05848">
        <ele>2030</ele>
        <time>2012-12-22T11:31:45Z</time>
      </trkpt>
      <trkpt lat="42.83938" lon="0.0585">
        <ele>2030</ele>
        <time>2012-12-22T11:31:47Z</time>
      </trkpt>
      <trkpt lat="42.83936" lon="0.05852">
        <ele>2030</ele>
        <time>2012-12-22T11:31:50Z</time>
      </trkpt>
      <trkpt lat="42.83935" lon="0.05853">
        <ele>2030</ele>
        <time>2012-12-22T11:31:52Z</time>
      </trkpt>
      <trkpt lat="42.83934" lon="0.05855">
        <ele>2030</ele>
        <time>2012-12-22T11:31:55Z</time>
      </trkpt>
      <trkpt lat="42.83932" lon="0.05857">
        <ele>2030</ele>
        <time>2012-12-22T11:31:58Z</time>
      </trkpt>
      <trkpt lat="42.83931" lon="0.05858">
        <ele>2031</ele>
        <time>2012-12-22T11:32:01Z</time>
      </trkpt>
      <trkpt lat="42.83929" lon="0.05859">
        <ele>2032</ele>
        <time>2012-12-22T11:32:04Z</time>
      </trkpt>
      <trkpt lat="42.83928" lon="0.0586">
        <ele>2033</ele>
        <time>2012-12-22T11:32:06Z</time>
      </trkpt>
      <trkpt lat="42.83927" lon="0.0586">
        <ele>2033</ele>
        <time>2012-12-22T11:32:08Z</time>
      </trkpt>
      <trkpt lat="42.83926" lon="0.0586">
        <ele>2034</ele>
        <time>2012-12-22T11:32:10Z</time>
      </trkpt>
      <trkpt lat="42.83924" lon="0.05861">
        <ele>2034</ele>
        <time>2012-12-22T11:32:12Z</time>
      </trkpt>
      <trkpt lat="42.83923" lon="0.05861">
        <ele>2034</ele>
        <time>2012-12-22T11:32:14Z</time>
      </trkpt>
      <trkpt lat="42.83921" lon="0.05862">
        <ele>2034</ele>
        <time>2012-12-22T11:32:16Z</time>
      </trkpt>
      <trkpt lat="42.8392" lon="0.05863">
        <ele>2035</ele>
        <time>2012-12-22T11:32:18Z</time>
      </trkpt>
      <trkpt lat="42.83918" lon="0.05864">
        <ele>2035</ele>
        <time>2012-12-22T11:32:20Z</time>
      </trkpt>
      <trkpt lat="42.83917" lon="0.05865">
        <ele>2035</ele>
        <time>2012-12-22T11:32:22Z</time>
      </trkpt>
      <trkpt lat="42.83916" lon="0.05866">
        <ele>2035</ele>
        <time>2012-12-22T11:32:24Z</time>
      </trkpt>
      <trkpt lat="42.83915" lon="0.05868">
        <ele>2035</ele>
        <time>2012-12-22T11:32:26Z</time>
      </trkpt>
      <trkpt lat="42.83914" lon="0.0587">
        <ele>2035</ele>
        <time>2012-12-22T11:32:28Z</time>
      </trkpt>
      <trkpt lat="42.83913" lon="0.05872">
        <ele>2035</ele>
        <time>2012-12-22T11:32:30Z</time>
      </trkpt>
      <trkpt lat="42.83913" lon="0.05874">
        <ele>2035</ele>
        <time>2012-12-22T11:32:32Z</time>
      </trkpt>
      <trkpt lat="42.83913" lon="0.05875">
        <ele>2036</ele>
        <time>2012-12-22T11:32:34Z</time>
      </trkpt>
      <trkpt lat="42.83912" lon="0.05878">
        <ele>2036</ele>
        <time>2012-12-22T11:32:36Z</time>
      </trkpt>
      <trkpt lat="42.83911" lon="0.05879">
        <ele>2036</ele>
        <time>2012-12-22T11:32:37Z</time>
      </trkpt>
      <trkpt lat="42.83911" lon="0.05881">
        <ele>2037</ele>
        <time>2012-12-22T11:32:39Z</time>
      </trkpt>
      <trkpt lat="42.83911" lon="0.05883">
        <ele>2037</ele>
        <time>2012-12-22T11:32:41Z</time>
      </trkpt>
      <trkpt lat="42.8391" lon="0.05885">
        <ele>2037</ele>
        <time>2012-12-22T11:32:43Z</time>
      </trkpt>
      <trkpt lat="42.8391" lon="0.05886">
        <ele>2038</ele>
        <time>2012-12-22T11:32:45Z</time>
      </trkpt>
      <trkpt lat="42.8391" lon="0.05888">
        <ele>2038</ele>
        <time>2012-12-22T11:32:47Z</time>
      </trkpt>
      <trkpt lat="42.8391" lon="0.0589">
        <ele>2038</ele>
        <time>2012-12-22T11:32:49Z</time>
      </trkpt>
      <trkpt lat="42.8391" lon="0.05892">
        <ele>2038</ele>
        <time>2012-12-22T11:32:51Z</time>
      </trkpt>
      <trkpt lat="42.8391" lon="0.05894">
        <ele>2038</ele>
        <time>2012-12-22T11:32:53Z</time>
      </trkpt>
      <trkpt lat="42.8391" lon="0.05895">
        <ele>2038</ele>
        <time>2012-12-22T11:32:55Z</time>
      </trkpt>
      <trkpt lat="42.8391" lon="0.05897">
        <ele>2039</ele>
        <time>2012-12-22T11:32:57Z</time>
      </trkpt>
      <trkpt lat="42.8391" lon="0.05899">
        <ele>2039</ele>
        <time>2012-12-22T11:32:59Z</time>
      </trkpt>
      <trkpt lat="42.8391" lon="0.05901">
        <ele>2039</ele>
        <time>2012-12-22T11:33:01Z</time>
      </trkpt>
      <trkpt lat="42.83911" lon="0.05903">
        <ele>2040</ele>
        <time>2012-12-22T11:33:03Z</time>
      </trkpt>
      <trkpt lat="42.83911" lon="0.05905">
        <ele>2040</ele>
        <time>2012-12-22T11:33:05Z</time>
      </trkpt>
      <trkpt lat="42.8391" lon="0.05907">
        <ele>2040</ele>
        <time>2012-12-22T11:33:07Z</time>
      </trkpt>
      <trkpt lat="42.8391" lon="0.05909">
        <ele>2040</ele>
        <time>2012-12-22T11:33:09Z</time>
      </trkpt>
      <trkpt lat="42.8391" lon="0.05911">
        <ele>2040</ele>
        <time>2012-12-22T11:33:11Z</time>
      </trkpt>
      <trkpt lat="42.8391" lon="0.05912">
        <ele>2040</ele>
        <time>2012-12-22T11:33:13Z</time>
      </trkpt>
      <trkpt lat="42.8391" lon="0.05914">
        <ele>2040</ele>
        <time>2012-12-22T11:33:15Z</time>
      </trkpt>
      <trkpt lat="42.8391" lon="0.05915">
        <ele>2040</ele>
        <time>2012-12-22T11:33:17Z</time>
      </trkpt>
      <trkpt lat="42.8391" lon="0.05917">
        <ele>2040</ele>
        <time>2012-12-22T11:33:19Z</time>
      </trkpt>
      <trkpt lat="42.83909" lon="0.05918">
        <ele>2040</ele>
        <time>2012-12-22T11:33:21Z</time>
      </trkpt>
      <trkpt lat="42.83909" lon="0.05921">
        <ele>2041</ele>
        <time>2012-12-22T11:33:23Z</time>
      </trkpt>
      <trkpt lat="42.83909" lon="0.05923">
        <ele>2041</ele>
        <time>2012-12-22T11:33:25Z</time>
      </trkpt>
      <trkpt lat="42.83909" lon="0.05924">
        <ele>2041</ele>
        <time>2012-12-22T11:33:27Z</time>
      </trkpt>
      <trkpt lat="42.83908" lon="0.05926">
        <ele>2042</ele>
        <time>2012-12-22T11:33:29Z</time>
      </trkpt>
      <trkpt lat="42.83908" lon="0.05928">
        <ele>2042</ele>
        <time>2012-12-22T11:33:31Z</time>
      </trkpt>
      <trkpt lat="42.83908" lon="0.0593">
        <ele>2043</ele>
        <time>2012-12-22T11:33:33Z</time>
      </trkpt>
      <trkpt lat="42.83907" lon="0.05932">
        <ele>2043</ele>
        <time>2012-12-22T11:33:35Z</time>
      </trkpt>
      <trkpt lat="42.83907" lon="0.05934">
        <ele>2043</ele>
        <time>2012-12-22T11:33:37Z</time>
      </trkpt>
      <trkpt lat="42.83907" lon="0.05935">
        <ele>2044</ele>
        <time>2012-12-22T11:33:39Z</time>
      </trkpt>
      <trkpt lat="42.83907" lon="0.05937">
        <ele>2044</ele>
        <time>2012-12-22T11:33:41Z</time>
      </trkpt>
      <trkpt lat="42.83906" lon="0.05939">
        <ele>2044</ele>
        <time>2012-12-22T11:33:43Z</time>
      </trkpt>
      <trkpt lat="42.83905" lon="0.0594">
        <ele>2044</ele>
        <time>2012-12-22T11:33:45Z</time>
      </trkpt>
      <trkpt lat="42.83905" lon="0.05942">
        <ele>2044</ele>
        <time>2012-12-22T11:33:47Z</time>
      </trkpt>
      <trkpt lat="42.83904" lon="0.05944">
        <ele>2044</ele>
        <time>2012-12-22T11:33:49Z</time>
      </trkpt>
      <trkpt lat="42.83904" lon="0.05946">
        <ele>2044</ele>
        <time>2012-12-22T11:33:51Z</time>
      </trkpt>
      <trkpt lat="42.83903" lon="0.05948">
        <ele>2044</ele>
        <time>2012-12-22T11:33:53Z</time>
      </trkpt>
      <trkpt lat="42.83902" lon="0.05949">
        <ele>2045</ele>
        <time>2012-12-22T11:33:55Z</time>
      </trkpt>
      <trkpt lat="42.83901" lon="0.05951">
        <ele>2045</ele>
        <time>2012-12-22T11:33:57Z</time>
      </trkpt>
      <trkpt lat="42.839" lon="0.05953">
        <ele>2045</ele>
        <time>2012-12-22T11:33:59Z</time>
      </trkpt>
      <trkpt lat="42.83899" lon="0.05954">
        <ele>2045</ele>
        <time>2012-12-22T11:34:01Z</time>
      </trkpt>
      <trkpt lat="42.83898" lon="0.05956">
        <ele>2045</ele>
        <time>2012-12-22T11:34:04Z</time>
      </trkpt>
      <trkpt lat="42.83897" lon="0.05958">
        <ele>2045</ele>
        <time>2012-12-22T11:34:06Z</time>
      </trkpt>
      <trkpt lat="42.83896" lon="0.0596">
        <ele>2045</ele>
        <time>2012-12-22T11:34:08Z</time>
      </trkpt>
      <trkpt lat="42.83895" lon="0.05962">
        <ele>2046</ele>
        <time>2012-12-22T11:34:10Z</time>
      </trkpt>
      <trkpt lat="42.83894" lon="0.05964">
        <ele>2046</ele>
        <time>2012-12-22T11:34:12Z</time>
      </trkpt>
      <trkpt lat="42.83894" lon="0.05965">
        <ele>2046</ele>
        <time>2012-12-22T11:34:14Z</time>
      </trkpt>
      <trkpt lat="42.83893" lon="0.05967">
        <ele>2046</ele>
        <time>2012-12-22T11:34:16Z</time>
      </trkpt>
      <trkpt lat="42.83892" lon="0.05969">
        <ele>2046</ele>
        <time>2012-12-22T11:34:18Z</time>
      </trkpt>
      <trkpt lat="42.83892" lon="0.0597">
        <ele>2046</ele>
        <time>2012-12-22T11:34:20Z</time>
      </trkpt>
      <trkpt lat="42.83891" lon="0.05972">
        <ele>2046</ele>
        <time>2012-12-22T11:34:22Z</time>
      </trkpt>
      <trkpt lat="42.83889" lon="0.05974">
        <ele>2046</ele>
        <time>2012-12-22T11:34:25Z</time>
      </trkpt>
      <trkpt lat="42.83888" lon="0.05976">
        <ele>2046</ele>
        <time>2012-12-22T11:34:27Z</time>
      </trkpt>
      <trkpt lat="42.83887" lon="0.05977">
        <ele>2046</ele>
        <time>2012-12-22T11:34:29Z</time>
      </trkpt>
      <trkpt lat="42.83886" lon="0.05979">
        <ele>2047</ele>
        <time>2012-12-22T11:34:31Z</time>
      </trkpt>
      <trkpt lat="42.83886" lon="0.0598">
        <ele>2047</ele>
        <time>2012-12-22T11:34:33Z</time>
      </trkpt>
      <trkpt lat="42.83885" lon="0.05982">
        <ele>2047</ele>
        <time>2012-12-22T11:34:35Z</time>
      </trkpt>
      <trkpt lat="42.83884" lon="0.05983">
        <ele>2047</ele>
        <time>2012-12-22T11:34:37Z</time>
      </trkpt>
      <trkpt lat="42.83883" lon="0.05985">
        <ele>2047</ele>
        <time>2012-12-22T11:34:39Z</time>
      </trkpt>
      <trkpt lat="42.83882" lon="0.05986">
        <ele>2048</ele>
        <time>2012-12-22T11:34:41Z</time>
      </trkpt>
      <trkpt lat="42.83881" lon="0.05988">
        <ele>2048</ele>
        <time>2012-12-22T11:34:43Z</time>
      </trkpt>
      <trkpt lat="42.8388" lon="0.0599">
        <ele>2048</ele>
        <time>2012-12-22T11:34:45Z</time>
      </trkpt>
      <trkpt lat="42.83878" lon="0.05992">
        <ele>2049</ele>
        <time>2012-12-22T11:34:47Z</time>
      </trkpt>
      <trkpt lat="42.83878" lon="0.05993">
        <ele>2049</ele>
        <time>2012-12-22T11:34:49Z</time>
      </trkpt>
      <trkpt lat="42.83876" lon="0.05995">
        <ele>2049</ele>
        <time>2012-12-22T11:34:51Z</time>
      </trkpt>
      <trkpt lat="42.83876" lon="0.05996">
        <ele>2049</ele>
        <time>2012-12-22T11:34:53Z</time>
      </trkpt>
      <trkpt lat="42.83875" lon="0.05998">
        <ele>2049</ele>
        <time>2012-12-22T11:34:55Z</time>
      </trkpt>
      <trkpt lat="42.83874" lon="0.06">
        <ele>2049</ele>
        <time>2012-12-22T11:34:57Z</time>
      </trkpt>
      <trkpt lat="42.83873" lon="0.06002">
        <ele>2050</ele>
        <time>2012-12-22T11:34:59Z</time>
      </trkpt>
      <trkpt lat="42.83873" lon="0.06004">
        <ele>2050</ele>
        <time>2012-12-22T11:35:01Z</time>
      </trkpt>
      <trkpt lat="42.83872" lon="0.06006">
        <ele>2050</ele>
        <time>2012-12-22T11:35:03Z</time>
      </trkpt>
      <trkpt lat="42.83872" lon="0.06008">
        <ele>2050</ele>
        <time>2012-12-22T11:35:05Z</time>
      </trkpt>
      <trkpt lat="42.83871" lon="0.0601">
        <ele>2050</ele>
        <time>2012-12-22T11:35:07Z</time>
      </trkpt>
      <trkpt lat="42.8387" lon="0.06011">
        <ele>2050</ele>
        <time>2012-12-22T11:35:09Z</time>
      </trkpt>
      <trkpt lat="42.8387" lon="0.06013">
        <ele>2050</ele>
        <time>2012-12-22T11:35:11Z</time>
      </trkpt>
      <trkpt lat="42.83869" lon="0.06015">
        <ele>2051</ele>
        <time>2012-12-22T11:35:13Z</time>
      </trkpt>
      <trkpt lat="42.83868" lon="0.06016">
        <ele>2051</ele>
        <time>2012-12-22T11:35:15Z</time>
      </trkpt>
      <trkpt lat="42.83867" lon="0.06018">
        <ele>2051</ele>
        <time>2012-12-22T11:35:17Z</time>
      </trkpt>
      <trkpt lat="42.83866" lon="0.0602">
        <ele>2051</ele>
        <time>2012-12-22T11:35:20Z</time>
      </trkpt>
      <trkpt lat="42.83865" lon="0.06022">
        <ele>2051</ele>
        <time>2012-12-22T11:35:22Z</time>
      </trkpt>
      <trkpt lat="42.83865" lon="0.06023">
        <ele>2052</ele>
        <time>2012-12-22T11:35:24Z</time>
      </trkpt>
      <trkpt lat="42.83864" lon="0.06025">
        <ele>2052</ele>
        <time>2012-12-22T11:35:26Z</time>
      </trkpt>
      <trkpt lat="42.83863" lon="0.06026">
        <ele>2052</ele>
        <time>2012-12-22T11:35:28Z</time>
      </trkpt>
      <trkpt lat="42.83863" lon="0.06028">
        <ele>2053</ele>
        <time>2012-12-22T11:35:30Z</time>
      </trkpt>
      <trkpt lat="42.83862" lon="0.06029">
        <ele>2053</ele>
        <time>2012-12-22T11:35:32Z</time>
      </trkpt>
      <trkpt lat="42.83861" lon="0.06031">
        <ele>2053</ele>
        <time>2012-12-22T11:35:35Z</time>
      </trkpt>
      <trkpt lat="42.8386" lon="0.06033">
        <ele>2053</ele>
        <time>2012-12-22T11:35:37Z</time>
      </trkpt>
      <trkpt lat="42.83859" lon="0.06035">
        <ele>2054</ele>
        <time>2012-12-22T11:35:39Z</time>
      </trkpt>
      <trkpt lat="42.83858" lon="0.06037">
        <ele>2054</ele>
        <time>2012-12-22T11:35:41Z</time>
      </trkpt>
      <trkpt lat="42.83857" lon="0.06038">
        <ele>2054</ele>
        <time>2012-12-22T11:35:44Z</time>
      </trkpt>
      <trkpt lat="42.83856" lon="0.0604">
        <ele>2055</ele>
        <time>2012-12-22T11:35:46Z</time>
      </trkpt>
      <trkpt lat="42.83855" lon="0.06041">
        <ele>2055</ele>
        <time>2012-12-22T11:35:48Z</time>
      </trkpt>
      <trkpt lat="42.83854" lon="0.06043">
        <ele>2055</ele>
        <time>2012-12-22T11:35:50Z</time>
      </trkpt>
      <trkpt lat="42.83853" lon="0.06045">
        <ele>2055</ele>
        <time>2012-12-22T11:35:53Z</time>
      </trkpt>
      <trkpt lat="42.83852" lon="0.06047">
        <ele>2055</ele>
        <time>2012-12-22T11:35:55Z</time>
      </trkpt>
      <trkpt lat="42.83851" lon="0.06049">
        <ele>2056</ele>
        <time>2012-12-22T11:35:58Z</time>
      </trkpt>
      <trkpt lat="42.8385" lon="0.0605">
        <ele>2056</ele>
        <time>2012-12-22T11:36:00Z</time>
      </trkpt>
      <trkpt lat="42.83849" lon="0.06052">
        <ele>2056</ele>
        <time>2012-12-22T11:36:02Z</time>
      </trkpt>
      <trkpt lat="42.83848" lon="0.06054">
        <ele>2057</ele>
        <time>2012-12-22T11:36:05Z</time>
      </trkpt>
      <trkpt lat="42.83848" lon="0.06055">
        <ele>2057</ele>
        <time>2012-12-22T11:36:07Z</time>
      </trkpt>
      <trkpt lat="42.83847" lon="0.06057">
        <ele>2057</ele>
        <time>2012-12-22T11:36:09Z</time>
      </trkpt>
      <trkpt lat="42.83847" lon="0.06059">
        <ele>2057</ele>
        <time>2012-12-22T11:36:11Z</time>
      </trkpt>
      <trkpt lat="42.83846" lon="0.06061">
        <ele>2058</ele>
        <time>2012-12-22T11:36:13Z</time>
      </trkpt>
      <trkpt lat="42.83844" lon="0.06062">
        <ele>2059</ele>
        <time>2012-12-22T11:36:16Z</time>
      </trkpt>
      <trkpt lat="42.83843" lon="0.06063">
        <ele>2059</ele>
        <time>2012-12-22T11:36:18Z</time>
      </trkpt>
      <trkpt lat="42.83841" lon="0.06064">
        <ele>2059</ele>
        <time>2012-12-22T11:36:21Z</time>
      </trkpt>
      <trkpt lat="42.8384" lon="0.06067">
        <ele>2059</ele>
        <time>2012-12-22T11:36:24Z</time>
      </trkpt>
      <trkpt lat="42.83839" lon="0.06068">
        <ele>2060</ele>
        <time>2012-12-22T11:36:27Z</time>
      </trkpt>
      <trkpt lat="42.83838" lon="0.0607">
        <ele>2060</ele>
        <time>2012-12-22T11:36:30Z</time>
      </trkpt>
      <trkpt lat="42.83837" lon="0.06072">
        <ele>2060</ele>
        <time>2012-12-22T11:36:33Z</time>
      </trkpt>
      <trkpt lat="42.83836" lon="0.06074">
        <ele>2061</ele>
        <time>2012-12-22T11:36:35Z</time>
      </trkpt>
      <trkpt lat="42.83835" lon="0.06075">
        <ele>2061</ele>
        <time>2012-12-22T11:36:37Z</time>
      </trkpt>
      <trkpt lat="42.83834" lon="0.06077">
        <ele>2062</ele>
        <time>2012-12-22T11:36:39Z</time>
      </trkpt>
      <trkpt lat="42.83834" lon="0.06078">
        <ele>2062</ele>
        <time>2012-12-22T11:36:41Z</time>
      </trkpt>
      <trkpt lat="42.83833" lon="0.0608">
        <ele>2062</ele>
        <time>2012-12-22T11:36:43Z</time>
      </trkpt>
      <trkpt lat="42.83833" lon="0.06082">
        <ele>2062</ele>
        <time>2012-12-22T11:36:45Z</time>
      </trkpt>
      <trkpt lat="42.83832" lon="0.06083">
        <ele>2063</ele>
        <time>2012-12-22T11:36:47Z</time>
      </trkpt>
      <trkpt lat="42.83831" lon="0.06085">
        <ele>2063</ele>
        <time>2012-12-22T11:36:49Z</time>
      </trkpt>
      <trkpt lat="42.8383" lon="0.06087">
        <ele>2063</ele>
        <time>2012-12-22T11:36:52Z</time>
      </trkpt>
      <trkpt lat="42.83829" lon="0.06089">
        <ele>2063</ele>
        <time>2012-12-22T11:36:54Z</time>
      </trkpt>
      <trkpt lat="42.83828" lon="0.06091">
        <ele>2063</ele>
        <time>2012-12-22T11:36:57Z</time>
      </trkpt>
      <trkpt lat="42.83828" lon="0.06092">
        <ele>2064</ele>
        <time>2012-12-22T11:36:59Z</time>
      </trkpt>
      <trkpt lat="42.83827" lon="0.06094">
        <ele>2064</ele>
        <time>2012-12-22T11:37:01Z</time>
      </trkpt>
      <trkpt lat="42.83826" lon="0.06096">
        <ele>2064</ele>
        <time>2012-12-22T11:37:04Z</time>
      </trkpt>
      <trkpt lat="42.83826" lon="0.06097">
        <ele>2064</ele>
        <time>2012-12-22T11:37:06Z</time>
      </trkpt>
      <trkpt lat="42.83825" lon="0.06099">
        <ele>2064</ele>
        <time>2012-12-22T11:37:08Z</time>
      </trkpt>
      <trkpt lat="42.83824" lon="0.061">
        <ele>2064</ele>
        <time>2012-12-22T11:37:10Z</time>
      </trkpt>
      <trkpt lat="42.83823" lon="0.06102">
        <ele>2065</ele>
        <time>2012-12-22T11:37:12Z</time>
      </trkpt>
      <trkpt lat="42.83822" lon="0.06103">
        <ele>2065</ele>
        <time>2012-12-22T11:37:14Z</time>
      </trkpt>
      <trkpt lat="42.83821" lon="0.06105">
        <ele>2065</ele>
        <time>2012-12-22T11:37:16Z</time>
      </trkpt>
      <trkpt lat="42.8382" lon="0.06106">
        <ele>2065</ele>
        <time>2012-12-22T11:37:18Z</time>
      </trkpt>
      <trkpt lat="42.8382" lon="0.06108">
        <ele>2065</ele>
        <time>2012-12-22T11:37:20Z</time>
      </trkpt>
      <trkpt lat="42.83819" lon="0.06109">
        <ele>2066</ele>
        <time>2012-12-22T11:37:22Z</time>
      </trkpt>
      <trkpt lat="42.83818" lon="0.06111">
        <ele>2066</ele>
        <time>2012-12-22T11:37:24Z</time>
      </trkpt>
      <trkpt lat="42.83817" lon="0.06112">
        <ele>2066</ele>
        <time>2012-12-22T11:37:26Z</time>
      </trkpt>
      <trkpt lat="42.83816" lon="0.06114">
        <ele>2067</ele>
        <time>2012-12-22T11:37:28Z</time>
      </trkpt>
      <trkpt lat="42.83815" lon="0.06115">
        <ele>2067</ele>
        <time>2012-12-22T11:37:30Z</time>
      </trkpt>
      <trkpt lat="42.83815" lon="0.06117">
        <ele>2068</ele>
        <time>2012-12-22T11:37:32Z</time>
      </trkpt>
      <trkpt lat="42.83813" lon="0.06119">
        <ele>2068</ele>
        <time>2012-12-22T11:37:35Z</time>
      </trkpt>
      <trkpt lat="42.83812" lon="0.06121">
        <ele>2069</ele>
        <time>2012-12-22T11:37:37Z</time>
      </trkpt>
      <trkpt lat="42.83811" lon="0.06123">
        <ele>2069</ele>
        <time>2012-12-22T11:37:40Z</time>
      </trkpt>
      <trkpt lat="42.8381" lon="0.06124">
        <ele>2069</ele>
        <time>2012-12-22T11:37:43Z</time>
      </trkpt>
      <trkpt lat="42.83809" lon="0.06126">
        <ele>2070</ele>
        <time>2012-12-22T11:37:46Z</time>
      </trkpt>
      <trkpt lat="42.83808" lon="0.06128">
        <ele>2071</ele>
        <time>2012-12-22T11:37:59Z</time>
      </trkpt>
      <trkpt lat="42.83807" lon="0.06129">
        <ele>2071</ele>
        <time>2012-12-22T11:38:01Z</time>
      </trkpt>
      <trkpt lat="42.83806" lon="0.06131">
        <ele>2071</ele>
        <time>2012-12-22T11:38:04Z</time>
      </trkpt>
      <trkpt lat="42.83805" lon="0.06132">
        <ele>2071</ele>
        <time>2012-12-22T11:38:07Z</time>
      </trkpt>
      <trkpt lat="42.83803" lon="0.06133">
        <ele>2072</ele>
        <time>2012-12-22T11:38:10Z</time>
      </trkpt>
      <trkpt lat="42.83802" lon="0.06134">
        <ele>2072</ele>
        <time>2012-12-22T11:38:12Z</time>
      </trkpt>
      <trkpt lat="42.838" lon="0.06135">
        <ele>2073</ele>
        <time>2012-12-22T11:38:15Z</time>
      </trkpt>
      <trkpt lat="42.83799" lon="0.06136">
        <ele>2073</ele>
        <time>2012-12-22T11:38:17Z</time>
      </trkpt>
      <trkpt lat="42.83797" lon="0.06137">
        <ele>2074</ele>
        <time>2012-12-22T11:38:20Z</time>
      </trkpt>
      <trkpt lat="42.83796" lon="0.06137">
        <ele>2074</ele>
        <time>2012-12-22T11:38:22Z</time>
      </trkpt>
      <trkpt lat="42.83795" lon="0.06137">
        <ele>2074</ele>
        <time>2012-12-22T11:38:24Z</time>
      </trkpt>
      <trkpt lat="42.83793" lon="0.06137">
        <ele>2075</ele>
        <time>2012-12-22T11:38:27Z</time>
      </trkpt>
      <trkpt lat="42.83792" lon="0.06138">
        <ele>2076</ele>
        <time>2012-12-22T11:38:30Z</time>
      </trkpt>
      <trkpt lat="42.8379" lon="0.06139">
        <ele>2076</ele>
        <time>2012-12-22T11:38:33Z</time>
      </trkpt>
      <trkpt lat="42.83789" lon="0.06139">
        <ele>2077</ele>
        <time>2012-12-22T11:38:36Z</time>
      </trkpt>
      <trkpt lat="42.83787" lon="0.0614">
        <ele>2078</ele>
        <time>2012-12-22T11:38:39Z</time>
      </trkpt>
      <trkpt lat="42.83786" lon="0.0614">
        <ele>2078</ele>
        <time>2012-12-22T11:38:42Z</time>
      </trkpt>
      <trkpt lat="42.83784" lon="0.06141">
        <ele>2079</ele>
        <time>2012-12-22T11:38:44Z</time>
      </trkpt>
      <trkpt lat="42.83783" lon="0.06142">
        <ele>2079</ele>
        <time>2012-12-22T11:38:47Z</time>
      </trkpt>
      <trkpt lat="42.83781" lon="0.06142">
        <ele>2079</ele>
        <time>2012-12-22T11:38:49Z</time>
      </trkpt>
      <trkpt lat="42.8378" lon="0.06143">
        <ele>2080</ele>
        <time>2012-12-22T11:38:51Z</time>
      </trkpt>
      <trkpt lat="42.83779" lon="0.06143">
        <ele>2081</ele>
        <time>2012-12-22T11:38:53Z</time>
      </trkpt>
      <trkpt lat="42.83777" lon="0.06143">
        <ele>2082</ele>
        <time>2012-12-22T11:38:56Z</time>
      </trkpt>
      <trkpt lat="42.83776" lon="0.06144">
        <ele>2082</ele>
        <time>2012-12-22T11:38:59Z</time>
      </trkpt>
      <trkpt lat="42.83774" lon="0.06144">
        <ele>2082</ele>
        <time>2012-12-22T11:39:01Z</time>
      </trkpt>
      <trkpt lat="42.83773" lon="0.06144">
        <ele>2082</ele>
        <time>2012-12-22T11:39:03Z</time>
      </trkpt>
      <trkpt lat="42.83772" lon="0.06145">
        <ele>2083</ele>
        <time>2012-12-22T11:39:06Z</time>
      </trkpt>
      <trkpt lat="42.83771" lon="0.06147">
        <ele>2083</ele>
        <time>2012-12-22T11:39:09Z</time>
      </trkpt>
      <trkpt lat="42.83772" lon="0.06148">
        <ele>2083</ele>
        <time>2012-12-22T11:39:16Z</time>
      </trkpt>
      <trkpt lat="42.83773" lon="0.0615">
        <ele>2083</ele>
        <time>2012-12-22T11:39:19Z</time>
      </trkpt>
      <trkpt lat="42.83773" lon="0.06152">
        <ele>2083</ele>
        <time>2012-12-22T11:39:21Z</time>
      </trkpt>
      <trkpt lat="42.83774" lon="0.06154">
        <ele>2083</ele>
        <time>2012-12-22T11:39:23Z</time>
      </trkpt>
      <trkpt lat="42.83775" lon="0.06155">
        <ele>2083</ele>
        <time>2012-12-22T11:39:25Z</time>
      </trkpt>
      <trkpt lat="42.83776" lon="0.06157">
        <ele>2083</ele>
        <time>2012-12-22T11:39:28Z</time>
      </trkpt>
      <trkpt lat="42.83776" lon="0.06158">
        <ele>2083</ele>
        <time>2012-12-22T11:39:30Z</time>
      </trkpt>
      <trkpt lat="42.83777" lon="0.0616">
        <ele>2083</ele>
        <time>2012-12-22T11:39:32Z</time>
      </trkpt>
      <trkpt lat="42.83777" lon="0.06161">
        <ele>2083</ele>
        <time>2012-12-22T11:39:34Z</time>
      </trkpt>
      <trkpt lat="42.83778" lon="0.06163">
        <ele>2083</ele>
        <time>2012-12-22T11:39:36Z</time>
      </trkpt>
      <trkpt lat="42.83778" lon="0.06165">
        <ele>2083</ele>
        <time>2012-12-22T11:39:38Z</time>
      </trkpt>
      <trkpt lat="42.83778" lon="0.06166">
        <ele>2083</ele>
        <time>2012-12-22T11:39:40Z</time>
      </trkpt>
      <trkpt lat="42.83779" lon="0.06168">
        <ele>2083</ele>
        <time>2012-12-22T11:39:42Z</time>
      </trkpt>
      <trkpt lat="42.8378" lon="0.0617">
        <ele>2083</ele>
        <time>2012-12-22T11:39:45Z</time>
      </trkpt>
      <trkpt lat="42.83778" lon="0.06171">
        <ele>2084</ele>
        <time>2012-12-22T11:39:49Z</time>
      </trkpt>
      <trkpt lat="42.83777" lon="0.06172">
        <ele>2085</ele>
        <time>2012-12-22T11:39:52Z</time>
      </trkpt>
      <trkpt lat="42.83776" lon="0.06173">
        <ele>2086</ele>
        <time>2012-12-22T11:39:55Z</time>
      </trkpt>
      <trkpt lat="42.83775" lon="0.06173">
        <ele>2086</ele>
        <time>2012-12-22T11:39:57Z</time>
      </trkpt>
      <trkpt lat="42.83773" lon="0.06173">
        <ele>2087</ele>
        <time>2012-12-22T11:39:59Z</time>
      </trkpt>
      <trkpt lat="42.83771" lon="0.06172">
        <ele>2088</ele>
        <time>2012-12-22T11:40:02Z</time>
      </trkpt>
      <trkpt lat="42.8377" lon="0.06171">
        <ele>2089</ele>
        <time>2012-12-22T11:40:04Z</time>
      </trkpt>
      <trkpt lat="42.83769" lon="0.06171">
        <ele>2090</ele>
        <time>2012-12-22T11:40:06Z</time>
      </trkpt>
      <trkpt lat="42.83767" lon="0.06171">
        <ele>2091</ele>
        <time>2012-12-22T11:40:08Z</time>
      </trkpt>
      <trkpt lat="42.83766" lon="0.06171">
        <ele>2091</ele>
        <time>2012-12-22T11:40:10Z</time>
      </trkpt>
      <trkpt lat="42.83765" lon="0.06171">
        <ele>2092</ele>
        <time>2012-12-22T11:40:12Z</time>
      </trkpt>
      <trkpt lat="42.83764" lon="0.06173">
        <ele>2093</ele>
        <time>2012-12-22T11:40:15Z</time>
      </trkpt>
      <trkpt lat="42.83764" lon="0.06175">
        <ele>2094</ele>
        <time>2012-12-22T11:40:17Z</time>
      </trkpt>
      <trkpt lat="42.83764" lon="0.06177">
        <ele>2094</ele>
        <time>2012-12-22T11:40:19Z</time>
      </trkpt>
      <trkpt lat="42.83765" lon="0.06179">
        <ele>2095</ele>
        <time>2012-12-22T11:40:21Z</time>
      </trkpt>
      <trkpt lat="42.83765" lon="0.06181">
        <ele>2095</ele>
        <time>2012-12-22T11:40:24Z</time>
      </trkpt>
      <trkpt lat="42.83766" lon="0.06182">
        <ele>2095</ele>
        <time>2012-12-22T11:40:26Z</time>
      </trkpt>
      <trkpt lat="42.83767" lon="0.06184">
        <ele>2096</ele>
        <time>2012-12-22T11:40:29Z</time>
      </trkpt>
      <trkpt lat="42.83768" lon="0.06185">
        <ele>2097</ele>
        <time>2012-12-22T11:40:31Z</time>
      </trkpt>
      <trkpt lat="42.8377" lon="0.06186">
        <ele>2097</ele>
        <time>2012-12-22T11:40:34Z</time>
      </trkpt>
      <trkpt lat="42.83771" lon="0.06187">
        <ele>2098</ele>
        <time>2012-12-22T11:40:48Z</time>
      </trkpt>
      <trkpt lat="42.83773" lon="0.06188">
        <ele>2098</ele>
        <time>2012-12-22T11:40:51Z</time>
      </trkpt>
      <trkpt lat="42.83774" lon="0.06189">
        <ele>2098</ele>
        <time>2012-12-22T11:40:53Z</time>
      </trkpt>
      <trkpt lat="42.83775" lon="0.0619">
        <ele>2098</ele>
        <time>2012-12-22T11:40:56Z</time>
      </trkpt>
      <trkpt lat="42.83777" lon="0.06191">
        <ele>2098</ele>
        <time>2012-12-22T11:40:59Z</time>
      </trkpt>
      <trkpt lat="42.83778" lon="0.06194">
        <ele>2100</ele>
        <time>2012-12-22T11:41:04Z</time>
      </trkpt>
      <trkpt lat="42.83779" lon="0.06195">
        <ele>2100</ele>
        <time>2012-12-22T11:41:06Z</time>
      </trkpt>
      <trkpt lat="42.8378" lon="0.06197">
        <ele>2100</ele>
        <time>2012-12-22T11:41:12Z</time>
      </trkpt>
      <trkpt lat="42.83781" lon="0.06199">
        <ele>2100</ele>
        <time>2012-12-22T11:41:15Z</time>
      </trkpt>
      <trkpt lat="42.83783" lon="0.062">
        <ele>2100</ele>
        <time>2012-12-22T11:41:22Z</time>
      </trkpt>
      <trkpt lat="42.83784" lon="0.06201">
        <ele>2100</ele>
        <time>2012-12-22T11:41:24Z</time>
      </trkpt>
      <trkpt lat="42.83785" lon="0.06203">
        <ele>2100</ele>
        <time>2012-12-22T11:41:27Z</time>
      </trkpt>
      <trkpt lat="42.83786" lon="0.06204">
        <ele>2100</ele>
        <time>2012-12-22T11:41:30Z</time>
      </trkpt>
      <trkpt lat="42.83788" lon="0.06206">
        <ele>2100</ele>
        <time>2012-12-22T11:41:34Z</time>
      </trkpt>
      <trkpt lat="42.83789" lon="0.06207">
        <ele>2101</ele>
        <time>2012-12-22T11:41:37Z</time>
      </trkpt>
      <trkpt lat="42.83791" lon="0.06208">
        <ele>2102</ele>
        <time>2012-12-22T11:41:40Z</time>
      </trkpt>
      <trkpt lat="42.83792" lon="0.06209">
        <ele>2102</ele>
        <time>2012-12-22T11:41:43Z</time>
      </trkpt>
      <trkpt lat="42.83794" lon="0.0621">
        <ele>2103</ele>
        <time>2012-12-22T11:41:46Z</time>
      </trkpt>
      <trkpt lat="42.83795" lon="0.06211">
        <ele>2103</ele>
        <time>2012-12-22T11:41:49Z</time>
      </trkpt>
      <trkpt lat="42.83797" lon="0.06213">
        <ele>2103</ele>
        <time>2012-12-22T11:41:52Z</time>
      </trkpt>
      <trkpt lat="42.83798" lon="0.06213">
        <ele>2103</ele>
        <time>2012-12-22T11:41:54Z</time>
      </trkpt>
      <trkpt lat="42.83799" lon="0.06214">
        <ele>2103</ele>
        <time>2012-12-22T11:41:56Z</time>
      </trkpt>
      <trkpt lat="42.838" lon="0.06216">
        <ele>2103</ele>
        <time>2012-12-22T11:41:59Z</time>
      </trkpt>
      <trkpt lat="42.83802" lon="0.06217">
        <ele>2103</ele>
        <time>2012-12-22T11:42:02Z</time>
      </trkpt>
      <trkpt lat="42.83803" lon="0.06217">
        <ele>2103</ele>
        <time>2012-12-22T11:42:04Z</time>
      </trkpt>
      <trkpt lat="42.83804" lon="0.06218">
        <ele>2103</ele>
        <time>2012-12-22T11:42:06Z</time>
      </trkpt>
      <trkpt lat="42.83806" lon="0.06219">
        <ele>2103</ele>
        <time>2012-12-22T11:42:08Z</time>
      </trkpt>
      <trkpt lat="42.83807" lon="0.06219">
        <ele>2103</ele>
        <time>2012-12-22T11:42:10Z</time>
      </trkpt>
      <trkpt lat="42.83808" lon="0.0622">
        <ele>2103</ele>
        <time>2012-12-22T11:42:12Z</time>
      </trkpt>
      <trkpt lat="42.83809" lon="0.06221">
        <ele>2104</ele>
        <time>2012-12-22T11:42:14Z</time>
      </trkpt>
      <trkpt lat="42.8381" lon="0.06221">
        <ele>2104</ele>
        <time>2012-12-22T11:42:16Z</time>
      </trkpt>
      <trkpt lat="42.83812" lon="0.06222">
        <ele>2105</ele>
        <time>2012-12-22T11:42:18Z</time>
      </trkpt>
      <trkpt lat="42.83813" lon="0.06222">
        <ele>2105</ele>
        <time>2012-12-22T11:42:22Z</time>
      </trkpt>
      <trkpt lat="42.83812" lon="0.06223">
        <ele>2106</ele>
        <time>2012-12-22T11:42:34Z</time>
      </trkpt>
      <trkpt lat="42.8381" lon="0.06223">
        <ele>2106</ele>
        <time>2012-12-22T11:42:37Z</time>
      </trkpt>
      <trkpt lat="42.83809" lon="0.06223">
        <ele>2106</ele>
        <time>2012-12-22T11:42:39Z</time>
      </trkpt>
      <trkpt lat="42.83807" lon="0.06224">
        <ele>2106</ele>
        <time>2012-12-22T11:42:42Z</time>
      </trkpt>
      <trkpt lat="42.83806" lon="0.06224">
        <ele>2106</ele>
        <time>2012-12-22T11:42:45Z</time>
      </trkpt>
      <trkpt lat="42.83804" lon="0.06224">
        <ele>2106</ele>
        <time>2012-12-22T11:42:47Z</time>
      </trkpt>
      <trkpt lat="42.83802" lon="0.06224">
        <ele>2106</ele>
        <time>2012-12-22T11:42:49Z</time>
      </trkpt>
      <trkpt lat="42.83801" lon="0.06225">
        <ele>2106</ele>
        <time>2012-12-22T11:42:51Z</time>
      </trkpt>
      <trkpt lat="42.838" lon="0.06225">
        <ele>2106</ele>
        <time>2012-12-22T11:42:53Z</time>
      </trkpt>
      <trkpt lat="42.83798" lon="0.06226">
        <ele>2106</ele>
        <time>2012-12-22T11:43:01Z</time>
      </trkpt>
      <trkpt lat="42.83797" lon="0.06227">
        <ele>2106</ele>
        <time>2012-12-22T11:43:04Z</time>
      </trkpt>
      <trkpt lat="42.83795" lon="0.06227">
        <ele>2106</ele>
        <time>2012-12-22T11:43:07Z</time>
      </trkpt>
      <trkpt lat="42.83794" lon="0.06228">
        <ele>2106</ele>
        <time>2012-12-22T11:43:09Z</time>
      </trkpt>
      <trkpt lat="42.83792" lon="0.06228">
        <ele>2106</ele>
        <time>2012-12-22T11:43:12Z</time>
      </trkpt>
      <trkpt lat="42.83791" lon="0.06228">
        <ele>2106</ele>
        <time>2012-12-22T11:43:14Z</time>
      </trkpt>
      <trkpt lat="42.8379" lon="0.06229">
        <ele>2106</ele>
        <time>2012-12-22T11:43:16Z</time>
      </trkpt>
      <trkpt lat="42.83789" lon="0.06229">
        <ele>2106</ele>
        <time>2012-12-22T11:43:18Z</time>
      </trkpt>
      <trkpt lat="42.83787" lon="0.06229">
        <ele>2106</ele>
        <time>2012-12-22T11:43:21Z</time>
      </trkpt>
      <trkpt lat="42.83786" lon="0.0623">
        <ele>2106</ele>
        <time>2012-12-22T11:43:23Z</time>
      </trkpt>
      <trkpt lat="42.83785" lon="0.0623">
        <ele>2106</ele>
        <time>2012-12-22T11:43:25Z</time>
      </trkpt>
      <trkpt lat="42.83783" lon="0.0623">
        <ele>2106</ele>
        <time>2012-12-22T11:43:27Z</time>
      </trkpt>
      <trkpt lat="42.83782" lon="0.06231">
        <ele>2106</ele>
        <time>2012-12-22T11:43:29Z</time>
      </trkpt>
      <trkpt lat="42.83781" lon="0.06231">
        <ele>2106</ele>
        <time>2012-12-22T11:43:31Z</time>
      </trkpt>
      <trkpt lat="42.8378" lon="0.06231">
        <ele>2106</ele>
        <time>2012-12-22T11:43:33Z</time>
      </trkpt>
      <trkpt lat="42.83779" lon="0.06232">
        <ele>2106</ele>
        <time>2012-12-22T11:43:35Z</time>
      </trkpt>
      <trkpt lat="42.83777" lon="0.06232">
        <ele>2106</ele>
        <time>2012-12-22T11:43:37Z</time>
      </trkpt>
      <trkpt lat="42.83776" lon="0.06232">
        <ele>2106</ele>
        <time>2012-12-22T11:43:39Z</time>
      </trkpt>
      <trkpt lat="42.83775" lon="0.06233">
        <ele>2106</ele>
        <time>2012-12-22T11:43:41Z</time>
      </trkpt>
      <trkpt lat="42.83775" lon="0.06234">
        <ele>2108</ele>
        <time>2012-12-22T11:43:50Z</time>
      </trkpt>
      <trkpt lat="42.83776" lon="0.06235">
        <ele>2109</ele>
        <time>2012-12-22T11:43:53Z</time>
      </trkpt>
      <trkpt lat="42.83777" lon="0.06236">
        <ele>2110</ele>
        <time>2012-12-22T11:43:55Z</time>
      </trkpt>
      <trkpt lat="42.83778" lon="0.06238">
        <ele>2111</ele>
        <time>2012-12-22T11:43:57Z</time>
      </trkpt>
      <trkpt lat="42.8378" lon="0.06239">
        <ele>2112</ele>
        <time>2012-12-22T11:44:00Z</time>
      </trkpt>
      <trkpt lat="42.83781" lon="0.0624">
        <ele>2112</ele>
        <time>2012-12-22T11:44:02Z</time>
      </trkpt>
      <trkpt lat="42.83782" lon="0.06241">
        <ele>2113</ele>
        <time>2012-12-22T11:44:04Z</time>
      </trkpt>
      <trkpt lat="42.83784" lon="0.06242">
        <ele>2114</ele>
        <time>2012-12-22T11:44:07Z</time>
      </trkpt>
      <trkpt lat="42.83785" lon="0.06243">
        <ele>2115</ele>
        <time>2012-12-22T11:44:10Z</time>
      </trkpt>
      <trkpt lat="42.83787" lon="0.06244">
        <ele>2115</ele>
        <time>2012-12-22T11:44:12Z</time>
      </trkpt>
      <trkpt lat="42.83788" lon="0.06245">
        <ele>2116</ele>
        <time>2012-12-22T11:44:15Z</time>
      </trkpt>
      <trkpt lat="42.83789" lon="0.06247">
        <ele>2116</ele>
        <time>2012-12-22T11:44:18Z</time>
      </trkpt>
      <trkpt lat="42.83791" lon="0.06248">
        <ele>2116</ele>
        <time>2012-12-22T11:44:21Z</time>
      </trkpt>
      <trkpt lat="42.83791" lon="0.06249">
        <ele>2117</ele>
        <time>2012-12-22T11:44:38Z</time>
      </trkpt>
      <trkpt lat="42.83792" lon="0.0625">
        <ele>2118</ele>
        <time>2012-12-22T11:44:41Z</time>
      </trkpt>
      <trkpt lat="42.83794" lon="0.06251">
        <ele>2118</ele>
        <time>2012-12-22T11:44:43Z</time>
      </trkpt>
      <trkpt lat="42.83792" lon="0.06252">
        <ele>2120</ele>
        <time>2012-12-22T11:45:00Z</time>
      </trkpt>
      <trkpt lat="42.83791" lon="0.06252">
        <ele>2120</ele>
        <time>2012-12-22T11:45:02Z</time>
      </trkpt>
      <trkpt lat="42.8379" lon="0.06253">
        <ele>2120</ele>
        <time>2012-12-22T11:45:04Z</time>
      </trkpt>
      <trkpt lat="42.83788" lon="0.06253">
        <ele>2120</ele>
        <time>2012-12-22T11:45:06Z</time>
      </trkpt>
      <trkpt lat="42.83787" lon="0.06253">
        <ele>2120</ele>
        <time>2012-12-22T11:45:08Z</time>
      </trkpt>
      <trkpt lat="42.83786" lon="0.06254">
        <ele>2120</ele>
        <time>2012-12-22T11:45:10Z</time>
      </trkpt>
      <trkpt lat="42.83784" lon="0.06254">
        <ele>2120</ele>
        <time>2012-12-22T11:45:12Z</time>
      </trkpt>
      <trkpt lat="42.83783" lon="0.06254">
        <ele>2120</ele>
        <time>2012-12-22T11:45:14Z</time>
      </trkpt>
      <trkpt lat="42.83782" lon="0.06255">
        <ele>2120</ele>
        <time>2012-12-22T11:45:16Z</time>
      </trkpt>
      <trkpt lat="42.83781" lon="0.06255">
        <ele>2120</ele>
        <time>2012-12-22T11:45:18Z</time>
      </trkpt>
      <trkpt lat="42.83779" lon="0.06255">
        <ele>2120</ele>
        <time>2012-12-22T11:45:20Z</time>
      </trkpt>
      <trkpt lat="42.83778" lon="0.06256">
        <ele>2120</ele>
        <time>2012-12-22T11:45:22Z</time>
      </trkpt>
      <trkpt lat="42.83777" lon="0.06256">
        <ele>2120</ele>
        <time>2012-12-22T11:45:24Z</time>
      </trkpt>
      <trkpt lat="42.83775" lon="0.06256">
        <ele>2121</ele>
        <time>2012-12-22T11:45:26Z</time>
      </trkpt>
      <trkpt lat="42.83774" lon="0.06256">
        <ele>2121</ele>
        <time>2012-12-22T11:45:28Z</time>
      </trkpt>
      <trkpt lat="42.83773" lon="0.06257">
        <ele>2121</ele>
        <time>2012-12-22T11:45:30Z</time>
      </trkpt>
      <trkpt lat="42.83772" lon="0.06257">
        <ele>2121</ele>
        <time>2012-12-22T11:45:32Z</time>
      </trkpt>
      <trkpt lat="42.8377" lon="0.06258">
        <ele>2121</ele>
        <time>2012-12-22T11:45:34Z</time>
      </trkpt>
      <trkpt lat="42.83769" lon="0.06259">
        <ele>2121</ele>
        <time>2012-12-22T11:45:36Z</time>
      </trkpt>
      <trkpt lat="42.83768" lon="0.06259">
        <ele>2121</ele>
        <time>2012-12-22T11:45:39Z</time>
      </trkpt>
      <trkpt lat="42.83767" lon="0.0626">
        <ele>2122</ele>
        <time>2012-12-22T11:45:42Z</time>
      </trkpt>
      <trkpt lat="42.83765" lon="0.0626">
        <ele>2123</ele>
        <time>2012-12-22T11:45:45Z</time>
      </trkpt>
      <trkpt lat="42.83763" lon="0.0626">
        <ele>2123</ele>
        <time>2012-12-22T11:45:48Z</time>
      </trkpt>
      <trkpt lat="42.83762" lon="0.06261">
        <ele>2123</ele>
        <time>2012-12-22T11:45:50Z</time>
      </trkpt>
      <trkpt lat="42.83761" lon="0.06261">
        <ele>2123</ele>
        <time>2012-12-22T11:45:52Z</time>
      </trkpt>
      <trkpt lat="42.8376" lon="0.06262">
        <ele>2124</ele>
        <time>2012-12-22T11:45:57Z</time>
      </trkpt>
      <trkpt lat="42.83759" lon="0.06263">
        <ele>2124</ele>
        <time>2012-12-22T11:46:00Z</time>
      </trkpt>
      <trkpt lat="42.83757" lon="0.06264">
        <ele>2124</ele>
        <time>2012-12-22T11:46:02Z</time>
      </trkpt>
      <trkpt lat="42.83756" lon="0.06264">
        <ele>2127</ele>
        <time>2012-12-22T11:46:07Z</time>
      </trkpt>
      <trkpt lat="42.83755" lon="0.06264">
        <ele>2130</ele>
        <time>2012-12-22T11:46:21Z</time>
      </trkpt>
      <trkpt lat="42.83753" lon="0.06265">
        <ele>2130</ele>
        <time>2012-12-22T11:46:24Z</time>
      </trkpt>
      <trkpt lat="42.83752" lon="0.06266">
        <ele>2130</ele>
        <time>2012-12-22T11:46:27Z</time>
      </trkpt>
      <trkpt lat="42.83751" lon="0.06266">
        <ele>2130</ele>
        <time>2012-12-22T11:46:29Z</time>
      </trkpt>
      <trkpt lat="42.83749" lon="0.06267">
        <ele>2130</ele>
        <time>2012-12-22T11:46:32Z</time>
      </trkpt>
      <trkpt lat="42.83748" lon="0.06268">
        <ele>2130</ele>
        <time>2012-12-22T11:46:35Z</time>
      </trkpt>
      <trkpt lat="42.83746" lon="0.06268">
        <ele>2131</ele>
        <time>2012-12-22T11:46:38Z</time>
      </trkpt>
      <trkpt lat="42.83745" lon="0.06269">
        <ele>2131</ele>
        <time>2012-12-22T11:46:41Z</time>
      </trkpt>
      <trkpt lat="42.83743" lon="0.06271">
        <ele>2131</ele>
        <time>2012-12-22T11:46:44Z</time>
      </trkpt>
      <trkpt lat="42.83743" lon="0.06272">
        <ele>2131</ele>
        <time>2012-12-22T11:46:46Z</time>
      </trkpt>
      <trkpt lat="42.83742" lon="0.06274">
        <ele>2131</ele>
        <time>2012-12-22T11:46:48Z</time>
      </trkpt>
      <trkpt lat="42.83741" lon="0.06275">
        <ele>2131</ele>
        <time>2012-12-22T11:46:51Z</time>
      </trkpt>
      <trkpt lat="42.83739" lon="0.06277">
        <ele>2131</ele>
        <time>2012-12-22T11:46:54Z</time>
      </trkpt>
      <trkpt lat="42.83738" lon="0.06277">
        <ele>2131</ele>
        <time>2012-12-22T11:46:56Z</time>
      </trkpt>
      <trkpt lat="42.83737" lon="0.06278">
        <ele>2131</ele>
        <time>2012-12-22T11:46:58Z</time>
      </trkpt>
      <trkpt lat="42.83735" lon="0.06278">
        <ele>2131</ele>
        <time>2012-12-22T11:47:00Z</time>
      </trkpt>
      <trkpt lat="42.83734" lon="0.06278">
        <ele>2131</ele>
        <time>2012-12-22T11:47:02Z</time>
      </trkpt>
      <trkpt lat="42.83733" lon="0.06279">
        <ele>2132</ele>
        <time>2012-12-22T11:47:04Z</time>
      </trkpt>
      <trkpt lat="42.83731" lon="0.06279">
        <ele>2133</ele>
        <time>2012-12-22T11:47:06Z</time>
      </trkpt>
      <trkpt lat="42.8373" lon="0.06279">
        <ele>2134</ele>
        <time>2012-12-22T11:47:08Z</time>
      </trkpt>
      <trkpt lat="42.83728" lon="0.06279">
        <ele>2135</ele>
        <time>2012-12-22T11:47:10Z</time>
      </trkpt>
      <trkpt lat="42.83727" lon="0.06279">
        <ele>2136</ele>
        <time>2012-12-22T11:47:12Z</time>
      </trkpt>
      <trkpt lat="42.83725" lon="0.0628">
        <ele>2140</ele>
        <time>2012-12-22T11:47:51Z</time>
      </trkpt>
      <trkpt lat="42.83724" lon="0.0628">
        <ele>2140</ele>
        <time>2012-12-22T11:47:53Z</time>
      </trkpt>
      <trkpt lat="42.83723" lon="0.06281">
        <ele>2140</ele>
        <time>2012-12-22T11:47:55Z</time>
      </trkpt>
      <trkpt lat="42.83721" lon="0.06281">
        <ele>2140</ele>
        <time>2012-12-22T11:47:57Z</time>
      </trkpt>
      <trkpt lat="42.8372" lon="0.06282">
        <ele>2140</ele>
        <time>2012-12-22T11:47:59Z</time>
      </trkpt>
      <trkpt lat="42.83719" lon="0.06282">
        <ele>2140</ele>
        <time>2012-12-22T11:48:01Z</time>
      </trkpt>
      <trkpt lat="42.83717" lon="0.06283">
        <ele>2140</ele>
        <time>2012-12-22T11:48:03Z</time>
      </trkpt>
      <trkpt lat="42.83716" lon="0.06283">
        <ele>2140</ele>
        <time>2012-12-22T11:48:05Z</time>
      </trkpt>
      <trkpt lat="42.83714" lon="0.06284">
        <ele>2140</ele>
        <time>2012-12-22T11:48:07Z</time>
      </trkpt>
      <trkpt lat="42.83713" lon="0.06284">
        <ele>2140</ele>
        <time>2012-12-22T11:48:09Z</time>
      </trkpt>
      <trkpt lat="42.83712" lon="0.06284">
        <ele>2141</ele>
        <time>2012-12-22T11:48:11Z</time>
      </trkpt>
      <trkpt lat="42.8371" lon="0.06284">
        <ele>2141</ele>
        <time>2012-12-22T11:48:13Z</time>
      </trkpt>
      <trkpt lat="42.83709" lon="0.06284">
        <ele>2141</ele>
        <time>2012-12-22T11:48:15Z</time>
      </trkpt>
      <trkpt lat="42.83707" lon="0.06284">
        <ele>2142</ele>
        <time>2012-12-22T11:48:17Z</time>
      </trkpt>
      <trkpt lat="42.83705" lon="0.06284">
        <ele>2142</ele>
        <time>2012-12-22T11:48:19Z</time>
      </trkpt>
      <trkpt lat="42.83705" lon="0.06286">
        <ele>2142</ele>
        <time>2012-12-22T11:48:20Z</time>
      </trkpt>
      <trkpt lat="42.83704" lon="0.06287">
        <ele>2142</ele>
        <time>2012-12-22T11:48:21Z</time>
      </trkpt>
      <trkpt lat="42.83703" lon="0.06288">
        <ele>2142</ele>
        <time>2012-12-22T11:48:23Z</time>
      </trkpt>
      <trkpt lat="42.83701" lon="0.06288">
        <ele>2142</ele>
        <time>2012-12-22T11:48:25Z</time>
      </trkpt>
      <trkpt lat="42.837" lon="0.06288">
        <ele>2142</ele>
        <time>2012-12-22T11:48:27Z</time>
      </trkpt>
      <trkpt lat="42.83698" lon="0.06288">
        <ele>2142</ele>
        <time>2012-12-22T11:48:29Z</time>
      </trkpt>
      <trkpt lat="42.83696" lon="0.06288">
        <ele>2142</ele>
        <time>2012-12-22T11:48:31Z</time>
      </trkpt>
      <trkpt lat="42.83695" lon="0.06288">
        <ele>2142</ele>
        <time>2012-12-22T11:48:33Z</time>
      </trkpt>
      <trkpt lat="42.83693" lon="0.06288">
        <ele>2142</ele>
        <time>2012-12-22T11:48:35Z</time>
      </trkpt>
      <trkpt lat="42.83692" lon="0.06289">
        <ele>2142</ele>
        <time>2012-12-22T11:48:37Z</time>
      </trkpt>
      <trkpt lat="42.8369" lon="0.06288">
        <ele>2142</ele>
        <time>2012-12-22T11:48:39Z</time>
      </trkpt>
      <trkpt lat="42.83688" lon="0.06288">
        <ele>2142</ele>
        <time>2012-12-22T11:48:41Z</time>
      </trkpt>
      <trkpt lat="42.83687" lon="0.06288">
        <ele>2143</ele>
        <time>2012-12-22T11:48:43Z</time>
      </trkpt>
      <trkpt lat="42.83686" lon="0.06289">
        <ele>2143</ele>
        <time>2012-12-22T11:48:45Z</time>
      </trkpt>
      <trkpt lat="42.83684" lon="0.06289">
        <ele>2143</ele>
        <time>2012-12-22T11:48:47Z</time>
      </trkpt>
      <trkpt lat="42.83683" lon="0.06289">
        <ele>2143</ele>
        <time>2012-12-22T11:48:49Z</time>
      </trkpt>
      <trkpt lat="42.83681" lon="0.06289">
        <ele>2143</ele>
        <time>2012-12-22T11:48:51Z</time>
      </trkpt>
      <trkpt lat="42.8368" lon="0.0629">
        <ele>2144</ele>
        <time>2012-12-22T11:48:53Z</time>
      </trkpt>
      <trkpt lat="42.83678" lon="0.0629">
        <ele>2144</ele>
        <time>2012-12-22T11:48:55Z</time>
      </trkpt>
      <trkpt lat="42.83677" lon="0.0629">
        <ele>2144</ele>
        <time>2012-12-22T11:48:57Z</time>
      </trkpt>
      <trkpt lat="42.83675" lon="0.0629">
        <ele>2145</ele>
        <time>2012-12-22T11:48:59Z</time>
      </trkpt>
      <trkpt lat="42.83674" lon="0.06291">
        <ele>2145</ele>
        <time>2012-12-22T11:49:01Z</time>
      </trkpt>
      <trkpt lat="42.83672" lon="0.06291">
        <ele>2145</ele>
        <time>2012-12-22T11:49:03Z</time>
      </trkpt>
      <trkpt lat="42.83671" lon="0.06291">
        <ele>2146</ele>
        <time>2012-12-22T11:49:05Z</time>
      </trkpt>
      <trkpt lat="42.8367" lon="0.06291">
        <ele>2146</ele>
        <time>2012-12-22T11:49:07Z</time>
      </trkpt>
      <trkpt lat="42.83669" lon="0.06292">
        <ele>2146</ele>
        <time>2012-12-22T11:49:09Z</time>
      </trkpt>
      <trkpt lat="42.83667" lon="0.06292">
        <ele>2147</ele>
        <time>2012-12-22T11:49:11Z</time>
      </trkpt>
      <trkpt lat="42.83666" lon="0.06292">
        <ele>2147</ele>
        <time>2012-12-22T11:49:13Z</time>
      </trkpt>
      <trkpt lat="42.83665" lon="0.06293">
        <ele>2148</ele>
        <time>2012-12-22T11:49:15Z</time>
      </trkpt>
      <trkpt lat="42.83664" lon="0.06293">
        <ele>2149</ele>
        <time>2012-12-22T11:49:17Z</time>
      </trkpt>
      <trkpt lat="42.83662" lon="0.06294">
        <ele>2149</ele>
        <time>2012-12-22T11:49:19Z</time>
      </trkpt>
      <trkpt lat="42.83661" lon="0.06295">
        <ele>2149</ele>
        <time>2012-12-22T11:49:21Z</time>
      </trkpt>
      <trkpt lat="42.8366" lon="0.06296">
        <ele>2149</ele>
        <time>2012-12-22T11:49:23Z</time>
      </trkpt>
      <trkpt lat="42.83659" lon="0.06297">
        <ele>2149</ele>
        <time>2012-12-22T11:49:25Z</time>
      </trkpt>
      <trkpt lat="42.83657" lon="0.06298">
        <ele>2150</ele>
        <time>2012-12-22T11:49:27Z</time>
      </trkpt>
      <trkpt lat="42.83656" lon="0.06299">
        <ele>2150</ele>
        <time>2012-12-22T11:49:29Z</time>
      </trkpt>
      <trkpt lat="42.83654" lon="0.06299">
        <ele>2150</ele>
        <time>2012-12-22T11:49:31Z</time>
      </trkpt>
      <trkpt lat="42.83652" lon="0.063">
        <ele>2150</ele>
        <time>2012-12-22T11:49:33Z</time>
      </trkpt>
      <trkpt lat="42.83651" lon="0.063">
        <ele>2150</ele>
        <time>2012-12-22T11:49:35Z</time>
      </trkpt>
      <trkpt lat="42.83649" lon="0.063">
        <ele>2150</ele>
        <time>2012-12-22T11:49:37Z</time>
      </trkpt>
      <trkpt lat="42.83648" lon="0.063">
        <ele>2150</ele>
        <time>2012-12-22T11:49:39Z</time>
      </trkpt>
      <trkpt lat="42.83646" lon="0.063">
        <ele>2151</ele>
        <time>2012-12-22T11:49:41Z</time>
      </trkpt>
      <trkpt lat="42.83645" lon="0.063">
        <ele>2151</ele>
        <time>2012-12-22T11:49:43Z</time>
      </trkpt>
      <trkpt lat="42.83643" lon="0.063">
        <ele>2151</ele>
        <time>2012-12-22T11:49:46Z</time>
      </trkpt>
      <trkpt lat="42.83642" lon="0.063">
        <ele>2151</ele>
        <time>2012-12-22T11:49:48Z</time>
      </trkpt>
      <trkpt lat="42.83641" lon="0.06299">
        <ele>2151</ele>
        <time>2012-12-22T11:49:50Z</time>
      </trkpt>
      <trkpt lat="42.8364" lon="0.06299">
        <ele>2151</ele>
        <time>2012-12-22T11:49:52Z</time>
      </trkpt>
      <trkpt lat="42.83638" lon="0.06299">
        <ele>2151</ele>
        <time>2012-12-22T11:49:55Z</time>
      </trkpt>
      <trkpt lat="42.83637" lon="0.06299">
        <ele>2151</ele>
        <time>2012-12-22T11:49:58Z</time>
      </trkpt>
      <trkpt lat="42.83636" lon="0.06299">
        <ele>2151</ele>
        <time>2012-12-22T11:50:00Z</time>
      </trkpt>
      <trkpt lat="42.83635" lon="0.06299">
        <ele>2151</ele>
        <time>2012-12-22T11:50:02Z</time>
      </trkpt>
      <trkpt lat="42.83633" lon="0.06299">
        <ele>2151</ele>
        <time>2012-12-22T11:50:04Z</time>
      </trkpt>
      <trkpt lat="42.83632" lon="0.063">
        <ele>2151</ele>
        <time>2012-12-22T11:50:07Z</time>
      </trkpt>
      <trkpt lat="42.8363" lon="0.063">
        <ele>2151</ele>
        <time>2012-12-22T11:50:10Z</time>
      </trkpt>
      <trkpt lat="42.83629" lon="0.063">
        <ele>2152</ele>
        <time>2012-12-22T11:50:13Z</time>
      </trkpt>
      <trkpt lat="42.83628" lon="0.063">
        <ele>2152</ele>
        <time>2012-12-22T11:50:16Z</time>
      </trkpt>
      <trkpt lat="42.83627" lon="0.06299">
        <ele>2154</ele>
        <time>2012-12-22T11:50:39Z</time>
      </trkpt>
      <trkpt lat="42.83625" lon="0.063">
        <ele>2154</ele>
        <time>2012-12-22T11:50:41Z</time>
      </trkpt>
      <trkpt lat="42.83624" lon="0.063">
        <ele>2154</ele>
        <time>2012-12-22T11:50:43Z</time>
      </trkpt>
      <trkpt lat="42.83623" lon="0.063">
        <ele>2155</ele>
        <time>2012-12-22T11:50:45Z</time>
      </trkpt>
      <trkpt lat="42.83622" lon="0.063">
        <ele>2155</ele>
        <time>2012-12-22T11:50:47Z</time>
      </trkpt>
      <trkpt lat="42.8362" lon="0.063">
        <ele>2155</ele>
        <time>2012-12-22T11:50:49Z</time>
      </trkpt>
      <trkpt lat="42.83619" lon="0.063">
        <ele>2156</ele>
        <time>2012-12-22T11:50:52Z</time>
      </trkpt>
      <trkpt lat="42.83618" lon="0.063">
        <ele>2156</ele>
        <time>2012-12-22T11:50:55Z</time>
      </trkpt>
      <trkpt lat="42.83616" lon="0.06301">
        <ele>2157</ele>
        <time>2012-12-22T11:50:58Z</time>
      </trkpt>
      <trkpt lat="42.83615" lon="0.06301">
        <ele>2157</ele>
        <time>2012-12-22T11:51:01Z</time>
      </trkpt>
      <trkpt lat="42.83613" lon="0.06302">
        <ele>2157</ele>
        <time>2012-12-22T11:51:04Z</time>
      </trkpt>
      <trkpt lat="42.83612" lon="0.06302">
        <ele>2158</ele>
        <time>2012-12-22T11:51:06Z</time>
      </trkpt>
      <trkpt lat="42.83611" lon="0.06304">
        <ele>2159</ele>
        <time>2012-12-22T11:51:09Z</time>
      </trkpt>
      <trkpt lat="42.83611" lon="0.06306">
        <ele>2159</ele>
        <time>2012-12-22T11:51:12Z</time>
      </trkpt>
      <trkpt lat="42.83611" lon="0.06307">
        <ele>2159</ele>
        <time>2012-12-22T11:51:14Z</time>
      </trkpt>
      <trkpt lat="42.83611" lon="0.06309">
        <ele>2159</ele>
        <time>2012-12-22T11:51:16Z</time>
      </trkpt>
      <trkpt lat="42.83612" lon="0.0631">
        <ele>2160</ele>
        <time>2012-12-22T11:51:18Z</time>
      </trkpt>
      <trkpt lat="42.83612" lon="0.06312">
        <ele>2161</ele>
        <time>2012-12-22T11:51:21Z</time>
      </trkpt>
      <trkpt lat="42.83612" lon="0.06313">
        <ele>2162</ele>
        <time>2012-12-22T11:51:24Z</time>
      </trkpt>
      <trkpt lat="42.83612" lon="0.06315">
        <ele>2163</ele>
        <time>2012-12-22T11:51:27Z</time>
      </trkpt>
      <trkpt lat="42.83612" lon="0.06317">
        <ele>2165</ele>
        <time>2012-12-22T11:51:30Z</time>
      </trkpt>
      <trkpt lat="42.83612" lon="0.06319">
        <ele>2166</ele>
        <time>2012-12-22T11:51:33Z</time>
      </trkpt>
      <trkpt lat="42.83613" lon="0.06321">
        <ele>2167</ele>
        <time>2012-12-22T11:51:36Z</time>
      </trkpt>
      <trkpt lat="42.83614" lon="0.06323">
        <ele>2167</ele>
        <time>2012-12-22T11:51:39Z</time>
      </trkpt>
      <trkpt lat="42.83614" lon="0.06325">
        <ele>2168</ele>
        <time>2012-12-22T11:51:41Z</time>
      </trkpt>
      <trkpt lat="42.83615" lon="0.06327">
        <ele>2169</ele>
        <time>2012-12-22T11:51:44Z</time>
      </trkpt>
      <trkpt lat="42.83615" lon="0.06329">
        <ele>2169</ele>
        <time>2012-12-22T11:51:47Z</time>
      </trkpt>
      <trkpt lat="42.83616" lon="0.06331">
        <ele>2169</ele>
        <time>2012-12-22T11:51:50Z</time>
      </trkpt>
      <trkpt lat="42.83617" lon="0.06333">
        <ele>2169</ele>
        <time>2012-12-22T11:51:53Z</time>
      </trkpt>
      <trkpt lat="42.83618" lon="0.06334">
        <ele>2169</ele>
        <time>2012-12-22T11:51:57Z</time>
      </trkpt>
      <trkpt lat="42.83617" lon="0.06336">
        <ele>2169</ele>
        <time>2012-12-22T11:52:02Z</time>
      </trkpt>
      <trkpt lat="42.83615" lon="0.06336">
        <ele>2169</ele>
        <time>2012-12-22T11:52:05Z</time>
      </trkpt>
      <trkpt lat="42.83614" lon="0.06336">
        <ele>2169</ele>
        <time>2012-12-22T11:52:07Z</time>
      </trkpt>
      <trkpt lat="42.83612" lon="0.06336">
        <ele>2169</ele>
        <time>2012-12-22T11:52:10Z</time>
      </trkpt>
      <trkpt lat="42.83611" lon="0.06336">
        <ele>2169</ele>
        <time>2012-12-22T11:52:12Z</time>
      </trkpt>
      <trkpt lat="42.8361" lon="0.06337">
        <ele>2169</ele>
        <time>2012-12-22T11:52:14Z</time>
      </trkpt>
      <trkpt lat="42.83608" lon="0.06337">
        <ele>2169</ele>
        <time>2012-12-22T11:52:17Z</time>
      </trkpt>
      <trkpt lat="42.83607" lon="0.06337">
        <ele>2169</ele>
        <time>2012-12-22T11:52:19Z</time>
      </trkpt>
      <trkpt lat="42.83606" lon="0.06337">
        <ele>2169</ele>
        <time>2012-12-22T11:52:21Z</time>
      </trkpt>
      <trkpt lat="42.83604" lon="0.06337">
        <ele>2169</ele>
        <time>2012-12-22T11:52:24Z</time>
      </trkpt>
      <trkpt lat="42.83603" lon="0.06337">
        <ele>2169</ele>
        <time>2012-12-22T11:52:27Z</time>
      </trkpt>
      <trkpt lat="42.83601" lon="0.06337">
        <ele>2169</ele>
        <time>2012-12-22T11:52:30Z</time>
      </trkpt>
      <trkpt lat="42.836" lon="0.06336">
        <ele>2169</ele>
        <time>2012-12-22T11:52:33Z</time>
      </trkpt>
      <trkpt lat="42.83599" lon="0.06336">
        <ele>2170</ele>
        <time>2012-12-22T11:52:36Z</time>
      </trkpt>
      <trkpt lat="42.83597" lon="0.06336">
        <ele>2171</ele>
        <time>2012-12-22T11:52:39Z</time>
      </trkpt>
      <trkpt lat="42.83596" lon="0.06336">
        <ele>2172</ele>
        <time>2012-12-22T11:52:41Z</time>
      </trkpt>
      <trkpt lat="42.83595" lon="0.06335">
        <ele>2173</ele>
        <time>2012-12-22T11:52:44Z</time>
      </trkpt>
      <trkpt lat="42.83593" lon="0.06335">
        <ele>2173</ele>
        <time>2012-12-22T11:52:47Z</time>
      </trkpt>
      <trkpt lat="42.83592" lon="0.06334">
        <ele>2173</ele>
        <time>2012-12-22T11:52:50Z</time>
      </trkpt>
      <trkpt lat="42.83591" lon="0.06336">
        <ele>2173</ele>
        <time>2012-12-22T11:52:53Z</time>
      </trkpt>
      <trkpt lat="42.83591" lon="0.06338">
        <ele>2174</ele>
        <time>2012-12-22T11:52:56Z</time>
      </trkpt>
      <trkpt lat="42.83591" lon="0.0634">
        <ele>2175</ele>
        <time>2012-12-22T11:52:59Z</time>
      </trkpt>
      <trkpt lat="42.83591" lon="0.06342">
        <ele>2175</ele>
        <time>2012-12-22T11:53:01Z</time>
      </trkpt>
      <trkpt lat="42.83592" lon="0.06344">
        <ele>2176</ele>
        <time>2012-12-22T11:53:04Z</time>
      </trkpt>
      <trkpt lat="42.83593" lon="0.06346">
        <ele>2176</ele>
        <time>2012-12-22T11:53:07Z</time>
      </trkpt>
      <trkpt lat="42.83593" lon="0.06348">
        <ele>2177</ele>
        <time>2012-12-22T11:53:10Z</time>
      </trkpt>
      <trkpt lat="42.83593" lon="0.06349">
        <ele>2177</ele>
        <time>2012-12-22T11:53:12Z</time>
      </trkpt>
      <trkpt lat="42.83594" lon="0.06351">
        <ele>2177</ele>
        <time>2012-12-22T11:53:15Z</time>
      </trkpt>
      <trkpt lat="42.83594" lon="0.06353">
        <ele>2178</ele>
        <time>2012-12-22T11:53:18Z</time>
      </trkpt>
      <trkpt lat="42.83595" lon="0.06355">
        <ele>2179</ele>
        <time>2012-12-22T11:53:20Z</time>
      </trkpt>
      <trkpt lat="42.83595" lon="0.06357">
        <ele>2180</ele>
        <time>2012-12-22T11:53:23Z</time>
      </trkpt>
      <trkpt lat="42.83596" lon="0.06358">
        <ele>2180</ele>
        <time>2012-12-22T11:53:26Z</time>
      </trkpt>
      <trkpt lat="42.83596" lon="0.0636">
        <ele>2181</ele>
        <time>2012-12-22T11:53:29Z</time>
      </trkpt>
      <trkpt lat="42.83597" lon="0.06362">
        <ele>2182</ele>
        <time>2012-12-22T11:53:32Z</time>
      </trkpt>
      <trkpt lat="42.83598" lon="0.06363">
        <ele>2183</ele>
        <time>2012-12-22T11:53:35Z</time>
      </trkpt>
      <trkpt lat="42.83598" lon="0.06365">
        <ele>2183</ele>
        <time>2012-12-22T11:53:38Z</time>
      </trkpt>
      <trkpt lat="42.836" lon="0.06367">
        <ele>2183</ele>
        <time>2012-12-22T11:53:41Z</time>
      </trkpt>
      <trkpt lat="42.83601" lon="0.06369">
        <ele>2183</ele>
        <time>2012-12-22T11:53:44Z</time>
      </trkpt>
      <trkpt lat="42.83602" lon="0.0637">
        <ele>2183</ele>
        <time>2012-12-22T11:53:47Z</time>
      </trkpt>
      <trkpt lat="42.83603" lon="0.06373">
        <ele>2183</ele>
        <time>2012-12-22T11:53:50Z</time>
      </trkpt>
      <trkpt lat="42.83604" lon="0.06374">
        <ele>2183</ele>
        <time>2012-12-22T11:53:53Z</time>
      </trkpt>
      <trkpt lat="42.83605" lon="0.06376">
        <ele>2183</ele>
        <time>2012-12-22T11:53:56Z</time>
      </trkpt>
      <trkpt lat="42.83606" lon="0.06378">
        <ele>2183</ele>
        <time>2012-12-22T11:53:59Z</time>
      </trkpt>
      <trkpt lat="42.83608" lon="0.0638">
        <ele>2183</ele>
        <time>2012-12-22T11:54:02Z</time>
      </trkpt>
      <trkpt lat="42.83609" lon="0.06381">
        <ele>2183</ele>
        <time>2012-12-22T11:54:04Z</time>
      </trkpt>
      <trkpt lat="42.8361" lon="0.06383">
        <ele>2183</ele>
        <time>2012-12-22T11:54:07Z</time>
      </trkpt>
      <trkpt lat="42.83611" lon="0.06384">
        <ele>2183</ele>
        <time>2012-12-22T11:54:10Z</time>
      </trkpt>
      <trkpt lat="42.83612" lon="0.06386">
        <ele>2183</ele>
        <time>2012-12-22T11:54:14Z</time>
      </trkpt>
      <trkpt lat="42.83611" lon="0.06387">
        <ele>2183</ele>
        <time>2012-12-22T11:54:19Z</time>
      </trkpt>
      <trkpt lat="42.83609" lon="0.06388">
        <ele>2183</ele>
        <time>2012-12-22T11:54:22Z</time>
      </trkpt>
      <trkpt lat="42.83607" lon="0.06389">
        <ele>2183</ele>
        <time>2012-12-22T11:54:25Z</time>
      </trkpt>
      <trkpt lat="42.83606" lon="0.06389">
        <ele>2183</ele>
        <time>2012-12-22T11:54:28Z</time>
      </trkpt>
      <trkpt lat="42.83604" lon="0.0639">
        <ele>2183</ele>
        <time>2012-12-22T11:54:31Z</time>
      </trkpt>
      <trkpt lat="42.83603" lon="0.0639">
        <ele>2183</ele>
        <time>2012-12-22T11:54:33Z</time>
      </trkpt>
      <trkpt lat="42.83602" lon="0.0639">
        <ele>2183</ele>
        <time>2012-12-22T11:54:35Z</time>
      </trkpt>
      <trkpt lat="42.83601" lon="0.0639">
        <ele>2183</ele>
        <time>2012-12-22T11:54:37Z</time>
      </trkpt>
      <trkpt lat="42.836" lon="0.0639">
        <ele>2183</ele>
        <time>2012-12-22T11:54:39Z</time>
      </trkpt>
      <trkpt lat="42.83598" lon="0.0639">
        <ele>2183</ele>
        <time>2012-12-22T11:54:41Z</time>
      </trkpt>
      <trkpt lat="42.83597" lon="0.0639">
        <ele>2183</ele>
        <time>2012-12-22T11:54:43Z</time>
      </trkpt>
      <trkpt lat="42.83596" lon="0.0639">
        <ele>2183</ele>
        <time>2012-12-22T11:54:45Z</time>
      </trkpt>
      <trkpt lat="42.83594" lon="0.0639">
        <ele>2183</ele>
        <time>2012-12-22T11:54:47Z</time>
      </trkpt>
      <trkpt lat="42.83593" lon="0.0639">
        <ele>2183</ele>
        <time>2012-12-22T11:54:49Z</time>
      </trkpt>
      <trkpt lat="42.83591" lon="0.0639">
        <ele>2184</ele>
        <time>2012-12-22T11:54:51Z</time>
      </trkpt>
      <trkpt lat="42.8359" lon="0.0639">
        <ele>2184</ele>
        <time>2012-12-22T11:54:53Z</time>
      </trkpt>
      <trkpt lat="42.83589" lon="0.0639">
        <ele>2185</ele>
        <time>2012-12-22T11:54:55Z</time>
      </trkpt>
      <trkpt lat="42.83587" lon="0.0639">
        <ele>2185</ele>
        <time>2012-12-22T11:54:58Z</time>
      </trkpt>
      <trkpt lat="42.83585" lon="0.0639">
        <ele>2185</ele>
        <time>2012-12-22T11:55:01Z</time>
      </trkpt>
      <trkpt lat="42.83584" lon="0.0639">
        <ele>2185</ele>
        <time>2012-12-22T11:55:03Z</time>
      </trkpt>
      <trkpt lat="42.83583" lon="0.0639">
        <ele>2186</ele>
        <time>2012-12-22T11:55:05Z</time>
      </trkpt>
      <trkpt lat="42.83582" lon="0.0639">
        <ele>2186</ele>
        <time>2012-12-22T11:55:07Z</time>
      </trkpt>
      <trkpt lat="42.8358" lon="0.0639">
        <ele>2187</ele>
        <time>2012-12-22T11:55:10Z</time>
      </trkpt>
      <trkpt lat="42.83578" lon="0.0639">
        <ele>2187</ele>
        <time>2012-12-22T11:55:13Z</time>
      </trkpt>
      <trkpt lat="42.83577" lon="0.0639">
        <ele>2187</ele>
        <time>2012-12-22T11:55:16Z</time>
      </trkpt>
      <trkpt lat="42.83576" lon="0.0639">
        <ele>2187</ele>
        <time>2012-12-22T11:55:18Z</time>
      </trkpt>
      <trkpt lat="42.83575" lon="0.0639">
        <ele>2187</ele>
        <time>2012-12-22T11:55:20Z</time>
      </trkpt>
      <trkpt lat="42.83573" lon="0.0639">
        <ele>2188</ele>
        <time>2012-12-22T11:55:22Z</time>
      </trkpt>
      <trkpt lat="42.83572" lon="0.06389">
        <ele>2188</ele>
        <time>2012-12-22T11:55:24Z</time>
      </trkpt>
      <trkpt lat="42.83571" lon="0.06389">
        <ele>2189</ele>
        <time>2012-12-22T11:55:27Z</time>
      </trkpt>
      <trkpt lat="42.83569" lon="0.06389">
        <ele>2189</ele>
        <time>2012-12-22T11:55:29Z</time>
      </trkpt>
      <trkpt lat="42.83568" lon="0.06388">
        <ele>2190</ele>
        <time>2012-12-22T11:55:31Z</time>
      </trkpt>
      <trkpt lat="42.83567" lon="0.06388">
        <ele>2190</ele>
        <time>2012-12-22T11:55:34Z</time>
      </trkpt>
      <trkpt lat="42.83565" lon="0.06387">
        <ele>2190</ele>
        <time>2012-12-22T11:55:37Z</time>
      </trkpt>
      <trkpt lat="42.83564" lon="0.06387">
        <ele>2190</ele>
        <time>2012-12-22T11:55:39Z</time>
      </trkpt>
      <trkpt lat="42.83563" lon="0.06387">
        <ele>2191</ele>
        <time>2012-12-22T11:55:42Z</time>
      </trkpt>
      <trkpt lat="42.83561" lon="0.06389">
        <ele>2191</ele>
        <time>2012-12-22T11:55:45Z</time>
      </trkpt>
      <trkpt lat="42.83561" lon="0.06391">
        <ele>2191</ele>
        <time>2012-12-22T11:55:47Z</time>
      </trkpt>
      <trkpt lat="42.83561" lon="0.06392">
        <ele>2192</ele>
        <time>2012-12-22T11:55:49Z</time>
      </trkpt>
      <trkpt lat="42.83561" lon="0.06394">
        <ele>2193</ele>
        <time>2012-12-22T11:55:51Z</time>
      </trkpt>
      <trkpt lat="42.83562" lon="0.06396">
        <ele>2194</ele>
        <time>2012-12-22T11:55:54Z</time>
      </trkpt>
      <trkpt lat="42.83562" lon="0.06398">
        <ele>2194</ele>
        <time>2012-12-22T11:55:57Z</time>
      </trkpt>
      <trkpt lat="42.83562" lon="0.064">
        <ele>2194</ele>
        <time>2012-12-22T11:55:59Z</time>
      </trkpt>
      <trkpt lat="42.83563" lon="0.06401">
        <ele>2195</ele>
        <time>2012-12-22T11:56:01Z</time>
      </trkpt>
      <trkpt lat="42.83563" lon="0.06403">
        <ele>2196</ele>
        <time>2012-12-22T11:56:03Z</time>
      </trkpt>
      <trkpt lat="42.83563" lon="0.06405">
        <ele>2197</ele>
        <time>2012-12-22T11:56:06Z</time>
      </trkpt>
      <trkpt lat="42.83564" lon="0.06407">
        <ele>2198</ele>
        <time>2012-12-22T11:56:09Z</time>
      </trkpt>
      <trkpt lat="42.83564" lon="0.06408">
        <ele>2199</ele>
        <time>2012-12-22T11:56:12Z</time>
      </trkpt>
      <trkpt lat="42.83564" lon="0.0641">
        <ele>2199</ele>
        <time>2012-12-22T11:56:15Z</time>
      </trkpt>
      <trkpt lat="42.83565" lon="0.06413">
        <ele>2200</ele>
        <time>2012-12-22T11:56:18Z</time>
      </trkpt>
      <trkpt lat="42.83565" lon="0.06414">
        <ele>2200</ele>
        <time>2012-12-22T11:56:21Z</time>
      </trkpt>
      <trkpt lat="42.83566" lon="0.06416">
        <ele>2201</ele>
        <time>2012-12-22T11:56:24Z</time>
      </trkpt>
      <trkpt lat="42.83565" lon="0.06418">
        <ele>2201</ele>
        <time>2012-12-22T11:56:27Z</time>
      </trkpt>
      <trkpt lat="42.83564" lon="0.06419">
        <ele>2201</ele>
        <time>2012-12-22T11:56:30Z</time>
      </trkpt>
      <trkpt lat="42.83563" lon="0.0642">
        <ele>2202</ele>
        <time>2012-12-22T11:56:33Z</time>
      </trkpt>
      <trkpt lat="42.83562" lon="0.06421">
        <ele>2203</ele>
        <time>2012-12-22T11:56:36Z</time>
      </trkpt>
      <trkpt lat="42.83561" lon="0.06422">
        <ele>2203</ele>
        <time>2012-12-22T11:56:39Z</time>
      </trkpt>
      <trkpt lat="42.83559" lon="0.06422">
        <ele>2203</ele>
        <time>2012-12-22T11:56:42Z</time>
      </trkpt>
      <trkpt lat="42.83558" lon="0.06423">
        <ele>2203</ele>
        <time>2012-12-22T11:56:45Z</time>
      </trkpt>
      <trkpt lat="42.83557" lon="0.06424">
        <ele>2203</ele>
        <time>2012-12-22T11:56:48Z</time>
      </trkpt>
      <trkpt lat="42.83555" lon="0.06425">
        <ele>2203</ele>
        <time>2012-12-22T11:57:01Z</time>
      </trkpt>
      <trkpt lat="42.83554" lon="0.06426">
        <ele>2203</ele>
        <time>2012-12-22T11:57:04Z</time>
      </trkpt>
      <trkpt lat="42.83552" lon="0.06426">
        <ele>2203</ele>
        <time>2012-12-22T11:57:06Z</time>
      </trkpt>
      <trkpt lat="42.83551" lon="0.06427">
        <ele>2203</ele>
        <time>2012-12-22T11:57:09Z</time>
      </trkpt>
      <trkpt lat="42.83549" lon="0.06428">
        <ele>2203</ele>
        <time>2012-12-22T11:57:11Z</time>
      </trkpt>
      <trkpt lat="42.83548" lon="0.06429">
        <ele>2204</ele>
        <time>2012-12-22T11:57:14Z</time>
      </trkpt>
      <trkpt lat="42.83548" lon="0.06431">
        <ele>2204</ele>
        <time>2012-12-22T11:57:16Z</time>
      </trkpt>
      <trkpt lat="42.83548" lon="0.06432">
        <ele>2205</ele>
        <time>2012-12-22T11:57:18Z</time>
      </trkpt>
      <trkpt lat="42.83548" lon="0.06434">
        <ele>2206</ele>
        <time>2012-12-22T11:57:20Z</time>
      </trkpt>
      <trkpt lat="42.83548" lon="0.06435">
        <ele>2206</ele>
        <time>2012-12-22T11:57:22Z</time>
      </trkpt>
      <trkpt lat="42.83549" lon="0.06437">
        <ele>2207</ele>
        <time>2012-12-22T11:57:24Z</time>
      </trkpt>
      <trkpt lat="42.83549" lon="0.06439">
        <ele>2207</ele>
        <time>2012-12-22T11:57:26Z</time>
      </trkpt>
      <trkpt lat="42.8355" lon="0.06441">
        <ele>2208</ele>
        <time>2012-12-22T11:57:28Z</time>
      </trkpt>
      <trkpt lat="42.8355" lon="0.06442">
        <ele>2208</ele>
        <time>2012-12-22T11:57:30Z</time>
      </trkpt>
      <trkpt lat="42.8355" lon="0.06444">
        <ele>2209</ele>
        <time>2012-12-22T11:57:32Z</time>
      </trkpt>
      <trkpt lat="42.83551" lon="0.06446">
        <ele>2209</ele>
        <time>2012-12-22T11:57:35Z</time>
      </trkpt>
      <trkpt lat="42.83551" lon="0.06447">
        <ele>2209</ele>
        <time>2012-12-22T11:57:37Z</time>
      </trkpt>
      <trkpt lat="42.83551" lon="0.06449">
        <ele>2209</ele>
        <time>2012-12-22T11:57:39Z</time>
      </trkpt>
      <trkpt lat="42.83552" lon="0.06451">
        <ele>2209</ele>
        <time>2012-12-22T11:57:41Z</time>
      </trkpt>
      <trkpt lat="42.83551" lon="0.06452">
        <ele>2209</ele>
        <time>2012-12-22T11:57:44Z</time>
      </trkpt>
      <trkpt lat="42.8355" lon="0.06454">
        <ele>2209</ele>
        <time>2012-12-22T11:57:48Z</time>
      </trkpt>
      <trkpt lat="42.83548" lon="0.06455">
        <ele>2209</ele>
        <time>2012-12-22T11:57:51Z</time>
      </trkpt>
      <trkpt lat="42.83547" lon="0.06456">
        <ele>2209</ele>
        <time>2012-12-22T11:57:54Z</time>
      </trkpt>
      <trkpt lat="42.83546" lon="0.06457">
        <ele>2209</ele>
        <time>2012-12-22T11:57:57Z</time>
      </trkpt>
      <trkpt lat="42.83544" lon="0.06458">
        <ele>2209</ele>
        <time>2012-12-22T11:58:01Z</time>
      </trkpt>
      <trkpt lat="42.83542" lon="0.06459">
        <ele>2210</ele>
        <time>2012-12-22T11:58:04Z</time>
      </trkpt>
      <trkpt lat="42.8354" lon="0.06461">
        <ele>2211</ele>
        <time>2012-12-22T11:58:07Z</time>
      </trkpt>
      <trkpt lat="42.83539" lon="0.06462">
        <ele>2212</ele>
        <time>2012-12-22T11:58:10Z</time>
      </trkpt>
      <trkpt lat="42.83538" lon="0.06463">
        <ele>2213</ele>
        <time>2012-12-22T11:58:12Z</time>
      </trkpt>
      <trkpt lat="42.83537" lon="0.06464">
        <ele>2214</ele>
        <time>2012-12-22T11:58:16Z</time>
      </trkpt>
      <trkpt lat="42.83535" lon="0.06466">
        <ele>2214</ele>
        <time>2012-12-22T11:58:19Z</time>
      </trkpt>
      <trkpt lat="42.83534" lon="0.06467">
        <ele>2214</ele>
        <time>2012-12-22T11:58:22Z</time>
      </trkpt>
      <trkpt lat="42.83532" lon="0.06465">
        <ele>2214</ele>
        <time>2012-12-22T11:58:36Z</time>
      </trkpt>
      <trkpt lat="42.83531" lon="0.06466">
        <ele>2217</ele>
        <time>2012-12-22T11:58:48Z</time>
      </trkpt>
      <trkpt lat="42.8353" lon="0.06468">
        <ele>2217</ele>
        <time>2012-12-22T11:58:51Z</time>
      </trkpt>
      <trkpt lat="42.8353" lon="0.06469">
        <ele>2217</ele>
        <time>2012-12-22T11:58:53Z</time>
      </trkpt>
      <trkpt lat="42.83529" lon="0.06471">
        <ele>2217</ele>
        <time>2012-12-22T11:58:56Z</time>
      </trkpt>
      <trkpt lat="42.83527" lon="0.06472">
        <ele>2217</ele>
        <time>2012-12-22T11:58:59Z</time>
      </trkpt>
      <trkpt lat="42.83527" lon="0.06474">
        <ele>2217</ele>
        <time>2012-12-22T11:59:01Z</time>
      </trkpt>
      <trkpt lat="42.83526" lon="0.06475">
        <ele>2218</ele>
        <time>2012-12-22T11:59:03Z</time>
      </trkpt>
      <trkpt lat="42.83525" lon="0.06477">
        <ele>2219</ele>
        <time>2012-12-22T11:59:05Z</time>
      </trkpt>
      <trkpt lat="42.83525" lon="0.06478">
        <ele>2220</ele>
        <time>2012-12-22T11:59:07Z</time>
      </trkpt>
      <trkpt lat="42.83525" lon="0.0648">
        <ele>2220</ele>
        <time>2012-12-22T11:59:09Z</time>
      </trkpt>
      <trkpt lat="42.83525" lon="0.06482">
        <ele>2220</ele>
        <time>2012-12-22T11:59:11Z</time>
      </trkpt>
      <trkpt lat="42.83526" lon="0.06483">
        <ele>2221</ele>
        <time>2012-12-22T11:59:13Z</time>
      </trkpt>
      <trkpt lat="42.83526" lon="0.06485">
        <ele>2222</ele>
        <time>2012-12-22T11:59:15Z</time>
      </trkpt>
      <trkpt lat="42.83525" lon="0.06487">
        <ele>2222</ele>
        <time>2012-12-22T11:59:17Z</time>
      </trkpt>
      <trkpt lat="42.83524" lon="0.06489">
        <ele>2222</ele>
        <time>2012-12-22T11:59:20Z</time>
      </trkpt>
      <trkpt lat="42.83523" lon="0.06491">
        <ele>2222</ele>
        <time>2012-12-22T11:59:23Z</time>
      </trkpt>
      <trkpt lat="42.83522" lon="0.06492">
        <ele>2222</ele>
        <time>2012-12-22T11:59:25Z</time>
      </trkpt>
      <trkpt lat="42.83522" lon="0.06494">
        <ele>2223</ele>
        <time>2012-12-22T11:59:27Z</time>
      </trkpt>
      <trkpt lat="42.83521" lon="0.06496">
        <ele>2223</ele>
        <time>2012-12-22T11:59:30Z</time>
      </trkpt>
      <trkpt lat="42.83521" lon="0.06497">
        <ele>2223</ele>
        <time>2012-12-22T11:59:32Z</time>
      </trkpt>
      <trkpt lat="42.83521" lon="0.06499">
        <ele>2223</ele>
        <time>2012-12-22T11:59:35Z</time>
      </trkpt>
      <trkpt lat="42.83522" lon="0.06501">
        <ele>2224</ele>
        <time>2012-12-22T11:59:38Z</time>
      </trkpt>
      <trkpt lat="42.83522" lon="0.06503">
        <ele>2224</ele>
        <time>2012-12-22T11:59:41Z</time>
      </trkpt>
      <trkpt lat="42.83524" lon="0.06504">
        <ele>2226</ele>
        <time>2012-12-22T11:59:59Z</time>
      </trkpt>
      <trkpt lat="42.83525" lon="0.06504">
        <ele>2226</ele>
        <time>2012-12-22T12:00:12Z</time>
      </trkpt>
      <trkpt lat="42.83526" lon="0.06505">
        <ele>2226</ele>
        <time>2012-12-22T12:00:19Z</time>
      </trkpt>
      <trkpt lat="42.83527" lon="0.06507">
        <ele>2226</ele>
        <time>2012-12-22T12:00:22Z</time>
      </trkpt>
      <trkpt lat="42.83528" lon="0.06509">
        <ele>2226</ele>
        <time>2012-12-22T12:00:25Z</time>
      </trkpt>
      <trkpt lat="42.83529" lon="0.0651">
        <ele>2226</ele>
        <time>2012-12-22T12:00:28Z</time>
      </trkpt>
      <trkpt lat="42.8353" lon="0.06512">
        <ele>2226</ele>
        <time>2012-12-22T12:00:31Z</time>
      </trkpt>
      <trkpt lat="42.83529" lon="0.06513">
        <ele>2227</ele>
        <time>2012-12-22T12:00:35Z</time>
      </trkpt>
      <trkpt lat="42.83527" lon="0.06514">
        <ele>2227</ele>
        <time>2012-12-22T12:00:37Z</time>
      </trkpt>
      <trkpt lat="42.83526" lon="0.06514">
        <ele>2227</ele>
        <time>2012-12-22T12:00:39Z</time>
      </trkpt>
      <trkpt lat="42.83525" lon="0.06514">
        <ele>2227</ele>
        <time>2012-12-22T12:00:41Z</time>
      </trkpt>
      <trkpt lat="42.83524" lon="0.06514">
        <ele>2227</ele>
        <time>2012-12-22T12:00:57Z</time>
      </trkpt>
      <trkpt lat="42.83522" lon="0.06514">
        <ele>2227</ele>
        <time>2012-12-22T12:00:59Z</time>
      </trkpt>
      <trkpt lat="42.8352" lon="0.06514">
        <ele>2227</ele>
        <time>2012-12-22T12:01:01Z</time>
      </trkpt>
      <trkpt lat="42.83521" lon="0.06515">
        <ele>2228</ele>
        <time>2012-12-22T12:01:09Z</time>
      </trkpt>
      <trkpt lat="42.83522" lon="0.06516">
        <ele>2228</ele>
        <time>2012-12-22T12:01:11Z</time>
      </trkpt>
      <trkpt lat="42.83523" lon="0.06517">
        <ele>2228</ele>
        <time>2012-12-22T12:01:13Z</time>
      </trkpt>
      <trkpt lat="42.83524" lon="0.06517">
        <ele>2228</ele>
        <time>2012-12-22T12:01:15Z</time>
      </trkpt>
      <trkpt lat="42.83525" lon="0.06518">
        <ele>2229</ele>
        <time>2012-12-22T12:01:17Z</time>
      </trkpt>
      <trkpt lat="42.83526" lon="0.06519">
        <ele>2229</ele>
        <time>2012-12-22T12:01:19Z</time>
      </trkpt>
      <trkpt lat="42.83527" lon="0.0652">
        <ele>2229</ele>
        <time>2012-12-22T12:01:21Z</time>
      </trkpt>
      <trkpt lat="42.83529" lon="0.06521">
        <ele>2230</ele>
        <time>2012-12-22T12:01:24Z</time>
      </trkpt>
      <trkpt lat="42.8353" lon="0.06521">
        <ele>2230</ele>
        <time>2012-12-22T12:01:26Z</time>
      </trkpt>
      <trkpt lat="42.83531" lon="0.06522">
        <ele>2230</ele>
        <time>2012-12-22T12:01:28Z</time>
      </trkpt>
      <trkpt lat="42.83533" lon="0.06522">
        <ele>2230</ele>
        <time>2012-12-22T12:01:30Z</time>
      </trkpt>
      <trkpt lat="42.83534" lon="0.06523">
        <ele>2231</ele>
        <time>2012-12-22T12:01:32Z</time>
      </trkpt>
      <trkpt lat="42.83535" lon="0.06524">
        <ele>2231</ele>
        <time>2012-12-22T12:01:34Z</time>
      </trkpt>
      <trkpt lat="42.83537" lon="0.06524">
        <ele>2231</ele>
        <time>2012-12-22T12:01:36Z</time>
      </trkpt>
      <trkpt lat="42.83538" lon="0.06525">
        <ele>2231</ele>
        <time>2012-12-22T12:01:38Z</time>
      </trkpt>
      <trkpt lat="42.83539" lon="0.06525">
        <ele>2231</ele>
        <time>2012-12-22T12:01:40Z</time>
      </trkpt>
      <trkpt lat="42.8354" lon="0.06526">
        <ele>2232</ele>
        <time>2012-12-22T12:01:42Z</time>
      </trkpt>
      <trkpt lat="42.83541" lon="0.06526">
        <ele>2232</ele>
        <time>2012-12-22T12:01:44Z</time>
      </trkpt>
      <trkpt lat="42.83543" lon="0.06526">
        <ele>2232</ele>
        <time>2012-12-22T12:01:46Z</time>
      </trkpt>
      <trkpt lat="42.83544" lon="0.06526">
        <ele>2232</ele>
        <time>2012-12-22T12:01:48Z</time>
      </trkpt>
      <trkpt lat="42.83545" lon="0.06526">
        <ele>2232</ele>
        <time>2012-12-22T12:01:50Z</time>
      </trkpt>
      <trkpt lat="42.83546" lon="0.06526">
        <ele>2233</ele>
        <time>2012-12-22T12:01:52Z</time>
      </trkpt>
      <trkpt lat="42.83548" lon="0.06527">
        <ele>2233</ele>
        <time>2012-12-22T12:01:55Z</time>
      </trkpt>
      <trkpt lat="42.83549" lon="0.06526">
        <ele>2233</ele>
        <time>2012-12-22T12:01:57Z</time>
      </trkpt>
      <trkpt lat="42.83551" lon="0.06526">
        <ele>2233</ele>
        <time>2012-12-22T12:02:00Z</time>
      </trkpt>
      <trkpt lat="42.83549" lon="0.06527">
        <ele>2238</ele>
        <time>2012-12-22T12:02:16Z</time>
      </trkpt>
      <trkpt lat="42.83548" lon="0.06527">
        <ele>2240</ele>
        <time>2012-12-22T12:02:19Z</time>
      </trkpt>
      <trkpt lat="42.83547" lon="0.06529">
        <ele>2242</ele>
        <time>2012-12-22T12:02:22Z</time>
      </trkpt>
      <trkpt lat="42.83546" lon="0.0653">
        <ele>2243</ele>
        <time>2012-12-22T12:02:26Z</time>
      </trkpt>
      <trkpt lat="42.83545" lon="0.06531">
        <ele>2243</ele>
        <time>2012-12-22T12:02:30Z</time>
      </trkpt>
      <trkpt lat="42.83544" lon="0.06533">
        <ele>2243</ele>
        <time>2012-12-22T12:02:34Z</time>
      </trkpt>
      <trkpt lat="42.83543" lon="0.06534">
        <ele>2243</ele>
        <time>2012-12-22T12:02:38Z</time>
      </trkpt>
      <trkpt lat="42.83542" lon="0.06536">
        <ele>2243</ele>
        <time>2012-12-22T12:02:42Z</time>
      </trkpt>
      <trkpt lat="42.8354" lon="0.06537">
        <ele>2243</ele>
        <time>2012-12-22T12:02:45Z</time>
      </trkpt>
      <trkpt lat="42.83539" lon="0.06538">
        <ele>2243</ele>
        <time>2012-12-22T12:02:48Z</time>
      </trkpt>
      <trkpt lat="42.83538" lon="0.06538">
        <ele>2243</ele>
        <time>2012-12-22T12:02:50Z</time>
      </trkpt>
      <trkpt lat="42.83536" lon="0.0654">
        <ele>2243</ele>
        <time>2012-12-22T12:02:54Z</time>
      </trkpt>
      <trkpt lat="42.83535" lon="0.06541">
        <ele>2243</ele>
        <time>2012-12-22T12:02:57Z</time>
      </trkpt>
      <trkpt lat="42.83534" lon="0.06542">
        <ele>2244</ele>
        <time>2012-12-22T12:03:00Z</time>
      </trkpt>
      <trkpt lat="42.83533" lon="0.06543">
        <ele>2244</ele>
        <time>2012-12-22T12:03:03Z</time>
      </trkpt>
      <trkpt lat="42.83531" lon="0.06543">
        <ele>2244</ele>
        <time>2012-12-22T12:03:06Z</time>
      </trkpt>
      <trkpt lat="42.8353" lon="0.06544">
        <ele>2244</ele>
        <time>2012-12-22T12:03:09Z</time>
      </trkpt>
      <trkpt lat="42.83529" lon="0.06545">
        <ele>2244</ele>
        <time>2012-12-22T12:03:12Z</time>
      </trkpt>
      <trkpt lat="42.83527" lon="0.06546">
        <ele>2244</ele>
        <time>2012-12-22T12:03:15Z</time>
      </trkpt>
      <trkpt lat="42.83526" lon="0.06546">
        <ele>2244</ele>
        <time>2012-12-22T12:03:18Z</time>
      </trkpt>
      <trkpt lat="42.83525" lon="0.06547">
        <ele>2244</ele>
        <time>2012-12-22T12:03:21Z</time>
      </trkpt>
      <trkpt lat="42.83524" lon="0.06548">
        <ele>2244</ele>
        <time>2012-12-22T12:03:24Z</time>
      </trkpt>
      <trkpt lat="42.83522" lon="0.06548">
        <ele>2245</ele>
        <time>2012-12-22T12:03:27Z</time>
      </trkpt>
      <trkpt lat="42.83521" lon="0.06549">
        <ele>2245</ele>
        <time>2012-12-22T12:03:30Z</time>
      </trkpt>
      <trkpt lat="42.8352" lon="0.06549">
        <ele>2245</ele>
        <time>2012-12-22T12:03:33Z</time>
      </trkpt>
      <trkpt lat="42.83518" lon="0.06549">
        <ele>2246</ele>
        <time>2012-12-22T12:03:36Z</time>
      </trkpt>
      <trkpt lat="42.83517" lon="0.06549">
        <ele>2246</ele>
        <time>2012-12-22T12:03:39Z</time>
      </trkpt>
      <trkpt lat="42.83515" lon="0.06549">
        <ele>2247</ele>
        <time>2012-12-22T12:03:42Z</time>
      </trkpt>
      <trkpt lat="42.83514" lon="0.06549">
        <ele>2247</ele>
        <time>2012-12-22T12:03:45Z</time>
      </trkpt>
      <trkpt lat="42.83512" lon="0.06549">
        <ele>2248</ele>
        <time>2012-12-22T12:03:48Z</time>
      </trkpt>
      <trkpt lat="42.83511" lon="0.06549">
        <ele>2248</ele>
        <time>2012-12-22T12:03:51Z</time>
      </trkpt>
      <trkpt lat="42.83509" lon="0.06548">
        <ele>2248</ele>
        <time>2012-12-22T12:03:54Z</time>
      </trkpt>
      <trkpt lat="42.83508" lon="0.06547">
        <ele>2248</ele>
        <time>2012-12-22T12:03:57Z</time>
      </trkpt>
      <trkpt lat="42.83507" lon="0.06547">
        <ele>2248</ele>
        <time>2012-12-22T12:03:59Z</time>
      </trkpt>
      <trkpt lat="42.83506" lon="0.06546">
        <ele>2248</ele>
        <time>2012-12-22T12:04:01Z</time>
      </trkpt>
      <trkpt lat="42.83504" lon="0.06545">
        <ele>2248</ele>
        <time>2012-12-22T12:04:51Z</time>
      </trkpt>
      <trkpt lat="42.83503" lon="0.06545">
        <ele>2248</ele>
        <time>2012-12-22T12:04:53Z</time>
      </trkpt>
      <trkpt lat="42.83503" lon="0.06543">
        <ele>2248</ele>
        <time>2012-12-22T12:05:16Z</time>
      </trkpt>
      <trkpt lat="42.83501" lon="0.06543">
        <ele>2248</ele>
        <time>2012-12-22T12:05:29Z</time>
      </trkpt>
      <trkpt lat="42.83501" lon="0.06544">
        <ele>2248</ele>
        <time>2012-12-22T12:05:35Z</time>
      </trkpt>
      <trkpt lat="42.83501" lon="0.06546">
        <ele>2248</ele>
        <time>2012-12-22T12:05:37Z</time>
      </trkpt>
      <trkpt lat="42.83501" lon="0.06548">
        <ele>2248</ele>
        <time>2012-12-22T12:05:39Z</time>
      </trkpt>
      <trkpt lat="42.83501" lon="0.0655">
        <ele>2248</ele>
        <time>2012-12-22T12:05:41Z</time>
      </trkpt>
      <trkpt lat="42.83502" lon="0.06551">
        <ele>2248</ele>
        <time>2012-12-22T12:05:43Z</time>
      </trkpt>
      <trkpt lat="42.83502" lon="0.06553">
        <ele>2249</ele>
        <time>2012-12-22T12:05:46Z</time>
      </trkpt>
      <trkpt lat="42.83503" lon="0.06555">
        <ele>2249</ele>
        <time>2012-12-22T12:05:48Z</time>
      </trkpt>
      <trkpt lat="42.83503" lon="0.06557">
        <ele>2250</ele>
        <time>2012-12-22T12:05:50Z</time>
      </trkpt>
      <trkpt lat="42.83503" lon="0.06558">
        <ele>2250</ele>
        <time>2012-12-22T12:05:52Z</time>
      </trkpt>
      <trkpt lat="42.83503" lon="0.0656">
        <ele>2251</ele>
        <time>2012-12-22T12:05:54Z</time>
      </trkpt>
      <trkpt lat="42.83504" lon="0.06562">
        <ele>2251</ele>
        <time>2012-12-22T12:05:56Z</time>
      </trkpt>
      <trkpt lat="42.83505" lon="0.06564">
        <ele>2252</ele>
        <time>2012-12-22T12:05:58Z</time>
      </trkpt>
      <trkpt lat="42.83505" lon="0.06565">
        <ele>2252</ele>
        <time>2012-12-22T12:06:00Z</time>
      </trkpt>
      <trkpt lat="42.83504" lon="0.06566">
        <ele>2252</ele>
        <time>2012-12-22T12:06:03Z</time>
      </trkpt>
      <trkpt lat="42.83503" lon="0.06567">
        <ele>2254</ele>
        <time>2012-12-22T12:06:06Z</time>
      </trkpt>
      <trkpt lat="42.83502" lon="0.06567">
        <ele>2254</ele>
        <time>2012-12-22T12:06:08Z</time>
      </trkpt>
      <trkpt lat="42.83501" lon="0.06566">
        <ele>2255</ele>
        <time>2012-12-22T12:06:10Z</time>
      </trkpt>
      <trkpt lat="42.83499" lon="0.06566">
        <ele>2255</ele>
        <time>2012-12-22T12:06:12Z</time>
      </trkpt>
      <trkpt lat="42.83498" lon="0.06566">
        <ele>2256</ele>
        <time>2012-12-22T12:06:14Z</time>
      </trkpt>
      <trkpt lat="42.83497" lon="0.06566">
        <ele>2256</ele>
        <time>2012-12-22T12:06:16Z</time>
      </trkpt>
      <trkpt lat="42.83495" lon="0.06565">
        <ele>2257</ele>
        <time>2012-12-22T12:06:19Z</time>
      </trkpt>
      <trkpt lat="42.83494" lon="0.06564">
        <ele>2257</ele>
        <time>2012-12-22T12:06:22Z</time>
      </trkpt>
      <trkpt lat="42.83493" lon="0.06563">
        <ele>2257</ele>
        <time>2012-12-22T12:06:24Z</time>
      </trkpt>
      <trkpt lat="42.83492" lon="0.06562">
        <ele>2257</ele>
        <time>2012-12-22T12:06:26Z</time>
      </trkpt>
      <trkpt lat="42.8349" lon="0.06561">
        <ele>2257</ele>
        <time>2012-12-22T12:06:29Z</time>
      </trkpt>
      <trkpt lat="42.83489" lon="0.06561">
        <ele>2258</ele>
        <time>2012-12-22T12:06:31Z</time>
      </trkpt>
      <trkpt lat="42.83487" lon="0.0656">
        <ele>2258</ele>
        <time>2012-12-22T12:06:34Z</time>
      </trkpt>
      <trkpt lat="42.83486" lon="0.06559">
        <ele>2258</ele>
        <time>2012-12-22T12:06:36Z</time>
      </trkpt>
      <trkpt lat="42.83485" lon="0.06558">
        <ele>2258</ele>
        <time>2012-12-22T12:06:38Z</time>
      </trkpt>
      <trkpt lat="42.83484" lon="0.06558">
        <ele>2258</ele>
        <time>2012-12-22T12:06:56Z</time>
      </trkpt>
      <trkpt lat="42.83483" lon="0.06557">
        <ele>2258</ele>
        <time>2012-12-22T12:06:58Z</time>
      </trkpt>
      <trkpt lat="42.83482" lon="0.06558">
        <ele>2258</ele>
        <time>2012-12-22T12:07:00Z</time>
      </trkpt>
      <trkpt lat="42.8348" lon="0.06558">
        <ele>2259</ele>
        <time>2012-12-22T12:07:02Z</time>
      </trkpt>
      <trkpt lat="42.83479" lon="0.06558">
        <ele>2259</ele>
        <time>2012-12-22T12:07:04Z</time>
      </trkpt>
      <trkpt lat="42.83478" lon="0.06558">
        <ele>2260</ele>
        <time>2012-12-22T12:07:06Z</time>
      </trkpt>
      <trkpt lat="42.83476" lon="0.06559">
        <ele>2260</ele>
        <time>2012-12-22T12:07:08Z</time>
      </trkpt>
      <trkpt lat="42.83475" lon="0.06559">
        <ele>2260</ele>
        <time>2012-12-22T12:07:10Z</time>
      </trkpt>
      <trkpt lat="42.83474" lon="0.06559">
        <ele>2260</ele>
        <time>2012-12-22T12:07:12Z</time>
      </trkpt>
      <trkpt lat="42.83473" lon="0.0656">
        <ele>2261</ele>
        <time>2012-12-22T12:07:14Z</time>
      </trkpt>
      <trkpt lat="42.83471" lon="0.0656">
        <ele>2261</ele>
        <time>2012-12-22T12:07:17Z</time>
      </trkpt>
      <trkpt lat="42.8347" lon="0.0656">
        <ele>2261</ele>
        <time>2012-12-22T12:07:19Z</time>
      </trkpt>
      <trkpt lat="42.83469" lon="0.06561">
        <ele>2261</ele>
        <time>2012-12-22T12:07:21Z</time>
      </trkpt>
      <trkpt lat="42.83467" lon="0.06561">
        <ele>2262</ele>
        <time>2012-12-22T12:07:23Z</time>
      </trkpt>
      <trkpt lat="42.83466" lon="0.06562">
        <ele>2262</ele>
        <time>2012-12-22T12:07:25Z</time>
      </trkpt>
      <trkpt lat="42.83465" lon="0.06562">
        <ele>2263</ele>
        <time>2012-12-22T12:07:27Z</time>
      </trkpt>
      <trkpt lat="42.83464" lon="0.06563">
        <ele>2263</ele>
        <time>2012-12-22T12:07:29Z</time>
      </trkpt>
      <trkpt lat="42.83462" lon="0.06564">
        <ele>2263</ele>
        <time>2012-12-22T12:07:31Z</time>
      </trkpt>
      <trkpt lat="42.83461" lon="0.06564">
        <ele>2263</ele>
        <time>2012-12-22T12:07:33Z</time>
      </trkpt>
      <trkpt lat="42.8346" lon="0.06565">
        <ele>2263</ele>
        <time>2012-12-22T12:07:35Z</time>
      </trkpt>
      <trkpt lat="42.83459" lon="0.06565">
        <ele>2263</ele>
        <time>2012-12-22T12:07:37Z</time>
      </trkpt>
      <trkpt lat="42.83458" lon="0.06566">
        <ele>2264</ele>
        <time>2012-12-22T12:07:39Z</time>
      </trkpt>
      <trkpt lat="42.83456" lon="0.06567">
        <ele>2265</ele>
        <time>2012-12-22T12:07:42Z</time>
      </trkpt>
      <trkpt lat="42.83455" lon="0.06567">
        <ele>2265</ele>
        <time>2012-12-22T12:07:44Z</time>
      </trkpt>
      <trkpt lat="42.83453" lon="0.06568">
        <ele>2266</ele>
        <time>2012-12-22T12:07:47Z</time>
      </trkpt>
      <trkpt lat="42.83452" lon="0.06568">
        <ele>2266</ele>
        <time>2012-12-22T12:07:49Z</time>
      </trkpt>
      <trkpt lat="42.83451" lon="0.06569">
        <ele>2267</ele>
        <time>2012-12-22T12:07:52Z</time>
      </trkpt>
      <trkpt lat="42.83449" lon="0.0657">
        <ele>2268</ele>
        <time>2012-12-22T12:07:55Z</time>
      </trkpt>
      <trkpt lat="42.83448" lon="0.06571">
        <ele>2268</ele>
        <time>2012-12-22T12:07:58Z</time>
      </trkpt>
      <trkpt lat="42.83447" lon="0.06573">
        <ele>2268</ele>
        <time>2012-12-22T12:08:01Z</time>
      </trkpt>
      <trkpt lat="42.83447" lon="0.06574">
        <ele>2269</ele>
        <time>2012-12-22T12:08:04Z</time>
      </trkpt>
      <trkpt lat="42.83445" lon="0.06576">
        <ele>2269</ele>
        <time>2012-12-22T12:08:07Z</time>
      </trkpt>
      <trkpt lat="42.83445" lon="0.06578">
        <ele>2270</ele>
        <time>2012-12-22T12:08:09Z</time>
      </trkpt>
      <trkpt lat="42.83444" lon="0.06579">
        <ele>2271</ele>
        <time>2012-12-22T12:08:12Z</time>
      </trkpt>
      <trkpt lat="42.83444" lon="0.06578">
        <ele>2272</ele>
        <time>2012-12-22T12:08:38Z</time>
      </trkpt>
      <trkpt lat="42.83444" lon="0.0658">
        <ele>2272</ele>
        <time>2012-12-22T12:08:44Z</time>
      </trkpt>
      <trkpt lat="42.83444" lon="0.06582">
        <ele>2272</ele>
        <time>2012-12-22T12:08:46Z</time>
      </trkpt>
      <trkpt lat="42.83443" lon="0.06583">
        <ele>2272</ele>
        <time>2012-12-22T12:08:48Z</time>
      </trkpt>
      <trkpt lat="42.83443" lon="0.06585">
        <ele>2272</ele>
        <time>2012-12-22T12:08:50Z</time>
      </trkpt>
      <trkpt lat="42.83443" lon="0.06587">
        <ele>2272</ele>
        <time>2012-12-22T12:08:52Z</time>
      </trkpt>
      <trkpt lat="42.83443" lon="0.06588">
        <ele>2272</ele>
        <time>2012-12-22T12:08:54Z</time>
      </trkpt>
      <trkpt lat="42.83443" lon="0.0659">
        <ele>2272</ele>
        <time>2012-12-22T12:08:56Z</time>
      </trkpt>
      <trkpt lat="42.83443" lon="0.06592">
        <ele>2273</ele>
        <time>2012-12-22T12:08:58Z</time>
      </trkpt>
      <trkpt lat="42.83444" lon="0.06594">
        <ele>2273</ele>
        <time>2012-12-22T12:09:00Z</time>
      </trkpt>
      <trkpt lat="42.83444" lon="0.06596">
        <ele>2274</ele>
        <time>2012-12-22T12:09:02Z</time>
      </trkpt>
      <trkpt lat="42.83444" lon="0.06598">
        <ele>2274</ele>
        <time>2012-12-22T12:09:04Z</time>
      </trkpt>
      <trkpt lat="42.83444" lon="0.06599">
        <ele>2275</ele>
        <time>2012-12-22T12:09:06Z</time>
      </trkpt>
      <trkpt lat="42.83443" lon="0.066">
        <ele>2275</ele>
        <time>2012-12-22T12:09:09Z</time>
      </trkpt>
      <trkpt lat="42.83441" lon="0.06601">
        <ele>2275</ele>
        <time>2012-12-22T12:09:11Z</time>
      </trkpt>
      <trkpt lat="42.8344" lon="0.06601">
        <ele>2275</ele>
        <time>2012-12-22T12:09:13Z</time>
      </trkpt>
      <trkpt lat="42.83438" lon="0.06601">
        <ele>2275</ele>
        <time>2012-12-22T12:09:15Z</time>
      </trkpt>
      <trkpt lat="42.83437" lon="0.06601">
        <ele>2275</ele>
        <time>2012-12-22T12:09:17Z</time>
      </trkpt>
      <trkpt lat="42.83436" lon="0.06602">
        <ele>2276</ele>
        <time>2012-12-22T12:09:19Z</time>
      </trkpt>
      <trkpt lat="42.83435" lon="0.06603">
        <ele>2276</ele>
        <time>2012-12-22T12:09:22Z</time>
      </trkpt>
      <trkpt lat="42.83433" lon="0.06604">
        <ele>2276</ele>
        <time>2012-12-22T12:09:24Z</time>
      </trkpt>
      <trkpt lat="42.83432" lon="0.06604">
        <ele>2276</ele>
        <time>2012-12-22T12:09:27Z</time>
      </trkpt>
      <trkpt lat="42.83431" lon="0.06603">
        <ele>2277</ele>
        <time>2012-12-22T12:09:29Z</time>
      </trkpt>
      <trkpt lat="42.83429" lon="0.06602">
        <ele>2277</ele>
        <time>2012-12-22T12:09:31Z</time>
      </trkpt>
      <trkpt lat="42.83428" lon="0.06601">
        <ele>2277</ele>
        <time>2012-12-22T12:09:34Z</time>
      </trkpt>
      <trkpt lat="42.83427" lon="0.066">
        <ele>2277</ele>
        <time>2012-12-22T12:09:37Z</time>
      </trkpt>
      <trkpt lat="42.83425" lon="0.06599">
        <ele>2278</ele>
        <time>2012-12-22T12:09:40Z</time>
      </trkpt>
      <trkpt lat="42.83424" lon="0.06599">
        <ele>2278</ele>
        <time>2012-12-22T12:09:43Z</time>
      </trkpt>
      <trkpt lat="42.83423" lon="0.06601">
        <ele>2279</ele>
        <time>2012-12-22T12:09:46Z</time>
      </trkpt>
      <trkpt lat="42.83422" lon="0.06603">
        <ele>2280</ele>
        <time>2012-12-22T12:09:48Z</time>
      </trkpt>
      <trkpt lat="42.83422" lon="0.06605">
        <ele>2280</ele>
        <time>2012-12-22T12:09:50Z</time>
      </trkpt>
      <trkpt lat="42.83422" lon="0.06606">
        <ele>2281</ele>
        <time>2012-12-22T12:09:52Z</time>
      </trkpt>
      <trkpt lat="42.83421" lon="0.06608">
        <ele>2281</ele>
        <time>2012-12-22T12:09:54Z</time>
      </trkpt>
      <trkpt lat="42.83421" lon="0.0661">
        <ele>2281</ele>
        <time>2012-12-22T12:09:56Z</time>
      </trkpt>
      <trkpt lat="42.83421" lon="0.06612">
        <ele>2282</ele>
        <time>2012-12-22T12:09:58Z</time>
      </trkpt>
      <trkpt lat="42.83421" lon="0.06614">
        <ele>2283</ele>
        <time>2012-12-22T12:10:00Z</time>
      </trkpt>
      <trkpt lat="42.83421" lon="0.06616">
        <ele>2284</ele>
        <time>2012-12-22T12:10:17Z</time>
      </trkpt>
      <trkpt lat="42.83421" lon="0.06618">
        <ele>2284</ele>
        <time>2012-12-22T12:10:19Z</time>
      </trkpt>
      <trkpt lat="42.83421" lon="0.0662">
        <ele>2284</ele>
        <time>2012-12-22T12:10:21Z</time>
      </trkpt>
      <trkpt lat="42.83421" lon="0.06622">
        <ele>2284</ele>
        <time>2012-12-22T12:10:23Z</time>
      </trkpt>
      <trkpt lat="42.83421" lon="0.06623">
        <ele>2284</ele>
        <time>2012-12-22T12:10:25Z</time>
      </trkpt>
      <trkpt lat="42.83421" lon="0.06625">
        <ele>2284</ele>
        <time>2012-12-22T12:10:27Z</time>
      </trkpt>
      <trkpt lat="42.83422" lon="0.06627">
        <ele>2284</ele>
        <time>2012-12-22T12:10:30Z</time>
      </trkpt>
      <trkpt lat="42.83422" lon="0.06628">
        <ele>2284</ele>
        <time>2012-12-22T12:10:32Z</time>
      </trkpt>
      <trkpt lat="42.83422" lon="0.0663">
        <ele>2284</ele>
        <time>2012-12-22T12:10:35Z</time>
      </trkpt>
      <trkpt lat="42.83421" lon="0.06631">
        <ele>2285</ele>
        <time>2012-12-22T12:10:39Z</time>
      </trkpt>
      <trkpt lat="42.83419" lon="0.06631">
        <ele>2285</ele>
        <time>2012-12-22T12:10:41Z</time>
      </trkpt>
      <trkpt lat="42.83417" lon="0.06631">
        <ele>2286</ele>
        <time>2012-12-22T12:10:43Z</time>
      </trkpt>
      <trkpt lat="42.83416" lon="0.06631">
        <ele>2286</ele>
        <time>2012-12-22T12:10:45Z</time>
      </trkpt>
      <trkpt lat="42.83415" lon="0.06631">
        <ele>2286</ele>
        <time>2012-12-22T12:10:47Z</time>
      </trkpt>
      <trkpt lat="42.83413" lon="0.06631">
        <ele>2287</ele>
        <time>2012-12-22T12:10:50Z</time>
      </trkpt>
      <trkpt lat="42.83412" lon="0.0663">
        <ele>2287</ele>
        <time>2012-12-22T12:10:52Z</time>
      </trkpt>
      <trkpt lat="42.83411" lon="0.06629">
        <ele>2288</ele>
        <time>2012-12-22T12:11:06Z</time>
      </trkpt>
      <trkpt lat="42.8341" lon="0.06628">
        <ele>2288</ele>
        <time>2012-12-22T12:11:24Z</time>
      </trkpt>
      <trkpt lat="42.83408" lon="0.06627">
        <ele>2288</ele>
        <time>2012-12-22T12:11:27Z</time>
      </trkpt>
      <trkpt lat="42.83407" lon="0.06625">
        <ele>2288</ele>
        <time>2012-12-22T12:11:30Z</time>
      </trkpt>
      <trkpt lat="42.83406" lon="0.06624">
        <ele>2288</ele>
        <time>2012-12-22T12:11:33Z</time>
      </trkpt>
      <trkpt lat="42.83405" lon="0.06622">
        <ele>2288</ele>
        <time>2012-12-22T12:11:36Z</time>
      </trkpt>
      <trkpt lat="42.83404" lon="0.06621">
        <ele>2288</ele>
        <time>2012-12-22T12:11:39Z</time>
      </trkpt>
      <trkpt lat="42.83403" lon="0.06618">
        <ele>2288</ele>
        <time>2012-12-22T12:11:42Z</time>
      </trkpt>
      <trkpt lat="42.83402" lon="0.06616">
        <ele>2288</ele>
        <time>2012-12-22T12:11:45Z</time>
      </trkpt>
      <trkpt lat="42.83401" lon="0.06615">
        <ele>2289</ele>
        <time>2012-12-22T12:11:48Z</time>
      </trkpt>
      <trkpt lat="42.834" lon="0.06616">
        <ele>2289</ele>
        <time>2012-12-22T12:11:56Z</time>
      </trkpt>
      <trkpt lat="42.83399" lon="0.06618">
        <ele>2289</ele>
        <time>2012-12-22T12:11:59Z</time>
      </trkpt>
      <trkpt lat="42.83399" lon="0.0662">
        <ele>2289</ele>
        <time>2012-12-22T12:12:02Z</time>
      </trkpt>
      <trkpt lat="42.83398" lon="0.06621">
        <ele>2289</ele>
        <time>2012-12-22T12:12:05Z</time>
      </trkpt>
      <trkpt lat="42.83398" lon="0.06623">
        <ele>2291</ele>
        <time>2012-12-22T12:12:08Z</time>
      </trkpt>
      <trkpt lat="42.83397" lon="0.06624">
        <ele>2292</ele>
        <time>2012-12-22T12:12:10Z</time>
      </trkpt>
      <trkpt lat="42.83397" lon="0.06626">
        <ele>2293</ele>
        <time>2012-12-22T12:12:13Z</time>
      </trkpt>
      <trkpt lat="42.83396" lon="0.06628">
        <ele>2294</ele>
        <time>2012-12-22T12:12:15Z</time>
      </trkpt>
      <trkpt lat="42.83396" lon="0.0663">
        <ele>2294</ele>
        <time>2012-12-22T12:12:18Z</time>
      </trkpt>
      <trkpt lat="42.83395" lon="0.06632">
        <ele>2294</ele>
        <time>2012-12-22T12:12:21Z</time>
      </trkpt>
      <trkpt lat="42.83395" lon="0.06633">
        <ele>2295</ele>
        <time>2012-12-22T12:12:24Z</time>
      </trkpt>
      <trkpt lat="42.83394" lon="0.06635">
        <ele>2296</ele>
        <time>2012-12-22T12:12:26Z</time>
      </trkpt>
      <trkpt lat="42.83394" lon="0.06636">
        <ele>2296</ele>
        <time>2012-12-22T12:12:28Z</time>
      </trkpt>
      <trkpt lat="42.83393" lon="0.06638">
        <ele>2296</ele>
        <time>2012-12-22T12:12:30Z</time>
      </trkpt>
      <trkpt lat="42.83393" lon="0.06639">
        <ele>2297</ele>
        <time>2012-12-22T12:12:32Z</time>
      </trkpt>
      <trkpt lat="42.83392" lon="0.06641">
        <ele>2297</ele>
        <time>2012-12-22T12:12:34Z</time>
      </trkpt>
      <trkpt lat="42.83392" lon="0.06642">
        <ele>2297</ele>
        <time>2012-12-22T12:12:36Z</time>
      </trkpt>
      <trkpt lat="42.83392" lon="0.06644">
        <ele>2297</ele>
        <time>2012-12-22T12:12:39Z</time>
      </trkpt>
      <trkpt lat="42.83391" lon="0.06646">
        <ele>2297</ele>
        <time>2012-12-22T12:12:41Z</time>
      </trkpt>
      <trkpt lat="42.83391" lon="0.06647">
        <ele>2297</ele>
        <time>2012-12-22T12:12:43Z</time>
      </trkpt>
      <trkpt lat="42.8339" lon="0.06646">
        <ele>2299</ele>
        <time>2012-12-22T12:12:56Z</time>
      </trkpt>
      <trkpt lat="42.83389" lon="0.06644">
        <ele>2299</ele>
        <time>2012-12-22T12:12:59Z</time>
      </trkpt>
      <trkpt lat="42.83388" lon="0.06642">
        <ele>2299</ele>
        <time>2012-12-22T12:13:02Z</time>
      </trkpt>
      <trkpt lat="42.83388" lon="0.06641">
        <ele>2300</ele>
        <time>2012-12-22T12:13:04Z</time>
      </trkpt>
      <trkpt lat="42.83387" lon="0.06639">
        <ele>2300</ele>
        <time>2012-12-22T12:13:06Z</time>
      </trkpt>
      <trkpt lat="42.83387" lon="0.06637">
        <ele>2300</ele>
        <time>2012-12-22T12:13:09Z</time>
      </trkpt>
      <trkpt lat="42.83386" lon="0.06636">
        <ele>2301</ele>
        <time>2012-12-22T12:13:12Z</time>
      </trkpt>
      <trkpt lat="42.83385" lon="0.06634">
        <ele>2301</ele>
        <time>2012-12-22T12:13:14Z</time>
      </trkpt>
      <trkpt lat="42.83385" lon="0.06632">
        <ele>2301</ele>
        <time>2012-12-22T12:13:17Z</time>
      </trkpt>
      <trkpt lat="42.83384" lon="0.0663">
        <ele>2301</ele>
        <time>2012-12-22T12:13:20Z</time>
      </trkpt>
      <trkpt lat="42.83384" lon="0.06629">
        <ele>2301</ele>
        <time>2012-12-22T12:13:23Z</time>
      </trkpt>
      <trkpt lat="42.83383" lon="0.06627">
        <ele>2301</ele>
        <time>2012-12-22T12:13:26Z</time>
      </trkpt>
      <trkpt lat="42.83383" lon="0.06626">
        <ele>2302</ele>
        <time>2012-12-22T12:13:28Z</time>
      </trkpt>
      <trkpt lat="42.83382" lon="0.06624">
        <ele>2302</ele>
        <time>2012-12-22T12:13:30Z</time>
      </trkpt>
      <trkpt lat="42.83382" lon="0.06622">
        <ele>2302</ele>
        <time>2012-12-22T12:13:32Z</time>
      </trkpt>
      <trkpt lat="42.83382" lon="0.06621">
        <ele>2303</ele>
        <time>2012-12-22T12:13:35Z</time>
      </trkpt>
      <trkpt lat="42.83381" lon="0.06622">
        <ele>2304</ele>
        <time>2012-12-22T12:13:50Z</time>
      </trkpt>
      <trkpt lat="42.8338" lon="0.06624">
        <ele>2304</ele>
        <time>2012-12-22T12:13:53Z</time>
      </trkpt>
      <trkpt lat="42.8338" lon="0.06625">
        <ele>2304</ele>
        <time>2012-12-22T12:13:55Z</time>
      </trkpt>
      <trkpt lat="42.83379" lon="0.06627">
        <ele>2304</ele>
        <time>2012-12-22T12:13:57Z</time>
      </trkpt>
      <trkpt lat="42.83379" lon="0.06628">
        <ele>2305</ele>
        <time>2012-12-22T12:14:00Z</time>
      </trkpt>
      <trkpt lat="42.83378" lon="0.0663">
        <ele>2307</ele>
        <time>2012-12-22T12:14:03Z</time>
      </trkpt>
      <trkpt lat="42.83377" lon="0.06632">
        <ele>2309</ele>
        <time>2012-12-22T12:14:06Z</time>
      </trkpt>
      <trkpt lat="42.83377" lon="0.06633">
        <ele>2310</ele>
        <time>2012-12-22T12:14:08Z</time>
      </trkpt>
      <trkpt lat="42.83376" lon="0.06635">
        <ele>2310</ele>
        <time>2012-12-22T12:14:10Z</time>
      </trkpt>
      <trkpt lat="42.83376" lon="0.06637">
        <ele>2310</ele>
        <time>2012-12-22T12:14:12Z</time>
      </trkpt>
      <trkpt lat="42.83376" lon="0.06638">
        <ele>2310</ele>
        <time>2012-12-22T12:14:14Z</time>
      </trkpt>
      <trkpt lat="42.83375" lon="0.0664">
        <ele>2312</ele>
        <time>2012-12-22T12:14:17Z</time>
      </trkpt>
      <trkpt lat="42.83375" lon="0.06641">
        <ele>2312</ele>
        <time>2012-12-22T12:14:19Z</time>
      </trkpt>
      <trkpt lat="42.83374" lon="0.06643">
        <ele>2312</ele>
        <time>2012-12-22T12:14:21Z</time>
      </trkpt>
      <trkpt lat="42.83374" lon="0.06645">
        <ele>2312</ele>
        <time>2012-12-22T12:14:23Z</time>
      </trkpt>
      <trkpt lat="42.83373" lon="0.06647">
        <ele>2312</ele>
        <time>2012-12-22T12:14:26Z</time>
      </trkpt>
      <trkpt lat="42.83373" lon="0.06648">
        <ele>2312</ele>
        <time>2012-12-22T12:14:29Z</time>
      </trkpt>
      <trkpt lat="42.83372" lon="0.0665">
        <ele>2313</ele>
        <time>2012-12-22T12:14:49Z</time>
      </trkpt>
      <trkpt lat="42.83372" lon="0.06652">
        <ele>2313</ele>
        <time>2012-12-22T12:14:52Z</time>
      </trkpt>
      <trkpt lat="42.83371" lon="0.06653">
        <ele>2313</ele>
        <time>2012-12-22T12:14:54Z</time>
      </trkpt>
      <trkpt lat="42.83371" lon="0.06655">
        <ele>2313</ele>
        <time>2012-12-22T12:14:56Z</time>
      </trkpt>
      <trkpt lat="42.83371" lon="0.06657">
        <ele>2313</ele>
        <time>2012-12-22T12:14:58Z</time>
      </trkpt>
      <trkpt lat="42.8337" lon="0.06659">
        <ele>2313</ele>
        <time>2012-12-22T12:15:01Z</time>
      </trkpt>
      <trkpt lat="42.8337" lon="0.06661">
        <ele>2313</ele>
        <time>2012-12-22T12:15:03Z</time>
      </trkpt>
      <trkpt lat="42.8337" lon="0.06662">
        <ele>2313</ele>
        <time>2012-12-22T12:15:05Z</time>
      </trkpt>
      <trkpt lat="42.8337" lon="0.06664">
        <ele>2313</ele>
        <time>2012-12-22T12:15:07Z</time>
      </trkpt>
      <trkpt lat="42.8337" lon="0.06666">
        <ele>2313</ele>
        <time>2012-12-22T12:15:09Z</time>
      </trkpt>
      <trkpt lat="42.8337" lon="0.06668">
        <ele>2313</ele>
        <time>2012-12-22T12:15:12Z</time>
      </trkpt>
      <trkpt lat="42.83371" lon="0.0667">
        <ele>2313</ele>
        <time>2012-12-22T12:15:15Z</time>
      </trkpt>
      <trkpt lat="42.83371" lon="0.06671">
        <ele>2313</ele>
        <time>2012-12-22T12:15:17Z</time>
      </trkpt>
      <trkpt lat="42.83371" lon="0.06673">
        <ele>2313</ele>
        <time>2012-12-22T12:15:19Z</time>
      </trkpt>
      <trkpt lat="42.83371" lon="0.06674">
        <ele>2313</ele>
        <time>2012-12-22T12:15:21Z</time>
      </trkpt>
      <trkpt lat="42.83372" lon="0.06676">
        <ele>2314</ele>
        <time>2012-12-22T12:15:24Z</time>
      </trkpt>
      <trkpt lat="42.83373" lon="0.06678">
        <ele>2315</ele>
        <time>2012-12-22T12:15:27Z</time>
      </trkpt>
      <trkpt lat="42.83373" lon="0.0668">
        <ele>2316</ele>
        <time>2012-12-22T12:15:30Z</time>
      </trkpt>
      <trkpt lat="42.83374" lon="0.06681">
        <ele>2316</ele>
        <time>2012-12-22T12:15:32Z</time>
      </trkpt>
      <trkpt lat="42.83372" lon="0.0668">
        <ele>2317</ele>
        <time>2012-12-22T12:15:47Z</time>
      </trkpt>
      <trkpt lat="42.83371" lon="0.0668">
        <ele>2317</ele>
        <time>2012-12-22T12:15:49Z</time>
      </trkpt>
      <trkpt lat="42.8337" lon="0.06679">
        <ele>2318</ele>
        <time>2012-12-22T12:15:52Z</time>
      </trkpt>
      <trkpt lat="42.83368" lon="0.06679">
        <ele>2318</ele>
        <time>2012-12-22T12:15:54Z</time>
      </trkpt>
      <trkpt lat="42.83367" lon="0.06678">
        <ele>2318</ele>
        <time>2012-12-22T12:15:56Z</time>
      </trkpt>
      <trkpt lat="42.83366" lon="0.06677">
        <ele>2318</ele>
        <time>2012-12-22T12:15:58Z</time>
      </trkpt>
      <trkpt lat="42.83364" lon="0.06677">
        <ele>2318</ele>
        <time>2012-12-22T12:16:00Z</time>
      </trkpt>
      <trkpt lat="42.83363" lon="0.06676">
        <ele>2318</ele>
        <time>2012-12-22T12:16:03Z</time>
      </trkpt>
      <trkpt lat="42.83362" lon="0.06675">
        <ele>2318</ele>
        <time>2012-12-22T12:16:06Z</time>
      </trkpt>
      <trkpt lat="42.83361" lon="0.06674">
        <ele>2319</ele>
        <time>2012-12-22T12:16:25Z</time>
      </trkpt>
      <trkpt lat="42.83359" lon="0.06673">
        <ele>2319</ele>
        <time>2012-12-22T12:16:28Z</time>
      </trkpt>
      <trkpt lat="42.83358" lon="0.06672">
        <ele>2319</ele>
        <time>2012-12-22T12:16:30Z</time>
      </trkpt>
      <trkpt lat="42.83357" lon="0.0667">
        <ele>2319</ele>
        <time>2012-12-22T12:16:33Z</time>
      </trkpt>
      <trkpt lat="42.83356" lon="0.06668">
        <ele>2320</ele>
        <time>2012-12-22T12:16:38Z</time>
      </trkpt>
      <trkpt lat="42.83356" lon="0.06667">
        <ele>2320</ele>
        <time>2012-12-22T12:16:42Z</time>
      </trkpt>
      <trkpt lat="42.83355" lon="0.06665">
        <ele>2321</ele>
        <time>2012-12-22T12:16:44Z</time>
      </trkpt>
      <trkpt lat="42.83355" lon="0.06663">
        <ele>2321</ele>
        <time>2012-12-22T12:16:46Z</time>
      </trkpt>
      <trkpt lat="42.83354" lon="0.06663">
        <ele>2322</ele>
        <time>2012-12-22T12:17:00Z</time>
      </trkpt>
      <trkpt lat="42.83353" lon="0.06665">
        <ele>2322</ele>
        <time>2012-12-22T12:17:03Z</time>
      </trkpt>
      <trkpt lat="42.83353" lon="0.06667">
        <ele>2322</ele>
        <time>2012-12-22T12:17:05Z</time>
      </trkpt>
      <trkpt lat="42.83353" lon="0.06669">
        <ele>2322</ele>
        <time>2012-12-22T12:17:07Z</time>
      </trkpt>
      <trkpt lat="42.83354" lon="0.06671">
        <ele>2322</ele>
        <time>2012-12-22T12:17:09Z</time>
      </trkpt>
      <trkpt lat="42.83353" lon="0.06673">
        <ele>2322</ele>
        <time>2012-12-22T12:17:12Z</time>
      </trkpt>
      <trkpt lat="42.83353" lon="0.06675">
        <ele>2322</ele>
        <time>2012-12-22T12:17:14Z</time>
      </trkpt>
      <trkpt lat="42.83354" lon="0.06677">
        <ele>2322</ele>
        <time>2012-12-22T12:17:16Z</time>
      </trkpt>
      <trkpt lat="42.83354" lon="0.06678">
        <ele>2322</ele>
        <time>2012-12-22T12:17:18Z</time>
      </trkpt>
      <trkpt lat="42.83355" lon="0.06681">
        <ele>2323</ele>
        <time>2012-12-22T12:17:20Z</time>
      </trkpt>
      <trkpt lat="42.83355" lon="0.06682">
        <ele>2323</ele>
        <time>2012-12-22T12:17:21Z</time>
      </trkpt>
      <trkpt lat="42.83355" lon="0.06684">
        <ele>2323</ele>
        <time>2012-12-22T12:17:23Z</time>
      </trkpt>
      <trkpt lat="42.83355" lon="0.06686">
        <ele>2324</ele>
        <time>2012-12-22T12:17:25Z</time>
      </trkpt>
      <trkpt lat="42.83355" lon="0.06688">
        <ele>2324</ele>
        <time>2012-12-22T12:17:27Z</time>
      </trkpt>
      <trkpt lat="42.83355" lon="0.0669">
        <ele>2324</ele>
        <time>2012-12-22T12:17:30Z</time>
      </trkpt>
      <trkpt lat="42.83355" lon="0.06692">
        <ele>2324</ele>
        <time>2012-12-22T12:17:32Z</time>
      </trkpt>
      <trkpt lat="42.83356" lon="0.06694">
        <ele>2324</ele>
        <time>2012-12-22T12:17:35Z</time>
      </trkpt>
      <trkpt lat="42.83356" lon="0.06695">
        <ele>2326</ele>
        <time>2012-12-22T12:18:08Z</time>
      </trkpt>
      <trkpt lat="42.83357" lon="0.06697">
        <ele>2326</ele>
        <time>2012-12-22T12:18:12Z</time>
      </trkpt>
      <trkpt lat="42.83358" lon="0.06698">
        <ele>2327</ele>
        <time>2012-12-22T12:18:14Z</time>
      </trkpt>
      <trkpt lat="42.83358" lon="0.067">
        <ele>2328</ele>
        <time>2012-12-22T12:18:17Z</time>
      </trkpt>
      <trkpt lat="42.83359" lon="0.06702">
        <ele>2329</ele>
        <time>2012-12-22T12:18:20Z</time>
      </trkpt>
      <trkpt lat="42.83358" lon="0.06701">
        <ele>2330</ele>
        <time>2012-12-22T12:18:30Z</time>
      </trkpt>
      <trkpt lat="42.83356" lon="0.06701">
        <ele>2330</ele>
        <time>2012-12-22T12:18:32Z</time>
      </trkpt>
      <trkpt lat="42.83355" lon="0.06701">
        <ele>2331</ele>
        <time>2012-12-22T12:18:34Z</time>
      </trkpt>
      <trkpt lat="42.83354" lon="0.06701">
        <ele>2331</ele>
        <time>2012-12-22T12:18:36Z</time>
      </trkpt>
      <trkpt lat="42.83353" lon="0.067">
        <ele>2332</ele>
        <time>2012-12-22T12:18:38Z</time>
      </trkpt>
      <trkpt lat="42.83351" lon="0.067">
        <ele>2332</ele>
        <time>2012-12-22T12:18:40Z</time>
      </trkpt>
      <trkpt lat="42.8335" lon="0.067">
        <ele>2332</ele>
        <time>2012-12-22T12:18:42Z</time>
      </trkpt>
      <trkpt lat="42.83349" lon="0.06699">
        <ele>2332</ele>
        <time>2012-12-22T12:18:44Z</time>
      </trkpt>
      <trkpt lat="42.83348" lon="0.06699">
        <ele>2332</ele>
        <time>2012-12-22T12:18:46Z</time>
      </trkpt>
      <trkpt lat="42.83347" lon="0.06699">
        <ele>2333</ele>
        <time>2012-12-22T12:18:48Z</time>
      </trkpt>
      <trkpt lat="42.83345" lon="0.06698">
        <ele>2333</ele>
        <time>2012-12-22T12:18:50Z</time>
      </trkpt>
      <trkpt lat="42.83344" lon="0.06697">
        <ele>2333</ele>
        <time>2012-12-22T12:18:52Z</time>
      </trkpt>
      <trkpt lat="42.83343" lon="0.06696">
        <ele>2333</ele>
        <time>2012-12-22T12:18:55Z</time>
      </trkpt>
      <trkpt lat="42.83342" lon="0.06695">
        <ele>2334</ele>
        <time>2012-12-22T12:18:58Z</time>
      </trkpt>
      <trkpt lat="42.83341" lon="0.06696">
        <ele>2334</ele>
        <time>2012-12-22T12:19:07Z</time>
      </trkpt>
      <trkpt lat="42.83341" lon="0.06697">
        <ele>2334</ele>
        <time>2012-12-22T12:19:09Z</time>
      </trkpt>
      <trkpt lat="42.8334" lon="0.06699">
        <ele>2334</ele>
        <time>2012-12-22T12:19:11Z</time>
      </trkpt>
      <trkpt lat="42.8334" lon="0.06701">
        <ele>2335</ele>
        <time>2012-12-22T12:19:13Z</time>
      </trkpt>
      <trkpt lat="42.83341" lon="0.06702">
        <ele>2335</ele>
        <time>2012-12-22T12:19:15Z</time>
      </trkpt>
      <trkpt lat="42.83341" lon="0.06704">
        <ele>2335</ele>
        <time>2012-12-22T12:19:17Z</time>
      </trkpt>
      <trkpt lat="42.83342" lon="0.06706">
        <ele>2336</ele>
        <time>2012-12-22T12:19:20Z</time>
      </trkpt>
      <trkpt lat="42.83342" lon="0.06707">
        <ele>2337</ele>
        <time>2012-12-22T12:19:22Z</time>
      </trkpt>
      <trkpt lat="42.83342" lon="0.06709">
        <ele>2337</ele>
        <time>2012-12-22T12:19:24Z</time>
      </trkpt>
      <trkpt lat="42.83343" lon="0.06712">
        <ele>2338</ele>
        <time>2012-12-22T12:19:27Z</time>
      </trkpt>
      <trkpt lat="42.83344" lon="0.06713">
        <ele>2339</ele>
        <time>2012-12-22T12:19:58Z</time>
      </trkpt>
      <trkpt lat="42.83345" lon="0.06716">
        <ele>2339</ele>
        <time>2012-12-22T12:20:01Z</time>
      </trkpt>
      <trkpt lat="42.83346" lon="0.06717">
        <ele>2339</ele>
        <time>2012-12-22T12:20:03Z</time>
      </trkpt>
      <trkpt lat="42.83347" lon="0.06718">
        <ele>2339</ele>
        <time>2012-12-22T12:20:05Z</time>
      </trkpt>
      <trkpt lat="42.83348" lon="0.0672">
        <ele>2339</ele>
        <time>2012-12-22T12:20:08Z</time>
      </trkpt>
      <trkpt lat="42.8335" lon="0.06722">
        <ele>2340</ele>
        <time>2012-12-22T12:20:12Z</time>
      </trkpt>
      <trkpt lat="42.83351" lon="0.06724">
        <ele>2342</ele>
        <time>2012-12-22T12:20:15Z</time>
      </trkpt>
      <trkpt lat="42.83352" lon="0.06725">
        <ele>2343</ele>
        <time>2012-12-22T12:20:18Z</time>
      </trkpt>
      <trkpt lat="42.83352" lon="0.06727">
        <ele>2343</ele>
        <time>2012-12-22T12:20:20Z</time>
      </trkpt>
      <trkpt lat="42.83351" lon="0.06729">
        <ele>2344</ele>
        <time>2012-12-22T12:20:23Z</time>
      </trkpt>
      <trkpt lat="42.8335" lon="0.0673">
        <ele>2344</ele>
        <time>2012-12-22T12:20:26Z</time>
      </trkpt>
      <trkpt lat="42.83348" lon="0.06731">
        <ele>2345</ele>
        <time>2012-12-22T12:20:28Z</time>
      </trkpt>
      <trkpt lat="42.83347" lon="0.06732">
        <ele>2345</ele>
        <time>2012-12-22T12:20:31Z</time>
      </trkpt>
      <trkpt lat="42.83346" lon="0.06734">
        <ele>2346</ele>
        <time>2012-12-22T12:20:34Z</time>
      </trkpt>
      <trkpt lat="42.83345" lon="0.06735">
        <ele>2346</ele>
        <time>2012-12-22T12:20:37Z</time>
      </trkpt>
      <trkpt lat="42.83343" lon="0.06737">
        <ele>2347</ele>
        <time>2012-12-22T12:20:40Z</time>
      </trkpt>
      <trkpt lat="42.83342" lon="0.06739">
        <ele>2347</ele>
        <time>2012-12-22T12:20:43Z</time>
      </trkpt>
      <trkpt lat="42.83342" lon="0.06738">
        <ele>2348</ele>
        <time>2012-12-22T12:21:38Z</time>
      </trkpt>
      <trkpt lat="42.8334" lon="0.06739">
        <ele>2348</ele>
        <time>2012-12-22T12:21:42Z</time>
      </trkpt>
      <trkpt lat="42.83339" lon="0.06741">
        <ele>2348</ele>
        <time>2012-12-22T12:21:45Z</time>
      </trkpt>
      <trkpt lat="42.83338" lon="0.06742">
        <ele>2349</ele>
        <time>2012-12-22T12:21:47Z</time>
      </trkpt>
      <trkpt lat="42.83337" lon="0.06743">
        <ele>2349</ele>
        <time>2012-12-22T12:21:49Z</time>
      </trkpt>
      <trkpt lat="42.83335" lon="0.06745">
        <ele>2350</ele>
        <time>2012-12-22T12:21:52Z</time>
      </trkpt>
      <trkpt lat="42.83333" lon="0.06746">
        <ele>2350</ele>
        <time>2012-12-22T12:21:55Z</time>
      </trkpt>
      <trkpt lat="42.83332" lon="0.06747">
        <ele>2351</ele>
        <time>2012-12-22T12:21:57Z</time>
      </trkpt>
      <trkpt lat="42.83331" lon="0.06747">
        <ele>2351</ele>
        <time>2012-12-22T12:21:59Z</time>
      </trkpt>
      <trkpt lat="42.83329" lon="0.06748">
        <ele>2351</ele>
        <time>2012-12-22T12:22:01Z</time>
      </trkpt>
      <trkpt lat="42.83328" lon="0.0675">
        <ele>2352</ele>
        <time>2012-12-22T12:22:04Z</time>
      </trkpt>
      <trkpt lat="42.83326" lon="0.06751">
        <ele>2352</ele>
        <time>2012-12-22T12:22:06Z</time>
      </trkpt>
      <trkpt lat="42.83325" lon="0.06752">
        <ele>2352</ele>
        <time>2012-12-22T12:22:08Z</time>
      </trkpt>
      <trkpt lat="42.83324" lon="0.06753">
        <ele>2352</ele>
        <time>2012-12-22T12:22:11Z</time>
      </trkpt>
      <trkpt lat="42.83322" lon="0.06754">
        <ele>2353</ele>
        <time>2012-12-22T12:22:14Z</time>
      </trkpt>
      <trkpt lat="42.83321" lon="0.06756">
        <ele>2353</ele>
        <time>2012-12-22T12:22:16Z</time>
      </trkpt>
      <trkpt lat="42.8332" lon="0.06756">
        <ele>2353</ele>
        <time>2012-12-22T12:22:18Z</time>
      </trkpt>
      <trkpt lat="42.83319" lon="0.06757">
        <ele>2353</ele>
        <time>2012-12-22T12:22:20Z</time>
      </trkpt>
      <trkpt lat="42.83318" lon="0.06758">
        <ele>2354</ele>
        <time>2012-12-22T12:22:22Z</time>
      </trkpt>
      <trkpt lat="42.83316" lon="0.06759">
        <ele>2355</ele>
        <time>2012-12-22T12:22:25Z</time>
      </trkpt>
      <trkpt lat="42.83315" lon="0.06759">
        <ele>2356</ele>
        <time>2012-12-22T12:22:27Z</time>
      </trkpt>
      <trkpt lat="42.83314" lon="0.0676">
        <ele>2356</ele>
        <time>2012-12-22T12:22:29Z</time>
      </trkpt>
      <trkpt lat="42.83313" lon="0.06761">
        <ele>2357</ele>
        <time>2012-12-22T12:22:31Z</time>
      </trkpt>
      <trkpt lat="42.83311" lon="0.06762">
        <ele>2357</ele>
        <time>2012-12-22T12:22:34Z</time>
      </trkpt>
      <trkpt lat="42.8331" lon="0.06762">
        <ele>2357</ele>
        <time>2012-12-22T12:22:36Z</time>
      </trkpt>
      <trkpt lat="42.83308" lon="0.06763">
        <ele>2358</ele>
        <time>2012-12-22T12:22:39Z</time>
      </trkpt>
      <trkpt lat="42.83307" lon="0.06764">
        <ele>2358</ele>
        <time>2012-12-22T12:22:42Z</time>
      </trkpt>
      <trkpt lat="42.83305" lon="0.06766">
        <ele>2359</ele>
        <time>2012-12-22T12:22:45Z</time>
      </trkpt>
      <trkpt lat="42.83304" lon="0.06766">
        <ele>2359</ele>
        <time>2012-12-22T12:22:48Z</time>
      </trkpt>
      <trkpt lat="42.83303" lon="0.06767">
        <ele>2359</ele>
        <time>2012-12-22T12:23:06Z</time>
      </trkpt>
      <trkpt lat="42.83302" lon="0.06768">
        <ele>2359</ele>
        <time>2012-12-22T12:23:09Z</time>
      </trkpt>
      <trkpt lat="42.833" lon="0.06769">
        <ele>2360</ele>
        <time>2012-12-22T12:23:13Z</time>
      </trkpt>
      <trkpt lat="42.83298" lon="0.0677">
        <ele>2361</ele>
        <time>2012-12-22T12:23:17Z</time>
      </trkpt>
      <trkpt lat="42.83297" lon="0.06771">
        <ele>2361</ele>
        <time>2012-12-22T12:23:20Z</time>
      </trkpt>
      <trkpt lat="42.83296" lon="0.06773">
        <ele>2362</ele>
        <time>2012-12-22T12:23:23Z</time>
      </trkpt>
      <trkpt lat="42.83295" lon="0.06774">
        <ele>2363</ele>
        <time>2012-12-22T12:23:26Z</time>
      </trkpt>
      <trkpt lat="42.83294" lon="0.06775">
        <ele>2364</ele>
        <time>2012-12-22T12:23:29Z</time>
      </trkpt>
      <trkpt lat="42.83292" lon="0.06776">
        <ele>2364</ele>
        <time>2012-12-22T12:23:32Z</time>
      </trkpt>
      <trkpt lat="42.83291" lon="0.06777">
        <ele>2364</ele>
        <time>2012-12-22T12:23:35Z</time>
      </trkpt>
      <trkpt lat="42.83291" lon="0.06779">
        <ele>2364</ele>
        <time>2012-12-22T12:23:37Z</time>
      </trkpt>
      <trkpt lat="42.83289" lon="0.0678">
        <ele>2364</ele>
        <time>2012-12-22T12:23:41Z</time>
      </trkpt>
      <trkpt lat="42.83288" lon="0.06781">
        <ele>2365</ele>
        <time>2012-12-22T12:23:43Z</time>
      </trkpt>
      <trkpt lat="42.83287" lon="0.06782">
        <ele>2365</ele>
        <time>2012-12-22T12:23:59Z</time>
      </trkpt>
      <trkpt lat="42.83286" lon="0.06784">
        <ele>2365</ele>
        <time>2012-12-22T12:24:03Z</time>
      </trkpt>
      <trkpt lat="42.83285" lon="0.06785">
        <ele>2365</ele>
        <time>2012-12-22T12:24:06Z</time>
      </trkpt>
      <trkpt lat="42.83284" lon="0.06785">
        <ele>2365</ele>
        <time>2012-12-22T12:24:09Z</time>
      </trkpt>
      <trkpt lat="42.83282" lon="0.06786">
        <ele>2366</ele>
        <time>2012-12-22T12:24:12Z</time>
      </trkpt>
      <trkpt lat="42.83281" lon="0.06787">
        <ele>2367</ele>
        <time>2012-12-22T12:24:15Z</time>
      </trkpt>
      <trkpt lat="42.8328" lon="0.06788">
        <ele>2367</ele>
        <time>2012-12-22T12:24:18Z</time>
      </trkpt>
      <trkpt lat="42.83279" lon="0.06788">
        <ele>2368</ele>
        <time>2012-12-22T12:24:21Z</time>
      </trkpt>
      <trkpt lat="42.83278" lon="0.06789">
        <ele>2369</ele>
        <time>2012-12-22T12:24:24Z</time>
      </trkpt>
      <trkpt lat="42.83276" lon="0.0679">
        <ele>2369</ele>
        <time>2012-12-22T12:24:27Z</time>
      </trkpt>
      <trkpt lat="42.83275" lon="0.0679">
        <ele>2370</ele>
        <time>2012-12-22T12:24:30Z</time>
      </trkpt>
      <trkpt lat="42.83273" lon="0.06791">
        <ele>2370</ele>
        <time>2012-12-22T12:24:33Z</time>
      </trkpt>
      <trkpt lat="42.83272" lon="0.06791">
        <ele>2370</ele>
        <time>2012-12-22T12:24:35Z</time>
      </trkpt>
      <trkpt lat="42.83271" lon="0.06791">
        <ele>2370</ele>
        <time>2012-12-22T12:24:38Z</time>
      </trkpt>
      <trkpt lat="42.83269" lon="0.0679">
        <ele>2371</ele>
        <time>2012-12-22T12:24:41Z</time>
      </trkpt>
      <trkpt lat="42.83267" lon="0.0679">
        <ele>2371</ele>
        <time>2012-12-22T12:25:03Z</time>
      </trkpt>
      <trkpt lat="42.83266" lon="0.0679">
        <ele>2371</ele>
        <time>2012-12-22T12:25:06Z</time>
      </trkpt>
      <trkpt lat="42.83264" lon="0.06789">
        <ele>2371</ele>
        <time>2012-12-22T12:25:09Z</time>
      </trkpt>
      <trkpt lat="42.83263" lon="0.06788">
        <ele>2371</ele>
        <time>2012-12-22T12:25:11Z</time>
      </trkpt>
      <trkpt lat="42.83262" lon="0.06786">
        <ele>2371</ele>
        <time>2012-12-22T12:25:14Z</time>
      </trkpt>
      <trkpt lat="42.8326" lon="0.06785">
        <ele>2371</ele>
        <time>2012-12-22T12:25:17Z</time>
      </trkpt>
      <trkpt lat="42.83259" lon="0.06783">
        <ele>2371</ele>
        <time>2012-12-22T12:25:20Z</time>
      </trkpt>
      <trkpt lat="42.83258" lon="0.06781">
        <ele>2372</ele>
        <time>2012-12-22T12:25:23Z</time>
      </trkpt>
      <trkpt lat="42.83257" lon="0.06779">
        <ele>2372</ele>
        <time>2012-12-22T12:25:25Z</time>
      </trkpt>
      <trkpt lat="42.83256" lon="0.06778">
        <ele>2372</ele>
        <time>2012-12-22T12:25:27Z</time>
      </trkpt>
      <trkpt lat="42.83255" lon="0.06776">
        <ele>2373</ele>
        <time>2012-12-22T12:25:30Z</time>
      </trkpt>
      <trkpt lat="42.83254" lon="0.06777">
        <ele>2374</ele>
        <time>2012-12-22T12:25:35Z</time>
      </trkpt>
      <trkpt lat="42.83253" lon="0.06779">
        <ele>2375</ele>
        <time>2012-12-22T12:25:37Z</time>
      </trkpt>
      <trkpt lat="42.83253" lon="0.0678">
        <ele>2376</ele>
        <time>2012-12-22T12:25:39Z</time>
      </trkpt>
      <trkpt lat="42.83252" lon="0.06782">
        <ele>2376</ele>
        <time>2012-12-22T12:25:41Z</time>
      </trkpt>
      <trkpt lat="42.83252" lon="0.06784">
        <ele>2376</ele>
        <time>2012-12-22T12:25:43Z</time>
      </trkpt>
      <trkpt lat="42.83251" lon="0.06785">
        <ele>2377</ele>
        <time>2012-12-22T12:25:46Z</time>
      </trkpt>
      <trkpt lat="42.8325" lon="0.06787">
        <ele>2378</ele>
        <time>2012-12-22T12:25:49Z</time>
      </trkpt>
      <trkpt lat="42.8325" lon="0.06789">
        <ele>2378</ele>
        <time>2012-12-22T12:25:52Z</time>
      </trkpt>
      <trkpt lat="42.83249" lon="0.0679">
        <ele>2378</ele>
        <time>2012-12-22T12:25:54Z</time>
      </trkpt>
      <trkpt lat="42.83249" lon="0.06792">
        <ele>2379</ele>
        <time>2012-12-22T12:25:56Z</time>
      </trkpt>
      <trkpt lat="42.83249" lon="0.06793">
        <ele>2379</ele>
        <time>2012-12-22T12:25:58Z</time>
      </trkpt>
      <trkpt lat="42.83249" lon="0.06795">
        <ele>2380</ele>
        <time>2012-12-22T12:26:01Z</time>
      </trkpt>
      <trkpt lat="42.83247" lon="0.06794">
        <ele>2380</ele>
        <time>2012-12-22T12:26:06Z</time>
      </trkpt>
      <trkpt lat="42.83246" lon="0.06793">
        <ele>2380</ele>
        <time>2012-12-22T12:26:09Z</time>
      </trkpt>
      <trkpt lat="42.83245" lon="0.06792">
        <ele>2380</ele>
        <time>2012-12-22T12:26:31Z</time>
      </trkpt>
      <trkpt lat="42.83244" lon="0.0679">
        <ele>2380</ele>
        <time>2012-12-22T12:26:33Z</time>
      </trkpt>
      <trkpt lat="42.83243" lon="0.06789">
        <ele>2380</ele>
        <time>2012-12-22T12:26:36Z</time>
      </trkpt>
      <trkpt lat="42.83241" lon="0.06788">
        <ele>2380</ele>
        <time>2012-12-22T12:26:39Z</time>
      </trkpt>
      <trkpt lat="42.83241" lon="0.0679">
        <ele>2380</ele>
        <time>2012-12-22T12:26:42Z</time>
      </trkpt>
      <trkpt lat="42.8324" lon="0.06792">
        <ele>2381</ele>
        <time>2012-12-22T12:26:44Z</time>
      </trkpt>
      <trkpt lat="42.83239" lon="0.06794">
        <ele>2381</ele>
        <time>2012-12-22T12:26:47Z</time>
      </trkpt>
      <trkpt lat="42.83239" lon="0.06795">
        <ele>2382</ele>
        <time>2012-12-22T12:26:49Z</time>
      </trkpt>
      <trkpt lat="42.83239" lon="0.06797">
        <ele>2382</ele>
        <time>2012-12-22T12:26:51Z</time>
      </trkpt>
      <trkpt lat="42.83238" lon="0.06798">
        <ele>2382</ele>
        <time>2012-12-22T12:26:53Z</time>
      </trkpt>
      <trkpt lat="42.83238" lon="0.068">
        <ele>2383</ele>
        <time>2012-12-22T12:26:55Z</time>
      </trkpt>
      <trkpt lat="42.83237" lon="0.06802">
        <ele>2383</ele>
        <time>2012-12-22T12:26:57Z</time>
      </trkpt>
      <trkpt lat="42.83237" lon="0.06804">
        <ele>2384</ele>
        <time>2012-12-22T12:27:00Z</time>
      </trkpt>
      <trkpt lat="42.83235" lon="0.06805">
        <ele>2386</ele>
        <time>2012-12-22T12:27:04Z</time>
      </trkpt>
      <trkpt lat="42.83234" lon="0.06805">
        <ele>2386</ele>
        <time>2012-12-22T12:27:07Z</time>
      </trkpt>
      <trkpt lat="42.83233" lon="0.06805">
        <ele>2387</ele>
        <time>2012-12-22T12:27:09Z</time>
      </trkpt>
      <trkpt lat="42.83231" lon="0.06805">
        <ele>2387</ele>
        <time>2012-12-22T12:27:12Z</time>
      </trkpt>
      <trkpt lat="42.8323" lon="0.06807">
        <ele>2387</ele>
        <time>2012-12-22T12:27:15Z</time>
      </trkpt>
      <trkpt lat="42.83229" lon="0.06808">
        <ele>2388</ele>
        <time>2012-12-22T12:27:17Z</time>
      </trkpt>
      <trkpt lat="42.83229" lon="0.0681">
        <ele>2389</ele>
        <time>2012-12-22T12:27:28Z</time>
      </trkpt>
      <trkpt lat="42.83228" lon="0.06812">
        <ele>2389</ele>
        <time>2012-12-22T12:27:31Z</time>
      </trkpt>
      <trkpt lat="42.83228" lon="0.06813">
        <ele>2389</ele>
        <time>2012-12-22T12:27:33Z</time>
      </trkpt>
      <trkpt lat="42.83228" lon="0.06815">
        <ele>2389</ele>
        <time>2012-12-22T12:27:36Z</time>
      </trkpt>
      <trkpt lat="42.83227" lon="0.06817">
        <ele>2390</ele>
        <time>2012-12-22T12:27:38Z</time>
      </trkpt>
      <trkpt lat="42.83227" lon="0.06819">
        <ele>2390</ele>
        <time>2012-12-22T12:27:41Z</time>
      </trkpt>
      <trkpt lat="42.83226" lon="0.06819">
        <ele>2390</ele>
        <time>2012-12-22T12:27:44Z</time>
      </trkpt>
      <trkpt lat="42.83224" lon="0.06819">
        <ele>2391</ele>
        <time>2012-12-22T12:27:47Z</time>
      </trkpt>
      <trkpt lat="42.83223" lon="0.06819">
        <ele>2391</ele>
        <time>2012-12-22T12:27:50Z</time>
      </trkpt>
      <trkpt lat="42.83221" lon="0.06819">
        <ele>2391</ele>
        <time>2012-12-22T12:27:53Z</time>
      </trkpt>
      <trkpt lat="42.8322" lon="0.06819">
        <ele>2391</ele>
        <time>2012-12-22T12:27:56Z</time>
      </trkpt>
      <trkpt lat="42.83218" lon="0.06819">
        <ele>2392</ele>
        <time>2012-12-22T12:27:59Z</time>
      </trkpt>
      <trkpt lat="42.83217" lon="0.06819">
        <ele>2392</ele>
        <time>2012-12-22T12:28:02Z</time>
      </trkpt>
      <trkpt lat="42.83216" lon="0.0682">
        <ele>2393</ele>
        <time>2012-12-22T12:28:36Z</time>
      </trkpt>
      <trkpt lat="42.83215" lon="0.06822">
        <ele>2393</ele>
        <time>2012-12-22T12:28:39Z</time>
      </trkpt>
      <trkpt lat="42.83214" lon="0.06823">
        <ele>2393</ele>
        <time>2012-12-22T12:28:41Z</time>
      </trkpt>
      <trkpt lat="42.83214" lon="0.06825">
        <ele>2394</ele>
        <time>2012-12-22T12:28:43Z</time>
      </trkpt>
      <trkpt lat="42.83214" lon="0.06826">
        <ele>2394</ele>
        <time>2012-12-22T12:28:45Z</time>
      </trkpt>
      <trkpt lat="42.83214" lon="0.06828">
        <ele>2394</ele>
        <time>2012-12-22T12:28:47Z</time>
      </trkpt>
      <trkpt lat="42.83213" lon="0.0683">
        <ele>2394</ele>
        <time>2012-12-22T12:28:49Z</time>
      </trkpt>
      <trkpt lat="42.83213" lon="0.06831">
        <ele>2395</ele>
        <time>2012-12-22T12:28:51Z</time>
      </trkpt>
      <trkpt lat="42.83213" lon="0.06833">
        <ele>2395</ele>
        <time>2012-12-22T12:28:53Z</time>
      </trkpt>
      <trkpt lat="42.83212" lon="0.06835">
        <ele>2395</ele>
        <time>2012-12-22T12:28:56Z</time>
      </trkpt>
      <trkpt lat="42.83212" lon="0.06836">
        <ele>2395</ele>
        <time>2012-12-22T12:28:58Z</time>
      </trkpt>
      <trkpt lat="42.83211" lon="0.06838">
        <ele>2395</ele>
        <time>2012-12-22T12:29:01Z</time>
      </trkpt>
      <trkpt lat="42.8321" lon="0.06839">
        <ele>2396</ele>
        <time>2012-12-22T12:29:05Z</time>
      </trkpt>
      <trkpt lat="42.83208" lon="0.0684">
        <ele>2396</ele>
        <time>2012-12-22T12:29:08Z</time>
      </trkpt>
      <trkpt lat="42.83207" lon="0.0684">
        <ele>2396</ele>
        <time>2012-12-22T12:29:11Z</time>
      </trkpt>
      <trkpt lat="42.83205" lon="0.0684">
        <ele>2396</ele>
        <time>2012-12-22T12:29:13Z</time>
      </trkpt>
      <trkpt lat="42.83204" lon="0.06841">
        <ele>2397</ele>
        <time>2012-12-22T12:29:16Z</time>
      </trkpt>
      <trkpt lat="42.83202" lon="0.06841">
        <ele>2397</ele>
        <time>2012-12-22T12:29:19Z</time>
      </trkpt>
      <trkpt lat="42.83201" lon="0.06841">
        <ele>2398</ele>
        <time>2012-12-22T12:29:22Z</time>
      </trkpt>
      <trkpt lat="42.83199" lon="0.06841">
        <ele>2399</ele>
        <time>2012-12-22T12:29:25Z</time>
      </trkpt>
      <trkpt lat="42.83198" lon="0.06841">
        <ele>2399</ele>
        <time>2012-12-22T12:29:28Z</time>
      </trkpt>
      <trkpt lat="42.83196" lon="0.06842">
        <ele>2399</ele>
        <time>2012-12-22T12:29:31Z</time>
      </trkpt>
      <trkpt lat="42.83195" lon="0.06843">
        <ele>2400</ele>
        <time>2012-12-22T12:29:34Z</time>
      </trkpt>
      <trkpt lat="42.83195" lon="0.06844">
        <ele>2400</ele>
        <time>2012-12-22T12:29:36Z</time>
      </trkpt>
      <trkpt lat="42.83194" lon="0.06846">
        <ele>2401</ele>
        <time>2012-12-22T12:29:38Z</time>
      </trkpt>
      <trkpt lat="42.83195" lon="0.06848">
        <ele>2401</ele>
        <time>2012-12-22T12:29:41Z</time>
      </trkpt>
      <trkpt lat="42.83195" lon="0.06849">
        <ele>2402</ele>
        <time>2012-12-22T12:29:43Z</time>
      </trkpt>
      <trkpt lat="42.83195" lon="0.06851">
        <ele>2402</ele>
        <time>2012-12-22T12:29:45Z</time>
      </trkpt>
      <trkpt lat="42.83196" lon="0.06853">
        <ele>2403</ele>
        <time>2012-12-22T12:29:47Z</time>
      </trkpt>
      <trkpt lat="42.83197" lon="0.06854">
        <ele>2403</ele>
        <time>2012-12-22T12:29:49Z</time>
      </trkpt>
      <trkpt lat="42.83197" lon="0.06856">
        <ele>2403</ele>
        <time>2012-12-22T12:29:52Z</time>
      </trkpt>
      <trkpt lat="42.83198" lon="0.06858">
        <ele>2404</ele>
        <time>2012-12-22T12:29:54Z</time>
      </trkpt>
      <trkpt lat="42.83199" lon="0.0686">
        <ele>2404</ele>
        <time>2012-12-22T12:29:57Z</time>
      </trkpt>
      <trkpt lat="42.832" lon="0.06861">
        <ele>2404</ele>
        <time>2012-12-22T12:30:00Z</time>
      </trkpt>
      <trkpt lat="42.83201" lon="0.06863">
        <ele>2404</ele>
        <time>2012-12-22T12:30:03Z</time>
      </trkpt>
      <trkpt lat="42.83202" lon="0.06865">
        <ele>2405</ele>
        <time>2012-12-22T12:30:06Z</time>
      </trkpt>
      <trkpt lat="42.83203" lon="0.06866">
        <ele>2406</ele>
        <time>2012-12-22T12:30:58Z</time>
      </trkpt>
      <trkpt lat="42.83204" lon="0.06868">
        <ele>2406</ele>
        <time>2012-12-22T12:31:01Z</time>
      </trkpt>
      <trkpt lat="42.83205" lon="0.0687">
        <ele>2406</ele>
        <time>2012-12-22T12:31:04Z</time>
      </trkpt>
      <trkpt lat="42.83205" lon="0.06872">
        <ele>2407</ele>
        <time>2012-12-22T12:31:07Z</time>
      </trkpt>
      <trkpt lat="42.83204" lon="0.06874">
        <ele>2408</ele>
        <time>2012-12-22T12:31:10Z</time>
      </trkpt>
      <trkpt lat="42.83202" lon="0.06875">
        <ele>2408</ele>
        <time>2012-12-22T12:31:13Z</time>
      </trkpt>
      <trkpt lat="42.83201" lon="0.06875">
        <ele>2408</ele>
        <time>2012-12-22T12:31:15Z</time>
      </trkpt>
      <trkpt lat="42.832" lon="0.06876">
        <ele>2409</ele>
        <time>2012-12-22T12:31:18Z</time>
      </trkpt>
      <trkpt lat="42.83199" lon="0.06877">
        <ele>2409</ele>
        <time>2012-12-22T12:31:20Z</time>
      </trkpt>
      <trkpt lat="42.83197" lon="0.06877">
        <ele>2410</ele>
        <time>2012-12-22T12:31:22Z</time>
      </trkpt>
      <trkpt lat="42.83196" lon="0.06878">
        <ele>2410</ele>
        <time>2012-12-22T12:31:24Z</time>
      </trkpt>
      <trkpt lat="42.83195" lon="0.06878">
        <ele>2410</ele>
        <time>2012-12-22T12:31:26Z</time>
      </trkpt>
      <trkpt lat="42.83194" lon="0.06878">
        <ele>2411</ele>
        <time>2012-12-22T12:31:28Z</time>
      </trkpt>
      <trkpt lat="42.83192" lon="0.06879">
        <ele>2411</ele>
        <time>2012-12-22T12:31:31Z</time>
      </trkpt>
      <trkpt lat="42.83191" lon="0.06879">
        <ele>2411</ele>
        <time>2012-12-22T12:31:33Z</time>
      </trkpt>
      <trkpt lat="42.8319" lon="0.06879">
        <ele>2411</ele>
        <time>2012-12-22T12:31:35Z</time>
      </trkpt>
      <trkpt lat="42.83189" lon="0.0688">
        <ele>2411</ele>
        <time>2012-12-22T12:31:37Z</time>
      </trkpt>
      <trkpt lat="42.83187" lon="0.0688">
        <ele>2411</ele>
        <time>2012-12-22T12:31:39Z</time>
      </trkpt>
      <trkpt lat="42.83186" lon="0.0688">
        <ele>2411</ele>
        <time>2012-12-22T12:31:41Z</time>
      </trkpt>
      <trkpt lat="42.83185" lon="0.0688">
        <ele>2411</ele>
        <time>2012-12-22T12:31:44Z</time>
      </trkpt>
      <trkpt lat="42.83184" lon="0.0688">
        <ele>2411</ele>
        <time>2012-12-22T12:31:46Z</time>
      </trkpt>
      <trkpt lat="42.83182" lon="0.06881">
        <ele>2412</ele>
        <time>2012-12-22T12:31:49Z</time>
      </trkpt>
      <trkpt lat="42.83181" lon="0.0688">
        <ele>2412</ele>
        <time>2012-12-22T12:31:51Z</time>
      </trkpt>
      <trkpt lat="42.83179" lon="0.0688">
        <ele>2412</ele>
        <time>2012-12-22T12:31:54Z</time>
      </trkpt>
      <trkpt lat="42.83178" lon="0.0688">
        <ele>2413</ele>
        <time>2012-12-22T12:31:57Z</time>
      </trkpt>
      <trkpt lat="42.83177" lon="0.06882">
        <ele>2413</ele>
        <time>2012-12-22T12:32:00Z</time>
      </trkpt>
      <trkpt lat="42.83177" lon="0.06884">
        <ele>2414</ele>
        <time>2012-12-22T12:32:02Z</time>
      </trkpt>
      <trkpt lat="42.83178" lon="0.06885">
        <ele>2414</ele>
        <time>2012-12-22T12:32:04Z</time>
      </trkpt>
      <trkpt lat="42.83178" lon="0.06887">
        <ele>2415</ele>
        <time>2012-12-22T12:32:06Z</time>
      </trkpt>
      <trkpt lat="42.83178" lon="0.06888">
        <ele>2415</ele>
        <time>2012-12-22T12:32:08Z</time>
      </trkpt>
      <trkpt lat="42.83178" lon="0.0689">
        <ele>2416</ele>
        <time>2012-12-22T12:32:10Z</time>
      </trkpt>
      <trkpt lat="42.83179" lon="0.06891">
        <ele>2417</ele>
        <time>2012-12-22T12:32:12Z</time>
      </trkpt>
      <trkpt lat="42.83179" lon="0.06893">
        <ele>2417</ele>
        <time>2012-12-22T12:32:14Z</time>
      </trkpt>
      <trkpt lat="42.8318" lon="0.06895">
        <ele>2418</ele>
        <time>2012-12-22T12:32:16Z</time>
      </trkpt>
      <trkpt lat="42.8318" lon="0.06896">
        <ele>2421</ele>
        <time>2012-12-22T12:32:25Z</time>
      </trkpt>
      <trkpt lat="42.83181" lon="0.06896">
        <ele>2421</ele>
        <time>2012-12-22T12:32:31Z</time>
      </trkpt>
      <trkpt lat="42.83182" lon="0.06898">
        <ele>2421</ele>
        <time>2012-12-22T12:32:45Z</time>
      </trkpt>
      <trkpt lat="42.83182" lon="0.06899">
        <ele>2421</ele>
        <time>2012-12-22T12:32:47Z</time>
      </trkpt>
      <trkpt lat="42.83183" lon="0.06901">
        <ele>2421</ele>
        <time>2012-12-22T12:32:49Z</time>
      </trkpt>
      <trkpt lat="42.83184" lon="0.06902">
        <ele>2421</ele>
        <time>2012-12-22T12:32:51Z</time>
      </trkpt>
      <trkpt lat="42.83184" lon="0.06904">
        <ele>2421</ele>
        <time>2012-12-22T12:32:53Z</time>
      </trkpt>
      <trkpt lat="42.83185" lon="0.06905">
        <ele>2421</ele>
        <time>2012-12-22T12:32:55Z</time>
      </trkpt>
      <trkpt lat="42.83186" lon="0.06907">
        <ele>2421</ele>
        <time>2012-12-22T12:32:58Z</time>
      </trkpt>
      <trkpt lat="42.83186" lon="0.06909">
        <ele>2421</ele>
        <time>2012-12-22T12:33:01Z</time>
      </trkpt>
      <trkpt lat="42.83188" lon="0.0691">
        <ele>2422</ele>
        <time>2012-12-22T12:33:04Z</time>
      </trkpt>
      <trkpt lat="42.83189" lon="0.06911">
        <ele>2423</ele>
        <time>2012-12-22T12:33:07Z</time>
      </trkpt>
      <trkpt lat="42.83191" lon="0.06913">
        <ele>2424</ele>
        <time>2012-12-22T12:33:10Z</time>
      </trkpt>
      <trkpt lat="42.83192" lon="0.06915">
        <ele>2424</ele>
        <time>2012-12-22T12:33:13Z</time>
      </trkpt>
      <trkpt lat="42.83191" lon="0.06916">
        <ele>2424</ele>
        <time>2012-12-22T12:33:17Z</time>
      </trkpt>
      <trkpt lat="42.8319" lon="0.06918">
        <ele>2424</ele>
        <time>2012-12-22T12:33:20Z</time>
      </trkpt>
      <trkpt lat="42.83189" lon="0.06919">
        <ele>2424</ele>
        <time>2012-12-22T12:33:23Z</time>
      </trkpt>
      <trkpt lat="42.83188" lon="0.06921">
        <ele>2425</ele>
        <time>2012-12-22T12:33:26Z</time>
      </trkpt>
      <trkpt lat="42.83187" lon="0.06922">
        <ele>2425</ele>
        <time>2012-12-22T12:33:29Z</time>
      </trkpt>
      <trkpt lat="42.83186" lon="0.06923">
        <ele>2425</ele>
        <time>2012-12-22T12:33:32Z</time>
      </trkpt>
      <trkpt lat="42.83184" lon="0.06925">
        <ele>2425</ele>
        <time>2012-12-22T12:33:35Z</time>
      </trkpt>
      <trkpt lat="42.83183" lon="0.06926">
        <ele>2425</ele>
        <time>2012-12-22T12:33:38Z</time>
      </trkpt>
      <trkpt lat="42.83181" lon="0.06928">
        <ele>2425</ele>
        <time>2012-12-22T12:33:41Z</time>
      </trkpt>
      <trkpt lat="42.8318" lon="0.06929">
        <ele>2425</ele>
        <time>2012-12-22T12:33:44Z</time>
      </trkpt>
      <trkpt lat="42.83179" lon="0.06931">
        <ele>2425</ele>
        <time>2012-12-22T12:33:47Z</time>
      </trkpt>
      <trkpt lat="42.83178" lon="0.06932">
        <ele>2426</ele>
        <time>2012-12-22T12:34:07Z</time>
      </trkpt>
      <trkpt lat="42.83177" lon="0.06933">
        <ele>2426</ele>
        <time>2012-12-22T12:34:09Z</time>
      </trkpt>
      <trkpt lat="42.83175" lon="0.06933">
        <ele>2426</ele>
        <time>2012-12-22T12:34:11Z</time>
      </trkpt>
      <trkpt lat="42.83174" lon="0.06934">
        <ele>2426</ele>
        <time>2012-12-22T12:34:13Z</time>
      </trkpt>
      <trkpt lat="42.83173" lon="0.06935">
        <ele>2426</ele>
        <time>2012-12-22T12:34:15Z</time>
      </trkpt>
      <trkpt lat="42.83171" lon="0.06936">
        <ele>2426</ele>
        <time>2012-12-22T12:34:17Z</time>
      </trkpt>
      <trkpt lat="42.8317" lon="0.06936">
        <ele>2426</ele>
        <time>2012-12-22T12:34:19Z</time>
      </trkpt>
      <trkpt lat="42.83168" lon="0.06936">
        <ele>2427</ele>
        <time>2012-12-22T12:34:21Z</time>
      </trkpt>
      <trkpt lat="42.83167" lon="0.06937">
        <ele>2427</ele>
        <time>2012-12-22T12:34:23Z</time>
      </trkpt>
      <trkpt lat="42.83166" lon="0.06937">
        <ele>2427</ele>
        <time>2012-12-22T12:34:25Z</time>
      </trkpt>
      <trkpt lat="42.83165" lon="0.06936">
        <ele>2428</ele>
        <time>2012-12-22T12:34:27Z</time>
      </trkpt>
      <trkpt lat="42.83163" lon="0.06936">
        <ele>2428</ele>
        <time>2012-12-22T12:34:29Z</time>
      </trkpt>
      <trkpt lat="42.83162" lon="0.06935">
        <ele>2428</ele>
        <time>2012-12-22T12:34:31Z</time>
      </trkpt>
      <trkpt lat="42.83161" lon="0.06934">
        <ele>2428</ele>
        <time>2012-12-22T12:34:33Z</time>
      </trkpt>
      <trkpt lat="42.8316" lon="0.06933">
        <ele>2429</ele>
        <time>2012-12-22T12:34:36Z</time>
      </trkpt>
      <trkpt lat="42.83158" lon="0.06932">
        <ele>2429</ele>
        <time>2012-12-22T12:34:39Z</time>
      </trkpt>
      <trkpt lat="42.83157" lon="0.0693">
        <ele>2430</ele>
        <time>2012-12-22T12:34:42Z</time>
      </trkpt>
      <trkpt lat="42.83155" lon="0.06928">
        <ele>2430</ele>
        <time>2012-12-22T12:34:45Z</time>
      </trkpt>
      <trkpt lat="42.83154" lon="0.06927">
        <ele>2431</ele>
        <time>2012-12-22T12:34:49Z</time>
      </trkpt>
      <trkpt lat="42.83154" lon="0.06928">
        <ele>2431</ele>
        <time>2012-12-22T12:34:54Z</time>
      </trkpt>
      <trkpt lat="42.83154" lon="0.06931">
        <ele>2431</ele>
        <time>2012-12-22T12:34:58Z</time>
      </trkpt>
      <trkpt lat="42.83155" lon="0.06933">
        <ele>2431</ele>
        <time>2012-12-22T12:35:00Z</time>
      </trkpt>
      <trkpt lat="42.83155" lon="0.06935">
        <ele>2431</ele>
        <time>2012-12-22T12:35:02Z</time>
      </trkpt>
      <trkpt lat="42.83156" lon="0.06937">
        <ele>2432</ele>
        <time>2012-12-22T12:35:04Z</time>
      </trkpt>
      <trkpt lat="42.83156" lon="0.06938">
        <ele>2432</ele>
        <time>2012-12-22T12:35:06Z</time>
      </trkpt>
      <trkpt lat="42.83157" lon="0.0694">
        <ele>2432</ele>
        <time>2012-12-22T12:35:08Z</time>
      </trkpt>
      <trkpt lat="42.83157" lon="0.06942">
        <ele>2433</ele>
        <time>2012-12-22T12:35:10Z</time>
      </trkpt>
      <trkpt lat="42.83157" lon="0.06944">
        <ele>2433</ele>
        <time>2012-12-22T12:35:12Z</time>
      </trkpt>
      <trkpt lat="42.83157" lon="0.06945">
        <ele>2433</ele>
        <time>2012-12-22T12:35:14Z</time>
      </trkpt>
      <trkpt lat="42.83156" lon="0.06944">
        <ele>2434</ele>
        <time>2012-12-22T12:35:29Z</time>
      </trkpt>
      <trkpt lat="42.83155" lon="0.06943">
        <ele>2434</ele>
        <time>2012-12-22T12:35:32Z</time>
      </trkpt>
      <trkpt lat="42.83153" lon="0.06942">
        <ele>2434</ele>
        <time>2012-12-22T12:35:35Z</time>
      </trkpt>
      <trkpt lat="42.83152" lon="0.0694">
        <ele>2434</ele>
        <time>2012-12-22T12:35:38Z</time>
      </trkpt>
      <trkpt lat="42.83151" lon="0.06938">
        <ele>2434</ele>
        <time>2012-12-22T12:35:40Z</time>
      </trkpt>
      <trkpt lat="42.8315" lon="0.06936">
        <ele>2436</ele>
        <time>2012-12-22T12:35:57Z</time>
      </trkpt>
      <trkpt lat="42.83149" lon="0.06935">
        <ele>2436</ele>
        <time>2012-12-22T12:35:59Z</time>
      </trkpt>
      <trkpt lat="42.83148" lon="0.06933">
        <ele>2436</ele>
        <time>2012-12-22T12:36:01Z</time>
      </trkpt>
      <trkpt lat="42.83147" lon="0.06932">
        <ele>2436</ele>
        <time>2012-12-22T12:36:03Z</time>
      </trkpt>
      <trkpt lat="42.83147" lon="0.0693">
        <ele>2437</ele>
        <time>2012-12-22T12:36:05Z</time>
      </trkpt>
      <trkpt lat="42.83147" lon="0.06928">
        <ele>2437</ele>
        <time>2012-12-22T12:36:07Z</time>
      </trkpt>
      <trkpt lat="42.83145" lon="0.06928">
        <ele>2439</ele>
        <time>2012-12-22T12:36:15Z</time>
      </trkpt>
      <trkpt lat="42.83145" lon="0.06929">
        <ele>2439</ele>
        <time>2012-12-22T12:36:18Z</time>
      </trkpt>
      <trkpt lat="42.83144" lon="0.06932">
        <ele>2440</ele>
        <time>2012-12-22T12:36:21Z</time>
      </trkpt>
      <trkpt lat="42.83144" lon="0.06933">
        <ele>2440</ele>
        <time>2012-12-22T12:36:23Z</time>
      </trkpt>
      <trkpt lat="42.83144" lon="0.06935">
        <ele>2441</ele>
        <time>2012-12-22T12:36:25Z</time>
      </trkpt>
      <trkpt lat="42.83144" lon="0.06936">
        <ele>2441</ele>
        <time>2012-12-22T12:36:27Z</time>
      </trkpt>
      <trkpt lat="42.83144" lon="0.06938">
        <ele>2441</ele>
        <time>2012-12-22T12:36:29Z</time>
      </trkpt>
      <trkpt lat="42.83144" lon="0.06939">
        <ele>2441</ele>
        <time>2012-12-22T12:36:31Z</time>
      </trkpt>
      <trkpt lat="42.83144" lon="0.06941">
        <ele>2441</ele>
        <time>2012-12-22T12:36:33Z</time>
      </trkpt>
      <trkpt lat="42.83144" lon="0.06943">
        <ele>2442</ele>
        <time>2012-12-22T12:36:35Z</time>
      </trkpt>
      <trkpt lat="42.83144" lon="0.06945">
        <ele>2442</ele>
        <time>2012-12-22T12:36:37Z</time>
      </trkpt>
      <trkpt lat="42.83144" lon="0.06946">
        <ele>2442</ele>
        <time>2012-12-22T12:36:39Z</time>
      </trkpt>
      <trkpt lat="42.83144" lon="0.06948">
        <ele>2442</ele>
        <time>2012-12-22T12:36:41Z</time>
      </trkpt>
      <trkpt lat="42.83144" lon="0.0695">
        <ele>2444</ele>
        <time>2012-12-22T12:37:01Z</time>
      </trkpt>
      <trkpt lat="42.83144" lon="0.06952">
        <ele>2444</ele>
        <time>2012-12-22T12:37:04Z</time>
      </trkpt>
      <trkpt lat="42.83144" lon="0.06954">
        <ele>2444</ele>
        <time>2012-12-22T12:37:07Z</time>
      </trkpt>
      <trkpt lat="42.83144" lon="0.06956">
        <ele>2445</ele>
        <time>2012-12-22T12:37:10Z</time>
      </trkpt>
      <trkpt lat="42.83145" lon="0.06957">
        <ele>2445</ele>
        <time>2012-12-22T12:37:12Z</time>
      </trkpt>
      <trkpt lat="42.83145" lon="0.06959">
        <ele>2445</ele>
        <time>2012-12-22T12:37:15Z</time>
      </trkpt>
      <trkpt lat="42.83146" lon="0.06961">
        <ele>2446</ele>
        <time>2012-12-22T12:37:18Z</time>
      </trkpt>
      <trkpt lat="42.83146" lon="0.06963">
        <ele>2446</ele>
        <time>2012-12-22T12:37:20Z</time>
      </trkpt>
      <trkpt lat="42.83147" lon="0.06964">
        <ele>2446</ele>
        <time>2012-12-22T12:37:22Z</time>
      </trkpt>
      <trkpt lat="42.83148" lon="0.06966">
        <ele>2447</ele>
        <time>2012-12-22T12:37:25Z</time>
      </trkpt>
      <trkpt lat="42.83149" lon="0.06967">
        <ele>2447</ele>
        <time>2012-12-22T12:37:27Z</time>
      </trkpt>
      <trkpt lat="42.83149" lon="0.0697">
        <ele>2448</ele>
        <time>2012-12-22T12:37:30Z</time>
      </trkpt>
      <trkpt lat="42.8315" lon="0.06971">
        <ele>2448</ele>
        <time>2012-12-22T12:37:33Z</time>
      </trkpt>
      <trkpt lat="42.83151" lon="0.06973">
        <ele>2448</ele>
        <time>2012-12-22T12:37:35Z</time>
      </trkpt>
      <trkpt lat="42.8315" lon="0.06973">
        <ele>2449</ele>
        <time>2012-12-22T12:37:55Z</time>
      </trkpt>
      <trkpt lat="42.83149" lon="0.06973">
        <ele>2449</ele>
        <time>2012-12-22T12:37:57Z</time>
      </trkpt>
      <trkpt lat="42.83147" lon="0.06972">
        <ele>2449</ele>
        <time>2012-12-22T12:37:59Z</time>
      </trkpt>
      <trkpt lat="42.83146" lon="0.06972">
        <ele>2449</ele>
        <time>2012-12-22T12:38:01Z</time>
      </trkpt>
      <trkpt lat="42.83145" lon="0.06972">
        <ele>2449</ele>
        <time>2012-12-22T12:38:03Z</time>
      </trkpt>
      <trkpt lat="42.83144" lon="0.06971">
        <ele>2449</ele>
        <time>2012-12-22T12:38:05Z</time>
      </trkpt>
      <trkpt lat="42.83142" lon="0.06971">
        <ele>2449</ele>
        <time>2012-12-22T12:38:07Z</time>
      </trkpt>
      <trkpt lat="42.83141" lon="0.0697">
        <ele>2449</ele>
        <time>2012-12-22T12:38:09Z</time>
      </trkpt>
      <trkpt lat="42.8314" lon="0.0697">
        <ele>2449</ele>
        <time>2012-12-22T12:38:11Z</time>
      </trkpt>
      <trkpt lat="42.83139" lon="0.06969">
        <ele>2449</ele>
        <time>2012-12-22T12:38:13Z</time>
      </trkpt>
      <trkpt lat="42.83138" lon="0.06968">
        <ele>2449</ele>
        <time>2012-12-22T12:38:28Z</time>
      </trkpt>
      <trkpt lat="42.83136" lon="0.06967">
        <ele>2450</ele>
        <time>2012-12-22T12:38:45Z</time>
      </trkpt>
      <trkpt lat="42.83135" lon="0.06966">
        <ele>2451</ele>
        <time>2012-12-22T12:38:48Z</time>
      </trkpt>
      <trkpt lat="42.83133" lon="0.06965">
        <ele>2451</ele>
        <time>2012-12-22T12:38:51Z</time>
      </trkpt>
      <trkpt lat="42.83132" lon="0.06963">
        <ele>2452</ele>
        <time>2012-12-22T12:38:54Z</time>
      </trkpt>
      <trkpt lat="42.83131" lon="0.06962">
        <ele>2453</ele>
        <time>2012-12-22T12:38:57Z</time>
      </trkpt>
      <trkpt lat="42.83129" lon="0.06961">
        <ele>2453</ele>
        <time>2012-12-22T12:39:00Z</time>
      </trkpt>
      <trkpt lat="42.83128" lon="0.0696">
        <ele>2454</ele>
        <time>2012-12-22T12:39:03Z</time>
      </trkpt>
      <trkpt lat="42.83126" lon="0.06958">
        <ele>2454</ele>
        <time>2012-12-22T12:39:06Z</time>
      </trkpt>
      <trkpt lat="42.83125" lon="0.06957">
        <ele>2455</ele>
        <time>2012-12-22T12:39:09Z</time>
      </trkpt>
      <trkpt lat="42.83123" lon="0.06955">
        <ele>2455</ele>
        <time>2012-12-22T12:39:12Z</time>
      </trkpt>
      <trkpt lat="42.83122" lon="0.06953">
        <ele>2455</ele>
        <time>2012-12-22T12:39:15Z</time>
      </trkpt>
      <trkpt lat="42.83121" lon="0.06951">
        <ele>2456</ele>
        <time>2012-12-22T12:39:18Z</time>
      </trkpt>
      <trkpt lat="42.8312" lon="0.0695">
        <ele>2456</ele>
        <time>2012-12-22T12:39:20Z</time>
      </trkpt>
      <trkpt lat="42.8312" lon="0.06948">
        <ele>2456</ele>
        <time>2012-12-22T12:39:22Z</time>
      </trkpt>
      <trkpt lat="42.83119" lon="0.06946">
        <ele>2457</ele>
        <time>2012-12-22T12:39:24Z</time>
      </trkpt>
      <trkpt lat="42.83118" lon="0.06947">
        <ele>2458</ele>
        <time>2012-12-22T12:39:39Z</time>
      </trkpt>
      <trkpt lat="42.83117" lon="0.06949">
        <ele>2458</ele>
        <time>2012-12-22T12:39:42Z</time>
      </trkpt>
      <trkpt lat="42.83117" lon="0.06951">
        <ele>2459</ele>
        <time>2012-12-22T12:39:44Z</time>
      </trkpt>
      <trkpt lat="42.83117" lon="0.06952">
        <ele>2459</ele>
        <time>2012-12-22T12:39:46Z</time>
      </trkpt>
      <trkpt lat="42.83116" lon="0.06954">
        <ele>2459</ele>
        <time>2012-12-22T12:39:48Z</time>
      </trkpt>
      <trkpt lat="42.83116" lon="0.06956">
        <ele>2459</ele>
        <time>2012-12-22T12:39:50Z</time>
      </trkpt>
      <trkpt lat="42.83116" lon="0.06957">
        <ele>2460</ele>
        <time>2012-12-22T12:39:52Z</time>
      </trkpt>
      <trkpt lat="42.83115" lon="0.06959">
        <ele>2460</ele>
        <time>2012-12-22T12:39:54Z</time>
      </trkpt>
      <trkpt lat="42.83115" lon="0.06961">
        <ele>2461</ele>
        <time>2012-12-22T12:39:56Z</time>
      </trkpt>
      <trkpt lat="42.83115" lon="0.06963">
        <ele>2461</ele>
        <time>2012-12-22T12:39:58Z</time>
      </trkpt>
      <trkpt lat="42.83116" lon="0.06965">
        <ele>2462</ele>
        <time>2012-12-22T12:40:00Z</time>
      </trkpt>
      <trkpt lat="42.83116" lon="0.06966">
        <ele>2462</ele>
        <time>2012-12-22T12:40:02Z</time>
      </trkpt>
      <trkpt lat="42.83115" lon="0.06965">
        <ele>2463</ele>
        <time>2012-12-22T12:40:25Z</time>
      </trkpt>
      <trkpt lat="42.83113" lon="0.06964">
        <ele>2463</ele>
        <time>2012-12-22T12:40:28Z</time>
      </trkpt>
      <trkpt lat="42.83112" lon="0.06963">
        <ele>2463</ele>
        <time>2012-12-22T12:40:31Z</time>
      </trkpt>
      <trkpt lat="42.8311" lon="0.06962">
        <ele>2463</ele>
        <time>2012-12-22T12:40:34Z</time>
      </trkpt>
      <trkpt lat="42.83109" lon="0.0696">
        <ele>2463</ele>
        <time>2012-12-22T12:41:02Z</time>
      </trkpt>
      <trkpt lat="42.83109" lon="0.06959">
        <ele>2463</ele>
        <time>2012-12-22T12:41:05Z</time>
      </trkpt>
      <trkpt lat="42.83108" lon="0.06961">
        <ele>2464</ele>
        <time>2012-12-22T12:41:10Z</time>
      </trkpt>
      <trkpt lat="42.83107" lon="0.06962">
        <ele>2464</ele>
        <time>2012-12-22T12:41:12Z</time>
      </trkpt>
      <trkpt lat="42.83107" lon="0.06964">
        <ele>2464</ele>
        <time>2012-12-22T12:41:14Z</time>
      </trkpt>
      <trkpt lat="42.83106" lon="0.06966">
        <ele>2464</ele>
        <time>2012-12-22T12:41:16Z</time>
      </trkpt>
      <trkpt lat="42.83106" lon="0.06967">
        <ele>2465</ele>
        <time>2012-12-22T12:41:18Z</time>
      </trkpt>
      <trkpt lat="42.83105" lon="0.06969">
        <ele>2465</ele>
        <time>2012-12-22T12:41:45Z</time>
      </trkpt>
      <trkpt lat="42.83105" lon="0.06971">
        <ele>2466</ele>
        <time>2012-12-22T12:42:37Z</time>
      </trkpt>
      <trkpt lat="42.83104" lon="0.06972">
        <ele>2466</ele>
        <time>2012-12-22T12:43:43Z</time>
      </trkpt>
    </trkseg>
  </trk>
</gpx>